<?xml version="1.0" encoding="UTF-8" standalone="no" ?>
<gpx xmlns="http://www.topografix.com/GPX/1/1" xmlns:xsi="http://www.w3.org/2001/XMLSchema-instance" xsi:schemaLocation="http://www.topografix.com/GPX/1/1 http://www.topografix.com/GPX/1/1/gpx.xsd" version="1.1" creator="VisuGPX - https://www.visugpx.com">
  <metadata>
    <name>Cascades du Hérisson, Pic de l'Aigle, Belvédère des 4 lacs</name>
    <desc><![CDATA[Cascades du Hérisson, Pic de l'Aigle, Belvédère des 4 lacs]]></desc>
  </metadata>
  <trk>
    <name><![CDATA[Move]]></name>
    <trkseg>
      <trkpt lat="46.62105" lon="5.82955">
        <ele>735.48100559844</ele>
        <time>2019-06-17T05:34:41.405Z</time>
      </trkpt>
      <trkpt lat="46.62095" lon="5.82958">
        <ele>735.40002441406</ele>
        <time>2019-06-17T05:34:48.404Z</time>
      </trkpt>
      <trkpt lat="46.62087" lon="5.82965">
        <ele>735.20001220703</ele>
        <time>2019-06-17T05:34:54.405Z</time>
      </trkpt>
      <trkpt lat="46.62078" lon="5.8297">
        <ele>734.51907517254</ele>
        <time>2019-06-17T05:35:00.405Z</time>
      </trkpt>
      <trkpt lat="46.62067" lon="5.82971">
        <ele>733.71898188906</ele>
        <time>2019-06-17T05:35:07.405Z</time>
      </trkpt>
      <trkpt lat="46.62058" lon="5.82973">
        <ele>733.20001220703</ele>
        <time>2019-06-17T05:35:13.405Z</time>
      </trkpt>
      <trkpt lat="46.62048" lon="5.82976">
        <ele>733.20001220703</ele>
        <time>2019-06-17T05:35:19.404Z</time>
      </trkpt>
      <trkpt lat="46.62038" lon="5.82977">
        <ele>733.08080621172</ele>
        <time>2019-06-17T05:35:25.404Z</time>
      </trkpt>
      <trkpt lat="46.62029" lon="5.82972">
        <ele>733.20001220703</ele>
        <time>2019-06-17T05:35:33.405Z</time>
      </trkpt>
      <trkpt lat="46.6202" lon="5.82971">
        <ele>733.48080340781</ele>
        <time>2019-06-17T05:35:40.404Z</time>
      </trkpt>
      <trkpt lat="46.6201" lon="5.82972">
        <ele>733.88079144453</ele>
        <time>2019-06-17T05:35:46.404Z</time>
      </trkpt>
      <trkpt lat="46.62002" lon="5.82979">
        <ele>733.79998779297</ele>
        <time>2019-06-17T05:35:50.405Z</time>
      </trkpt>
      <trkpt lat="46.61994" lon="5.82988">
        <ele>733.91919634844</ele>
        <time>2019-06-17T05:35:54.404Z</time>
      </trkpt>
      <trkpt lat="46.61988" lon="5.83001">
        <ele>733.43839294063</ele>
        <time>2019-06-17T05:36:00.404Z</time>
      </trkpt>
      <trkpt lat="46.61978" lon="5.83006">
        <ele>733</ele>
        <time>2019-06-17T05:36:05.405Z</time>
      </trkpt>
      <trkpt lat="46.61968" lon="5.83007">
        <ele>732.79998779297</ele>
        <time>2019-06-17T05:36:11.403Z</time>
      </trkpt>
      <trkpt lat="46.6196" lon="5.83012">
        <ele>732</ele>
        <time>2019-06-17T05:36:17.404Z</time>
      </trkpt>
      <trkpt lat="46.61951" lon="5.8301">
        <ele>732.51999511719</ele>
        <time>2019-06-17T05:36:26.400Z</time>
      </trkpt>
      <trkpt lat="46.6194" lon="5.83011">
        <ele>731.91919634844</ele>
        <time>2019-06-17T05:36:36.404Z</time>
      </trkpt>
      <trkpt lat="46.61931" lon="5.83017">
        <ele>731.68049915059</ele>
        <time>2019-06-17T05:36:42.403Z</time>
      </trkpt>
      <trkpt lat="46.61922" lon="5.83024">
        <ele>731.91999511719</ele>
        <time>2019-06-17T05:36:46.400Z</time>
      </trkpt>
      <trkpt lat="46.61912" lon="5.83031">
        <ele>731.79998779297</ele>
        <time>2019-06-17T05:36:51.400Z</time>
      </trkpt>
      <trkpt lat="46.61904" lon="5.8304">
        <ele>731.40002441406</ele>
        <time>2019-06-17T05:36:58.401Z</time>
      </trkpt>
      <trkpt lat="46.61896" lon="5.83044">
        <ele>731.51999511719</ele>
        <time>2019-06-17T05:37:06.400Z</time>
      </trkpt>
      <trkpt lat="46.61887" lon="5.83052">
        <ele>732.20001220703</ele>
        <time>2019-06-17T05:37:13.404Z</time>
      </trkpt>
      <trkpt lat="46.6188" lon="5.83062">
        <ele>731.32001953125</ele>
        <time>2019-06-17T05:37:18.400Z</time>
      </trkpt>
      <trkpt lat="46.61873" lon="5.8307">
        <ele>730.51979548594</ele>
        <time>2019-06-17T05:37:27.401Z</time>
      </trkpt>
      <trkpt lat="46.61867" lon="5.8308">
        <ele>729.79998779297</ele>
        <time>2019-06-17T05:37:36.401Z</time>
      </trkpt>
      <trkpt lat="46.6186" lon="5.8309">
        <ele>728.71978321797</ele>
        <time>2019-06-17T05:37:42.401Z</time>
      </trkpt>
      <trkpt lat="46.61854" lon="5.83101">
        <ele>728.67998046875</ele>
        <time>2019-06-17T05:37:48.400Z</time>
      </trkpt>
      <trkpt lat="46.61853" lon="5.83117">
        <ele>727.79998779297</ele>
        <time>2019-06-17T05:37:57.401Z</time>
      </trkpt>
      <trkpt lat="46.6185" lon="5.8313">
        <ele>728</ele>
        <time>2019-06-17T05:38:01.401Z</time>
      </trkpt>
      <trkpt lat="46.61845" lon="5.83141">
        <ele>727.080204575</ele>
        <time>2019-06-17T05:38:09.401Z</time>
      </trkpt>
      <trkpt lat="46.6184" lon="5.83152">
        <ele>727.79998779297</ele>
        <time>2019-06-17T05:38:17.400Z</time>
      </trkpt>
      <trkpt lat="46.61835" lon="5.83167">
        <ele>726.87999267578</ele>
        <time>2019-06-17T05:38:23.400Z</time>
      </trkpt>
      <trkpt lat="46.6183" lon="5.83179">
        <ele>726.71998291016</ele>
        <time>2019-06-17T05:38:26.400Z</time>
      </trkpt>
      <trkpt lat="46.61824" lon="5.83191">
        <ele>726.40002441406</ele>
        <time>2019-06-17T05:38:30.400Z</time>
      </trkpt>
      <trkpt lat="46.61819" lon="5.83202">
        <ele>726.12000732422</ele>
        <time>2019-06-17T05:38:38.400Z</time>
      </trkpt>
      <trkpt lat="46.61815" lon="5.83214">
        <ele>726</ele>
        <time>2019-06-17T05:38:45.400Z</time>
      </trkpt>
      <trkpt lat="46.61806" lon="5.83216">
        <ele>725.20001220703</ele>
        <time>2019-06-17T05:38:54.400Z</time>
      </trkpt>
      <trkpt lat="46.61799" lon="5.83227">
        <ele>725</ele>
        <time>2019-06-17T05:39:05.000Z</time>
      </trkpt>
      <trkpt lat="46.61796" lon="5.83239">
        <ele>724.59997558594</ele>
        <time>2019-06-17T05:39:13.000Z</time>
      </trkpt>
      <trkpt lat="46.6179" lon="5.83252">
        <ele>723.59997558594</ele>
        <time>2019-06-17T05:39:21.000Z</time>
      </trkpt>
      <trkpt lat="46.61786" lon="5.83264">
        <ele>721.79998779297</ele>
        <time>2019-06-17T05:39:28.000Z</time>
      </trkpt>
      <trkpt lat="46.61782" lon="5.83277">
        <ele>719.40002441406</ele>
        <time>2019-06-17T05:39:35.000Z</time>
      </trkpt>
      <trkpt lat="46.61778" lon="5.8329">
        <ele>718.40002441406</ele>
        <time>2019-06-17T05:39:43.000Z</time>
      </trkpt>
      <trkpt lat="46.61778" lon="5.83303">
        <ele>716.59997558594</ele>
        <time>2019-06-17T05:39:51.000Z</time>
      </trkpt>
      <trkpt lat="46.61769" lon="5.83313">
        <ele>715.59997558594</ele>
        <time>2019-06-17T05:39:56.000Z</time>
      </trkpt>
      <trkpt lat="46.61764" lon="5.83324">
        <ele>713.79998779297</ele>
        <time>2019-06-17T05:40:03.000Z</time>
      </trkpt>
      <trkpt lat="46.61757" lon="5.83334">
        <ele>712.79998779297</ele>
        <time>2019-06-17T05:40:09.000Z</time>
      </trkpt>
      <trkpt lat="46.61757" lon="5.83347">
        <ele>710.79998779297</ele>
        <time>2019-06-17T05:40:18.000Z</time>
      </trkpt>
      <trkpt lat="46.61751" lon="5.83358">
        <ele>709.59997558594</ele>
        <time>2019-06-17T05:40:25.000Z</time>
      </trkpt>
      <trkpt lat="46.61747" lon="5.83374">
        <ele>708.40002441406</ele>
        <time>2019-06-17T05:40:32.000Z</time>
      </trkpt>
      <trkpt lat="46.61748" lon="5.83387">
        <ele>707.20001220703</ele>
        <time>2019-06-17T05:40:38.000Z</time>
      </trkpt>
      <trkpt lat="46.61742" lon="5.83399">
        <ele>705.40002441406</ele>
        <time>2019-06-17T05:40:46.000Z</time>
      </trkpt>
      <trkpt lat="46.61738" lon="5.83411">
        <ele>703.79998779297</ele>
        <time>2019-06-17T05:40:53.000Z</time>
      </trkpt>
      <trkpt lat="46.61733" lon="5.83422">
        <ele>702.40002441406</ele>
        <time>2019-06-17T05:41:00.000Z</time>
      </trkpt>
      <trkpt lat="46.61729" lon="5.83435">
        <ele>700.40002441406</ele>
        <time>2019-06-17T05:41:07.000Z</time>
      </trkpt>
      <trkpt lat="46.6172" lon="5.83444">
        <ele>697.79998779297</ele>
        <time>2019-06-17T05:41:15.000Z</time>
      </trkpt>
      <trkpt lat="46.61713" lon="5.83452">
        <ele>697</ele>
        <time>2019-06-17T05:41:19.000Z</time>
      </trkpt>
      <trkpt lat="46.61708" lon="5.83464">
        <ele>695.79998779297</ele>
        <time>2019-06-17T05:41:25.000Z</time>
      </trkpt>
      <trkpt lat="46.61705" lon="5.83477">
        <ele>694.79998779297</ele>
        <time>2019-06-17T05:41:32.000Z</time>
      </trkpt>
      <trkpt lat="46.61698" lon="5.83487">
        <ele>693.20001220703</ele>
        <time>2019-06-17T05:41:40.000Z</time>
      </trkpt>
      <trkpt lat="46.61697" lon="5.83504">
        <ele>692.20001220703</ele>
        <time>2019-06-17T05:41:46.000Z</time>
      </trkpt>
      <trkpt lat="46.61696" lon="5.83518">
        <ele>691.20001220703</ele>
        <time>2019-06-17T05:41:52.000Z</time>
      </trkpt>
      <trkpt lat="46.61692" lon="5.83529">
        <ele>690.40002441406</ele>
        <time>2019-06-17T05:42:03.000Z</time>
      </trkpt>
      <trkpt lat="46.61696" lon="5.83541">
        <ele>689.79998779297</ele>
        <time>2019-06-17T05:42:31.000Z</time>
      </trkpt>
      <trkpt lat="46.61691" lon="5.83529">
        <ele>689.59997558594</ele>
        <time>2019-06-17T05:42:39.000Z</time>
      </trkpt>
      <trkpt lat="46.61696" lon="5.83541">
        <ele>689.79998779297</ele>
        <time>2019-06-17T05:42:51.000Z</time>
      </trkpt>
      <trkpt lat="46.617" lon="5.83552">
        <ele>690.20001220703</ele>
        <time>2019-06-17T05:42:57.000Z</time>
      </trkpt>
      <trkpt lat="46.61703" lon="5.83566">
        <ele>690.40002441406</ele>
        <time>2019-06-17T05:43:06.000Z</time>
      </trkpt>
      <trkpt lat="46.61706" lon="5.83581">
        <ele>688.79998779297</ele>
        <time>2019-06-17T05:43:13.000Z</time>
      </trkpt>
      <trkpt lat="46.61705" lon="5.83594">
        <ele>687</ele>
        <time>2019-06-17T05:43:22.000Z</time>
      </trkpt>
      <trkpt lat="46.617" lon="5.83608">
        <ele>686.59997558594</ele>
        <time>2019-06-17T05:43:27.000Z</time>
      </trkpt>
      <trkpt lat="46.61693" lon="5.8362">
        <ele>685.59997558594</ele>
        <time>2019-06-17T05:43:34.000Z</time>
      </trkpt>
      <trkpt lat="46.61688" lon="5.83634">
        <ele>685.20001220703</ele>
        <time>2019-06-17T05:43:40.000Z</time>
      </trkpt>
      <trkpt lat="46.61682" lon="5.83646">
        <ele>684</ele>
        <time>2019-06-17T05:43:45.000Z</time>
      </trkpt>
      <trkpt lat="46.61676" lon="5.83658">
        <ele>683.20001220703</ele>
        <time>2019-06-17T05:43:52.000Z</time>
      </trkpt>
      <trkpt lat="46.61674" lon="5.83672">
        <ele>682.20001220703</ele>
        <time>2019-06-17T05:43:59.000Z</time>
      </trkpt>
      <trkpt lat="46.61673" lon="5.83686">
        <ele>682</ele>
        <time>2019-06-17T05:44:05.000Z</time>
      </trkpt>
      <trkpt lat="46.61677" lon="5.83698">
        <ele>681.40002441406</ele>
        <time>2019-06-17T05:44:12.000Z</time>
      </trkpt>
      <trkpt lat="46.61676" lon="5.83712">
        <ele>680.20001220703</ele>
        <time>2019-06-17T05:44:19.000Z</time>
      </trkpt>
      <trkpt lat="46.61674" lon="5.83725">
        <ele>679.20001220703</ele>
        <time>2019-06-17T05:44:25.000Z</time>
      </trkpt>
      <trkpt lat="46.61674" lon="5.83741">
        <ele>678.59997558594</ele>
        <time>2019-06-17T05:44:31.000Z</time>
      </trkpt>
      <trkpt lat="46.61673" lon="5.83756">
        <ele>678</ele>
        <time>2019-06-17T05:44:37.000Z</time>
      </trkpt>
      <trkpt lat="46.61672" lon="5.83771">
        <ele>676</ele>
        <time>2019-06-17T05:44:46.000Z</time>
      </trkpt>
      <trkpt lat="46.61672" lon="5.83784">
        <ele>674.40002441406</ele>
        <time>2019-06-17T05:44:52.000Z</time>
      </trkpt>
      <trkpt lat="46.61674" lon="5.83797">
        <ele>674</ele>
        <time>2019-06-17T05:44:58.000Z</time>
      </trkpt>
      <trkpt lat="46.61672" lon="5.83812">
        <ele>673</ele>
        <time>2019-06-17T05:45:07.000Z</time>
      </trkpt>
      <trkpt lat="46.61672" lon="5.83826">
        <ele>672.20001220703</ele>
        <time>2019-06-17T05:45:14.000Z</time>
      </trkpt>
      <trkpt lat="46.6167" lon="5.8384">
        <ele>670.40002441406</ele>
        <time>2019-06-17T05:45:22.000Z</time>
      </trkpt>
      <trkpt lat="46.61666" lon="5.83852">
        <ele>669.20001220703</ele>
        <time>2019-06-17T05:45:32.000Z</time>
      </trkpt>
      <trkpt lat="46.61664" lon="5.83867">
        <ele>667.40002441406</ele>
        <time>2019-06-17T05:45:38.000Z</time>
      </trkpt>
      <trkpt lat="46.61665" lon="5.83882">
        <ele>667</ele>
        <time>2019-06-17T05:45:44.000Z</time>
      </trkpt>
      <trkpt lat="46.61665" lon="5.83898">
        <ele>666.20001220703</ele>
        <time>2019-06-17T05:45:50.000Z</time>
      </trkpt>
      <trkpt lat="46.61667" lon="5.83911">
        <ele>665.59997558594</ele>
        <time>2019-06-17T05:45:56.000Z</time>
      </trkpt>
      <trkpt lat="46.61669" lon="5.83925">
        <ele>664</ele>
        <time>2019-06-17T05:46:05.000Z</time>
      </trkpt>
      <trkpt lat="46.61667" lon="5.8394">
        <ele>663.40002441406</ele>
        <time>2019-06-17T05:46:12.000Z</time>
      </trkpt>
      <trkpt lat="46.61668" lon="5.83956">
        <ele>661.59997558594</ele>
        <time>2019-06-17T05:46:19.000Z</time>
      </trkpt>
      <trkpt lat="46.61667" lon="5.83969">
        <ele>660.59997558594</ele>
        <time>2019-06-17T05:46:27.000Z</time>
      </trkpt>
      <trkpt lat="46.61666" lon="5.83983">
        <ele>659.40002441406</ele>
        <time>2019-06-17T05:46:36.000Z</time>
      </trkpt>
      <trkpt lat="46.61665" lon="5.83997">
        <ele>659</ele>
        <time>2019-06-17T05:46:41.000Z</time>
      </trkpt>
      <trkpt lat="46.61666" lon="5.8401">
        <ele>658.20001220703</ele>
        <time>2019-06-17T05:46:47.000Z</time>
      </trkpt>
      <trkpt lat="46.61668" lon="5.84023">
        <ele>657.59997558594</ele>
        <time>2019-06-17T05:46:55.000Z</time>
      </trkpt>
      <trkpt lat="46.61665" lon="5.84038">
        <ele>656.40002441406</ele>
        <time>2019-06-17T05:47:03.000Z</time>
      </trkpt>
      <trkpt lat="46.61664" lon="5.84051">
        <ele>656.40002441406</ele>
        <time>2019-06-17T05:47:10.000Z</time>
      </trkpt>
      <trkpt lat="46.61664" lon="5.84066">
        <ele>655.40002441406</ele>
        <time>2019-06-17T05:47:16.000Z</time>
      </trkpt>
      <trkpt lat="46.61662" lon="5.84081">
        <ele>654.40002441406</ele>
        <time>2019-06-17T05:47:22.000Z</time>
      </trkpt>
      <trkpt lat="46.61662" lon="5.84095">
        <ele>653.79998779297</ele>
        <time>2019-06-17T05:47:29.000Z</time>
      </trkpt>
      <trkpt lat="46.6166" lon="5.84109">
        <ele>652.59997558594</ele>
        <time>2019-06-17T05:47:35.000Z</time>
      </trkpt>
      <trkpt lat="46.61663" lon="5.84122">
        <ele>651.20001220703</ele>
        <time>2019-06-17T05:47:45.000Z</time>
      </trkpt>
      <trkpt lat="46.61659" lon="5.84134">
        <ele>650.40002441406</ele>
        <time>2019-06-17T05:47:51.000Z</time>
      </trkpt>
      <trkpt lat="46.61656" lon="5.84148">
        <ele>649.20001220703</ele>
        <time>2019-06-17T05:47:59.000Z</time>
      </trkpt>
      <trkpt lat="46.61659" lon="5.84162">
        <ele>648</ele>
        <time>2019-06-17T05:48:04.000Z</time>
      </trkpt>
      <trkpt lat="46.61661" lon="5.84178">
        <ele>647.59997558594</ele>
        <time>2019-06-17T05:48:10.000Z</time>
      </trkpt>
      <trkpt lat="46.61662" lon="5.84191">
        <ele>646.40002441406</ele>
        <time>2019-06-17T05:48:18.000Z</time>
      </trkpt>
      <trkpt lat="46.61664" lon="5.84205">
        <ele>645.20001220703</ele>
        <time>2019-06-17T05:48:24.000Z</time>
      </trkpt>
      <trkpt lat="46.61663" lon="5.84219">
        <ele>644.59997558594</ele>
        <time>2019-06-17T05:48:31.000Z</time>
      </trkpt>
      <trkpt lat="46.61655" lon="5.84227">
        <ele>643.59997558594</ele>
        <time>2019-06-17T05:48:34.000Z</time>
      </trkpt>
      <trkpt lat="46.61657" lon="5.84242">
        <ele>642.59997558594</ele>
        <time>2019-06-17T05:48:41.000Z</time>
      </trkpt>
      <trkpt lat="46.61659" lon="5.84255">
        <ele>641.79998779297</ele>
        <time>2019-06-17T05:48:48.000Z</time>
      </trkpt>
      <trkpt lat="46.6166" lon="5.8427">
        <ele>639.59997558594</ele>
        <time>2019-06-17T05:49:04.000Z</time>
      </trkpt>
      <trkpt lat="46.61652" lon="5.84281">
        <ele>639.59997558594</ele>
        <time>2019-06-17T05:49:09.000Z</time>
      </trkpt>
      <trkpt lat="46.61653" lon="5.84294">
        <ele>638.79998779297</ele>
        <time>2019-06-17T05:49:15.000Z</time>
      </trkpt>
      <trkpt lat="46.61652" lon="5.84309">
        <ele>638.20001220703</ele>
        <time>2019-06-17T05:49:22.000Z</time>
      </trkpt>
      <trkpt lat="46.61651" lon="5.84323">
        <ele>636.40002441406</ele>
        <time>2019-06-17T05:49:30.000Z</time>
      </trkpt>
      <trkpt lat="46.61654" lon="5.84337">
        <ele>635.79998779297</ele>
        <time>2019-06-17T05:49:36.000Z</time>
      </trkpt>
      <trkpt lat="46.61653" lon="5.84351">
        <ele>634.40002441406</ele>
        <time>2019-06-17T05:49:44.000Z</time>
      </trkpt>
      <trkpt lat="46.61651" lon="5.84364">
        <ele>633</ele>
        <time>2019-06-17T05:49:53.000Z</time>
      </trkpt>
      <trkpt lat="46.61647" lon="5.84376">
        <ele>631.59997558594</ele>
        <time>2019-06-17T05:50:00.000Z</time>
      </trkpt>
      <trkpt lat="46.61645" lon="5.84391">
        <ele>630.40002441406</ele>
        <time>2019-06-17T05:50:06.000Z</time>
      </trkpt>
      <trkpt lat="46.61645" lon="5.84406">
        <ele>629.20001220703</ele>
        <time>2019-06-17T05:50:15.000Z</time>
      </trkpt>
      <trkpt lat="46.61639" lon="5.84418">
        <ele>628.20001220703</ele>
        <time>2019-06-17T05:50:21.000Z</time>
      </trkpt>
      <trkpt lat="46.61637" lon="5.84432">
        <ele>627.20001220703</ele>
        <time>2019-06-17T05:50:27.000Z</time>
      </trkpt>
      <trkpt lat="46.61636" lon="5.84447">
        <ele>625.79998779297</ele>
        <time>2019-06-17T05:50:35.000Z</time>
      </trkpt>
      <trkpt lat="46.61641" lon="5.84458">
        <ele>623.40002441406</ele>
        <time>2019-06-17T05:50:46.000Z</time>
      </trkpt>
      <trkpt lat="46.61636" lon="5.8447">
        <ele>622.20001220703</ele>
        <time>2019-06-17T05:50:54.000Z</time>
      </trkpt>
      <trkpt lat="46.61634" lon="5.84484">
        <ele>621.79998779297</ele>
        <time>2019-06-17T05:50:58.000Z</time>
      </trkpt>
      <trkpt lat="46.61627" lon="5.84495">
        <ele>621</ele>
        <time>2019-06-17T05:51:01.000Z</time>
      </trkpt>
      <trkpt lat="46.61622" lon="5.84506">
        <ele>619.40002441406</ele>
        <time>2019-06-17T05:51:15.000Z</time>
      </trkpt>
      <trkpt lat="46.6162" lon="5.84519">
        <ele>618.79998779297</ele>
        <time>2019-06-17T05:51:22.000Z</time>
      </trkpt>
      <trkpt lat="46.61616" lon="5.84532">
        <ele>618</ele>
        <time>2019-06-17T05:51:29.000Z</time>
      </trkpt>
      <trkpt lat="46.61614" lon="5.84546">
        <ele>615.40002441406</ele>
        <time>2019-06-17T05:51:37.000Z</time>
      </trkpt>
      <trkpt lat="46.6161" lon="5.84559">
        <ele>613.79998779297</ele>
        <time>2019-06-17T05:51:46.000Z</time>
      </trkpt>
      <trkpt lat="46.61607" lon="5.84572">
        <ele>612.59997558594</ele>
        <time>2019-06-17T05:51:52.000Z</time>
      </trkpt>
      <trkpt lat="46.61603" lon="5.84586">
        <ele>612.40002441406</ele>
        <time>2019-06-17T05:51:57.000Z</time>
      </trkpt>
      <trkpt lat="46.61597" lon="5.84596">
        <ele>612</ele>
        <time>2019-06-17T05:52:00.000Z</time>
      </trkpt>
      <trkpt lat="46.61591" lon="5.84607">
        <ele>611.40002441406</ele>
        <time>2019-06-17T05:52:06.000Z</time>
      </trkpt>
      <trkpt lat="46.61587" lon="5.8462">
        <ele>610.59997558594</ele>
        <time>2019-06-17T05:52:12.000Z</time>
      </trkpt>
      <trkpt lat="46.61582" lon="5.84632">
        <ele>608.40002441406</ele>
        <time>2019-06-17T05:52:21.000Z</time>
      </trkpt>
      <trkpt lat="46.61575" lon="5.8464">
        <ele>606.59997558594</ele>
        <time>2019-06-17T05:52:31.000Z</time>
      </trkpt>
      <trkpt lat="46.61574" lon="5.84655">
        <ele>606.20001220703</ele>
        <time>2019-06-17T05:52:36.000Z</time>
      </trkpt>
      <trkpt lat="46.61571" lon="5.84668">
        <ele>605.40002441406</ele>
        <time>2019-06-17T05:52:41.000Z</time>
      </trkpt>
      <trkpt lat="46.61566" lon="5.8468">
        <ele>604</ele>
        <time>2019-06-17T05:52:47.000Z</time>
      </trkpt>
      <trkpt lat="46.61558" lon="5.84689">
        <ele>602.59997558594</ele>
        <time>2019-06-17T05:52:55.000Z</time>
      </trkpt>
      <trkpt lat="46.61552" lon="5.84702">
        <ele>601</ele>
        <time>2019-06-17T05:53:05.000Z</time>
      </trkpt>
      <trkpt lat="46.61546" lon="5.84711">
        <ele>600.20001220703</ele>
        <time>2019-06-17T05:53:09.000Z</time>
      </trkpt>
      <trkpt lat="46.61538" lon="5.8472">
        <ele>599</ele>
        <time>2019-06-17T05:53:18.000Z</time>
      </trkpt>
      <trkpt lat="46.61531" lon="5.84729">
        <ele>597.40002441406</ele>
        <time>2019-06-17T05:53:23.000Z</time>
      </trkpt>
      <trkpt lat="46.61524" lon="5.84742">
        <ele>596.59997558594</ele>
        <time>2019-06-17T05:53:28.000Z</time>
      </trkpt>
      <trkpt lat="46.61516" lon="5.84752">
        <ele>595.40002441406</ele>
        <time>2019-06-17T05:53:34.000Z</time>
      </trkpt>
      <trkpt lat="46.61508" lon="5.84759">
        <ele>593.40002441406</ele>
        <time>2019-06-17T05:53:43.000Z</time>
      </trkpt>
      <trkpt lat="46.61505" lon="5.84773">
        <ele>591.59997558594</ele>
        <time>2019-06-17T05:53:54.000Z</time>
      </trkpt>
      <trkpt lat="46.61501" lon="5.84785">
        <ele>590.20001220703</ele>
        <time>2019-06-17T05:54:02.000Z</time>
      </trkpt>
      <trkpt lat="46.61396" lon="5.84902">
        <ele>578</ele>
        <time>2019-06-17T05:55:35.000Z</time>
      </trkpt>
      <trkpt lat="46.6139" lon="5.84915">
        <ele>577.40002441406</ele>
        <time>2019-06-17T05:55:40.000Z</time>
      </trkpt>
      <trkpt lat="46.61384" lon="5.84931">
        <ele>576.59997558594</ele>
        <time>2019-06-17T05:55:48.000Z</time>
      </trkpt>
      <trkpt lat="46.6138" lon="5.84944">
        <ele>575.40002441406</ele>
        <time>2019-06-17T05:55:57.000Z</time>
      </trkpt>
      <trkpt lat="46.61373" lon="5.84955">
        <ele>574.59997558594</ele>
        <time>2019-06-17T05:56:04.000Z</time>
      </trkpt>
      <trkpt lat="46.61363" lon="5.84959">
        <ele>574</ele>
        <time>2019-06-17T05:56:23.000Z</time>
      </trkpt>
      <trkpt lat="46.61373" lon="5.84928">
        <ele>574</ele>
        <time>2019-06-17T05:56:30.000Z</time>
      </trkpt>
      <trkpt lat="46.61401" lon="5.84867">
        <ele>574.20001220703</ele>
        <time>2019-06-17T05:56:33.000Z</time>
      </trkpt>
      <trkpt lat="46.61392" lon="5.84877">
        <ele>574</ele>
        <time>2019-06-17T05:56:34.000Z</time>
      </trkpt>
      <trkpt lat="46.61382" lon="5.84887">
        <ele>574</ele>
        <time>2019-06-17T05:56:35.000Z</time>
      </trkpt>
      <trkpt lat="46.61377" lon="5.84899">
        <ele>574</ele>
        <time>2019-06-17T05:56:37.000Z</time>
      </trkpt>
      <trkpt lat="46.61374" lon="5.84913">
        <ele>573.79998779297</ele>
        <time>2019-06-17T05:56:42.000Z</time>
      </trkpt>
      <trkpt lat="46.61377" lon="5.84926">
        <ele>573.40002441406</ele>
        <time>2019-06-17T05:56:52.000Z</time>
      </trkpt>
      <trkpt lat="46.61378" lon="5.8494">
        <ele>573.79998779297</ele>
        <time>2019-06-17T05:57:00.000Z</time>
      </trkpt>
      <trkpt lat="46.61381" lon="5.84953">
        <ele>573.79998779297</ele>
        <time>2019-06-17T05:57:05.000Z</time>
      </trkpt>
      <trkpt lat="46.61383" lon="5.8497">
        <ele>573.40002441406</ele>
        <time>2019-06-17T05:57:11.000Z</time>
      </trkpt>
      <trkpt lat="46.61375" lon="5.84981">
        <ele>573.59997558594</ele>
        <time>2019-06-17T05:57:15.000Z</time>
      </trkpt>
      <trkpt lat="46.61371" lon="5.84993">
        <ele>574</ele>
        <time>2019-06-17T05:57:20.000Z</time>
      </trkpt>
      <trkpt lat="46.61374" lon="5.85006">
        <ele>574.79998779297</ele>
        <time>2019-06-17T05:57:30.000Z</time>
      </trkpt>
      <trkpt lat="46.61375" lon="5.8502">
        <ele>575.59997558594</ele>
        <time>2019-06-17T05:57:38.000Z</time>
      </trkpt>
      <trkpt lat="46.61369" lon="5.8503">
        <ele>576.20001220703</ele>
        <time>2019-06-17T05:57:45.000Z</time>
      </trkpt>
      <trkpt lat="46.61369" lon="5.85044">
        <ele>576.59997558594</ele>
        <time>2019-06-17T05:57:51.000Z</time>
      </trkpt>
      <trkpt lat="46.61366" lon="5.85059">
        <ele>577</ele>
        <time>2019-06-17T05:57:56.000Z</time>
      </trkpt>
      <trkpt lat="46.61361" lon="5.8507">
        <ele>577.59997558594</ele>
        <time>2019-06-17T05:58:04.000Z</time>
      </trkpt>
      <trkpt lat="46.61362" lon="5.85085">
        <ele>577.59997558594</ele>
        <time>2019-06-17T05:58:13.000Z</time>
      </trkpt>
      <trkpt lat="46.61361" lon="5.85101">
        <ele>577.79998779297</ele>
        <time>2019-06-17T05:58:19.000Z</time>
      </trkpt>
      <trkpt lat="46.61352" lon="5.85108">
        <ele>577.59997558594</ele>
        <time>2019-06-17T05:58:22.000Z</time>
      </trkpt>
      <trkpt lat="46.61342" lon="5.85112">
        <ele>577.20001220703</ele>
        <time>2019-06-17T05:58:24.000Z</time>
      </trkpt>
      <trkpt lat="46.61332" lon="5.85112">
        <ele>577</ele>
        <time>2019-06-17T05:58:27.000Z</time>
      </trkpt>
      <trkpt lat="46.61323" lon="5.8511">
        <ele>576.79998779297</ele>
        <time>2019-06-17T05:58:30.000Z</time>
      </trkpt>
      <trkpt lat="46.6133" lon="5.85122">
        <ele>575.79998779297</ele>
        <time>2019-06-17T05:58:43.000Z</time>
      </trkpt>
      <trkpt lat="46.61334" lon="5.85135">
        <ele>576.59997558594</ele>
        <time>2019-06-17T05:59:36.000Z</time>
      </trkpt>
      <trkpt lat="46.61337" lon="5.85148">
        <ele>577.59997558594</ele>
        <time>2019-06-17T05:59:48.000Z</time>
      </trkpt>
      <trkpt lat="46.61346" lon="5.85153">
        <ele>577.79998779297</ele>
        <time>2019-06-17T05:59:52.000Z</time>
      </trkpt>
      <trkpt lat="46.61356" lon="5.8516">
        <ele>577.79998779297</ele>
        <time>2019-06-17T06:00:00.000Z</time>
      </trkpt>
      <trkpt lat="46.61363" lon="5.85171">
        <ele>577.59997558594</ele>
        <time>2019-06-17T06:00:07.000Z</time>
      </trkpt>
      <trkpt lat="46.61368" lon="5.85182">
        <ele>577.59997558594</ele>
        <time>2019-06-17T06:00:15.000Z</time>
      </trkpt>
      <trkpt lat="46.61377" lon="5.85186">
        <ele>577.59997558594</ele>
        <time>2019-06-17T06:00:21.000Z</time>
      </trkpt>
      <trkpt lat="46.61378" lon="5.852">
        <ele>577.59997558594</ele>
        <time>2019-06-17T06:00:29.000Z</time>
      </trkpt>
      <trkpt lat="46.61383" lon="5.85212">
        <ele>577.59997558594</ele>
        <time>2019-06-17T06:00:35.000Z</time>
      </trkpt>
      <trkpt lat="46.61385" lon="5.85225">
        <ele>580.79998779297</ele>
        <time>2019-06-17T06:00:42.000Z</time>
      </trkpt>
      <trkpt lat="46.61383" lon="5.85243">
        <ele>581.59997558594</ele>
        <time>2019-06-17T06:00:52.000Z</time>
      </trkpt>
      <trkpt lat="46.61387" lon="5.85255">
        <ele>582.20001220703</ele>
        <time>2019-06-17T06:01:03.000Z</time>
      </trkpt>
      <trkpt lat="46.61391" lon="5.85268">
        <ele>583.20001220703</ele>
        <time>2019-06-17T06:01:10.000Z</time>
      </trkpt>
      <trkpt lat="46.61394" lon="5.8528">
        <ele>584</ele>
        <time>2019-06-17T06:01:16.000Z</time>
      </trkpt>
      <trkpt lat="46.614" lon="5.85291">
        <ele>584.79998779297</ele>
        <time>2019-06-17T06:01:21.000Z</time>
      </trkpt>
      <trkpt lat="46.61403" lon="5.85304">
        <ele>585.79998779297</ele>
        <time>2019-06-17T06:01:28.000Z</time>
      </trkpt>
      <trkpt lat="46.61408" lon="5.85315">
        <ele>587.59997558594</ele>
        <time>2019-06-17T06:01:36.000Z</time>
      </trkpt>
      <trkpt lat="46.61415" lon="5.85324">
        <ele>589</ele>
        <time>2019-06-17T06:01:43.000Z</time>
      </trkpt>
      <trkpt lat="46.61413" lon="5.85337">
        <ele>590.20001220703</ele>
        <time>2019-06-17T06:01:53.000Z</time>
      </trkpt>
      <trkpt lat="46.61409" lon="5.85325">
        <ele>591.59997558594</ele>
        <time>2019-06-17T06:02:29.000Z</time>
      </trkpt>
      <trkpt lat="46.61404" lon="5.8534">
        <ele>592.59997558594</ele>
        <time>2019-06-17T06:02:56.000Z</time>
      </trkpt>
      <trkpt lat="46.61413" lon="5.85346">
        <ele>592.59997558594</ele>
        <time>2019-06-17T06:03:04.000Z</time>
      </trkpt>
      <trkpt lat="46.61423" lon="5.85347">
        <ele>593.40002441406</ele>
        <time>2019-06-17T06:03:45.000Z</time>
      </trkpt>
      <trkpt lat="46.61419" lon="5.85359">
        <ele>593.59997558594</ele>
        <time>2019-06-17T06:04:05.000Z</time>
      </trkpt>
      <trkpt lat="46.61408" lon="5.85357">
        <ele>593.40002441406</ele>
        <time>2019-06-17T06:04:40.000Z</time>
      </trkpt>
      <trkpt lat="46.61419" lon="5.85356">
        <ele>593.79998779297</ele>
        <time>2019-06-17T06:04:58.000Z</time>
      </trkpt>
      <trkpt lat="46.61425" lon="5.85345">
        <ele>593.79998779297</ele>
        <time>2019-06-17T06:05:12.000Z</time>
      </trkpt>
      <trkpt lat="46.61432" lon="5.85338">
        <ele>593.79998779297</ele>
        <time>2019-06-17T06:05:43.000Z</time>
      </trkpt>
      <trkpt lat="46.61423" lon="5.85336">
        <ele>593.79998779297</ele>
        <time>2019-06-17T06:06:26.000Z</time>
      </trkpt>
      <trkpt lat="46.61414" lon="5.85333">
        <ele>593.79998779297</ele>
        <time>2019-06-17T06:06:30.000Z</time>
      </trkpt>
      <trkpt lat="46.61422" lon="5.8534">
        <ele>593.79998779297</ele>
        <time>2019-06-17T06:06:53.000Z</time>
      </trkpt>
      <trkpt lat="46.61432" lon="5.85332">
        <ele>593.79998779297</ele>
        <time>2019-06-17T06:07:47.000Z</time>
      </trkpt>
      <trkpt lat="46.6142" lon="5.85329">
        <ele>593.79998779297</ele>
        <time>2019-06-17T06:08:14.000Z</time>
      </trkpt>
      <trkpt lat="46.61429" lon="5.8533">
        <ele>593.79998779297</ele>
        <time>2019-06-17T06:10:59.000Z</time>
      </trkpt>
      <trkpt lat="46.61429" lon="5.85343">
        <ele>593.79998779297</ele>
        <time>2019-06-17T06:11:12.000Z</time>
      </trkpt>
      <trkpt lat="46.6143" lon="5.85358">
        <ele>593.79998779297</ele>
        <time>2019-06-17T06:11:27.000Z</time>
      </trkpt>
      <trkpt lat="46.61435" lon="5.85371">
        <ele>593.79998779297</ele>
        <time>2019-06-17T06:11:34.000Z</time>
      </trkpt>
      <trkpt lat="46.61436" lon="5.85385">
        <ele>593.79998779297</ele>
        <time>2019-06-17T06:11:43.000Z</time>
      </trkpt>
      <trkpt lat="46.61443" lon="5.85392">
        <ele>598</ele>
        <time>2019-06-17T06:11:50.000Z</time>
      </trkpt>
      <trkpt lat="46.6145" lon="5.85405">
        <ele>598.79998779297</ele>
        <time>2019-06-17T06:11:56.000Z</time>
      </trkpt>
      <trkpt lat="46.61441" lon="5.85392">
        <ele>602</ele>
        <time>2019-06-17T06:12:15.000Z</time>
      </trkpt>
      <trkpt lat="46.6145" lon="5.8539">
        <ele>601.79998779297</ele>
        <time>2019-06-17T06:13:05.000Z</time>
      </trkpt>
      <trkpt lat="46.61455" lon="5.85404">
        <ele>603.79998779297</ele>
        <time>2019-06-17T06:13:21.000Z</time>
      </trkpt>
      <trkpt lat="46.61447" lon="5.85413">
        <ele>606.79998779297</ele>
        <time>2019-06-17T06:13:37.000Z</time>
      </trkpt>
      <trkpt lat="46.6144" lon="5.85405">
        <ele>609.20001220703</ele>
        <time>2019-06-17T06:13:54.000Z</time>
      </trkpt>
      <trkpt lat="46.61436" lon="5.85393">
        <ele>609.79998779297</ele>
        <time>2019-06-17T06:14:06.000Z</time>
      </trkpt>
      <trkpt lat="46.61438" lon="5.8538">
        <ele>613.20001220703</ele>
        <time>2019-06-17T06:14:23.000Z</time>
      </trkpt>
      <trkpt lat="46.61444" lon="5.8537">
        <ele>617.79998779297</ele>
        <time>2019-06-17T06:14:41.000Z</time>
      </trkpt>
      <trkpt lat="46.6145" lon="5.85359">
        <ele>619.59997558594</ele>
        <time>2019-06-17T06:14:50.000Z</time>
      </trkpt>
      <trkpt lat="46.61458" lon="5.85368">
        <ele>622.20001220703</ele>
        <time>2019-06-17T06:15:00.000Z</time>
      </trkpt>
      <trkpt lat="46.61467" lon="5.85364">
        <ele>626.79998779297</ele>
        <time>2019-06-17T06:15:23.000Z</time>
      </trkpt>
      <trkpt lat="46.6147" lon="5.85378">
        <ele>629.59997558594</ele>
        <time>2019-06-17T06:15:37.000Z</time>
      </trkpt>
      <trkpt lat="46.61465" lon="5.85391">
        <ele>630.20001220703</ele>
        <time>2019-06-17T06:15:45.000Z</time>
      </trkpt>
      <trkpt lat="46.61463" lon="5.85404">
        <ele>631</ele>
        <time>2019-06-17T06:15:52.000Z</time>
      </trkpt>
      <trkpt lat="46.61464" lon="5.85419">
        <ele>632.20001220703</ele>
        <time>2019-06-17T06:15:58.000Z</time>
      </trkpt>
      <trkpt lat="46.61462" lon="5.85433">
        <ele>633.79998779297</ele>
        <time>2019-06-17T06:16:11.000Z</time>
      </trkpt>
      <trkpt lat="46.61463" lon="5.85446">
        <ele>634</ele>
        <time>2019-06-17T06:16:24.000Z</time>
      </trkpt>
      <trkpt lat="46.61458" lon="5.85458">
        <ele>634.79998779297</ele>
        <time>2019-06-17T06:16:30.000Z</time>
      </trkpt>
      <trkpt lat="46.61455" lon="5.85473">
        <ele>636.20001220703</ele>
        <time>2019-06-17T06:16:38.000Z</time>
      </trkpt>
      <trkpt lat="46.61459" lon="5.85485">
        <ele>637.79998779297</ele>
        <time>2019-06-17T06:16:45.000Z</time>
      </trkpt>
      <trkpt lat="46.61454" lon="5.85498">
        <ele>640.20001220703</ele>
        <time>2019-06-17T06:16:59.000Z</time>
      </trkpt>
      <trkpt lat="46.61464" lon="5.85504">
        <ele>644.40002441406</ele>
        <time>2019-06-17T06:17:24.000Z</time>
      </trkpt>
      <trkpt lat="46.61455" lon="5.85511">
        <ele>645</ele>
        <time>2019-06-17T06:17:30.000Z</time>
      </trkpt>
      <trkpt lat="46.61451" lon="5.85499">
        <ele>648</ele>
        <time>2019-06-17T06:17:47.000Z</time>
      </trkpt>
      <trkpt lat="46.61451" lon="5.85484">
        <ele>648.79998779297</ele>
        <time>2019-06-17T06:17:56.000Z</time>
      </trkpt>
      <trkpt lat="46.61439" lon="5.85495">
        <ele>648</ele>
        <time>2019-06-17T06:18:01.000Z</time>
      </trkpt>
      <trkpt lat="46.61427" lon="5.85504">
        <ele>647.40002441406</ele>
        <time>2019-06-17T06:18:04.000Z</time>
      </trkpt>
      <trkpt lat="46.61417" lon="5.85508">
        <ele>647.40002441406</ele>
        <time>2019-06-17T06:18:07.000Z</time>
      </trkpt>
      <trkpt lat="46.61409" lon="5.85516">
        <ele>646.59997558594</ele>
        <time>2019-06-17T06:18:14.000Z</time>
      </trkpt>
      <trkpt lat="46.614" lon="5.85519">
        <ele>647.59997558594</ele>
        <time>2019-06-17T06:18:30.000Z</time>
      </trkpt>
      <trkpt lat="46.61405" lon="5.8553">
        <ele>647.59997558594</ele>
        <time>2019-06-17T06:19:18.000Z</time>
      </trkpt>
      <trkpt lat="46.61417" lon="5.85573">
        <ele>648.20001220703</ele>
        <time>2019-06-17T06:19:49.000Z</time>
      </trkpt>
      <trkpt lat="46.6141" lon="5.85586">
        <ele>649</ele>
        <time>2019-06-17T06:19:55.000Z</time>
      </trkpt>
      <trkpt lat="46.61402" lon="5.85595">
        <ele>649.20001220703</ele>
        <time>2019-06-17T06:19:58.000Z</time>
      </trkpt>
      <trkpt lat="46.61404" lon="5.85609">
        <ele>648.59997558594</ele>
        <time>2019-06-17T06:20:08.000Z</time>
      </trkpt>
      <trkpt lat="46.61399" lon="5.85621">
        <ele>649</ele>
        <time>2019-06-17T06:20:19.000Z</time>
      </trkpt>
      <trkpt lat="46.61394" lon="5.85635">
        <ele>648.59997558594</ele>
        <time>2019-06-17T06:20:26.000Z</time>
      </trkpt>
      <trkpt lat="46.61395" lon="5.85651">
        <ele>648.59997558594</ele>
        <time>2019-06-17T06:20:38.000Z</time>
      </trkpt>
      <trkpt lat="46.61385" lon="5.85661">
        <ele>648.59997558594</ele>
        <time>2019-06-17T06:20:45.000Z</time>
      </trkpt>
      <trkpt lat="46.61369" lon="5.85674">
        <ele>651</ele>
        <time>2019-06-17T06:20:52.000Z</time>
      </trkpt>
      <trkpt lat="46.61364" lon="5.85686">
        <ele>652.20001220703</ele>
        <time>2019-06-17T06:21:00.000Z</time>
      </trkpt>
      <trkpt lat="46.61355" lon="5.85695">
        <ele>653.40002441406</ele>
        <time>2019-06-17T06:21:05.000Z</time>
      </trkpt>
      <trkpt lat="46.61346" lon="5.85704">
        <ele>654.20001220703</ele>
        <time>2019-06-17T06:21:09.000Z</time>
      </trkpt>
      <trkpt lat="46.61342" lon="5.85718">
        <ele>657</ele>
        <time>2019-06-17T06:21:21.000Z</time>
      </trkpt>
      <trkpt lat="46.61353" lon="5.85709">
        <ele>658.40002441406</ele>
        <time>2019-06-17T06:21:27.000Z</time>
      </trkpt>
      <trkpt lat="46.61363" lon="5.85704">
        <ele>659.20001220703</ele>
        <time>2019-06-17T06:21:31.000Z</time>
      </trkpt>
      <trkpt lat="46.6137" lon="5.85713">
        <ele>662.40002441406</ele>
        <time>2019-06-17T06:21:50.000Z</time>
      </trkpt>
      <trkpt lat="46.6138" lon="5.85714">
        <ele>664.40002441406</ele>
        <time>2019-06-17T06:21:59.000Z</time>
      </trkpt>
      <trkpt lat="46.61389" lon="5.8571">
        <ele>664.59997558594</ele>
        <time>2019-06-17T06:22:02.000Z</time>
      </trkpt>
      <trkpt lat="46.61385" lon="5.85723">
        <ele>669.20001220703</ele>
        <time>2019-06-17T06:22:23.000Z</time>
      </trkpt>
      <trkpt lat="46.61381" lon="5.85735">
        <ele>670.20001220703</ele>
        <time>2019-06-17T06:22:29.000Z</time>
      </trkpt>
      <trkpt lat="46.61385" lon="5.85747">
        <ele>673.79998779297</ele>
        <time>2019-06-17T06:22:51.000Z</time>
      </trkpt>
      <trkpt lat="46.61382" lon="5.85762">
        <ele>674.79998779297</ele>
        <time>2019-06-17T06:22:56.000Z</time>
      </trkpt>
      <trkpt lat="46.61374" lon="5.85768">
        <ele>676.40002441406</ele>
        <time>2019-06-17T06:23:04.000Z</time>
      </trkpt>
      <trkpt lat="46.61377" lon="5.85782">
        <ele>680.40002441406</ele>
        <time>2019-06-17T06:23:28.000Z</time>
      </trkpt>
      <trkpt lat="46.61379" lon="5.85796">
        <ele>681.40002441406</ele>
        <time>2019-06-17T06:23:37.000Z</time>
      </trkpt>
      <trkpt lat="46.61386" lon="5.85806">
        <ele>682.79998779297</ele>
        <time>2019-06-17T06:23:51.000Z</time>
      </trkpt>
      <trkpt lat="46.6138" lon="5.85818">
        <ele>684.20001220703</ele>
        <time>2019-06-17T06:24:01.000Z</time>
      </trkpt>
      <trkpt lat="46.61378" lon="5.85831">
        <ele>685.79998779297</ele>
        <time>2019-06-17T06:24:08.000Z</time>
      </trkpt>
      <trkpt lat="46.61388" lon="5.85832">
        <ele>687</ele>
        <time>2019-06-17T06:24:15.000Z</time>
      </trkpt>
      <trkpt lat="46.61383" lon="5.85844">
        <ele>689.20001220703</ele>
        <time>2019-06-17T06:24:29.000Z</time>
      </trkpt>
      <trkpt lat="46.61392" lon="5.85849">
        <ele>696.40002441406</ele>
        <time>2019-06-17T06:25:10.000Z</time>
      </trkpt>
      <trkpt lat="46.61385" lon="5.85862">
        <ele>697.40002441406</ele>
        <time>2019-06-17T06:25:17.000Z</time>
      </trkpt>
      <trkpt lat="46.61382" lon="5.85877">
        <ele>700.59997558594</ele>
        <time>2019-06-17T06:25:33.000Z</time>
      </trkpt>
      <trkpt lat="46.61373" lon="5.85886">
        <ele>701.20001220703</ele>
        <time>2019-06-17T06:25:37.000Z</time>
      </trkpt>
      <trkpt lat="46.61385" lon="5.85889">
        <ele>704.20001220703</ele>
        <time>2019-06-17T06:25:56.000Z</time>
      </trkpt>
      <trkpt lat="46.61395" lon="5.85887">
        <ele>704.20001220703</ele>
        <time>2019-06-17T06:26:03.000Z</time>
      </trkpt>
      <trkpt lat="46.61407" lon="5.85882">
        <ele>703.59997558594</ele>
        <time>2019-06-17T06:26:05.000Z</time>
      </trkpt>
      <trkpt lat="46.61416" lon="5.85879">
        <ele>703.40002441406</ele>
        <time>2019-06-17T06:26:08.000Z</time>
      </trkpt>
      <trkpt lat="46.6141" lon="5.85889">
        <ele>702.20001220703</ele>
        <time>2019-06-17T06:26:12.000Z</time>
      </trkpt>
      <trkpt lat="46.6142" lon="5.85889">
        <ele>700.40002441406</ele>
        <time>2019-06-17T06:26:19.000Z</time>
      </trkpt>
      <trkpt lat="46.61431" lon="5.85888">
        <ele>699</ele>
        <time>2019-06-17T06:26:25.000Z</time>
      </trkpt>
      <trkpt lat="46.6144" lon="5.85894">
        <ele>696.79998779297</ele>
        <time>2019-06-17T06:26:34.000Z</time>
      </trkpt>
      <trkpt lat="46.61435" lon="5.85906">
        <ele>695.20001220703</ele>
        <time>2019-06-17T06:27:42.000Z</time>
      </trkpt>
      <trkpt lat="46.61427" lon="5.85913">
        <ele>695.40002441406</ele>
        <time>2019-06-17T06:27:57.000Z</time>
      </trkpt>
      <trkpt lat="46.61432" lon="5.85901">
        <ele>694.20001220703</ele>
        <time>2019-06-17T06:28:16.000Z</time>
      </trkpt>
      <trkpt lat="46.61426" lon="5.85891">
        <ele>694.20001220703</ele>
        <time>2019-06-17T06:28:28.000Z</time>
      </trkpt>
      <trkpt lat="46.61417" lon="5.85887">
        <ele>695</ele>
        <time>2019-06-17T06:28:36.000Z</time>
      </trkpt>
      <trkpt lat="46.61408" lon="5.85891">
        <ele>696.40002441406</ele>
        <time>2019-06-17T06:28:43.000Z</time>
      </trkpt>
      <trkpt lat="46.61401" lon="5.85883">
        <ele>698.20001220703</ele>
        <time>2019-06-17T06:28:53.000Z</time>
      </trkpt>
      <trkpt lat="46.61393" lon="5.85875">
        <ele>701</ele>
        <time>2019-06-17T06:29:05.000Z</time>
      </trkpt>
      <trkpt lat="46.61385" lon="5.85882">
        <ele>702.20001220703</ele>
        <time>2019-06-17T06:29:09.000Z</time>
      </trkpt>
      <trkpt lat="46.61375" lon="5.85883">
        <ele>704</ele>
        <time>2019-06-17T06:29:20.000Z</time>
      </trkpt>
      <trkpt lat="46.61384" lon="5.85887">
        <ele>709.59997558594</ele>
        <time>2019-06-17T06:29:49.000Z</time>
      </trkpt>
      <trkpt lat="46.61395" lon="5.85882">
        <ele>710</ele>
        <time>2019-06-17T06:29:54.000Z</time>
      </trkpt>
      <trkpt lat="46.61401" lon="5.85892">
        <ele>709.79998779297</ele>
        <time>2019-06-17T06:30:03.000Z</time>
      </trkpt>
      <trkpt lat="46.61409" lon="5.85901">
        <ele>711.40002441406</ele>
        <time>2019-06-17T06:30:49.000Z</time>
      </trkpt>
      <trkpt lat="46.6141" lon="5.85916">
        <ele>712.40002441406</ele>
        <time>2019-06-17T06:31:06.000Z</time>
      </trkpt>
      <trkpt lat="46.61418" lon="5.85923">
        <ele>712.79998779297</ele>
        <time>2019-06-17T06:31:16.000Z</time>
      </trkpt>
      <trkpt lat="46.61423" lon="5.85935">
        <ele>713.79998779297</ele>
        <time>2019-06-17T06:31:24.000Z</time>
      </trkpt>
      <trkpt lat="46.61419" lon="5.8595">
        <ele>714.40002441406</ele>
        <time>2019-06-17T06:31:30.000Z</time>
      </trkpt>
      <trkpt lat="46.61424" lon="5.85961">
        <ele>713.59997558594</ele>
        <time>2019-06-17T06:31:40.000Z</time>
      </trkpt>
      <trkpt lat="46.61415" lon="5.85967">
        <ele>712.79998779297</ele>
        <time>2019-06-17T06:32:05.000Z</time>
      </trkpt>
      <trkpt lat="46.61419" lon="5.8598">
        <ele>712.40002441406</ele>
        <time>2019-06-17T06:32:19.000Z</time>
      </trkpt>
      <trkpt lat="46.61421" lon="5.85995">
        <ele>711.79998779297</ele>
        <time>2019-06-17T06:32:28.000Z</time>
      </trkpt>
      <trkpt lat="46.61428" lon="5.86004">
        <ele>713.40002441406</ele>
        <time>2019-06-17T06:32:42.000Z</time>
      </trkpt>
      <trkpt lat="46.61429" lon="5.86018">
        <ele>714</ele>
        <time>2019-06-17T06:32:53.000Z</time>
      </trkpt>
      <trkpt lat="46.61426" lon="5.8603">
        <ele>716.20001220703</ele>
        <time>2019-06-17T06:33:05.000Z</time>
      </trkpt>
      <trkpt lat="46.61431" lon="5.86043">
        <ele>720.20001220703</ele>
        <time>2019-06-17T06:33:21.000Z</time>
      </trkpt>
      <trkpt lat="46.61438" lon="5.86052">
        <ele>720.79998779297</ele>
        <time>2019-06-17T06:33:33.000Z</time>
      </trkpt>
      <trkpt lat="46.61445" lon="5.86059">
        <ele>719.79998779297</ele>
        <time>2019-06-17T06:33:44.000Z</time>
      </trkpt>
      <trkpt lat="46.61455" lon="5.86056">
        <ele>719.79998779297</ele>
        <time>2019-06-17T06:33:52.000Z</time>
      </trkpt>
      <trkpt lat="46.61464" lon="5.86059">
        <ele>720.59997558594</ele>
        <time>2019-06-17T06:33:58.000Z</time>
      </trkpt>
      <trkpt lat="46.61474" lon="5.86063">
        <ele>721.79998779297</ele>
        <time>2019-06-17T06:35:40.000Z</time>
      </trkpt>
      <trkpt lat="46.6148" lon="5.86072">
        <ele>723.40002441406</ele>
        <time>2019-06-17T06:35:56.000Z</time>
      </trkpt>
      <trkpt lat="46.6148" lon="5.86085">
        <ele>724.20001220703</ele>
        <time>2019-06-17T06:36:59.000Z</time>
      </trkpt>
      <trkpt lat="46.61481" lon="5.86098">
        <ele>724</ele>
        <time>2019-06-17T06:37:09.000Z</time>
      </trkpt>
      <trkpt lat="46.61487" lon="5.8611">
        <ele>724.59997558594</ele>
        <time>2019-06-17T06:37:20.000Z</time>
      </trkpt>
      <trkpt lat="46.61488" lon="5.86124">
        <ele>725.79998779297</ele>
        <time>2019-06-17T06:37:29.000Z</time>
      </trkpt>
      <trkpt lat="46.61488" lon="5.86138">
        <ele>727</ele>
        <time>2019-06-17T06:37:46.000Z</time>
      </trkpt>
      <trkpt lat="46.61488" lon="5.86153">
        <ele>727.79998779297</ele>
        <time>2019-06-17T06:37:58.000Z</time>
      </trkpt>
      <trkpt lat="46.61497" lon="5.86162">
        <ele>726.79998779297</ele>
        <time>2019-06-17T06:38:08.000Z</time>
      </trkpt>
      <trkpt lat="46.61499" lon="5.86175">
        <ele>726</ele>
        <time>2019-06-17T06:38:16.000Z</time>
      </trkpt>
      <trkpt lat="46.61498" lon="5.86191">
        <ele>725.79998779297</ele>
        <time>2019-06-17T06:39:08.000Z</time>
      </trkpt>
      <trkpt lat="46.61501" lon="5.86203">
        <ele>724.79998779297</ele>
        <time>2019-06-17T06:39:28.000Z</time>
      </trkpt>
      <trkpt lat="46.61501" lon="5.86217">
        <ele>726.40002441406</ele>
        <time>2019-06-17T06:39:39.000Z</time>
      </trkpt>
      <trkpt lat="46.61507" lon="5.86228">
        <ele>726.40002441406</ele>
        <time>2019-06-17T06:39:58.000Z</time>
      </trkpt>
      <trkpt lat="46.61511" lon="5.86241">
        <ele>729.79998779297</ele>
        <time>2019-06-17T06:40:08.000Z</time>
      </trkpt>
      <trkpt lat="46.61514" lon="5.86255">
        <ele>732</ele>
        <time>2019-06-17T06:40:25.000Z</time>
      </trkpt>
      <trkpt lat="46.6152" lon="5.86265">
        <ele>729.79998779297</ele>
        <time>2019-06-17T06:41:43.000Z</time>
      </trkpt>
      <trkpt lat="46.61521" lon="5.86279">
        <ele>729.20001220703</ele>
        <time>2019-06-17T06:41:57.000Z</time>
      </trkpt>
      <trkpt lat="46.61531" lon="5.86282">
        <ele>730.59997558594</ele>
        <time>2019-06-17T06:42:06.000Z</time>
      </trkpt>
      <trkpt lat="46.6154" lon="5.86275">
        <ele>731</ele>
        <time>2019-06-17T06:42:09.000Z</time>
      </trkpt>
      <trkpt lat="46.6155" lon="5.86277">
        <ele>731.59997558594</ele>
        <time>2019-06-17T06:42:15.000Z</time>
      </trkpt>
      <trkpt lat="46.61552" lon="5.86291">
        <ele>733.79998779297</ele>
        <time>2019-06-17T06:42:31.000Z</time>
      </trkpt>
      <trkpt lat="46.61556" lon="5.86304">
        <ele>733.59997558594</ele>
        <time>2019-06-17T06:42:37.000Z</time>
      </trkpt>
      <trkpt lat="46.61553" lon="5.86319">
        <ele>732.79998779297</ele>
        <time>2019-06-17T06:42:41.000Z</time>
      </trkpt>
      <trkpt lat="46.6155" lon="5.86332">
        <ele>732.40002441406</ele>
        <time>2019-06-17T06:42:48.000Z</time>
      </trkpt>
      <trkpt lat="46.6154" lon="5.86335">
        <ele>733.40002441406</ele>
        <time>2019-06-17T06:43:11.000Z</time>
      </trkpt>
      <trkpt lat="46.6154" lon="5.86349">
        <ele>733</ele>
        <time>2019-06-17T06:43:56.000Z</time>
      </trkpt>
      <trkpt lat="46.61536" lon="5.86363">
        <ele>736.40002441406</ele>
        <time>2019-06-17T06:44:08.000Z</time>
      </trkpt>
      <trkpt lat="46.6153" lon="5.86374">
        <ele>737.40002441406</ele>
        <time>2019-06-17T06:44:15.000Z</time>
      </trkpt>
      <trkpt lat="46.61524" lon="5.86385">
        <ele>736.40002441406</ele>
        <time>2019-06-17T06:44:22.000Z</time>
      </trkpt>
      <trkpt lat="46.61526" lon="5.86398">
        <ele>736.79998779297</ele>
        <time>2019-06-17T06:44:38.000Z</time>
      </trkpt>
      <trkpt lat="46.61523" lon="5.8641">
        <ele>739.20001220703</ele>
        <time>2019-06-17T06:44:48.000Z</time>
      </trkpt>
      <trkpt lat="46.61525" lon="5.86423">
        <ele>741</ele>
        <time>2019-06-17T06:44:58.000Z</time>
      </trkpt>
      <trkpt lat="46.61526" lon="5.86437">
        <ele>740</ele>
        <time>2019-06-17T06:45:08.000Z</time>
      </trkpt>
      <trkpt lat="46.61519" lon="5.8645">
        <ele>738.79998779297</ele>
        <time>2019-06-17T06:45:17.000Z</time>
      </trkpt>
      <trkpt lat="46.61511" lon="5.86457">
        <ele>740</ele>
        <time>2019-06-17T06:45:24.000Z</time>
      </trkpt>
      <trkpt lat="46.61518" lon="5.86465">
        <ele>743.59997558594</ele>
        <time>2019-06-17T06:45:42.000Z</time>
      </trkpt>
      <trkpt lat="46.61523" lon="5.86475">
        <ele>742.79998779297</ele>
        <time>2019-06-17T06:45:57.000Z</time>
      </trkpt>
      <trkpt lat="46.61521" lon="5.86489">
        <ele>742.79998779297</ele>
        <time>2019-06-17T06:46:09.000Z</time>
      </trkpt>
      <trkpt lat="46.61517" lon="5.86502">
        <ele>744</ele>
        <time>2019-06-17T06:46:18.000Z</time>
      </trkpt>
      <trkpt lat="46.61519" lon="5.86515">
        <ele>748.20001220703</ele>
        <time>2019-06-17T06:46:41.000Z</time>
      </trkpt>
      <trkpt lat="46.61519" lon="5.86509">
        <ele>748.40002441406</ele>
        <time>2019-06-17T06:47:43.000Z</time>
      </trkpt>
      <trkpt lat="46.61517" lon="5.86518">
        <ele>748.20001220703</ele>
        <time>2019-06-17T06:47:51.000Z</time>
      </trkpt>
      <trkpt lat="46.61515" lon="5.86519">
        <ele>746.5995771191</ele>
        <time>2019-06-17T06:48:07.000Z</time>
      </trkpt>
      <trkpt lat="46.61515" lon="5.86522">
        <ele>746.79998779297</ele>
        <time>2019-06-17T06:48:11.000Z</time>
      </trkpt>
      <trkpt lat="46.61513" lon="5.86524">
        <ele>747.59997558594</ele>
        <time>2019-06-17T06:48:14.000Z</time>
      </trkpt>
      <trkpt lat="46.61512" lon="5.86526">
        <ele>748.20001220703</ele>
        <time>2019-06-17T06:48:19.000Z</time>
      </trkpt>
      <trkpt lat="46.61511" lon="5.86529">
        <ele>747.20001220703</ele>
        <time>2019-06-17T06:48:26.000Z</time>
      </trkpt>
      <trkpt lat="46.61514" lon="5.86541">
        <ele>746.59997558594</ele>
        <time>2019-06-17T06:48:53.000Z</time>
      </trkpt>
      <trkpt lat="46.61515" lon="5.86555">
        <ele>744.79998779297</ele>
        <time>2019-06-17T06:49:07.000Z</time>
      </trkpt>
      <trkpt lat="46.61514" lon="5.86564">
        <ele>742.59997558594</ele>
        <time>2019-06-17T06:49:18.000Z</time>
      </trkpt>
      <trkpt lat="46.61512" lon="5.86563">
        <ele>741.79998779297</ele>
        <time>2019-06-17T06:49:44.000Z</time>
      </trkpt>
      <trkpt lat="46.61512" lon="5.86566">
        <ele>741.40002441406</ele>
        <time>2019-06-17T06:49:48.000Z</time>
      </trkpt>
      <trkpt lat="46.61513" lon="5.8658">
        <ele>742.20001220703</ele>
        <time>2019-06-17T06:49:57.000Z</time>
      </trkpt>
      <trkpt lat="46.61511" lon="5.86594">
        <ele>742.59997558594</ele>
        <time>2019-06-17T06:50:06.000Z</time>
      </trkpt>
      <trkpt lat="46.61512" lon="5.86608">
        <ele>741.20001220703</ele>
        <time>2019-06-17T06:50:14.000Z</time>
      </trkpt>
      <trkpt lat="46.61518" lon="5.86619">
        <ele>740.59997558594</ele>
        <time>2019-06-17T06:50:22.000Z</time>
      </trkpt>
      <trkpt lat="46.61523" lon="5.86631">
        <ele>741.59997558594</ele>
        <time>2019-06-17T06:50:32.000Z</time>
      </trkpt>
      <trkpt lat="46.61527" lon="5.86633">
        <ele>742</ele>
        <time>2019-06-17T06:50:44.000Z</time>
      </trkpt>
      <trkpt lat="46.61528" lon="5.86632">
        <ele>742</ele>
        <time>2019-06-17T06:50:51.000Z</time>
      </trkpt>
      <trkpt lat="46.61529" lon="5.86635">
        <ele>741.79998779297</ele>
        <time>2019-06-17T06:50:54.000Z</time>
      </trkpt>
      <trkpt lat="46.61527" lon="5.86636">
        <ele>741.59997558594</ele>
        <time>2019-06-17T06:51:01.000Z</time>
      </trkpt>
      <trkpt lat="46.61525" lon="5.86635">
        <ele>743.59997558594</ele>
        <time>2019-06-17T06:51:36.000Z</time>
      </trkpt>
      <trkpt lat="46.61523" lon="5.86634">
        <ele>743.40002441406</ele>
        <time>2019-06-17T06:51:41.000Z</time>
      </trkpt>
      <trkpt lat="46.61522" lon="5.86632">
        <ele>743.20001220703</ele>
        <time>2019-06-17T06:51:46.000Z</time>
      </trkpt>
      <trkpt lat="46.6152" lon="5.86632">
        <ele>743.20001220703</ele>
        <time>2019-06-17T06:51:49.000Z</time>
      </trkpt>
      <trkpt lat="46.61512" lon="5.86641">
        <ele>742.40002441406</ele>
        <time>2019-06-17T06:52:05.000Z</time>
      </trkpt>
      <trkpt lat="46.61509" lon="5.86654">
        <ele>746</ele>
        <time>2019-06-17T06:52:17.000Z</time>
      </trkpt>
      <trkpt lat="46.61506" lon="5.86665">
        <ele>748.40002441406</ele>
        <time>2019-06-17T06:52:32.000Z</time>
      </trkpt>
      <trkpt lat="46.61504" lon="5.86666">
        <ele>747.79998779297</ele>
        <time>2019-06-17T06:52:36.000Z</time>
      </trkpt>
      <trkpt lat="46.61495" lon="5.86672">
        <ele>747.40002441406</ele>
        <time>2019-06-17T06:52:49.000Z</time>
      </trkpt>
      <trkpt lat="46.61486" lon="5.86676">
        <ele>747.20001220703</ele>
        <time>2019-06-17T06:52:56.000Z</time>
      </trkpt>
      <trkpt lat="46.61478" lon="5.86683">
        <ele>747.59997558594</ele>
        <time>2019-06-17T06:53:02.000Z</time>
      </trkpt>
      <trkpt lat="46.61471" lon="5.86693">
        <ele>747.40002441406</ele>
        <time>2019-06-17T06:53:08.000Z</time>
      </trkpt>
      <trkpt lat="46.61465" lon="5.86703">
        <ele>747.59997558594</ele>
        <time>2019-06-17T06:53:14.000Z</time>
      </trkpt>
      <trkpt lat="46.6146" lon="5.86715">
        <ele>747.59997558594</ele>
        <time>2019-06-17T06:53:19.000Z</time>
      </trkpt>
      <trkpt lat="46.61458" lon="5.86729">
        <ele>747.59997558594</ele>
        <time>2019-06-17T06:53:27.000Z</time>
      </trkpt>
      <trkpt lat="46.61453" lon="5.86741">
        <ele>747.79998779297</ele>
        <time>2019-06-17T06:53:34.000Z</time>
      </trkpt>
      <trkpt lat="46.61451" lon="5.86756">
        <ele>747.59997558594</ele>
        <time>2019-06-17T06:53:43.000Z</time>
      </trkpt>
      <trkpt lat="46.61447" lon="5.8677">
        <ele>748.20001220703</ele>
        <time>2019-06-17T06:53:49.000Z</time>
      </trkpt>
      <trkpt lat="46.61444" lon="5.86783">
        <ele>748.59997558594</ele>
        <time>2019-06-17T06:53:55.000Z</time>
      </trkpt>
      <trkpt lat="46.61438" lon="5.86793">
        <ele>748.20001220703</ele>
        <time>2019-06-17T06:54:01.000Z</time>
      </trkpt>
      <trkpt lat="46.61434" lon="5.86807">
        <ele>747.79998779297</ele>
        <time>2019-06-17T06:54:12.000Z</time>
      </trkpt>
      <trkpt lat="46.61428" lon="5.86818">
        <ele>747.59997558594</ele>
        <time>2019-06-17T06:54:20.000Z</time>
      </trkpt>
      <trkpt lat="46.61426" lon="5.86831">
        <ele>747.79998779297</ele>
        <time>2019-06-17T06:54:31.000Z</time>
      </trkpt>
      <trkpt lat="46.61426" lon="5.86844">
        <ele>748.59997558594</ele>
        <time>2019-06-17T06:54:43.000Z</time>
      </trkpt>
      <trkpt lat="46.61426" lon="5.86847">
        <ele>749</ele>
        <time>2019-06-17T06:54:50.000Z</time>
      </trkpt>
      <trkpt lat="46.61424" lon="5.8685">
        <ele>749</ele>
        <time>2019-06-17T06:54:52.000Z</time>
      </trkpt>
      <trkpt lat="46.61423" lon="5.86853">
        <ele>749</ele>
        <time>2019-06-17T06:54:55.000Z</time>
      </trkpt>
      <trkpt lat="46.61421" lon="5.86854">
        <ele>748.40002441406</ele>
        <time>2019-06-17T06:54:58.000Z</time>
      </trkpt>
      <trkpt lat="46.61419" lon="5.86856">
        <ele>748.79998779297</ele>
        <time>2019-06-17T06:55:00.000Z</time>
      </trkpt>
      <trkpt lat="46.61419" lon="5.86858">
        <ele>748.59997558594</ele>
        <time>2019-06-17T06:55:08.000Z</time>
      </trkpt>
      <trkpt lat="46.61419" lon="5.86855">
        <ele>751.40002441406</ele>
        <time>2019-06-17T06:56:02.000Z</time>
      </trkpt>
      <trkpt lat="46.61419" lon="5.86853">
        <ele>751.40002441406</ele>
        <time>2019-06-17T06:56:24.000Z</time>
      </trkpt>
      <trkpt lat="46.6142" lon="5.86847">
        <ele>750.79998779297</ele>
        <time>2019-06-17T06:56:31.000Z</time>
      </trkpt>
      <trkpt lat="46.61412" lon="5.86854">
        <ele>756.59997558594</ele>
        <time>2019-06-17T06:57:11.000Z</time>
      </trkpt>
      <trkpt lat="46.61415" lon="5.86861">
        <ele>758.79998779297</ele>
        <time>2019-06-17T06:57:22.000Z</time>
      </trkpt>
      <trkpt lat="46.61414" lon="5.86864">
        <ele>759.40002441406</ele>
        <time>2019-06-17T06:57:25.000Z</time>
      </trkpt>
      <trkpt lat="46.61413" lon="5.86867">
        <ele>760.40002441406</ele>
        <time>2019-06-17T06:57:30.000Z</time>
      </trkpt>
      <trkpt lat="46.61414" lon="5.8687">
        <ele>760.40002441406</ele>
        <time>2019-06-17T06:57:32.000Z</time>
      </trkpt>
      <trkpt lat="46.61416" lon="5.86872">
        <ele>760.40002441406</ele>
        <time>2019-06-17T06:57:34.000Z</time>
      </trkpt>
      <trkpt lat="46.61417" lon="5.86875">
        <ele>761</ele>
        <time>2019-06-17T06:57:37.000Z</time>
      </trkpt>
      <trkpt lat="46.61417" lon="5.86878">
        <ele>761.59997558594</ele>
        <time>2019-06-17T06:57:40.000Z</time>
      </trkpt>
      <trkpt lat="46.61418" lon="5.86882">
        <ele>761.40002441406</ele>
        <time>2019-06-17T06:57:43.000Z</time>
      </trkpt>
      <trkpt lat="46.61419" lon="5.86884">
        <ele>761.40002441406</ele>
        <time>2019-06-17T06:57:46.000Z</time>
      </trkpt>
      <trkpt lat="46.61421" lon="5.86885">
        <ele>760.79998779297</ele>
        <time>2019-06-17T06:57:54.000Z</time>
      </trkpt>
      <trkpt lat="46.61423" lon="5.86887">
        <ele>760.40002441406</ele>
        <time>2019-06-17T06:58:00.000Z</time>
      </trkpt>
      <trkpt lat="46.61421" lon="5.86885">
        <ele>760.59997558594</ele>
        <time>2019-06-17T06:58:28.000Z</time>
      </trkpt>
      <trkpt lat="46.6142" lon="5.86882">
        <ele>760.40002441406</ele>
        <time>2019-06-17T06:59:03.000Z</time>
      </trkpt>
      <trkpt lat="46.61418" lon="5.8688">
        <ele>760.59997558594</ele>
        <time>2019-06-17T06:59:06.000Z</time>
      </trkpt>
      <trkpt lat="46.61416" lon="5.86879">
        <ele>760.79998779297</ele>
        <time>2019-06-17T06:59:08.000Z</time>
      </trkpt>
      <trkpt lat="46.61414" lon="5.86879">
        <ele>760.80018828842</ele>
        <time>2019-06-17T06:59:11.000Z</time>
      </trkpt>
      <trkpt lat="46.61408" lon="5.86877">
        <ele>760.40002441406</ele>
        <time>2019-06-17T06:59:16.000Z</time>
      </trkpt>
      <trkpt lat="46.61406" lon="5.86876">
        <ele>760</ele>
        <time>2019-06-17T06:59:17.000Z</time>
      </trkpt>
      <trkpt lat="46.61398" lon="5.86881">
        <ele>761.20001220703</ele>
        <time>2019-06-17T06:59:29.000Z</time>
      </trkpt>
      <trkpt lat="46.61392" lon="5.86892">
        <ele>761.59997558594</ele>
        <time>2019-06-17T06:59:35.000Z</time>
      </trkpt>
      <trkpt lat="46.61385" lon="5.86902">
        <ele>761.59997558594</ele>
        <time>2019-06-17T06:59:41.000Z</time>
      </trkpt>
      <trkpt lat="46.61378" lon="5.86912">
        <ele>761.40002441406</ele>
        <time>2019-06-17T06:59:47.000Z</time>
      </trkpt>
      <trkpt lat="46.6137" lon="5.86922">
        <ele>760.59997558594</ele>
        <time>2019-06-17T06:59:55.000Z</time>
      </trkpt>
      <trkpt lat="46.61362" lon="5.8693">
        <ele>760.79998779297</ele>
        <time>2019-06-17T07:00:03.000Z</time>
      </trkpt>
      <trkpt lat="46.61357" lon="5.86942">
        <ele>760.79998779297</ele>
        <time>2019-06-17T07:00:09.000Z</time>
      </trkpt>
      <trkpt lat="46.6136" lon="5.86955">
        <ele>760.59997558594</ele>
        <time>2019-06-17T07:00:17.000Z</time>
      </trkpt>
      <trkpt lat="46.61358" lon="5.86967">
        <ele>760.59997558594</ele>
        <time>2019-06-17T07:00:24.000Z</time>
      </trkpt>
      <trkpt lat="46.61358" lon="5.86983">
        <ele>760.59997558594</ele>
        <time>2019-06-17T07:00:33.000Z</time>
      </trkpt>
      <trkpt lat="46.61353" lon="5.86996">
        <ele>760.59997558594</ele>
        <time>2019-06-17T07:00:41.000Z</time>
      </trkpt>
      <trkpt lat="46.61347" lon="5.87009">
        <ele>760.59997558594</ele>
        <time>2019-06-17T07:00:48.000Z</time>
      </trkpt>
      <trkpt lat="46.61343" lon="5.87023">
        <ele>760.59997558594</ele>
        <time>2019-06-17T07:00:55.000Z</time>
      </trkpt>
      <trkpt lat="46.61349" lon="5.87034">
        <ele>760.59997558594</ele>
        <time>2019-06-17T07:01:02.000Z</time>
      </trkpt>
      <trkpt lat="46.61349" lon="5.87047">
        <ele>760.59997558594</ele>
        <time>2019-06-17T07:01:10.000Z</time>
      </trkpt>
      <trkpt lat="46.61348" lon="5.87061">
        <ele>760.59997558594</ele>
        <time>2019-06-17T07:01:18.000Z</time>
      </trkpt>
      <trkpt lat="46.61344" lon="5.87074">
        <ele>760.59997558594</ele>
        <time>2019-06-17T07:01:25.000Z</time>
      </trkpt>
      <trkpt lat="46.61341" lon="5.87088">
        <ele>760.59997558594</ele>
        <time>2019-06-17T07:01:34.000Z</time>
      </trkpt>
      <trkpt lat="46.61344" lon="5.87101">
        <ele>764.79998779297</ele>
        <time>2019-06-17T07:01:41.000Z</time>
      </trkpt>
      <trkpt lat="46.61348" lon="5.87114">
        <ele>765.40002441406</ele>
        <time>2019-06-17T07:01:48.000Z</time>
      </trkpt>
      <trkpt lat="46.61345" lon="5.87129">
        <ele>764.40002441406</ele>
        <time>2019-06-17T07:01:54.000Z</time>
      </trkpt>
      <trkpt lat="46.61344" lon="5.87142">
        <ele>764</ele>
        <time>2019-06-17T07:02:01.000Z</time>
      </trkpt>
      <trkpt lat="46.61345" lon="5.87155">
        <ele>764</ele>
        <time>2019-06-17T07:02:09.000Z</time>
      </trkpt>
      <trkpt lat="46.61345" lon="5.87169">
        <ele>764</ele>
        <time>2019-06-17T07:02:15.000Z</time>
      </trkpt>
      <trkpt lat="46.61342" lon="5.87187">
        <ele>764.20001220703</ele>
        <time>2019-06-17T07:02:22.000Z</time>
      </trkpt>
      <trkpt lat="46.6134" lon="5.87198">
        <ele>764</ele>
        <time>2019-06-17T07:02:26.000Z</time>
      </trkpt>
      <trkpt lat="46.6134" lon="5.87211">
        <ele>764.39883086589</ele>
        <time>2019-06-17T07:02:34.000Z</time>
      </trkpt>
      <trkpt lat="46.61338" lon="5.87225">
        <ele>764.40002441406</ele>
        <time>2019-06-17T07:02:44.000Z</time>
      </trkpt>
      <trkpt lat="46.61343" lon="5.87237">
        <ele>765</ele>
        <time>2019-06-17T07:02:49.000Z</time>
      </trkpt>
      <trkpt lat="46.61344" lon="5.8725">
        <ele>765</ele>
        <time>2019-06-17T07:02:55.000Z</time>
      </trkpt>
      <trkpt lat="46.61346" lon="5.87264">
        <ele>764.40002441406</ele>
        <time>2019-06-17T07:03:02.000Z</time>
      </trkpt>
      <trkpt lat="46.61351" lon="5.87275">
        <ele>765</ele>
        <time>2019-06-17T07:03:09.000Z</time>
      </trkpt>
      <trkpt lat="46.61356" lon="5.87287">
        <ele>764.20001220703</ele>
        <time>2019-06-17T07:03:17.000Z</time>
      </trkpt>
      <trkpt lat="46.61361" lon="5.87298">
        <ele>763.79998779297</ele>
        <time>2019-06-17T07:03:24.000Z</time>
      </trkpt>
      <trkpt lat="46.61361" lon="5.87313">
        <ele>763.20001220703</ele>
        <time>2019-06-17T07:03:32.000Z</time>
      </trkpt>
      <trkpt lat="46.61361" lon="5.87327">
        <ele>763.20001220703</ele>
        <time>2019-06-17T07:03:39.000Z</time>
      </trkpt>
      <trkpt lat="46.61361" lon="5.87342">
        <ele>763.20001220703</ele>
        <time>2019-06-17T07:03:46.000Z</time>
      </trkpt>
      <trkpt lat="46.61368" lon="5.87353">
        <ele>763.20001220703</ele>
        <time>2019-06-17T07:03:53.000Z</time>
      </trkpt>
      <trkpt lat="46.61374" lon="5.87363">
        <ele>763.20001220703</ele>
        <time>2019-06-17T07:04:01.000Z</time>
      </trkpt>
      <trkpt lat="46.6138" lon="5.87373">
        <ele>763.20001220703</ele>
        <time>2019-06-17T07:04:09.000Z</time>
      </trkpt>
      <trkpt lat="46.61378" lon="5.87388">
        <ele>763.20001220703</ele>
        <time>2019-06-17T07:04:15.000Z</time>
      </trkpt>
      <trkpt lat="46.61378" lon="5.87402">
        <ele>763.20001220703</ele>
        <time>2019-06-17T07:04:21.000Z</time>
      </trkpt>
      <trkpt lat="46.61375" lon="5.87415">
        <ele>763.20001220703</ele>
        <time>2019-06-17T07:04:28.000Z</time>
      </trkpt>
      <trkpt lat="46.61367" lon="5.87425">
        <ele>763.20001220703</ele>
        <time>2019-06-17T07:04:35.000Z</time>
      </trkpt>
      <trkpt lat="46.61361" lon="5.87437">
        <ele>763.20001220703</ele>
        <time>2019-06-17T07:04:43.000Z</time>
      </trkpt>
      <trkpt lat="46.61355" lon="5.87447">
        <ele>763.20001220703</ele>
        <time>2019-06-17T07:04:51.000Z</time>
      </trkpt>
      <trkpt lat="46.61352" lon="5.87461">
        <ele>763.20001220703</ele>
        <time>2019-06-17T07:05:04.000Z</time>
      </trkpt>
      <trkpt lat="46.61352" lon="5.87474">
        <ele>763.20001220703</ele>
        <time>2019-06-17T07:05:15.000Z</time>
      </trkpt>
      <trkpt lat="46.61352" lon="5.87477">
        <ele>763.20001220703</ele>
        <time>2019-06-17T07:05:17.000Z</time>
      </trkpt>
      <trkpt lat="46.61344" lon="5.87484">
        <ele>768</ele>
        <time>2019-06-17T07:05:32.000Z</time>
      </trkpt>
      <trkpt lat="46.61343" lon="5.87489">
        <ele>768.79998779297</ele>
        <time>2019-06-17T07:05:44.000Z</time>
      </trkpt>
      <trkpt lat="46.61347" lon="5.87477">
        <ele>768.59997558594</ele>
        <time>2019-06-17T07:05:59.000Z</time>
      </trkpt>
      <trkpt lat="46.61347" lon="5.87474">
        <ele>768.79998779297</ele>
        <time>2019-06-17T07:06:02.000Z</time>
      </trkpt>
      <trkpt lat="46.61347" lon="5.87483">
        <ele>769.20001220703</ele>
        <time>2019-06-17T07:06:38.000Z</time>
      </trkpt>
      <trkpt lat="46.61351" lon="5.87471">
        <ele>769.40002441406</ele>
        <time>2019-06-17T07:07:22.000Z</time>
      </trkpt>
      <trkpt lat="46.61357" lon="5.87469">
        <ele>769.79998779297</ele>
        <time>2019-06-17T07:07:40.000Z</time>
      </trkpt>
      <trkpt lat="46.61355" lon="5.87469">
        <ele>769.59997558594</ele>
        <time>2019-06-17T07:07:47.000Z</time>
      </trkpt>
      <trkpt lat="46.61353" lon="5.87468">
        <ele>769.59997558594</ele>
        <time>2019-06-17T07:07:59.000Z</time>
      </trkpt>
      <trkpt lat="46.61357" lon="5.87463">
        <ele>769.59997558594</ele>
        <time>2019-06-17T07:08:41.000Z</time>
      </trkpt>
      <trkpt lat="46.61355" lon="5.87465">
        <ele>769.59997558594</ele>
        <time>2019-06-17T07:08:57.000Z</time>
      </trkpt>
      <trkpt lat="46.6135" lon="5.87476">
        <ele>769.59997558594</ele>
        <time>2019-06-17T07:09:28.000Z</time>
      </trkpt>
      <trkpt lat="46.61352" lon="5.87479">
        <ele>769.59997558594</ele>
        <time>2019-06-17T07:09:31.000Z</time>
      </trkpt>
      <trkpt lat="46.61353" lon="5.87477">
        <ele>769.59997558594</ele>
        <time>2019-06-17T07:09:34.000Z</time>
      </trkpt>
      <trkpt lat="46.61348" lon="5.87481">
        <ele>769.59997558594</ele>
        <time>2019-06-17T07:10:01.000Z</time>
      </trkpt>
      <trkpt lat="46.61347" lon="5.87479">
        <ele>769.59997558594</ele>
        <time>2019-06-17T07:10:18.000Z</time>
      </trkpt>
      <trkpt lat="46.61347" lon="5.87476">
        <ele>769.59997558594</ele>
        <time>2019-06-17T07:10:42.000Z</time>
      </trkpt>
      <trkpt lat="46.61346" lon="5.87478">
        <ele>769.59997558594</ele>
        <time>2019-06-17T07:11:34.000Z</time>
      </trkpt>
      <trkpt lat="46.6134" lon="5.87478">
        <ele>769.59997558594</ele>
        <time>2019-06-17T07:12:03.000Z</time>
      </trkpt>
      <trkpt lat="46.61343" lon="5.87479">
        <ele>769.59997558594</ele>
        <time>2019-06-17T07:12:14.000Z</time>
      </trkpt>
      <trkpt lat="46.6135" lon="5.87474">
        <ele>769.59997558594</ele>
        <time>2019-06-17T07:12:53.000Z</time>
      </trkpt>
      <trkpt lat="46.61351" lon="5.87471">
        <ele>769.59997558594</ele>
        <time>2019-06-17T07:12:55.000Z</time>
      </trkpt>
      <trkpt lat="46.61352" lon="5.87474">
        <ele>769.59997558594</ele>
        <time>2019-06-17T07:12:58.000Z</time>
      </trkpt>
      <trkpt lat="46.6135" lon="5.87477">
        <ele>769.59997558594</ele>
        <time>2019-06-17T07:13:00.000Z</time>
      </trkpt>
      <trkpt lat="46.61349" lon="5.87479">
        <ele>769.59997558594</ele>
        <time>2019-06-17T07:13:02.000Z</time>
      </trkpt>
      <trkpt lat="46.61346" lon="5.87478">
        <ele>769.59997558594</ele>
        <time>2019-06-17T07:13:33.000Z</time>
      </trkpt>
      <trkpt lat="46.61345" lon="5.8748">
        <ele>769.59997558594</ele>
        <time>2019-06-17T07:13:36.000Z</time>
      </trkpt>
      <trkpt lat="46.61345" lon="5.87477">
        <ele>769.59997558594</ele>
        <time>2019-06-17T07:13:57.000Z</time>
      </trkpt>
      <trkpt lat="46.61346" lon="5.87475">
        <ele>769.59997558594</ele>
        <time>2019-06-17T07:14:00.000Z</time>
      </trkpt>
      <trkpt lat="46.61347" lon="5.87472">
        <ele>769.59997558594</ele>
        <time>2019-06-17T07:14:22.000Z</time>
      </trkpt>
      <trkpt lat="46.61344" lon="5.87473">
        <ele>769.59997558594</ele>
        <time>2019-06-17T07:14:28.000Z</time>
      </trkpt>
      <trkpt lat="46.61337" lon="5.87483">
        <ele>769.59997558594</ele>
        <time>2019-06-17T07:14:37.000Z</time>
      </trkpt>
      <trkpt lat="46.6133" lon="5.87493">
        <ele>769.59997558594</ele>
        <time>2019-06-17T07:14:44.000Z</time>
      </trkpt>
      <trkpt lat="46.61322" lon="5.875">
        <ele>769.59997558594</ele>
        <time>2019-06-17T07:14:50.000Z</time>
      </trkpt>
      <trkpt lat="46.61323" lon="5.87514">
        <ele>769.59997558594</ele>
        <time>2019-06-17T07:14:58.000Z</time>
      </trkpt>
      <trkpt lat="46.61324" lon="5.87516">
        <ele>769.59997558594</ele>
        <time>2019-06-17T07:15:00.000Z</time>
      </trkpt>
      <trkpt lat="46.61325" lon="5.87518">
        <ele>769.59997558594</ele>
        <time>2019-06-17T07:15:03.000Z</time>
      </trkpt>
      <trkpt lat="46.61336" lon="5.87519">
        <ele>769.59997558594</ele>
        <time>2019-06-17T07:15:12.000Z</time>
      </trkpt>
      <trkpt lat="46.61345" lon="5.87518">
        <ele>769.59997558594</ele>
        <time>2019-06-17T07:15:18.000Z</time>
      </trkpt>
      <trkpt lat="46.61356" lon="5.87517">
        <ele>769.59997558594</ele>
        <time>2019-06-17T07:15:25.000Z</time>
      </trkpt>
      <trkpt lat="46.61361" lon="5.8753">
        <ele>769.59997558594</ele>
        <time>2019-06-17T07:15:34.000Z</time>
      </trkpt>
      <trkpt lat="46.61367" lon="5.87539">
        <ele>769.59997558594</ele>
        <time>2019-06-17T07:15:44.000Z</time>
      </trkpt>
      <trkpt lat="46.61376" lon="5.87542">
        <ele>769.59997558594</ele>
        <time>2019-06-17T07:15:52.000Z</time>
      </trkpt>
      <trkpt lat="46.61385" lon="5.87548">
        <ele>769.59997558594</ele>
        <time>2019-06-17T07:16:00.000Z</time>
      </trkpt>
      <trkpt lat="46.61389" lon="5.8755">
        <ele>769.59997558594</ele>
        <time>2019-06-17T07:16:03.000Z</time>
      </trkpt>
      <trkpt lat="46.61392" lon="5.87551">
        <ele>769.59997558594</ele>
        <time>2019-06-17T07:16:05.000Z</time>
      </trkpt>
      <trkpt lat="46.61394" lon="5.87553">
        <ele>769.59997558594</ele>
        <time>2019-06-17T07:16:07.000Z</time>
      </trkpt>
      <trkpt lat="46.61397" lon="5.87554">
        <ele>769.59997558594</ele>
        <time>2019-06-17T07:16:09.000Z</time>
      </trkpt>
      <trkpt lat="46.614" lon="5.87555">
        <ele>769.59997558594</ele>
        <time>2019-06-17T07:16:11.000Z</time>
      </trkpt>
      <trkpt lat="46.61402" lon="5.87555">
        <ele>769.59997558594</ele>
        <time>2019-06-17T07:16:13.000Z</time>
      </trkpt>
      <trkpt lat="46.61405" lon="5.87557">
        <ele>769.59997558594</ele>
        <time>2019-06-17T07:16:15.000Z</time>
      </trkpt>
      <trkpt lat="46.61407" lon="5.87559">
        <ele>773.20001220703</ele>
        <time>2019-06-17T07:16:17.000Z</time>
      </trkpt>
      <trkpt lat="46.6141" lon="5.87561">
        <ele>773</ele>
        <time>2019-06-17T07:16:19.000Z</time>
      </trkpt>
      <trkpt lat="46.61412" lon="5.87563">
        <ele>773.20001220703</ele>
        <time>2019-06-17T07:16:21.000Z</time>
      </trkpt>
      <trkpt lat="46.6142" lon="5.8757">
        <ele>773.59997558594</ele>
        <time>2019-06-17T07:16:27.000Z</time>
      </trkpt>
      <trkpt lat="46.61429" lon="5.87573">
        <ele>774.40002441406</ele>
        <time>2019-06-17T07:16:34.000Z</time>
      </trkpt>
      <trkpt lat="46.61438" lon="5.87577">
        <ele>775.20001220703</ele>
        <time>2019-06-17T07:16:44.000Z</time>
      </trkpt>
      <trkpt lat="46.61447" lon="5.8758">
        <ele>776.40002441406</ele>
        <time>2019-06-17T07:16:54.000Z</time>
      </trkpt>
      <trkpt lat="46.61456" lon="5.87583">
        <ele>777</ele>
        <time>2019-06-17T07:17:01.000Z</time>
      </trkpt>
      <trkpt lat="46.61465" lon="5.87584">
        <ele>777.79998779297</ele>
        <time>2019-06-17T07:17:09.000Z</time>
      </trkpt>
      <trkpt lat="46.61475" lon="5.87586">
        <ele>778.40002441406</ele>
        <time>2019-06-17T07:17:14.000Z</time>
      </trkpt>
      <trkpt lat="46.61484" lon="5.87589">
        <ele>779.20001220703</ele>
        <time>2019-06-17T07:17:20.000Z</time>
      </trkpt>
      <trkpt lat="46.61493" lon="5.87591">
        <ele>780</ele>
        <time>2019-06-17T07:17:27.000Z</time>
      </trkpt>
      <trkpt lat="46.61502" lon="5.87596">
        <ele>781.20001220703</ele>
        <time>2019-06-17T07:17:37.000Z</time>
      </trkpt>
      <trkpt lat="46.61511" lon="5.87602">
        <ele>781.40002441406</ele>
        <time>2019-06-17T07:17:45.000Z</time>
      </trkpt>
      <trkpt lat="46.61517" lon="5.87611">
        <ele>781.79998779297</ele>
        <time>2019-06-17T07:17:51.000Z</time>
      </trkpt>
      <trkpt lat="46.61528" lon="5.87614">
        <ele>782.20001220703</ele>
        <time>2019-06-17T07:17:58.000Z</time>
      </trkpt>
      <trkpt lat="46.61535" lon="5.87622">
        <ele>782.79998779297</ele>
        <time>2019-06-17T07:18:04.000Z</time>
      </trkpt>
      <trkpt lat="46.61544" lon="5.87628">
        <ele>783.20001220703</ele>
        <time>2019-06-17T07:18:11.000Z</time>
      </trkpt>
      <trkpt lat="46.61553" lon="5.87636">
        <ele>783.79998779297</ele>
        <time>2019-06-17T07:18:18.000Z</time>
      </trkpt>
      <trkpt lat="46.61561" lon="5.87644">
        <ele>784</ele>
        <time>2019-06-17T07:18:24.000Z</time>
      </trkpt>
      <trkpt lat="46.6157" lon="5.87652">
        <ele>784.79998779297</ele>
        <time>2019-06-17T07:18:31.000Z</time>
      </trkpt>
      <trkpt lat="46.61579" lon="5.87657">
        <ele>785.79998779297</ele>
        <time>2019-06-17T07:18:41.000Z</time>
      </trkpt>
      <trkpt lat="46.61586" lon="5.87659">
        <ele>786.40002441406</ele>
        <time>2019-06-17T07:18:46.000Z</time>
      </trkpt>
      <trkpt lat="46.61588" lon="5.87661">
        <ele>786.79998779297</ele>
        <time>2019-06-17T07:18:47.000Z</time>
      </trkpt>
      <trkpt lat="46.6159" lon="5.87663">
        <ele>787.20001220703</ele>
        <time>2019-06-17T07:18:49.000Z</time>
      </trkpt>
      <trkpt lat="46.61592" lon="5.87666">
        <ele>787.79998779297</ele>
        <time>2019-06-17T07:18:52.000Z</time>
      </trkpt>
      <trkpt lat="46.616" lon="5.87674">
        <ele>788.59997558594</ele>
        <time>2019-06-17T07:19:00.000Z</time>
      </trkpt>
      <trkpt lat="46.61604" lon="5.87687">
        <ele>789.40002441406</ele>
        <time>2019-06-17T07:19:05.000Z</time>
      </trkpt>
      <trkpt lat="46.61611" lon="5.87698">
        <ele>790.59997558594</ele>
        <time>2019-06-17T07:19:11.000Z</time>
      </trkpt>
      <trkpt lat="46.61611" lon="5.87711">
        <ele>791.40002441406</ele>
        <time>2019-06-17T07:19:17.000Z</time>
      </trkpt>
      <trkpt lat="46.61608" lon="5.87724">
        <ele>793</ele>
        <time>2019-06-17T07:19:23.000Z</time>
      </trkpt>
      <trkpt lat="46.61603" lon="5.87736">
        <ele>793.40002441406</ele>
        <time>2019-06-17T07:19:29.000Z</time>
      </trkpt>
      <trkpt lat="46.61599" lon="5.87747">
        <ele>794.19961121613</ele>
        <time>2019-06-17T07:19:35.000Z</time>
      </trkpt>
      <trkpt lat="46.61609" lon="5.87751">
        <ele>796.59997558594</ele>
        <time>2019-06-17T07:19:51.000Z</time>
      </trkpt>
      <trkpt lat="46.61619" lon="5.87749">
        <ele>797.40002441406</ele>
        <time>2019-06-17T07:19:59.000Z</time>
      </trkpt>
      <trkpt lat="46.61627" lon="5.87755">
        <ele>798.20001220703</ele>
        <time>2019-06-17T07:20:04.000Z</time>
      </trkpt>
      <trkpt lat="46.61633" lon="5.87764">
        <ele>799.20001220703</ele>
        <time>2019-06-17T07:20:10.000Z</time>
      </trkpt>
      <trkpt lat="46.6163" lon="5.87776">
        <ele>800</ele>
        <time>2019-06-17T07:20:16.000Z</time>
      </trkpt>
      <trkpt lat="46.61631" lon="5.8778">
        <ele>800.40002441406</ele>
        <time>2019-06-17T07:20:18.000Z</time>
      </trkpt>
      <trkpt lat="46.61632" lon="5.87794">
        <ele>801.59897985375</ele>
        <time>2019-06-17T07:20:25.000Z</time>
      </trkpt>
      <trkpt lat="46.61638" lon="5.87804">
        <ele>802.20001220703</ele>
        <time>2019-06-17T07:20:34.000Z</time>
      </trkpt>
      <trkpt lat="46.61645" lon="5.87808">
        <ele>803.40002441406</ele>
        <time>2019-06-17T07:20:43.000Z</time>
      </trkpt>
      <trkpt lat="46.61647" lon="5.87809">
        <ele>804.20001220703</ele>
        <time>2019-06-17T07:20:50.000Z</time>
      </trkpt>
      <trkpt lat="46.61649" lon="5.87811">
        <ele>804.59997558594</ele>
        <time>2019-06-17T07:20:53.000Z</time>
      </trkpt>
      <trkpt lat="46.6165" lon="5.87814">
        <ele>804.79998779297</ele>
        <time>2019-06-17T07:20:56.000Z</time>
      </trkpt>
      <trkpt lat="46.61652" lon="5.87815">
        <ele>804.59997558594</ele>
        <time>2019-06-17T07:20:59.000Z</time>
      </trkpt>
      <trkpt lat="46.61654" lon="5.87818">
        <ele>804.59997558594</ele>
        <time>2019-06-17T07:21:02.000Z</time>
      </trkpt>
      <trkpt lat="46.61655" lon="5.87821">
        <ele>805</ele>
        <time>2019-06-17T07:21:05.000Z</time>
      </trkpt>
      <trkpt lat="46.61656" lon="5.87823">
        <ele>805</ele>
        <time>2019-06-17T07:21:13.000Z</time>
      </trkpt>
      <trkpt lat="46.61657" lon="5.87826">
        <ele>805</ele>
        <time>2019-06-17T07:21:15.000Z</time>
      </trkpt>
      <trkpt lat="46.61659" lon="5.8783">
        <ele>805</ele>
        <time>2019-06-17T07:21:17.000Z</time>
      </trkpt>
      <trkpt lat="46.6166" lon="5.87833">
        <ele>804.79998779297</ele>
        <time>2019-06-17T07:21:19.000Z</time>
      </trkpt>
      <trkpt lat="46.61661" lon="5.87836">
        <ele>804.59997558594</ele>
        <time>2019-06-17T07:21:21.000Z</time>
      </trkpt>
      <trkpt lat="46.61663" lon="5.8784">
        <ele>804.59997558594</ele>
        <time>2019-06-17T07:21:23.000Z</time>
      </trkpt>
      <trkpt lat="46.61664" lon="5.87844">
        <ele>804.79998779297</ele>
        <time>2019-06-17T07:21:25.000Z</time>
      </trkpt>
      <trkpt lat="46.61666" lon="5.87847">
        <ele>804.79998779297</ele>
        <time>2019-06-17T07:21:27.000Z</time>
      </trkpt>
      <trkpt lat="46.61667" lon="5.87851">
        <ele>804.59997558594</ele>
        <time>2019-06-17T07:21:29.000Z</time>
      </trkpt>
      <trkpt lat="46.61668" lon="5.87854">
        <ele>804.20001220703</ele>
        <time>2019-06-17T07:21:31.000Z</time>
      </trkpt>
      <trkpt lat="46.6167" lon="5.87858">
        <ele>804.20001220703</ele>
        <time>2019-06-17T07:21:33.000Z</time>
      </trkpt>
      <trkpt lat="46.61672" lon="5.87862">
        <ele>804.59997558594</ele>
        <time>2019-06-17T07:21:35.000Z</time>
      </trkpt>
      <trkpt lat="46.61673" lon="5.87866">
        <ele>804.40002441406</ele>
        <time>2019-06-17T07:21:37.000Z</time>
      </trkpt>
      <trkpt lat="46.61675" lon="5.87869">
        <ele>804.40002441406</ele>
        <time>2019-06-17T07:21:39.000Z</time>
      </trkpt>
      <trkpt lat="46.61676" lon="5.87872">
        <ele>804.20001220703</ele>
        <time>2019-06-17T07:21:41.000Z</time>
      </trkpt>
      <trkpt lat="46.61678" lon="5.87875">
        <ele>804.20001220703</ele>
        <time>2019-06-17T07:21:43.000Z</time>
      </trkpt>
      <trkpt lat="46.61679" lon="5.87879">
        <ele>804</ele>
        <time>2019-06-17T07:21:45.000Z</time>
      </trkpt>
      <trkpt lat="46.61681" lon="5.87882">
        <ele>804.05873633246</ele>
        <time>2019-06-17T07:21:47.000Z</time>
      </trkpt>
      <trkpt lat="46.61682" lon="5.87886">
        <ele>804.40002441406</ele>
        <time>2019-06-17T07:21:49.000Z</time>
      </trkpt>
      <trkpt lat="46.61684" lon="5.87889">
        <ele>804.59997558594</ele>
        <time>2019-06-17T07:21:51.000Z</time>
      </trkpt>
      <trkpt lat="46.61685" lon="5.87892">
        <ele>804.40002441406</ele>
        <time>2019-06-17T07:21:53.000Z</time>
      </trkpt>
      <trkpt lat="46.61687" lon="5.87896">
        <ele>804.40002441406</ele>
        <time>2019-06-17T07:21:55.000Z</time>
      </trkpt>
      <trkpt lat="46.61688" lon="5.87899">
        <ele>804.59997558594</ele>
        <time>2019-06-17T07:21:57.000Z</time>
      </trkpt>
      <trkpt lat="46.61687" lon="5.87901">
        <ele>805.40002441406</ele>
        <time>2019-06-17T07:22:10.000Z</time>
      </trkpt>
      <trkpt lat="46.61688" lon="5.87905">
        <ele>806</ele>
        <time>2019-06-17T07:22:15.000Z</time>
      </trkpt>
      <trkpt lat="46.61692" lon="5.87916">
        <ele>806.20001220703</ele>
        <time>2019-06-17T07:22:23.000Z</time>
      </trkpt>
      <trkpt lat="46.61698" lon="5.87928">
        <ele>805.59997558594</ele>
        <time>2019-06-17T07:22:32.000Z</time>
      </trkpt>
      <trkpt lat="46.61702" lon="5.87941">
        <ele>805.79998779297</ele>
        <time>2019-06-17T07:22:43.000Z</time>
      </trkpt>
      <trkpt lat="46.61707" lon="5.87952">
        <ele>806.59997558594</ele>
        <time>2019-06-17T07:22:51.000Z</time>
      </trkpt>
      <trkpt lat="46.61713" lon="5.87963">
        <ele>807.59897985375</ele>
        <time>2019-06-17T07:22:58.000Z</time>
      </trkpt>
      <trkpt lat="46.6172" lon="5.87972">
        <ele>809.79998779297</ele>
        <time>2019-06-17T07:23:08.000Z</time>
      </trkpt>
      <trkpt lat="46.6173" lon="5.87978">
        <ele>811.20001220703</ele>
        <time>2019-06-17T07:23:15.000Z</time>
      </trkpt>
      <trkpt lat="46.61739" lon="5.87982">
        <ele>812.40002441406</ele>
        <time>2019-06-17T07:23:24.000Z</time>
      </trkpt>
      <trkpt lat="46.61749" lon="5.8798">
        <ele>814.79998779297</ele>
        <time>2019-06-17T07:23:37.000Z</time>
      </trkpt>
      <trkpt lat="46.61759" lon="5.87977">
        <ele>815.79998779297</ele>
        <time>2019-06-17T07:23:44.000Z</time>
      </trkpt>
      <trkpt lat="46.61768" lon="5.87974">
        <ele>816.5995747174</ele>
        <time>2019-06-17T07:23:50.000Z</time>
      </trkpt>
      <trkpt lat="46.61776" lon="5.87975">
        <ele>817.40002441406</ele>
        <time>2019-06-17T07:23:56.000Z</time>
      </trkpt>
      <trkpt lat="46.61779" lon="5.87975">
        <ele>817.40002441406</ele>
        <time>2019-06-17T07:23:58.000Z</time>
      </trkpt>
      <trkpt lat="46.61781" lon="5.87975">
        <ele>817.59997558594</ele>
        <time>2019-06-17T07:24:00.000Z</time>
      </trkpt>
      <trkpt lat="46.61783" lon="5.87974">
        <ele>818</ele>
        <time>2019-06-17T07:24:02.000Z</time>
      </trkpt>
      <trkpt lat="46.61786" lon="5.87972">
        <ele>818.40002441406</ele>
        <time>2019-06-17T07:24:04.000Z</time>
      </trkpt>
      <trkpt lat="46.61788" lon="5.87971">
        <ele>818.59997558594</ele>
        <time>2019-06-17T07:24:06.000Z</time>
      </trkpt>
      <trkpt lat="46.6179" lon="5.87971">
        <ele>819.20001220703</ele>
        <time>2019-06-17T07:24:08.000Z</time>
      </trkpt>
      <trkpt lat="46.61792" lon="5.87971">
        <ele>819.59997558594</ele>
        <time>2019-06-17T07:24:10.000Z</time>
      </trkpt>
      <trkpt lat="46.61795" lon="5.87972">
        <ele>819.79998779297</ele>
        <time>2019-06-17T07:24:12.000Z</time>
      </trkpt>
      <trkpt lat="46.61798" lon="5.87973">
        <ele>819.79998779297</ele>
        <time>2019-06-17T07:24:14.000Z</time>
      </trkpt>
      <trkpt lat="46.618" lon="5.87975">
        <ele>820</ele>
        <time>2019-06-17T07:24:16.000Z</time>
      </trkpt>
      <trkpt lat="46.61801" lon="5.87979">
        <ele>820.79998779297</ele>
        <time>2019-06-17T07:24:19.000Z</time>
      </trkpt>
      <trkpt lat="46.61801" lon="5.87982">
        <ele>821.20001220703</ele>
        <time>2019-06-17T07:24:21.000Z</time>
      </trkpt>
      <trkpt lat="46.61802" lon="5.87985">
        <ele>821.59997558594</ele>
        <time>2019-06-17T07:24:24.000Z</time>
      </trkpt>
      <trkpt lat="46.61803" lon="5.87989">
        <ele>821.59997558594</ele>
        <time>2019-06-17T07:24:26.000Z</time>
      </trkpt>
      <trkpt lat="46.61804" lon="5.87992">
        <ele>822.20001220703</ele>
        <time>2019-06-17T07:24:28.000Z</time>
      </trkpt>
      <trkpt lat="46.61803" lon="5.87995">
        <ele>822.40002441406</ele>
        <time>2019-06-17T07:24:30.000Z</time>
      </trkpt>
      <trkpt lat="46.61804" lon="5.87999">
        <ele>823</ele>
        <time>2019-06-17T07:24:32.000Z</time>
      </trkpt>
      <trkpt lat="46.61804" lon="5.88003">
        <ele>822.79998779297</ele>
        <time>2019-06-17T07:24:34.000Z</time>
      </trkpt>
      <trkpt lat="46.61804" lon="5.88005">
        <ele>822</ele>
        <time>2019-06-17T07:24:36.000Z</time>
      </trkpt>
      <trkpt lat="46.61805" lon="5.88019">
        <ele>820.79998779297</ele>
        <time>2019-06-17T07:24:44.000Z</time>
      </trkpt>
      <trkpt lat="46.61806" lon="5.88033">
        <ele>819.59997558594</ele>
        <time>2019-06-17T07:24:57.000Z</time>
      </trkpt>
      <trkpt lat="46.61809" lon="5.88047">
        <ele>821</ele>
        <time>2019-06-17T07:25:05.000Z</time>
      </trkpt>
      <trkpt lat="46.6181" lon="5.8806">
        <ele>823</ele>
        <time>2019-06-17T07:25:13.000Z</time>
      </trkpt>
      <trkpt lat="46.61813" lon="5.88073">
        <ele>823.40002441406</ele>
        <time>2019-06-17T07:25:21.000Z</time>
      </trkpt>
      <trkpt lat="46.61821" lon="5.8808">
        <ele>824.20001220703</ele>
        <time>2019-06-17T07:25:41.000Z</time>
      </trkpt>
      <trkpt lat="46.61819" lon="5.8808">
        <ele>824.20001220703</ele>
        <time>2019-06-17T07:25:45.000Z</time>
      </trkpt>
      <trkpt lat="46.61819" lon="5.88083">
        <ele>824.79998779297</ele>
        <time>2019-06-17T07:26:12.000Z</time>
      </trkpt>
      <trkpt lat="46.61819" lon="5.88086">
        <ele>825</ele>
        <time>2019-06-17T07:26:14.000Z</time>
      </trkpt>
      <trkpt lat="46.61819" lon="5.8809">
        <ele>825</ele>
        <time>2019-06-17T07:26:16.000Z</time>
      </trkpt>
      <trkpt lat="46.61819" lon="5.88093">
        <ele>825</ele>
        <time>2019-06-17T07:26:18.000Z</time>
      </trkpt>
      <trkpt lat="46.61819" lon="5.88097">
        <ele>825.20001220703</ele>
        <time>2019-06-17T07:26:20.000Z</time>
      </trkpt>
      <trkpt lat="46.61818" lon="5.88101">
        <ele>824.60097162207</ele>
        <time>2019-06-17T07:26:22.000Z</time>
      </trkpt>
      <trkpt lat="46.61818" lon="5.88106">
        <ele>824.59997558594</ele>
        <time>2019-06-17T07:26:24.000Z</time>
      </trkpt>
      <trkpt lat="46.61817" lon="5.8811">
        <ele>824.79998779297</ele>
        <time>2019-06-17T07:26:26.000Z</time>
      </trkpt>
      <trkpt lat="46.61817" lon="5.88114">
        <ele>824.59997558594</ele>
        <time>2019-06-17T07:26:28.000Z</time>
      </trkpt>
      <trkpt lat="46.61817" lon="5.88116">
        <ele>824.20001220703</ele>
        <time>2019-06-17T07:26:30.000Z</time>
      </trkpt>
      <trkpt lat="46.61818" lon="5.88128">
        <ele>824.40002441406</ele>
        <time>2019-06-17T07:26:36.000Z</time>
      </trkpt>
      <trkpt lat="46.61818" lon="5.88132">
        <ele>824.59997558594</ele>
        <time>2019-06-17T07:26:38.000Z</time>
      </trkpt>
      <trkpt lat="46.61818" lon="5.88136">
        <ele>824.20001220703</ele>
        <time>2019-06-17T07:26:40.000Z</time>
      </trkpt>
      <trkpt lat="46.61817" lon="5.8814">
        <ele>824</ele>
        <time>2019-06-17T07:26:42.000Z</time>
      </trkpt>
      <trkpt lat="46.61817" lon="5.88145">
        <ele>824.20001220703</ele>
        <time>2019-06-17T07:26:44.000Z</time>
      </trkpt>
      <trkpt lat="46.61817" lon="5.88149">
        <ele>824.20001220703</ele>
        <time>2019-06-17T07:26:46.000Z</time>
      </trkpt>
      <trkpt lat="46.61817" lon="5.88153">
        <ele>824</ele>
        <time>2019-06-17T07:26:48.000Z</time>
      </trkpt>
      <trkpt lat="46.61816" lon="5.88158">
        <ele>824</ele>
        <time>2019-06-17T07:26:51.000Z</time>
      </trkpt>
      <trkpt lat="46.61815" lon="5.88164">
        <ele>824.20001220703</ele>
        <time>2019-06-17T07:26:54.000Z</time>
      </trkpt>
      <trkpt lat="46.61815" lon="5.88167">
        <ele>823.79998779297</ele>
        <time>2019-06-17T07:26:56.000Z</time>
      </trkpt>
      <trkpt lat="46.61817" lon="5.8818">
        <ele>823</ele>
        <time>2019-06-17T07:27:03.000Z</time>
      </trkpt>
      <trkpt lat="46.61812" lon="5.88192">
        <ele>822.79998779297</ele>
        <time>2019-06-17T07:27:09.000Z</time>
      </trkpt>
      <trkpt lat="46.61806" lon="5.88202">
        <ele>822.40002441406</ele>
        <time>2019-06-17T07:27:15.000Z</time>
      </trkpt>
      <trkpt lat="46.61797" lon="5.8821">
        <ele>822.20001220703</ele>
        <time>2019-06-17T07:27:21.000Z</time>
      </trkpt>
      <trkpt lat="46.61791" lon="5.88217">
        <ele>822.40002441406</ele>
        <time>2019-06-17T07:27:53.000Z</time>
      </trkpt>
      <trkpt lat="46.61782" lon="5.88211">
        <ele>822.59997558594</ele>
        <time>2019-06-17T07:28:05.000Z</time>
      </trkpt>
      <trkpt lat="46.61772" lon="5.88208">
        <ele>822.20001220703</ele>
        <time>2019-06-17T07:28:11.000Z</time>
      </trkpt>
      <trkpt lat="46.61762" lon="5.88206">
        <ele>822.20001220703</ele>
        <time>2019-06-17T07:28:20.000Z</time>
      </trkpt>
      <trkpt lat="46.61754" lon="5.88198">
        <ele>822.20001220703</ele>
        <time>2019-06-17T07:28:29.000Z</time>
      </trkpt>
      <trkpt lat="46.61745" lon="5.88194">
        <ele>822.20001220703</ele>
        <time>2019-06-17T07:28:32.000Z</time>
      </trkpt>
      <trkpt lat="46.61741" lon="5.88193">
        <ele>822.20001220703</ele>
        <time>2019-06-17T07:28:34.000Z</time>
      </trkpt>
      <trkpt lat="46.61737" lon="5.88192">
        <ele>822.20001220703</ele>
        <time>2019-06-17T07:28:36.000Z</time>
      </trkpt>
      <trkpt lat="46.61735" lon="5.88192">
        <ele>822.20001220703</ele>
        <time>2019-06-17T07:28:38.000Z</time>
      </trkpt>
      <trkpt lat="46.61732" lon="5.88192">
        <ele>819.59997558594</ele>
        <time>2019-06-17T07:28:40.000Z</time>
      </trkpt>
      <trkpt lat="46.61728" lon="5.8819">
        <ele>819.40002441406</ele>
        <time>2019-06-17T07:28:43.000Z</time>
      </trkpt>
      <trkpt lat="46.61727" lon="5.88189">
        <ele>819.40002441406</ele>
        <time>2019-06-17T07:28:44.000Z</time>
      </trkpt>
      <trkpt lat="46.61725" lon="5.88187">
        <ele>819.40002441406</ele>
        <time>2019-06-17T07:28:46.000Z</time>
      </trkpt>
      <trkpt lat="46.61722" lon="5.88186">
        <ele>819.40002441406</ele>
        <time>2019-06-17T07:28:48.000Z</time>
      </trkpt>
      <trkpt lat="46.61719" lon="5.88186">
        <ele>819</ele>
        <time>2019-06-17T07:28:50.000Z</time>
      </trkpt>
      <trkpt lat="46.61717" lon="5.88185">
        <ele>819</ele>
        <time>2019-06-17T07:28:52.000Z</time>
      </trkpt>
      <trkpt lat="46.61715" lon="5.88184">
        <ele>819.40002441406</ele>
        <time>2019-06-17T07:28:54.000Z</time>
      </trkpt>
      <trkpt lat="46.61713" lon="5.88184">
        <ele>819.20021270248</ele>
        <time>2019-06-17T07:28:56.000Z</time>
      </trkpt>
      <trkpt lat="46.6171" lon="5.88183">
        <ele>818.79998779297</ele>
        <time>2019-06-17T07:28:58.000Z</time>
      </trkpt>
      <trkpt lat="46.61708" lon="5.88184">
        <ele>818.59997558594</ele>
        <time>2019-06-17T07:29:00.000Z</time>
      </trkpt>
      <trkpt lat="46.61705" lon="5.88183">
        <ele>818.79998779297</ele>
        <time>2019-06-17T07:29:02.000Z</time>
      </trkpt>
      <trkpt lat="46.61703" lon="5.88183">
        <ele>818.40002441406</ele>
        <time>2019-06-17T07:29:04.000Z</time>
      </trkpt>
      <trkpt lat="46.61693" lon="5.88183">
        <ele>818</ele>
        <time>2019-06-17T07:29:11.000Z</time>
      </trkpt>
      <trkpt lat="46.61689" lon="5.88183">
        <ele>817.79998779297</ele>
        <time>2019-06-17T07:29:13.000Z</time>
      </trkpt>
      <trkpt lat="46.61687" lon="5.88183">
        <ele>818</ele>
        <time>2019-06-17T07:29:15.000Z</time>
      </trkpt>
      <trkpt lat="46.61684" lon="5.88182">
        <ele>817.59997558594</ele>
        <time>2019-06-17T07:29:17.000Z</time>
      </trkpt>
      <trkpt lat="46.61681" lon="5.8818">
        <ele>818</ele>
        <time>2019-06-17T07:29:20.000Z</time>
      </trkpt>
      <trkpt lat="46.61679" lon="5.88178">
        <ele>817.59997558594</ele>
        <time>2019-06-17T07:29:22.000Z</time>
      </trkpt>
      <trkpt lat="46.61677" lon="5.88177">
        <ele>817.79998779297</ele>
        <time>2019-06-17T07:29:24.000Z</time>
      </trkpt>
      <trkpt lat="46.61674" lon="5.88175">
        <ele>817.79998779297</ele>
        <time>2019-06-17T07:29:26.000Z</time>
      </trkpt>
      <trkpt lat="46.61672" lon="5.88174">
        <ele>817.40002441406</ele>
        <time>2019-06-17T07:29:28.000Z</time>
      </trkpt>
      <trkpt lat="46.6167" lon="5.88174">
        <ele>817.40002441406</ele>
        <time>2019-06-17T07:29:30.000Z</time>
      </trkpt>
      <trkpt lat="46.61667" lon="5.88174">
        <ele>817.59997558594</ele>
        <time>2019-06-17T07:29:32.000Z</time>
      </trkpt>
      <trkpt lat="46.61656" lon="5.88176">
        <ele>816.79998779297</ele>
        <time>2019-06-17T07:29:41.000Z</time>
      </trkpt>
      <trkpt lat="46.61651" lon="5.88175">
        <ele>817</ele>
        <time>2019-06-17T07:29:45.000Z</time>
      </trkpt>
      <trkpt lat="46.61641" lon="5.88172">
        <ele>816.40002441406</ele>
        <time>2019-06-17T07:29:52.000Z</time>
      </trkpt>
      <trkpt lat="46.61631" lon="5.88171">
        <ele>816.20001220703</ele>
        <time>2019-06-17T07:29:59.000Z</time>
      </trkpt>
      <trkpt lat="46.61622" lon="5.88169">
        <ele>815.59997558594</ele>
        <time>2019-06-17T07:30:05.000Z</time>
      </trkpt>
      <trkpt lat="46.61613" lon="5.88168">
        <ele>815.40002441406</ele>
        <time>2019-06-17T07:30:10.000Z</time>
      </trkpt>
      <trkpt lat="46.6161" lon="5.88168">
        <ele>815.40002441406</ele>
        <time>2019-06-17T07:30:12.000Z</time>
      </trkpt>
      <trkpt lat="46.61607" lon="5.88168">
        <ele>814.79998779297</ele>
        <time>2019-06-17T07:30:14.000Z</time>
      </trkpt>
      <trkpt lat="46.61604" lon="5.8817">
        <ele>814.79998779297</ele>
        <time>2019-06-17T07:30:16.000Z</time>
      </trkpt>
      <trkpt lat="46.61601" lon="5.88171">
        <ele>815</ele>
        <time>2019-06-17T07:30:18.000Z</time>
      </trkpt>
      <trkpt lat="46.61599" lon="5.88173">
        <ele>814.59997558594</ele>
        <time>2019-06-17T07:30:20.000Z</time>
      </trkpt>
      <trkpt lat="46.6159" lon="5.88178">
        <ele>814.59997558594</ele>
        <time>2019-06-17T07:30:28.000Z</time>
      </trkpt>
      <trkpt lat="46.61583" lon="5.88186">
        <ele>814.40002441406</ele>
        <time>2019-06-17T07:30:36.000Z</time>
      </trkpt>
      <trkpt lat="46.6158" lon="5.88188">
        <ele>814.40002441406</ele>
        <time>2019-06-17T07:30:38.000Z</time>
      </trkpt>
      <trkpt lat="46.61577" lon="5.88189">
        <ele>814</ele>
        <time>2019-06-17T07:30:40.000Z</time>
      </trkpt>
      <trkpt lat="46.61575" lon="5.88189">
        <ele>813.40002441406</ele>
        <time>2019-06-17T07:30:41.000Z</time>
      </trkpt>
      <trkpt lat="46.61573" lon="5.8819">
        <ele>813.40002441406</ele>
        <time>2019-06-17T07:30:42.000Z</time>
      </trkpt>
      <trkpt lat="46.6157" lon="5.88191">
        <ele>813.20001220703</ele>
        <time>2019-06-17T07:30:44.000Z</time>
      </trkpt>
      <trkpt lat="46.61568" lon="5.88193">
        <ele>813.59997558594</ele>
        <time>2019-06-17T07:30:46.000Z</time>
      </trkpt>
      <trkpt lat="46.61565" lon="5.88193">
        <ele>813.40002441406</ele>
        <time>2019-06-17T07:30:48.000Z</time>
      </trkpt>
      <trkpt lat="46.61563" lon="5.88194">
        <ele>813</ele>
        <time>2019-06-17T07:30:50.000Z</time>
      </trkpt>
      <trkpt lat="46.61561" lon="5.88195">
        <ele>813</ele>
        <time>2019-06-17T07:30:52.000Z</time>
      </trkpt>
      <trkpt lat="46.61559" lon="5.88196">
        <ele>813</ele>
        <time>2019-06-17T07:30:54.000Z</time>
      </trkpt>
      <trkpt lat="46.61557" lon="5.88197">
        <ele>812.79998779297</ele>
        <time>2019-06-17T07:30:57.000Z</time>
      </trkpt>
      <trkpt lat="46.61555" lon="5.88197">
        <ele>812.79998779297</ele>
        <time>2019-06-17T07:31:00.000Z</time>
      </trkpt>
      <trkpt lat="46.61553" lon="5.88197">
        <ele>812.59997558594</ele>
        <time>2019-06-17T07:31:03.000Z</time>
      </trkpt>
      <trkpt lat="46.61551" lon="5.88198">
        <ele>812.40002441406</ele>
        <time>2019-06-17T07:31:06.000Z</time>
      </trkpt>
      <trkpt lat="46.61548" lon="5.88199">
        <ele>812.40002441406</ele>
        <time>2019-06-17T07:31:08.000Z</time>
      </trkpt>
      <trkpt lat="46.61546" lon="5.882">
        <ele>812.40002441406</ele>
        <time>2019-06-17T07:31:11.000Z</time>
      </trkpt>
      <trkpt lat="46.61544" lon="5.88201">
        <ele>812.20001220703</ele>
        <time>2019-06-17T07:31:14.000Z</time>
      </trkpt>
      <trkpt lat="46.61542" lon="5.88201">
        <ele>812</ele>
        <time>2019-06-17T07:31:16.000Z</time>
      </trkpt>
      <trkpt lat="46.6154" lon="5.88202">
        <ele>811.79998779297</ele>
        <time>2019-06-17T07:31:17.000Z</time>
      </trkpt>
      <trkpt lat="46.61539" lon="5.88204">
        <ele>811.59997558594</ele>
        <time>2019-06-17T07:31:19.000Z</time>
      </trkpt>
      <trkpt lat="46.61537" lon="5.88207">
        <ele>811.59997558594</ele>
        <time>2019-06-17T07:31:21.000Z</time>
      </trkpt>
      <trkpt lat="46.61535" lon="5.8821">
        <ele>811.59997558594</ele>
        <time>2019-06-17T07:31:23.000Z</time>
      </trkpt>
      <trkpt lat="46.61534" lon="5.88213">
        <ele>811.20001220703</ele>
        <time>2019-06-17T07:31:25.000Z</time>
      </trkpt>
      <trkpt lat="46.61534" lon="5.88216">
        <ele>810.59997558594</ele>
        <time>2019-06-17T07:31:27.000Z</time>
      </trkpt>
      <trkpt lat="46.61526" lon="5.88224">
        <ele>809</ele>
        <time>2019-06-17T07:31:37.000Z</time>
      </trkpt>
      <trkpt lat="46.61515" lon="5.88228">
        <ele>808</ele>
        <time>2019-06-17T07:31:43.000Z</time>
      </trkpt>
      <trkpt lat="46.61507" lon="5.88234">
        <ele>807</ele>
        <time>2019-06-17T07:31:49.000Z</time>
      </trkpt>
      <trkpt lat="46.61498" lon="5.88241">
        <ele>806</ele>
        <time>2019-06-17T07:31:56.000Z</time>
      </trkpt>
      <trkpt lat="46.6149" lon="5.8825">
        <ele>805</ele>
        <time>2019-06-17T07:32:05.000Z</time>
      </trkpt>
      <trkpt lat="46.61487" lon="5.88252">
        <ele>805.20001220703</ele>
        <time>2019-06-17T07:32:08.000Z</time>
      </trkpt>
      <trkpt lat="46.61478" lon="5.88254">
        <ele>804.20001220703</ele>
        <time>2019-06-17T07:32:14.000Z</time>
      </trkpt>
      <trkpt lat="46.6147" lon="5.88259">
        <ele>803.80118134114</ele>
        <time>2019-06-17T07:32:19.000Z</time>
      </trkpt>
      <trkpt lat="46.61467" lon="5.8826">
        <ele>803.40002441406</ele>
        <time>2019-06-17T07:32:21.000Z</time>
      </trkpt>
      <trkpt lat="46.61465" lon="5.88261">
        <ele>802.59997558594</ele>
        <time>2019-06-17T07:32:23.000Z</time>
      </trkpt>
      <trkpt lat="46.61463" lon="5.88261">
        <ele>802.20001220703</ele>
        <time>2019-06-17T07:32:25.000Z</time>
      </trkpt>
      <trkpt lat="46.61459" lon="5.88265">
        <ele>801.79998779297</ele>
        <time>2019-06-17T07:32:28.000Z</time>
      </trkpt>
      <trkpt lat="46.61452" lon="5.88272">
        <ele>801.20001220703</ele>
        <time>2019-06-17T07:32:35.000Z</time>
      </trkpt>
      <trkpt lat="46.61449" lon="5.88275">
        <ele>800.40002441406</ele>
        <time>2019-06-17T07:32:38.000Z</time>
      </trkpt>
      <trkpt lat="46.61447" lon="5.88277">
        <ele>800.40002441406</ele>
        <time>2019-06-17T07:32:40.000Z</time>
      </trkpt>
      <trkpt lat="46.61445" lon="5.88277">
        <ele>800.40002441406</ele>
        <time>2019-06-17T07:32:41.000Z</time>
      </trkpt>
      <trkpt lat="46.61443" lon="5.8828">
        <ele>799.79998779297</ele>
        <time>2019-06-17T07:32:43.000Z</time>
      </trkpt>
      <trkpt lat="46.61434" lon="5.88283">
        <ele>799.59997558594</ele>
        <time>2019-06-17T07:32:51.000Z</time>
      </trkpt>
      <trkpt lat="46.6143" lon="5.88285">
        <ele>798.79998779297</ele>
        <time>2019-06-17T07:32:54.000Z</time>
      </trkpt>
      <trkpt lat="46.61427" lon="5.88288">
        <ele>798.79998779297</ele>
        <time>2019-06-17T07:32:56.000Z</time>
      </trkpt>
      <trkpt lat="46.61418" lon="5.88292">
        <ele>798</ele>
        <time>2019-06-17T07:33:03.000Z</time>
      </trkpt>
      <trkpt lat="46.61409" lon="5.88294">
        <ele>797</ele>
        <time>2019-06-17T07:33:10.000Z</time>
      </trkpt>
      <trkpt lat="46.614" lon="5.88298">
        <ele>795.79998779297</ele>
        <time>2019-06-17T07:33:17.000Z</time>
      </trkpt>
      <trkpt lat="46.61394" lon="5.88305">
        <ele>795</ele>
        <time>2019-06-17T07:33:22.000Z</time>
      </trkpt>
      <trkpt lat="46.61386" lon="5.88313">
        <ele>794.40002441406</ele>
        <time>2019-06-17T07:33:29.000Z</time>
      </trkpt>
      <trkpt lat="46.61383" lon="5.88315">
        <ele>794.40002441406</ele>
        <time>2019-06-17T07:33:31.000Z</time>
      </trkpt>
      <trkpt lat="46.61381" lon="5.88317">
        <ele>794.20001220703</ele>
        <time>2019-06-17T07:33:33.000Z</time>
      </trkpt>
      <trkpt lat="46.61379" lon="5.88319">
        <ele>794</ele>
        <time>2019-06-17T07:33:35.000Z</time>
      </trkpt>
      <trkpt lat="46.61377" lon="5.88321">
        <ele>793.20001220703</ele>
        <time>2019-06-17T07:33:37.000Z</time>
      </trkpt>
      <trkpt lat="46.61375" lon="5.88323">
        <ele>792.79998779297</ele>
        <time>2019-06-17T07:33:39.000Z</time>
      </trkpt>
      <trkpt lat="46.61373" lon="5.88324">
        <ele>792.59997558594</ele>
        <time>2019-06-17T07:33:41.000Z</time>
      </trkpt>
      <trkpt lat="46.61371" lon="5.88327">
        <ele>792.20001220703</ele>
        <time>2019-06-17T07:33:43.000Z</time>
      </trkpt>
      <trkpt lat="46.61369" lon="5.88329">
        <ele>792.40002441406</ele>
        <time>2019-06-17T07:33:45.000Z</time>
      </trkpt>
      <trkpt lat="46.61367" lon="5.88331">
        <ele>792.40002441406</ele>
        <time>2019-06-17T07:33:47.000Z</time>
      </trkpt>
      <trkpt lat="46.61366" lon="5.88336">
        <ele>791.79998779297</ele>
        <time>2019-06-17T07:33:52.000Z</time>
      </trkpt>
      <trkpt lat="46.61357" lon="5.8834">
        <ele>791.20001220703</ele>
        <time>2019-06-17T07:34:00.000Z</time>
      </trkpt>
      <trkpt lat="46.61348" lon="5.88345">
        <ele>790.40002441406</ele>
        <time>2019-06-17T07:34:07.000Z</time>
      </trkpt>
      <trkpt lat="46.6134" lon="5.88351">
        <ele>789.40002441406</ele>
        <time>2019-06-17T07:34:15.000Z</time>
      </trkpt>
      <trkpt lat="46.61329" lon="5.88351">
        <ele>788.79998779297</ele>
        <time>2019-06-17T07:34:21.000Z</time>
      </trkpt>
      <trkpt lat="46.6132" lon="5.88353">
        <ele>788</ele>
        <time>2019-06-17T07:34:28.000Z</time>
      </trkpt>
      <trkpt lat="46.61312" lon="5.88361">
        <ele>787</ele>
        <time>2019-06-17T07:34:35.000Z</time>
      </trkpt>
      <trkpt lat="46.61303" lon="5.88367">
        <ele>786.40002441406</ele>
        <time>2019-06-17T07:34:42.000Z</time>
      </trkpt>
      <trkpt lat="46.61294" lon="5.8837">
        <ele>785.40002441406</ele>
        <time>2019-06-17T07:34:48.000Z</time>
      </trkpt>
      <trkpt lat="46.61286" lon="5.88369">
        <ele>785.20100824316</ele>
        <time>2019-06-17T07:34:52.000Z</time>
      </trkpt>
      <trkpt lat="46.61277" lon="5.88372">
        <ele>783.59997558594</ele>
        <time>2019-06-17T07:34:59.000Z</time>
      </trkpt>
      <trkpt lat="46.61269" lon="5.8838">
        <ele>783</ele>
        <time>2019-06-17T07:35:05.000Z</time>
      </trkpt>
      <trkpt lat="46.61259" lon="5.88384">
        <ele>782.20001220703</ele>
        <time>2019-06-17T07:35:12.000Z</time>
      </trkpt>
      <trkpt lat="46.6125" lon="5.88383">
        <ele>782.59997558594</ele>
        <time>2019-06-17T07:35:18.000Z</time>
      </trkpt>
      <trkpt lat="46.6124" lon="5.8838">
        <ele>783.20001220703</ele>
        <time>2019-06-17T07:35:23.000Z</time>
      </trkpt>
      <trkpt lat="46.6123" lon="5.88379">
        <ele>783.59997558594</ele>
        <time>2019-06-17T07:35:31.000Z</time>
      </trkpt>
      <trkpt lat="46.61222" lon="5.8838">
        <ele>785.59997558594</ele>
        <time>2019-06-17T07:35:47.000Z</time>
      </trkpt>
      <trkpt lat="46.61217" lon="5.88394">
        <ele>786.40002441406</ele>
        <time>2019-06-17T07:36:00.000Z</time>
      </trkpt>
      <trkpt lat="46.61208" lon="5.88393">
        <ele>786.20001220703</ele>
        <time>2019-06-17T07:36:07.000Z</time>
      </trkpt>
      <trkpt lat="46.61198" lon="5.88393">
        <ele>786.59997558594</ele>
        <time>2019-06-17T07:36:12.000Z</time>
      </trkpt>
      <trkpt lat="46.61196" lon="5.88407">
        <ele>787.79998779297</ele>
        <time>2019-06-17T07:36:35.000Z</time>
      </trkpt>
      <trkpt lat="46.61193" lon="5.88395">
        <ele>789</ele>
        <time>2019-06-17T07:36:49.000Z</time>
      </trkpt>
      <trkpt lat="46.61192" lon="5.88392">
        <ele>790.79998779297</ele>
        <time>2019-06-17T07:37:13.000Z</time>
      </trkpt>
      <trkpt lat="46.61191" lon="5.88391">
        <ele>790.59997558594</ele>
        <time>2019-06-17T07:37:18.000Z</time>
      </trkpt>
      <trkpt lat="46.61193" lon="5.8839">
        <ele>790.2012057552</ele>
        <time>2019-06-17T07:37:25.000Z</time>
      </trkpt>
      <trkpt lat="46.61195" lon="5.88388">
        <ele>790.20001220703</ele>
        <time>2019-06-17T07:37:27.000Z</time>
      </trkpt>
      <trkpt lat="46.61196" lon="5.88385">
        <ele>790</ele>
        <time>2019-06-17T07:37:29.000Z</time>
      </trkpt>
      <trkpt lat="46.61194" lon="5.88384">
        <ele>789.59997558594</ele>
        <time>2019-06-17T07:37:34.000Z</time>
      </trkpt>
      <trkpt lat="46.61187" lon="5.88375">
        <ele>787.59997558594</ele>
        <time>2019-06-17T07:37:51.000Z</time>
      </trkpt>
      <trkpt lat="46.61189" lon="5.88377">
        <ele>787</ele>
        <time>2019-06-17T07:37:56.000Z</time>
      </trkpt>
      <trkpt lat="46.61189" lon="5.88374">
        <ele>787</ele>
        <time>2019-06-17T07:38:19.000Z</time>
      </trkpt>
      <trkpt lat="46.61188" lon="5.8837">
        <ele>786.79998779297</ele>
        <time>2019-06-17T07:38:39.000Z</time>
      </trkpt>
      <trkpt lat="46.61189" lon="5.88366">
        <ele>786.79998779297</ele>
        <time>2019-06-17T07:38:43.000Z</time>
      </trkpt>
      <trkpt lat="46.6119" lon="5.88363">
        <ele>786.79998779297</ele>
        <time>2019-06-17T07:38:46.000Z</time>
      </trkpt>
      <trkpt lat="46.61189" lon="5.88361">
        <ele>786.79998779297</ele>
        <time>2019-06-17T07:38:48.000Z</time>
      </trkpt>
      <trkpt lat="46.61187" lon="5.88357">
        <ele>787</ele>
        <time>2019-06-17T07:38:50.000Z</time>
      </trkpt>
      <trkpt lat="46.61184" lon="5.88356">
        <ele>786.59997558594</ele>
        <time>2019-06-17T07:38:52.000Z</time>
      </trkpt>
      <trkpt lat="46.61182" lon="5.88355">
        <ele>786.20001220703</ele>
        <time>2019-06-17T07:38:53.000Z</time>
      </trkpt>
      <trkpt lat="46.61179" lon="5.88353">
        <ele>785.40002441406</ele>
        <time>2019-06-17T07:38:55.000Z</time>
      </trkpt>
      <trkpt lat="46.61177" lon="5.88351">
        <ele>785.20001220703</ele>
        <time>2019-06-17T07:38:57.000Z</time>
      </trkpt>
      <trkpt lat="46.61174" lon="5.88349">
        <ele>784.79998779297</ele>
        <time>2019-06-17T07:38:59.000Z</time>
      </trkpt>
      <trkpt lat="46.61172" lon="5.88348">
        <ele>784.59997558594</ele>
        <time>2019-06-17T07:39:01.000Z</time>
      </trkpt>
      <trkpt lat="46.6117" lon="5.88347">
        <ele>784.20001220703</ele>
        <time>2019-06-17T07:39:03.000Z</time>
      </trkpt>
      <trkpt lat="46.61171" lon="5.88343">
        <ele>784.40002441406</ele>
        <time>2019-06-17T07:39:05.000Z</time>
      </trkpt>
      <trkpt lat="46.61173" lon="5.8834">
        <ele>784.40002441406</ele>
        <time>2019-06-17T07:39:06.000Z</time>
      </trkpt>
      <trkpt lat="46.61175" lon="5.88339">
        <ele>784.20100824316</ele>
        <time>2019-06-17T07:39:07.000Z</time>
      </trkpt>
      <trkpt lat="46.61177" lon="5.88338">
        <ele>784.39982391861</ele>
        <time>2019-06-17T07:39:08.000Z</time>
      </trkpt>
      <trkpt lat="46.61179" lon="5.88339">
        <ele>784.59997558594</ele>
        <time>2019-06-17T07:39:10.000Z</time>
      </trkpt>
      <trkpt lat="46.61182" lon="5.88339">
        <ele>784.59997558594</ele>
        <time>2019-06-17T07:39:12.000Z</time>
      </trkpt>
      <trkpt lat="46.61184" lon="5.8834">
        <ele>784.59997558594</ele>
        <time>2019-06-17T07:39:16.000Z</time>
      </trkpt>
      <trkpt lat="46.61182" lon="5.88342">
        <ele>784.79998779297</ele>
        <time>2019-06-17T07:39:24.000Z</time>
      </trkpt>
      <trkpt lat="46.6118" lon="5.88342">
        <ele>785.20001220703</ele>
        <time>2019-06-17T07:39:38.000Z</time>
      </trkpt>
      <trkpt lat="46.61179" lon="5.88344">
        <ele>785</ele>
        <time>2019-06-17T07:39:47.000Z</time>
      </trkpt>
      <trkpt lat="46.61177" lon="5.88345">
        <ele>785</ele>
        <time>2019-06-17T07:40:17.000Z</time>
      </trkpt>
      <trkpt lat="46.61175" lon="5.88346">
        <ele>785</ele>
        <time>2019-06-17T07:40:30.000Z</time>
      </trkpt>
      <trkpt lat="46.61174" lon="5.88349">
        <ele>785.20001220703</ele>
        <time>2019-06-17T07:40:40.000Z</time>
      </trkpt>
      <trkpt lat="46.61174" lon="5.88352">
        <ele>785</ele>
        <time>2019-06-17T07:40:46.000Z</time>
      </trkpt>
      <trkpt lat="46.61174" lon="5.88355">
        <ele>784.79998779297</ele>
        <time>2019-06-17T07:40:51.000Z</time>
      </trkpt>
      <trkpt lat="46.61177" lon="5.88366">
        <ele>784.79998779297</ele>
        <time>2019-06-17T07:41:06.000Z</time>
      </trkpt>
      <trkpt lat="46.61183" lon="5.8837">
        <ele>784.79998779297</ele>
        <time>2019-06-17T07:41:20.000Z</time>
      </trkpt>
      <trkpt lat="46.61183" lon="5.88367">
        <ele>784.79998779297</ele>
        <time>2019-06-17T07:41:31.000Z</time>
      </trkpt>
      <trkpt lat="46.61185" lon="5.88365">
        <ele>784.79998779297</ele>
        <time>2019-06-17T07:41:34.000Z</time>
      </trkpt>
      <trkpt lat="46.61182" lon="5.88364">
        <ele>784.79998779297</ele>
        <time>2019-06-17T07:41:39.000Z</time>
      </trkpt>
      <trkpt lat="46.61183" lon="5.88372">
        <ele>784.79998779297</ele>
        <time>2019-06-17T07:42:11.000Z</time>
      </trkpt>
      <trkpt lat="46.61183" lon="5.88375">
        <ele>784.79998779297</ele>
        <time>2019-06-17T07:42:43.000Z</time>
      </trkpt>
      <trkpt lat="46.61183" lon="5.88379">
        <ele>784.79998779297</ele>
        <time>2019-06-17T07:43:11.000Z</time>
      </trkpt>
      <trkpt lat="46.61191" lon="5.88375">
        <ele>784.79998779297</ele>
        <time>2019-06-17T07:44:30.000Z</time>
      </trkpt>
      <trkpt lat="46.61193" lon="5.88376">
        <ele>784.79998779297</ele>
        <time>2019-06-17T07:45:24.000Z</time>
      </trkpt>
      <trkpt lat="46.61194" lon="5.88374">
        <ele>784.79998779297</ele>
        <time>2019-06-17T07:45:28.000Z</time>
      </trkpt>
      <trkpt lat="46.61188" lon="5.88374">
        <ele>784.79998779297</ele>
        <time>2019-06-17T07:45:45.000Z</time>
      </trkpt>
      <trkpt lat="46.61185" lon="5.88373">
        <ele>784.79998779297</ele>
        <time>2019-06-17T07:45:48.000Z</time>
      </trkpt>
      <trkpt lat="46.61183" lon="5.88372">
        <ele>784.79998779297</ele>
        <time>2019-06-17T07:45:52.000Z</time>
      </trkpt>
      <trkpt lat="46.6118" lon="5.88373">
        <ele>784.79998779297</ele>
        <time>2019-06-17T07:45:58.000Z</time>
      </trkpt>
      <trkpt lat="46.61179" lon="5.8837">
        <ele>784.79998779297</ele>
        <time>2019-06-17T07:46:03.000Z</time>
      </trkpt>
      <trkpt lat="46.61179" lon="5.88366">
        <ele>784.79998779297</ele>
        <time>2019-06-17T07:46:06.000Z</time>
      </trkpt>
      <trkpt lat="46.61179" lon="5.88364">
        <ele>784.79998779297</ele>
        <time>2019-06-17T07:46:12.000Z</time>
      </trkpt>
      <trkpt lat="46.61178" lon="5.88361">
        <ele>784.79998779297</ele>
        <time>2019-06-17T07:46:22.000Z</time>
      </trkpt>
      <trkpt lat="46.61178" lon="5.88359">
        <ele>784.79998779297</ele>
        <time>2019-06-17T07:46:25.000Z</time>
      </trkpt>
      <trkpt lat="46.61176" lon="5.88356">
        <ele>784.79998779297</ele>
        <time>2019-06-17T07:46:28.000Z</time>
      </trkpt>
      <trkpt lat="46.61177" lon="5.88353">
        <ele>784.79998779297</ele>
        <time>2019-06-17T07:46:31.000Z</time>
      </trkpt>
      <trkpt lat="46.61179" lon="5.88351">
        <ele>784.79998779297</ele>
        <time>2019-06-17T07:46:38.000Z</time>
      </trkpt>
      <trkpt lat="46.6118" lon="5.88349">
        <ele>784.79998779297</ele>
        <time>2019-06-17T07:46:40.000Z</time>
      </trkpt>
      <trkpt lat="46.61182" lon="5.88346">
        <ele>784.79998779297</ele>
        <time>2019-06-17T07:46:42.000Z</time>
      </trkpt>
      <trkpt lat="46.61182" lon="5.88344">
        <ele>784.79998779297</ele>
        <time>2019-06-17T07:46:44.000Z</time>
      </trkpt>
      <trkpt lat="46.61182" lon="5.88341">
        <ele>784.79998779297</ele>
        <time>2019-06-17T07:46:50.000Z</time>
      </trkpt>
      <trkpt lat="46.61182" lon="5.88338">
        <ele>784.79998779297</ele>
        <time>2019-06-17T07:46:57.000Z</time>
      </trkpt>
      <trkpt lat="46.61182" lon="5.88341">
        <ele>784.79998779297</ele>
        <time>2019-06-17T07:47:05.000Z</time>
      </trkpt>
      <trkpt lat="46.61181" lon="5.88344">
        <ele>784.79998779297</ele>
        <time>2019-06-17T07:47:10.000Z</time>
      </trkpt>
      <trkpt lat="46.61183" lon="5.88342">
        <ele>784.79998779297</ele>
        <time>2019-06-17T07:47:30.000Z</time>
      </trkpt>
      <trkpt lat="46.61185" lon="5.88342">
        <ele>784.79998779297</ele>
        <time>2019-06-17T07:47:41.000Z</time>
      </trkpt>
      <trkpt lat="46.61183" lon="5.88339">
        <ele>784.79998779297</ele>
        <time>2019-06-17T07:48:16.000Z</time>
      </trkpt>
      <trkpt lat="46.61182" lon="5.88338">
        <ele>784.79998779297</ele>
        <time>2019-06-17T07:48:20.000Z</time>
      </trkpt>
      <trkpt lat="46.61181" lon="5.88341">
        <ele>784.79998779297</ele>
        <time>2019-06-17T07:48:42.000Z</time>
      </trkpt>
      <trkpt lat="46.61179" lon="5.88344">
        <ele>784.79998779297</ele>
        <time>2019-06-17T07:48:59.000Z</time>
      </trkpt>
      <trkpt lat="46.61177" lon="5.88346">
        <ele>784.79998779297</ele>
        <time>2019-06-17T07:49:38.000Z</time>
      </trkpt>
      <trkpt lat="46.61179" lon="5.88348">
        <ele>784.79998779297</ele>
        <time>2019-06-17T07:50:02.000Z</time>
      </trkpt>
      <trkpt lat="46.6118" lon="5.88351">
        <ele>784.79998779297</ele>
        <time>2019-06-17T07:50:06.000Z</time>
      </trkpt>
      <trkpt lat="46.61178" lon="5.88349">
        <ele>784.79998779297</ele>
        <time>2019-06-17T07:50:11.000Z</time>
      </trkpt>
      <trkpt lat="46.61175" lon="5.88347">
        <ele>784.79998779297</ele>
        <time>2019-06-17T07:50:49.000Z</time>
      </trkpt>
      <trkpt lat="46.61174" lon="5.88347">
        <ele>784.79998779297</ele>
        <time>2019-06-17T07:50:50.000Z</time>
      </trkpt>
      <trkpt lat="46.61171" lon="5.88346">
        <ele>784.79998779297</ele>
        <time>2019-06-17T07:50:52.000Z</time>
      </trkpt>
      <trkpt lat="46.61169" lon="5.88343">
        <ele>784.79998779297</ele>
        <time>2019-06-17T07:50:54.000Z</time>
      </trkpt>
      <trkpt lat="46.61167" lon="5.88341">
        <ele>784.79998779297</ele>
        <time>2019-06-17T07:50:56.000Z</time>
      </trkpt>
      <trkpt lat="46.61165" lon="5.8834">
        <ele>784.79998779297</ele>
        <time>2019-06-17T07:50:58.000Z</time>
      </trkpt>
      <trkpt lat="46.61163" lon="5.88338">
        <ele>784.79998779297</ele>
        <time>2019-06-17T07:51:00.000Z</time>
      </trkpt>
      <trkpt lat="46.61161" lon="5.88337">
        <ele>784.79998779297</ele>
        <time>2019-06-17T07:51:02.000Z</time>
      </trkpt>
      <trkpt lat="46.61159" lon="5.88337">
        <ele>784.79998779297</ele>
        <time>2019-06-17T07:51:04.000Z</time>
      </trkpt>
      <trkpt lat="46.61157" lon="5.88336">
        <ele>784.79998779297</ele>
        <time>2019-06-17T07:51:06.000Z</time>
      </trkpt>
      <trkpt lat="46.61155" lon="5.88335">
        <ele>784.79998779297</ele>
        <time>2019-06-17T07:51:08.000Z</time>
      </trkpt>
      <trkpt lat="46.61154" lon="5.88333">
        <ele>784.79998779297</ele>
        <time>2019-06-17T07:51:12.000Z</time>
      </trkpt>
      <trkpt lat="46.61152" lon="5.88331">
        <ele>784.79998779297</ele>
        <time>2019-06-17T07:51:14.000Z</time>
      </trkpt>
      <trkpt lat="46.61151" lon="5.88329">
        <ele>784.79998779297</ele>
        <time>2019-06-17T07:51:23.000Z</time>
      </trkpt>
      <trkpt lat="46.61149" lon="5.88328">
        <ele>784.79998779297</ele>
        <time>2019-06-17T07:51:26.000Z</time>
      </trkpt>
      <trkpt lat="46.6115" lon="5.88324">
        <ele>784.79998779297</ele>
        <time>2019-06-17T07:51:28.000Z</time>
      </trkpt>
      <trkpt lat="46.61152" lon="5.88321">
        <ele>784.79998779297</ele>
        <time>2019-06-17T07:51:32.000Z</time>
      </trkpt>
      <trkpt lat="46.61154" lon="5.88322">
        <ele>784.79998779297</ele>
        <time>2019-06-17T07:51:37.000Z</time>
      </trkpt>
      <trkpt lat="46.61152" lon="5.88325">
        <ele>784.79998779297</ele>
        <time>2019-06-17T07:51:40.000Z</time>
      </trkpt>
      <trkpt lat="46.6115" lon="5.88325">
        <ele>784.79998779297</ele>
        <time>2019-06-17T07:51:42.000Z</time>
      </trkpt>
      <trkpt lat="46.61148" lon="5.88326">
        <ele>784.79998779297</ele>
        <time>2019-06-17T07:51:45.000Z</time>
      </trkpt>
      <trkpt lat="46.61146" lon="5.88325">
        <ele>784.79998779297</ele>
        <time>2019-06-17T07:51:47.000Z</time>
      </trkpt>
      <trkpt lat="46.61143" lon="5.88325">
        <ele>784.79998779297</ele>
        <time>2019-06-17T07:51:49.000Z</time>
      </trkpt>
      <trkpt lat="46.6114" lon="5.88325">
        <ele>784.79998779297</ele>
        <time>2019-06-17T07:51:51.000Z</time>
      </trkpt>
      <trkpt lat="46.61138" lon="5.88325">
        <ele>784.79998779297</ele>
        <time>2019-06-17T07:51:53.000Z</time>
      </trkpt>
      <trkpt lat="46.61136" lon="5.88323">
        <ele>784.79998779297</ele>
        <time>2019-06-17T07:51:56.000Z</time>
      </trkpt>
      <trkpt lat="46.61134" lon="5.88323">
        <ele>784.79998779297</ele>
        <time>2019-06-17T07:51:58.000Z</time>
      </trkpt>
      <trkpt lat="46.61124" lon="5.88322">
        <ele>788.40002441406</ele>
        <time>2019-06-17T07:52:11.000Z</time>
      </trkpt>
      <trkpt lat="46.61115" lon="5.88321">
        <ele>790.59997558594</ele>
        <time>2019-06-17T07:52:23.000Z</time>
      </trkpt>
      <trkpt lat="46.61106" lon="5.88321">
        <ele>791.79998779297</ele>
        <time>2019-06-17T07:52:32.000Z</time>
      </trkpt>
      <trkpt lat="46.61097" lon="5.88316">
        <ele>793.20001220703</ele>
        <time>2019-06-17T07:52:40.000Z</time>
      </trkpt>
      <trkpt lat="46.61089" lon="5.88309">
        <ele>794.20001220703</ele>
        <time>2019-06-17T07:52:46.000Z</time>
      </trkpt>
      <trkpt lat="46.61086" lon="5.88304">
        <ele>794.59997558594</ele>
        <time>2019-06-17T07:52:49.000Z</time>
      </trkpt>
      <trkpt lat="46.61081" lon="5.88302">
        <ele>795.20001220703</ele>
        <time>2019-06-17T07:52:53.000Z</time>
      </trkpt>
      <trkpt lat="46.61078" lon="5.883">
        <ele>795.79998779297</ele>
        <time>2019-06-17T07:52:55.000Z</time>
      </trkpt>
      <trkpt lat="46.61075" lon="5.88299">
        <ele>796.20001220703</ele>
        <time>2019-06-17T07:52:57.000Z</time>
      </trkpt>
      <trkpt lat="46.61073" lon="5.88298">
        <ele>796.59997558594</ele>
        <time>2019-06-17T07:53:00.000Z</time>
      </trkpt>
      <trkpt lat="46.61071" lon="5.88297">
        <ele>797</ele>
        <time>2019-06-17T07:53:02.000Z</time>
      </trkpt>
      <trkpt lat="46.61068" lon="5.88293">
        <ele>797.20001220703</ele>
        <time>2019-06-17T07:53:05.000Z</time>
      </trkpt>
      <trkpt lat="46.6106" lon="5.88285">
        <ele>799.40002441406</ele>
        <time>2019-06-17T07:53:17.000Z</time>
      </trkpt>
      <trkpt lat="46.61051" lon="5.88281">
        <ele>800.59997558594</ele>
        <time>2019-06-17T07:53:27.000Z</time>
      </trkpt>
      <trkpt lat="46.61042" lon="5.88277">
        <ele>802.2012057552</ele>
        <time>2019-06-17T07:53:34.000Z</time>
      </trkpt>
      <trkpt lat="46.61033" lon="5.88273">
        <ele>803</ele>
        <time>2019-06-17T07:53:41.000Z</time>
      </trkpt>
      <trkpt lat="46.61025" lon="5.8827">
        <ele>804.79998779297</ele>
        <time>2019-06-17T07:53:51.000Z</time>
      </trkpt>
      <trkpt lat="46.61015" lon="5.88273">
        <ele>805.79998779297</ele>
        <time>2019-06-17T07:53:58.000Z</time>
      </trkpt>
      <trkpt lat="46.61013" lon="5.88273">
        <ele>806</ele>
        <time>2019-06-17T07:54:00.000Z</time>
      </trkpt>
      <trkpt lat="46.6101" lon="5.88274">
        <ele>806.20001220703</ele>
        <time>2019-06-17T07:54:03.000Z</time>
      </trkpt>
      <trkpt lat="46.61007" lon="5.88275">
        <ele>806.79998779297</ele>
        <time>2019-06-17T07:54:05.000Z</time>
      </trkpt>
      <trkpt lat="46.61005" lon="5.88276">
        <ele>807.40002441406</ele>
        <time>2019-06-17T07:54:09.000Z</time>
      </trkpt>
      <trkpt lat="46.61004" lon="5.88276">
        <ele>808</ele>
        <time>2019-06-17T07:54:14.000Z</time>
      </trkpt>
      <trkpt lat="46.61001" lon="5.88274">
        <ele>808</ele>
        <time>2019-06-17T07:54:16.000Z</time>
      </trkpt>
      <trkpt lat="46.60999" lon="5.88273">
        <ele>808.40002441406</ele>
        <time>2019-06-17T07:54:17.000Z</time>
      </trkpt>
      <trkpt lat="46.60991" lon="5.88264">
        <ele>809.79760106084</ele>
        <time>2019-06-17T07:54:25.000Z</time>
      </trkpt>
      <trkpt lat="46.60981" lon="5.88258">
        <ele>811.20001220703</ele>
        <time>2019-06-17T07:54:33.000Z</time>
      </trkpt>
      <trkpt lat="46.60972" lon="5.88251">
        <ele>811.79998779297</ele>
        <time>2019-06-17T07:54:37.000Z</time>
      </trkpt>
      <trkpt lat="46.6097" lon="5.88249">
        <ele>811.79998779297</ele>
        <time>2019-06-17T07:54:39.000Z</time>
      </trkpt>
      <trkpt lat="46.60967" lon="5.88246">
        <ele>812.20001220703</ele>
        <time>2019-06-17T07:54:41.000Z</time>
      </trkpt>
      <trkpt lat="46.60964" lon="5.88245">
        <ele>812.40002441406</ele>
        <time>2019-06-17T07:54:43.000Z</time>
      </trkpt>
      <trkpt lat="46.60962" lon="5.88244">
        <ele>812.59997558594</ele>
        <time>2019-06-17T07:54:45.000Z</time>
      </trkpt>
      <trkpt lat="46.6096" lon="5.88241">
        <ele>812.79998779297</ele>
        <time>2019-06-17T07:54:47.000Z</time>
      </trkpt>
      <trkpt lat="46.60958" lon="5.88239">
        <ele>813</ele>
        <time>2019-06-17T07:54:49.000Z</time>
      </trkpt>
      <trkpt lat="46.60956" lon="5.8824">
        <ele>813.20001220703</ele>
        <time>2019-06-17T07:54:51.000Z</time>
      </trkpt>
      <trkpt lat="46.60954" lon="5.88239">
        <ele>813.40002441406</ele>
        <time>2019-06-17T07:54:53.000Z</time>
      </trkpt>
      <trkpt lat="46.60952" lon="5.88239">
        <ele>814.20001220703</ele>
        <time>2019-06-17T07:54:56.000Z</time>
      </trkpt>
      <trkpt lat="46.60949" lon="5.88239">
        <ele>814.40002441406</ele>
        <time>2019-06-17T07:54:59.000Z</time>
      </trkpt>
      <trkpt lat="46.60947" lon="5.88239">
        <ele>814.79998779297</ele>
        <time>2019-06-17T07:55:01.000Z</time>
      </trkpt>
      <trkpt lat="46.60944" lon="5.88239">
        <ele>815.40002441406</ele>
        <time>2019-06-17T07:55:04.000Z</time>
      </trkpt>
      <trkpt lat="46.60943" lon="5.88239">
        <ele>815.59997558594</ele>
        <time>2019-06-17T07:55:05.000Z</time>
      </trkpt>
      <trkpt lat="46.6094" lon="5.8824">
        <ele>816</ele>
        <time>2019-06-17T07:55:08.000Z</time>
      </trkpt>
      <trkpt lat="46.60938" lon="5.88241">
        <ele>816.40002441406</ele>
        <time>2019-06-17T07:55:10.000Z</time>
      </trkpt>
      <trkpt lat="46.60936" lon="5.88243">
        <ele>816.59997558594</ele>
        <time>2019-06-17T07:55:12.000Z</time>
      </trkpt>
      <trkpt lat="46.60935" lon="5.88244">
        <ele>817</ele>
        <time>2019-06-17T07:55:14.000Z</time>
      </trkpt>
      <trkpt lat="46.60933" lon="5.88246">
        <ele>817.1990161709</ele>
        <time>2019-06-17T07:55:16.000Z</time>
      </trkpt>
      <trkpt lat="46.60934" lon="5.88249">
        <ele>817.40002441406</ele>
        <time>2019-06-17T07:55:18.000Z</time>
      </trkpt>
      <trkpt lat="46.60935" lon="5.88253">
        <ele>817.79998779297</ele>
        <time>2019-06-17T07:55:20.000Z</time>
      </trkpt>
      <trkpt lat="46.60936" lon="5.88256">
        <ele>818</ele>
        <time>2019-06-17T07:55:22.000Z</time>
      </trkpt>
      <trkpt lat="46.60937" lon="5.88259">
        <ele>818.20001220703</ele>
        <time>2019-06-17T07:55:24.000Z</time>
      </trkpt>
      <trkpt lat="46.60939" lon="5.8826">
        <ele>818.20001220703</ele>
        <time>2019-06-17T07:55:26.000Z</time>
      </trkpt>
      <trkpt lat="46.60942" lon="5.88262">
        <ele>818.40002441406</ele>
        <time>2019-06-17T07:55:28.000Z</time>
      </trkpt>
      <trkpt lat="46.60944" lon="5.88264">
        <ele>818.79998779297</ele>
        <time>2019-06-17T07:55:31.000Z</time>
      </trkpt>
      <trkpt lat="46.60947" lon="5.88266">
        <ele>818.79998779297</ele>
        <time>2019-06-17T07:55:33.000Z</time>
      </trkpt>
      <trkpt lat="46.60949" lon="5.88267">
        <ele>818.59997558594</ele>
        <time>2019-06-17T07:55:35.000Z</time>
      </trkpt>
      <trkpt lat="46.60953" lon="5.8827">
        <ele>818.59997558594</ele>
        <time>2019-06-17T07:55:39.000Z</time>
      </trkpt>
      <trkpt lat="46.60956" lon="5.88273">
        <ele>818.59997558594</ele>
        <time>2019-06-17T07:55:41.000Z</time>
      </trkpt>
      <trkpt lat="46.60958" lon="5.88274">
        <ele>818.59997558594</ele>
        <time>2019-06-17T07:55:43.000Z</time>
      </trkpt>
      <trkpt lat="46.6096" lon="5.88274">
        <ele>818.40002441406</ele>
        <time>2019-06-17T07:55:45.000Z</time>
      </trkpt>
      <trkpt lat="46.60962" lon="5.88273">
        <ele>818.79998779297</ele>
        <time>2019-06-17T07:55:48.000Z</time>
      </trkpt>
      <trkpt lat="46.60965" lon="5.88275">
        <ele>818.59997558594</ele>
        <time>2019-06-17T07:55:50.000Z</time>
      </trkpt>
      <trkpt lat="46.60967" lon="5.88276">
        <ele>818.59997558594</ele>
        <time>2019-06-17T07:55:51.000Z</time>
      </trkpt>
      <trkpt lat="46.60969" lon="5.88277">
        <ele>818.40002441406</ele>
        <time>2019-06-17T07:55:53.000Z</time>
      </trkpt>
      <trkpt lat="46.60971" lon="5.88279">
        <ele>818.40002441406</ele>
        <time>2019-06-17T07:55:55.000Z</time>
      </trkpt>
      <trkpt lat="46.60974" lon="5.8828">
        <ele>818.40002441406</ele>
        <time>2019-06-17T07:55:57.000Z</time>
      </trkpt>
      <trkpt lat="46.60977" lon="5.88281">
        <ele>818.40002441406</ele>
        <time>2019-06-17T07:55:59.000Z</time>
      </trkpt>
      <trkpt lat="46.6098" lon="5.88283">
        <ele>818.20001220703</ele>
        <time>2019-06-17T07:56:01.000Z</time>
      </trkpt>
      <trkpt lat="46.60982" lon="5.88284">
        <ele>818.40002441406</ele>
        <time>2019-06-17T07:56:03.000Z</time>
      </trkpt>
      <trkpt lat="46.60984" lon="5.88286">
        <ele>818.79998779297</ele>
        <time>2019-06-17T07:56:05.000Z</time>
      </trkpt>
      <trkpt lat="46.60987" lon="5.88287">
        <ele>818.40102014625</ele>
        <time>2019-06-17T07:56:07.000Z</time>
      </trkpt>
      <trkpt lat="46.60989" lon="5.88288">
        <ele>818.40002441406</ele>
        <time>2019-06-17T07:56:09.000Z</time>
      </trkpt>
      <trkpt lat="46.60991" lon="5.88289">
        <ele>818.40002441406</ele>
        <time>2019-06-17T07:56:11.000Z</time>
      </trkpt>
      <trkpt lat="46.60993" lon="5.8829">
        <ele>818.59997558594</ele>
        <time>2019-06-17T07:56:13.000Z</time>
      </trkpt>
      <trkpt lat="46.60996" lon="5.88291">
        <ele>818.79998779297</ele>
        <time>2019-06-17T07:56:15.000Z</time>
      </trkpt>
      <trkpt lat="46.60999" lon="5.88293">
        <ele>818.59997558594</ele>
        <time>2019-06-17T07:56:17.000Z</time>
      </trkpt>
      <trkpt lat="46.61001" lon="5.88293">
        <ele>819</ele>
        <time>2019-06-17T07:56:19.000Z</time>
      </trkpt>
      <trkpt lat="46.61003" lon="5.88294">
        <ele>819.20001220703</ele>
        <time>2019-06-17T07:56:21.000Z</time>
      </trkpt>
      <trkpt lat="46.61005" lon="5.88296">
        <ele>818.79998779297</ele>
        <time>2019-06-17T07:56:23.000Z</time>
      </trkpt>
      <trkpt lat="46.61008" lon="5.88298">
        <ele>819</ele>
        <time>2019-06-17T07:56:25.000Z</time>
      </trkpt>
      <trkpt lat="46.61011" lon="5.88299">
        <ele>819.20001220703</ele>
        <time>2019-06-17T07:56:27.000Z</time>
      </trkpt>
      <trkpt lat="46.61013" lon="5.88299">
        <ele>819.20001220703</ele>
        <time>2019-06-17T07:56:29.000Z</time>
      </trkpt>
      <trkpt lat="46.61015" lon="5.88301">
        <ele>819.20001220703</ele>
        <time>2019-06-17T07:56:31.000Z</time>
      </trkpt>
      <trkpt lat="46.61017" lon="5.88302">
        <ele>819.59997558594</ele>
        <time>2019-06-17T07:56:33.000Z</time>
      </trkpt>
      <trkpt lat="46.61019" lon="5.88302">
        <ele>819.20001220703</ele>
        <time>2019-06-17T07:56:35.000Z</time>
      </trkpt>
      <trkpt lat="46.61023" lon="5.88304">
        <ele>819.40002441406</ele>
        <time>2019-06-17T07:56:38.000Z</time>
      </trkpt>
      <trkpt lat="46.61024" lon="5.88304">
        <ele>819.40002441406</ele>
        <time>2019-06-17T07:56:39.000Z</time>
      </trkpt>
      <trkpt lat="46.61026" lon="5.88305">
        <ele>819.20001220703</ele>
        <time>2019-06-17T07:56:40.000Z</time>
      </trkpt>
      <trkpt lat="46.61029" lon="5.88305">
        <ele>819</ele>
        <time>2019-06-17T07:56:42.000Z</time>
      </trkpt>
      <trkpt lat="46.61032" lon="5.88307">
        <ele>819</ele>
        <time>2019-06-17T07:56:44.000Z</time>
      </trkpt>
      <trkpt lat="46.61035" lon="5.88308">
        <ele>819.40002441406</ele>
        <time>2019-06-17T07:56:46.000Z</time>
      </trkpt>
      <trkpt lat="46.61038" lon="5.88309">
        <ele>819.20001220703</ele>
        <time>2019-06-17T07:56:48.000Z</time>
      </trkpt>
      <trkpt lat="46.6104" lon="5.88311">
        <ele>819.40002441406</ele>
        <time>2019-06-17T07:56:50.000Z</time>
      </trkpt>
      <trkpt lat="46.61042" lon="5.88313">
        <ele>819.40002441406</ele>
        <time>2019-06-17T07:56:52.000Z</time>
      </trkpt>
      <trkpt lat="46.61044" lon="5.88314">
        <ele>819.59997558594</ele>
        <time>2019-06-17T07:56:54.000Z</time>
      </trkpt>
      <trkpt lat="46.61047" lon="5.88316">
        <ele>819.59997558594</ele>
        <time>2019-06-17T07:56:56.000Z</time>
      </trkpt>
      <trkpt lat="46.61057" lon="5.88321">
        <ele>820</ele>
        <time>2019-06-17T07:57:03.000Z</time>
      </trkpt>
      <trkpt lat="46.61062" lon="5.88325">
        <ele>819.40002441406</ele>
        <time>2019-06-17T07:57:07.000Z</time>
      </trkpt>
      <trkpt lat="46.61064" lon="5.88327">
        <ele>819.20001220703</ele>
        <time>2019-06-17T07:57:09.000Z</time>
      </trkpt>
      <trkpt lat="46.61067" lon="5.88329">
        <ele>819.20001220703</ele>
        <time>2019-06-17T07:57:11.000Z</time>
      </trkpt>
      <trkpt lat="46.61069" lon="5.8833">
        <ele>819</ele>
        <time>2019-06-17T07:57:12.000Z</time>
      </trkpt>
      <trkpt lat="46.6107" lon="5.88332">
        <ele>819</ele>
        <time>2019-06-17T07:57:14.000Z</time>
      </trkpt>
      <trkpt lat="46.61073" lon="5.88335">
        <ele>819</ele>
        <time>2019-06-17T07:57:16.000Z</time>
      </trkpt>
      <trkpt lat="46.61075" lon="5.88336">
        <ele>819</ele>
        <time>2019-06-17T07:57:18.000Z</time>
      </trkpt>
      <trkpt lat="46.61078" lon="5.88338">
        <ele>819</ele>
        <time>2019-06-17T07:57:21.000Z</time>
      </trkpt>
      <trkpt lat="46.61087" lon="5.88345">
        <ele>818.79998779297</ele>
        <time>2019-06-17T07:57:28.000Z</time>
      </trkpt>
      <trkpt lat="46.6109" lon="5.88347">
        <ele>818.59997558594</ele>
        <time>2019-06-17T07:57:30.000Z</time>
      </trkpt>
      <trkpt lat="46.61092" lon="5.88349">
        <ele>818.59997558594</ele>
        <time>2019-06-17T07:57:32.000Z</time>
      </trkpt>
      <trkpt lat="46.61098" lon="5.88355">
        <ele>819</ele>
        <time>2019-06-17T07:57:38.000Z</time>
      </trkpt>
      <trkpt lat="46.61106" lon="5.88364">
        <ele>818.59997558594</ele>
        <time>2019-06-17T07:57:45.000Z</time>
      </trkpt>
      <trkpt lat="46.61111" lon="5.88371">
        <ele>818.40002441406</ele>
        <time>2019-06-17T07:57:51.000Z</time>
      </trkpt>
      <trkpt lat="46.61112" lon="5.88374">
        <ele>818.20001220703</ele>
        <time>2019-06-17T07:57:53.000Z</time>
      </trkpt>
      <trkpt lat="46.61114" lon="5.88376">
        <ele>818.40002441406</ele>
        <time>2019-06-17T07:57:55.000Z</time>
      </trkpt>
      <trkpt lat="46.61116" lon="5.88379">
        <ele>818.20001220703</ele>
        <time>2019-06-17T07:57:57.000Z</time>
      </trkpt>
      <trkpt lat="46.61119" lon="5.88381">
        <ele>818.59997558594</ele>
        <time>2019-06-17T07:57:59.000Z</time>
      </trkpt>
      <trkpt lat="46.61121" lon="5.88383">
        <ele>818.59997558594</ele>
        <time>2019-06-17T07:58:01.000Z</time>
      </trkpt>
      <trkpt lat="46.61123" lon="5.88386">
        <ele>818.59997558594</ele>
        <time>2019-06-17T07:58:03.000Z</time>
      </trkpt>
      <trkpt lat="46.61125" lon="5.88388">
        <ele>818.59997558594</ele>
        <time>2019-06-17T07:58:05.000Z</time>
      </trkpt>
      <trkpt lat="46.61127" lon="5.8839">
        <ele>818.59997558594</ele>
        <time>2019-06-17T07:58:07.000Z</time>
      </trkpt>
      <trkpt lat="46.6113" lon="5.88392">
        <ele>818.59997558594</ele>
        <time>2019-06-17T07:58:09.000Z</time>
      </trkpt>
      <trkpt lat="46.61133" lon="5.88394">
        <ele>818.59997558594</ele>
        <time>2019-06-17T07:58:11.000Z</time>
      </trkpt>
      <trkpt lat="46.61135" lon="5.88396">
        <ele>818.59997558594</ele>
        <time>2019-06-17T07:58:13.000Z</time>
      </trkpt>
      <trkpt lat="46.61136" lon="5.88398">
        <ele>818.59997558594</ele>
        <time>2019-06-17T07:58:15.000Z</time>
      </trkpt>
      <trkpt lat="46.61138" lon="5.88398">
        <ele>818.59997558594</ele>
        <time>2019-06-17T07:58:17.000Z</time>
      </trkpt>
      <trkpt lat="46.61141" lon="5.884">
        <ele>818.59997558594</ele>
        <time>2019-06-17T07:58:19.000Z</time>
      </trkpt>
      <trkpt lat="46.61143" lon="5.88402">
        <ele>818.59997558594</ele>
        <time>2019-06-17T07:58:21.000Z</time>
      </trkpt>
      <trkpt lat="46.61145" lon="5.88403">
        <ele>818.59997558594</ele>
        <time>2019-06-17T07:58:23.000Z</time>
      </trkpt>
      <trkpt lat="46.61147" lon="5.88403">
        <ele>818.59997558594</ele>
        <time>2019-06-17T07:58:25.000Z</time>
      </trkpt>
      <trkpt lat="46.6115" lon="5.88404">
        <ele>818.59997558594</ele>
        <time>2019-06-17T07:58:28.000Z</time>
      </trkpt>
      <trkpt lat="46.61151" lon="5.88404">
        <ele>818.59997558594</ele>
        <time>2019-06-17T07:58:30.000Z</time>
      </trkpt>
      <trkpt lat="46.61153" lon="5.88402">
        <ele>818.59997558594</ele>
        <time>2019-06-17T07:58:33.000Z</time>
      </trkpt>
      <trkpt lat="46.61155" lon="5.88404">
        <ele>818.59997558594</ele>
        <time>2019-06-17T07:58:41.000Z</time>
      </trkpt>
      <trkpt lat="46.61157" lon="5.88404">
        <ele>818.59997558594</ele>
        <time>2019-06-17T07:58:44.000Z</time>
      </trkpt>
      <trkpt lat="46.61156" lon="5.88406">
        <ele>818.59997558594</ele>
        <time>2019-06-17T07:59:53.000Z</time>
      </trkpt>
      <trkpt lat="46.61154" lon="5.88407">
        <ele>818.59997558594</ele>
        <time>2019-06-17T07:59:56.000Z</time>
      </trkpt>
      <trkpt lat="46.61152" lon="5.88408">
        <ele>818.59997558594</ele>
        <time>2019-06-17T08:00:02.000Z</time>
      </trkpt>
      <trkpt lat="46.6115" lon="5.88409">
        <ele>818.59997558594</ele>
        <time>2019-06-17T08:00:05.000Z</time>
      </trkpt>
      <trkpt lat="46.61147" lon="5.88408">
        <ele>818.59997558594</ele>
        <time>2019-06-17T08:00:07.000Z</time>
      </trkpt>
      <trkpt lat="46.61142" lon="5.88405">
        <ele>818.59997558594</ele>
        <time>2019-06-17T08:00:10.000Z</time>
      </trkpt>
      <trkpt lat="46.61141" lon="5.88405">
        <ele>818.59997558594</ele>
        <time>2019-06-17T08:00:11.000Z</time>
      </trkpt>
      <trkpt lat="46.61143" lon="5.88408">
        <ele>818.59997558594</ele>
        <time>2019-06-17T08:00:15.000Z</time>
      </trkpt>
      <trkpt lat="46.61145" lon="5.88411">
        <ele>818.59997558594</ele>
        <time>2019-06-17T08:00:17.000Z</time>
      </trkpt>
      <trkpt lat="46.61148" lon="5.88413">
        <ele>818.59997558594</ele>
        <time>2019-06-17T08:00:19.000Z</time>
      </trkpt>
      <trkpt lat="46.61153" lon="5.88417">
        <ele>818.59997558594</ele>
        <time>2019-06-17T08:00:23.000Z</time>
      </trkpt>
      <trkpt lat="46.61162" lon="5.88425">
        <ele>818.59997558594</ele>
        <time>2019-06-17T08:00:30.000Z</time>
      </trkpt>
      <trkpt lat="46.61168" lon="5.88431">
        <ele>818.59997558594</ele>
        <time>2019-06-17T08:00:35.000Z</time>
      </trkpt>
      <trkpt lat="46.61169" lon="5.88433">
        <ele>818.59997558594</ele>
        <time>2019-06-17T08:00:37.000Z</time>
      </trkpt>
      <trkpt lat="46.61171" lon="5.88435">
        <ele>818.59997558594</ele>
        <time>2019-06-17T08:00:38.000Z</time>
      </trkpt>
      <trkpt lat="46.61173" lon="5.88437">
        <ele>818.59997558594</ele>
        <time>2019-06-17T08:00:40.000Z</time>
      </trkpt>
      <trkpt lat="46.61175" lon="5.8844">
        <ele>818.59997558594</ele>
        <time>2019-06-17T08:00:42.000Z</time>
      </trkpt>
      <trkpt lat="46.61177" lon="5.88442">
        <ele>818.59997558594</ele>
        <time>2019-06-17T08:00:45.000Z</time>
      </trkpt>
      <trkpt lat="46.61178" lon="5.88444">
        <ele>818.59997558594</ele>
        <time>2019-06-17T08:01:21.000Z</time>
      </trkpt>
      <trkpt lat="46.6118" lon="5.88446">
        <ele>818.59997558594</ele>
        <time>2019-06-17T08:01:25.000Z</time>
      </trkpt>
      <trkpt lat="46.61183" lon="5.88447">
        <ele>818.59997558594</ele>
        <time>2019-06-17T08:01:27.000Z</time>
      </trkpt>
      <trkpt lat="46.61185" lon="5.88449">
        <ele>818.59997558594</ele>
        <time>2019-06-17T08:01:29.000Z</time>
      </trkpt>
      <trkpt lat="46.61188" lon="5.88451">
        <ele>818.59997558594</ele>
        <time>2019-06-17T08:01:31.000Z</time>
      </trkpt>
      <trkpt lat="46.6119" lon="5.88454">
        <ele>818.59997558594</ele>
        <time>2019-06-17T08:01:33.000Z</time>
      </trkpt>
      <trkpt lat="46.61193" lon="5.88455">
        <ele>818.59997558594</ele>
        <time>2019-06-17T08:01:35.000Z</time>
      </trkpt>
      <trkpt lat="46.61195" lon="5.88457">
        <ele>818.59997558594</ele>
        <time>2019-06-17T08:01:38.000Z</time>
      </trkpt>
      <trkpt lat="46.61197" lon="5.88458">
        <ele>818.59997558594</ele>
        <time>2019-06-17T08:01:40.000Z</time>
      </trkpt>
      <trkpt lat="46.61199" lon="5.8846">
        <ele>818.59997558594</ele>
        <time>2019-06-17T08:01:42.000Z</time>
      </trkpt>
      <trkpt lat="46.61202" lon="5.88462">
        <ele>818.59997558594</ele>
        <time>2019-06-17T08:01:44.000Z</time>
      </trkpt>
      <trkpt lat="46.61204" lon="5.88463">
        <ele>818.59997558594</ele>
        <time>2019-06-17T08:01:45.000Z</time>
      </trkpt>
      <trkpt lat="46.61205" lon="5.88464">
        <ele>818.59997558594</ele>
        <time>2019-06-17T08:01:46.000Z</time>
      </trkpt>
      <trkpt lat="46.61208" lon="5.88467">
        <ele>818.59997558594</ele>
        <time>2019-06-17T08:01:48.000Z</time>
      </trkpt>
      <trkpt lat="46.61211" lon="5.88468">
        <ele>818.59997558594</ele>
        <time>2019-06-17T08:01:50.000Z</time>
      </trkpt>
      <trkpt lat="46.61213" lon="5.8847">
        <ele>818.59997558594</ele>
        <time>2019-06-17T08:01:52.000Z</time>
      </trkpt>
      <trkpt lat="46.61215" lon="5.8847">
        <ele>818.59997558594</ele>
        <time>2019-06-17T08:01:54.000Z</time>
      </trkpt>
      <trkpt lat="46.61218" lon="5.88471">
        <ele>818.59997558594</ele>
        <time>2019-06-17T08:01:56.000Z</time>
      </trkpt>
      <trkpt lat="46.61221" lon="5.88473">
        <ele>818.59997558594</ele>
        <time>2019-06-17T08:01:58.000Z</time>
      </trkpt>
      <trkpt lat="46.61223" lon="5.88475">
        <ele>818.59997558594</ele>
        <time>2019-06-17T08:02:00.000Z</time>
      </trkpt>
      <trkpt lat="46.61226" lon="5.88475">
        <ele>818.59997558594</ele>
        <time>2019-06-17T08:02:02.000Z</time>
      </trkpt>
      <trkpt lat="46.61229" lon="5.88476">
        <ele>818.59997558594</ele>
        <time>2019-06-17T08:02:04.000Z</time>
      </trkpt>
      <trkpt lat="46.61232" lon="5.88475">
        <ele>818.59997558594</ele>
        <time>2019-06-17T08:02:06.000Z</time>
      </trkpt>
      <trkpt lat="46.61235" lon="5.88475">
        <ele>818.59997558594</ele>
        <time>2019-06-17T08:02:08.000Z</time>
      </trkpt>
      <trkpt lat="46.61238" lon="5.88476">
        <ele>818.59997558594</ele>
        <time>2019-06-17T08:02:10.000Z</time>
      </trkpt>
      <trkpt lat="46.6124" lon="5.88476">
        <ele>818.59997558594</ele>
        <time>2019-06-17T08:02:11.000Z</time>
      </trkpt>
      <trkpt lat="46.61242" lon="5.88477">
        <ele>818.59997558594</ele>
        <time>2019-06-17T08:02:13.000Z</time>
      </trkpt>
      <trkpt lat="46.61245" lon="5.88477">
        <ele>818.59997558594</ele>
        <time>2019-06-17T08:02:15.000Z</time>
      </trkpt>
      <trkpt lat="46.61247" lon="5.88478">
        <ele>818.59997558594</ele>
        <time>2019-06-17T08:02:17.000Z</time>
      </trkpt>
      <trkpt lat="46.61249" lon="5.88478">
        <ele>818.59997558594</ele>
        <time>2019-06-17T08:02:18.000Z</time>
      </trkpt>
      <trkpt lat="46.61251" lon="5.88479">
        <ele>818.59997558594</ele>
        <time>2019-06-17T08:02:20.000Z</time>
      </trkpt>
      <trkpt lat="46.61253" lon="5.8848">
        <ele>818.59997558594</ele>
        <time>2019-06-17T08:02:22.000Z</time>
      </trkpt>
      <trkpt lat="46.61256" lon="5.88481">
        <ele>818.59997558594</ele>
        <time>2019-06-17T08:02:24.000Z</time>
      </trkpt>
      <trkpt lat="46.61259" lon="5.88483">
        <ele>818.59997558594</ele>
        <time>2019-06-17T08:02:26.000Z</time>
      </trkpt>
      <trkpt lat="46.61261" lon="5.88484">
        <ele>818.59997558594</ele>
        <time>2019-06-17T08:02:28.000Z</time>
      </trkpt>
      <trkpt lat="46.61264" lon="5.88485">
        <ele>818.59997558594</ele>
        <time>2019-06-17T08:02:30.000Z</time>
      </trkpt>
      <trkpt lat="46.61267" lon="5.88486">
        <ele>818.59997558594</ele>
        <time>2019-06-17T08:02:32.000Z</time>
      </trkpt>
      <trkpt lat="46.61276" lon="5.88492">
        <ele>818.59997558594</ele>
        <time>2019-06-17T08:02:38.000Z</time>
      </trkpt>
      <trkpt lat="46.61284" lon="5.88496">
        <ele>818.59997558594</ele>
        <time>2019-06-17T08:02:45.000Z</time>
      </trkpt>
      <trkpt lat="46.61294" lon="5.88501">
        <ele>818.59997558594</ele>
        <time>2019-06-17T08:02:52.000Z</time>
      </trkpt>
      <trkpt lat="46.61303" lon="5.88505">
        <ele>818.59997558594</ele>
        <time>2019-06-17T08:02:59.000Z</time>
      </trkpt>
      <trkpt lat="46.61313" lon="5.88511">
        <ele>818.59997558594</ele>
        <time>2019-06-17T08:03:06.000Z</time>
      </trkpt>
      <trkpt lat="46.61322" lon="5.88518">
        <ele>818.59997558594</ele>
        <time>2019-06-17T08:03:12.000Z</time>
      </trkpt>
      <trkpt lat="46.61326" lon="5.8852">
        <ele>818.59997558594</ele>
        <time>2019-06-17T08:03:14.000Z</time>
      </trkpt>
      <trkpt lat="46.61328" lon="5.88522">
        <ele>818.59997558594</ele>
        <time>2019-06-17T08:03:16.000Z</time>
      </trkpt>
      <trkpt lat="46.61331" lon="5.88524">
        <ele>818.59997558594</ele>
        <time>2019-06-17T08:03:18.000Z</time>
      </trkpt>
      <trkpt lat="46.61333" lon="5.88526">
        <ele>818.59997558594</ele>
        <time>2019-06-17T08:03:20.000Z</time>
      </trkpt>
      <trkpt lat="46.61336" lon="5.88528">
        <ele>823</ele>
        <time>2019-06-17T08:03:22.000Z</time>
      </trkpt>
      <trkpt lat="46.61338" lon="5.8853">
        <ele>823</ele>
        <time>2019-06-17T08:03:24.000Z</time>
      </trkpt>
      <trkpt lat="46.61341" lon="5.88531">
        <ele>823.20001220703</ele>
        <time>2019-06-17T08:03:26.000Z</time>
      </trkpt>
      <trkpt lat="46.6135" lon="5.88542">
        <ele>823.20001220703</ele>
        <time>2019-06-17T08:03:34.000Z</time>
      </trkpt>
      <trkpt lat="46.61357" lon="5.88548">
        <ele>823.59997558594</ele>
        <time>2019-06-17T08:03:41.000Z</time>
      </trkpt>
      <trkpt lat="46.6136" lon="5.8855">
        <ele>823.79998779297</ele>
        <time>2019-06-17T08:03:44.000Z</time>
      </trkpt>
      <trkpt lat="46.61367" lon="5.88558">
        <ele>823.79998779297</ele>
        <time>2019-06-17T08:03:50.000Z</time>
      </trkpt>
      <trkpt lat="46.61375" lon="5.88567">
        <ele>824.40002441406</ele>
        <time>2019-06-17T08:03:56.000Z</time>
      </trkpt>
      <trkpt lat="46.6138" lon="5.88572">
        <ele>824.40002441406</ele>
        <time>2019-06-17T08:04:00.000Z</time>
      </trkpt>
      <trkpt lat="46.61382" lon="5.88575">
        <ele>824.59997558594</ele>
        <time>2019-06-17T08:04:02.000Z</time>
      </trkpt>
      <trkpt lat="46.61384" lon="5.88577">
        <ele>824.59997558594</ele>
        <time>2019-06-17T08:04:04.000Z</time>
      </trkpt>
      <trkpt lat="46.61386" lon="5.88579">
        <ele>824.79998779297</ele>
        <time>2019-06-17T08:04:06.000Z</time>
      </trkpt>
      <trkpt lat="46.61389" lon="5.88583">
        <ele>825</ele>
        <time>2019-06-17T08:04:09.000Z</time>
      </trkpt>
      <trkpt lat="46.61392" lon="5.88586">
        <ele>825</ele>
        <time>2019-06-17T08:04:11.000Z</time>
      </trkpt>
      <trkpt lat="46.61395" lon="5.88588">
        <ele>824.79998779297</ele>
        <time>2019-06-17T08:04:13.000Z</time>
      </trkpt>
      <trkpt lat="46.61397" lon="5.8859">
        <ele>824.20001220703</ele>
        <time>2019-06-17T08:04:15.000Z</time>
      </trkpt>
      <trkpt lat="46.61399" lon="5.88593">
        <ele>824.59997558594</ele>
        <time>2019-06-17T08:04:18.000Z</time>
      </trkpt>
      <trkpt lat="46.61407" lon="5.886">
        <ele>823.79998779297</ele>
        <time>2019-06-17T08:04:26.000Z</time>
      </trkpt>
      <trkpt lat="46.61409" lon="5.88603">
        <ele>824</ele>
        <time>2019-06-17T08:04:28.000Z</time>
      </trkpt>
      <trkpt lat="46.61412" lon="5.88606">
        <ele>824</ele>
        <time>2019-06-17T08:04:30.000Z</time>
      </trkpt>
      <trkpt lat="46.61414" lon="5.88608">
        <ele>823.79998779297</ele>
        <time>2019-06-17T08:04:32.000Z</time>
      </trkpt>
      <trkpt lat="46.61416" lon="5.8861">
        <ele>823.59997558594</ele>
        <time>2019-06-17T08:04:34.000Z</time>
      </trkpt>
      <trkpt lat="46.61418" lon="5.88612">
        <ele>823.59997558594</ele>
        <time>2019-06-17T08:04:36.000Z</time>
      </trkpt>
      <trkpt lat="46.6142" lon="5.88613">
        <ele>823.59997558594</ele>
        <time>2019-06-17T08:04:38.000Z</time>
      </trkpt>
      <trkpt lat="46.61422" lon="5.88614">
        <ele>823.59997558594</ele>
        <time>2019-06-17T08:04:40.000Z</time>
      </trkpt>
      <trkpt lat="46.61431" lon="5.8862">
        <ele>823.59997558594</ele>
        <time>2019-06-17T08:04:47.000Z</time>
      </trkpt>
      <trkpt lat="46.61436" lon="5.88623">
        <ele>823.40002441406</ele>
        <time>2019-06-17T08:04:52.000Z</time>
      </trkpt>
      <trkpt lat="46.6144" lon="5.88627">
        <ele>823.59997558594</ele>
        <time>2019-06-17T08:04:55.000Z</time>
      </trkpt>
      <trkpt lat="46.61442" lon="5.88629">
        <ele>823.40002441406</ele>
        <time>2019-06-17T08:04:57.000Z</time>
      </trkpt>
      <trkpt lat="46.61444" lon="5.88631">
        <ele>823</ele>
        <time>2019-06-17T08:04:59.000Z</time>
      </trkpt>
      <trkpt lat="46.61451" lon="5.88637">
        <ele>822.59997558594</ele>
        <time>2019-06-17T08:05:05.000Z</time>
      </trkpt>
      <trkpt lat="46.61454" lon="5.88638">
        <ele>822.79998779297</ele>
        <time>2019-06-17T08:05:07.000Z</time>
      </trkpt>
      <trkpt lat="46.61456" lon="5.8864">
        <ele>822.40002441406</ele>
        <time>2019-06-17T08:05:09.000Z</time>
      </trkpt>
      <trkpt lat="46.61459" lon="5.88642">
        <ele>822.20001220703</ele>
        <time>2019-06-17T08:05:11.000Z</time>
      </trkpt>
      <trkpt lat="46.61461" lon="5.88643">
        <ele>822.20001220703</ele>
        <time>2019-06-17T08:05:13.000Z</time>
      </trkpt>
      <trkpt lat="46.61464" lon="5.88646">
        <ele>822.20001220703</ele>
        <time>2019-06-17T08:05:16.000Z</time>
      </trkpt>
      <trkpt lat="46.61465" lon="5.88648">
        <ele>822.20001220703</ele>
        <time>2019-06-17T08:05:17.000Z</time>
      </trkpt>
      <trkpt lat="46.61467" lon="5.88651">
        <ele>822.20001220703</ele>
        <time>2019-06-17T08:05:18.000Z</time>
      </trkpt>
      <trkpt lat="46.61468" lon="5.88653">
        <ele>822.20001220703</ele>
        <time>2019-06-17T08:05:19.000Z</time>
      </trkpt>
      <trkpt lat="46.61469" lon="5.88657">
        <ele>822</ele>
        <time>2019-06-17T08:05:21.000Z</time>
      </trkpt>
      <trkpt lat="46.61468" lon="5.8866">
        <ele>822.40002441406</ele>
        <time>2019-06-17T08:05:23.000Z</time>
      </trkpt>
      <trkpt lat="46.61466" lon="5.88662">
        <ele>822.20001220703</ele>
        <time>2019-06-17T08:05:25.000Z</time>
      </trkpt>
      <trkpt lat="46.61466" lon="5.88666">
        <ele>822</ele>
        <time>2019-06-17T08:05:27.000Z</time>
      </trkpt>
      <trkpt lat="46.61465" lon="5.88669">
        <ele>822.00020049545</ele>
        <time>2019-06-17T08:05:29.000Z</time>
      </trkpt>
      <trkpt lat="46.61464" lon="5.88671">
        <ele>822</ele>
        <time>2019-06-17T08:05:31.000Z</time>
      </trkpt>
      <trkpt lat="46.61462" lon="5.88674">
        <ele>822</ele>
        <time>2019-06-17T08:05:33.000Z</time>
      </trkpt>
      <trkpt lat="46.61462" lon="5.88677">
        <ele>822</ele>
        <time>2019-06-17T08:05:35.000Z</time>
      </trkpt>
      <trkpt lat="46.61463" lon="5.8868">
        <ele>822</ele>
        <time>2019-06-17T08:05:37.000Z</time>
      </trkpt>
      <trkpt lat="46.61463" lon="5.88684">
        <ele>821.79998779297</ele>
        <time>2019-06-17T08:05:39.000Z</time>
      </trkpt>
      <trkpt lat="46.61463" lon="5.88688">
        <ele>821.40002441406</ele>
        <time>2019-06-17T08:05:41.000Z</time>
      </trkpt>
      <trkpt lat="46.61465" lon="5.88691">
        <ele>821.79998779297</ele>
        <time>2019-06-17T08:05:43.000Z</time>
      </trkpt>
      <trkpt lat="46.61465" lon="5.88695">
        <ele>821.59997558594</ele>
        <time>2019-06-17T08:05:45.000Z</time>
      </trkpt>
      <trkpt lat="46.61464" lon="5.88699">
        <ele>821.20001220703</ele>
        <time>2019-06-17T08:05:47.000Z</time>
      </trkpt>
      <trkpt lat="46.61463" lon="5.88703">
        <ele>821.59997558594</ele>
        <time>2019-06-17T08:05:49.000Z</time>
      </trkpt>
      <trkpt lat="46.61462" lon="5.88711">
        <ele>821.20001220703</ele>
        <time>2019-06-17T08:05:53.000Z</time>
      </trkpt>
      <trkpt lat="46.6146" lon="5.88715">
        <ele>821.20001220703</ele>
        <time>2019-06-17T08:05:55.000Z</time>
      </trkpt>
      <trkpt lat="46.61459" lon="5.88719">
        <ele>821.20001220703</ele>
        <time>2019-06-17T08:05:57.000Z</time>
      </trkpt>
      <trkpt lat="46.61457" lon="5.88726">
        <ele>821.20001220703</ele>
        <time>2019-06-17T08:06:00.000Z</time>
      </trkpt>
      <trkpt lat="46.61457" lon="5.88728">
        <ele>821.20001220703</ele>
        <time>2019-06-17T08:06:01.000Z</time>
      </trkpt>
      <trkpt lat="46.61455" lon="5.88741">
        <ele>821.20001220703</ele>
        <time>2019-06-17T08:06:09.000Z</time>
      </trkpt>
      <trkpt lat="46.61453" lon="5.88756">
        <ele>821.20001220703</ele>
        <time>2019-06-17T08:06:16.000Z</time>
      </trkpt>
      <trkpt lat="46.61451" lon="5.88769">
        <ele>821.20001220703</ele>
        <time>2019-06-17T08:06:23.000Z</time>
      </trkpt>
      <trkpt lat="46.61447" lon="5.88781">
        <ele>821.20001220703</ele>
        <time>2019-06-17T08:06:28.000Z</time>
      </trkpt>
      <trkpt lat="46.61442" lon="5.88794">
        <ele>821.20001220703</ele>
        <time>2019-06-17T08:06:36.000Z</time>
      </trkpt>
      <trkpt lat="46.61443" lon="5.88808">
        <ele>821.20001220703</ele>
        <time>2019-06-17T08:06:42.000Z</time>
      </trkpt>
      <trkpt lat="46.61442" lon="5.88823">
        <ele>821.20001220703</ele>
        <time>2019-06-17T08:06:50.000Z</time>
      </trkpt>
      <trkpt lat="46.6144" lon="5.88839">
        <ele>821.20001220703</ele>
        <time>2019-06-17T08:06:58.000Z</time>
      </trkpt>
      <trkpt lat="46.61441" lon="5.8885">
        <ele>821.20001220703</ele>
        <time>2019-06-17T08:07:04.000Z</time>
      </trkpt>
      <trkpt lat="46.61438" lon="5.88863">
        <ele>821.20001220703</ele>
        <time>2019-06-17T08:07:10.000Z</time>
      </trkpt>
      <trkpt lat="46.61437" lon="5.88877">
        <ele>821.20001220703</ele>
        <time>2019-06-17T08:07:17.000Z</time>
      </trkpt>
      <trkpt lat="46.61433" lon="5.8889">
        <ele>821.20001220703</ele>
        <time>2019-06-17T08:07:24.000Z</time>
      </trkpt>
      <trkpt lat="46.61434" lon="5.88904">
        <ele>821.20001220703</ele>
        <time>2019-06-17T08:07:31.000Z</time>
      </trkpt>
      <trkpt lat="46.61432" lon="5.88918">
        <ele>821.20001220703</ele>
        <time>2019-06-17T08:07:38.000Z</time>
      </trkpt>
      <trkpt lat="46.61434" lon="5.88932">
        <ele>821.20001220703</ele>
        <time>2019-06-17T08:07:45.000Z</time>
      </trkpt>
      <trkpt lat="46.61436" lon="5.88946">
        <ele>821.20001220703</ele>
        <time>2019-06-17T08:07:52.000Z</time>
      </trkpt>
      <trkpt lat="46.61435" lon="5.88957">
        <ele>827.40002441406</ele>
        <time>2019-06-17T08:07:58.000Z</time>
      </trkpt>
      <trkpt lat="46.61437" lon="5.88966">
        <ele>827.79998779297</ele>
        <time>2019-06-17T08:08:04.000Z</time>
      </trkpt>
      <trkpt lat="46.61438" lon="5.88971">
        <ele>828</ele>
        <time>2019-06-17T08:08:07.000Z</time>
      </trkpt>
      <trkpt lat="46.61439" lon="5.88975">
        <ele>828.20001220703</ele>
        <time>2019-06-17T08:08:09.000Z</time>
      </trkpt>
      <trkpt lat="46.6144" lon="5.8898">
        <ele>828.40002441406</ele>
        <time>2019-06-17T08:08:11.000Z</time>
      </trkpt>
      <trkpt lat="46.61442" lon="5.88986">
        <ele>829</ele>
        <time>2019-06-17T08:08:14.000Z</time>
      </trkpt>
      <trkpt lat="46.61443" lon="5.8899">
        <ele>829</ele>
        <time>2019-06-17T08:08:16.000Z</time>
      </trkpt>
      <trkpt lat="46.61444" lon="5.88994">
        <ele>829.40002441406</ele>
        <time>2019-06-17T08:08:18.000Z</time>
      </trkpt>
      <trkpt lat="46.61445" lon="5.88997">
        <ele>829.20001220703</ele>
        <time>2019-06-17T08:08:20.000Z</time>
      </trkpt>
      <trkpt lat="46.61448" lon="5.8901">
        <ele>830.40002441406</ele>
        <time>2019-06-17T08:08:28.000Z</time>
      </trkpt>
      <trkpt lat="46.61456" lon="5.89018">
        <ele>830.59997558594</ele>
        <time>2019-06-17T08:08:34.000Z</time>
      </trkpt>
      <trkpt lat="46.61462" lon="5.89029">
        <ele>831.20001220703</ele>
        <time>2019-06-17T08:08:42.000Z</time>
      </trkpt>
      <trkpt lat="46.61469" lon="5.89038">
        <ele>831.59997558594</ele>
        <time>2019-06-17T08:08:49.000Z</time>
      </trkpt>
      <trkpt lat="46.61475" lon="5.89049">
        <ele>831.79998779297</ele>
        <time>2019-06-17T08:08:56.000Z</time>
      </trkpt>
      <trkpt lat="46.61482" lon="5.89056">
        <ele>832.20001220703</ele>
        <time>2019-06-17T08:09:02.000Z</time>
      </trkpt>
      <trkpt lat="46.61491" lon="5.89062">
        <ele>832.20001220703</ele>
        <time>2019-06-17T08:09:09.000Z</time>
      </trkpt>
      <trkpt lat="46.61499" lon="5.8907">
        <ele>832.40002441406</ele>
        <time>2019-06-17T08:09:17.000Z</time>
      </trkpt>
      <trkpt lat="46.61506" lon="5.8908">
        <ele>832.20001220703</ele>
        <time>2019-06-17T08:09:25.000Z</time>
      </trkpt>
      <trkpt lat="46.61513" lon="5.8909">
        <ele>832.79998779297</ele>
        <time>2019-06-17T08:09:32.000Z</time>
      </trkpt>
      <trkpt lat="46.6152" lon="5.891">
        <ele>833.59997558594</ele>
        <time>2019-06-17T08:09:39.000Z</time>
      </trkpt>
      <trkpt lat="46.61522" lon="5.89103">
        <ele>833.59997558594</ele>
        <time>2019-06-17T08:09:41.000Z</time>
      </trkpt>
      <trkpt lat="46.61523" lon="5.89106">
        <ele>833.79899175684</ele>
        <time>2019-06-17T08:09:43.000Z</time>
      </trkpt>
      <trkpt lat="46.61524" lon="5.89108">
        <ele>834</ele>
        <time>2019-06-17T08:09:45.000Z</time>
      </trkpt>
      <trkpt lat="46.61523" lon="5.89112">
        <ele>834.20001220703</ele>
        <time>2019-06-17T08:09:48.000Z</time>
      </trkpt>
      <trkpt lat="46.61522" lon="5.89113">
        <ele>837</ele>
        <time>2019-06-17T08:10:03.000Z</time>
      </trkpt>
      <trkpt lat="46.61521" lon="5.89116">
        <ele>837</ele>
        <time>2019-06-17T08:10:05.000Z</time>
      </trkpt>
      <trkpt lat="46.61521" lon="5.89119">
        <ele>837.20001220703</ele>
        <time>2019-06-17T08:10:07.000Z</time>
      </trkpt>
      <trkpt lat="46.61521" lon="5.89122">
        <ele>837.20001220703</ele>
        <time>2019-06-17T08:10:09.000Z</time>
      </trkpt>
      <trkpt lat="46.61521" lon="5.89125">
        <ele>837.40002441406</ele>
        <time>2019-06-17T08:10:11.000Z</time>
      </trkpt>
      <trkpt lat="46.6152" lon="5.89128">
        <ele>837.40002441406</ele>
        <time>2019-06-17T08:10:40.000Z</time>
      </trkpt>
      <trkpt lat="46.61518" lon="5.8913">
        <ele>837.20001220703</ele>
        <time>2019-06-17T08:10:42.000Z</time>
      </trkpt>
      <trkpt lat="46.61516" lon="5.89132">
        <ele>837</ele>
        <time>2019-06-17T08:10:44.000Z</time>
      </trkpt>
      <trkpt lat="46.61513" lon="5.89135">
        <ele>837</ele>
        <time>2019-06-17T08:10:46.000Z</time>
      </trkpt>
      <trkpt lat="46.61511" lon="5.89138">
        <ele>837</ele>
        <time>2019-06-17T08:10:48.000Z</time>
      </trkpt>
      <trkpt lat="46.61509" lon="5.89138">
        <ele>836.79998779297</ele>
        <time>2019-06-17T08:10:50.000Z</time>
      </trkpt>
      <trkpt lat="46.61507" lon="5.8914">
        <ele>836.20001220703</ele>
        <time>2019-06-17T08:10:53.000Z</time>
      </trkpt>
      <trkpt lat="46.61505" lon="5.89141">
        <ele>836.20001220703</ele>
        <time>2019-06-17T08:10:55.000Z</time>
      </trkpt>
      <trkpt lat="46.61502" lon="5.89143">
        <ele>836.20001220703</ele>
        <time>2019-06-17T08:10:57.000Z</time>
      </trkpt>
      <trkpt lat="46.615" lon="5.89144">
        <ele>836.40002441406</ele>
        <time>2019-06-17T08:10:58.000Z</time>
      </trkpt>
      <trkpt lat="46.61496" lon="5.89143">
        <ele>836.40002441406</ele>
        <time>2019-06-17T08:11:00.000Z</time>
      </trkpt>
      <trkpt lat="46.61494" lon="5.89143">
        <ele>836.59997558594</ele>
        <time>2019-06-17T08:11:02.000Z</time>
      </trkpt>
      <trkpt lat="46.61491" lon="5.89145">
        <ele>836.79998779297</ele>
        <time>2019-06-17T08:11:04.000Z</time>
      </trkpt>
      <trkpt lat="46.61488" lon="5.89145">
        <ele>837</ele>
        <time>2019-06-17T08:11:06.000Z</time>
      </trkpt>
      <trkpt lat="46.61486" lon="5.89146">
        <ele>837</ele>
        <time>2019-06-17T08:11:08.000Z</time>
      </trkpt>
      <trkpt lat="46.61483" lon="5.89145">
        <ele>837</ele>
        <time>2019-06-17T08:11:10.000Z</time>
      </trkpt>
      <trkpt lat="46.6148" lon="5.89145">
        <ele>837.59997558594</ele>
        <time>2019-06-17T08:11:13.000Z</time>
      </trkpt>
      <trkpt lat="46.61479" lon="5.89145">
        <ele>837.40002441406</ele>
        <time>2019-06-17T08:11:14.000Z</time>
      </trkpt>
      <trkpt lat="46.61477" lon="5.89146">
        <ele>838</ele>
        <time>2019-06-17T08:11:16.000Z</time>
      </trkpt>
      <trkpt lat="46.61475" lon="5.89148">
        <ele>838.20001220703</ele>
        <time>2019-06-17T08:11:18.000Z</time>
      </trkpt>
      <trkpt lat="46.61473" lon="5.89148">
        <ele>838.40002441406</ele>
        <time>2019-06-17T08:11:20.000Z</time>
      </trkpt>
      <trkpt lat="46.61469" lon="5.8915">
        <ele>838.79998779297</ele>
        <time>2019-06-17T08:11:23.000Z</time>
      </trkpt>
      <trkpt lat="46.61466" lon="5.89152">
        <ele>838.99900396387</ele>
        <time>2019-06-17T08:11:25.000Z</time>
      </trkpt>
      <trkpt lat="46.61456" lon="5.89155">
        <ele>840</ele>
        <time>2019-06-17T08:11:32.000Z</time>
      </trkpt>
      <trkpt lat="46.61454" lon="5.89156">
        <ele>840.40002441406</ele>
        <time>2019-06-17T08:11:34.000Z</time>
      </trkpt>
      <trkpt lat="46.61452" lon="5.89157">
        <ele>840.59997558594</ele>
        <time>2019-06-17T08:11:36.000Z</time>
      </trkpt>
      <trkpt lat="46.61449" lon="5.89158">
        <ele>840.40002441406</ele>
        <time>2019-06-17T08:11:38.000Z</time>
      </trkpt>
      <trkpt lat="46.61446" lon="5.89158">
        <ele>840.59997558594</ele>
        <time>2019-06-17T08:11:40.000Z</time>
      </trkpt>
      <trkpt lat="46.61443" lon="5.89158">
        <ele>840.79998779297</ele>
        <time>2019-06-17T08:11:42.000Z</time>
      </trkpt>
      <trkpt lat="46.61439" lon="5.89159">
        <ele>841</ele>
        <time>2019-06-17T08:11:45.000Z</time>
      </trkpt>
      <trkpt lat="46.61436" lon="5.8916">
        <ele>841</ele>
        <time>2019-06-17T08:11:47.000Z</time>
      </trkpt>
      <trkpt lat="46.61434" lon="5.8916">
        <ele>841.20001220703</ele>
        <time>2019-06-17T08:11:49.000Z</time>
      </trkpt>
      <trkpt lat="46.61431" lon="5.89159">
        <ele>841.20001220703</ele>
        <time>2019-06-17T08:11:51.000Z</time>
      </trkpt>
      <trkpt lat="46.61429" lon="5.89159">
        <ele>841.20001220703</ele>
        <time>2019-06-17T08:11:53.000Z</time>
      </trkpt>
      <trkpt lat="46.61427" lon="5.8916">
        <ele>841</ele>
        <time>2019-06-17T08:11:55.000Z</time>
      </trkpt>
      <trkpt lat="46.61425" lon="5.89162">
        <ele>841</ele>
        <time>2019-06-17T08:11:58.000Z</time>
      </trkpt>
      <trkpt lat="46.61423" lon="5.89163">
        <ele>841</ele>
        <time>2019-06-17T08:12:00.000Z</time>
      </trkpt>
      <trkpt lat="46.61421" lon="5.89164">
        <ele>841.20001220703</ele>
        <time>2019-06-17T08:12:01.000Z</time>
      </trkpt>
      <trkpt lat="46.61417" lon="5.89163">
        <ele>841.20001220703</ele>
        <time>2019-06-17T08:12:04.000Z</time>
      </trkpt>
      <trkpt lat="46.61416" lon="5.89164">
        <ele>841.20001220703</ele>
        <time>2019-06-17T08:12:05.000Z</time>
      </trkpt>
      <trkpt lat="46.61414" lon="5.89165">
        <ele>841</ele>
        <time>2019-06-17T08:12:07.000Z</time>
      </trkpt>
      <trkpt lat="46.61411" lon="5.89166">
        <ele>841</ele>
        <time>2019-06-17T08:12:10.000Z</time>
      </trkpt>
      <trkpt lat="46.6141" lon="5.89169">
        <ele>841.20001220703</ele>
        <time>2019-06-17T08:12:14.000Z</time>
      </trkpt>
      <trkpt lat="46.61408" lon="5.8917">
        <ele>841.40002441406</ele>
        <time>2019-06-17T08:12:17.000Z</time>
      </trkpt>
      <trkpt lat="46.61405" lon="5.89171">
        <ele>841.59997558594</ele>
        <time>2019-06-17T08:12:20.000Z</time>
      </trkpt>
      <trkpt lat="46.61404" lon="5.89173">
        <ele>842</ele>
        <time>2019-06-17T08:12:22.000Z</time>
      </trkpt>
      <trkpt lat="46.61402" lon="5.89174">
        <ele>842.40002441406</ele>
        <time>2019-06-17T08:12:24.000Z</time>
      </trkpt>
      <trkpt lat="46.614" lon="5.89175">
        <ele>843</ele>
        <time>2019-06-17T08:12:26.000Z</time>
      </trkpt>
      <trkpt lat="46.61398" lon="5.89177">
        <ele>843.40002441406</ele>
        <time>2019-06-17T08:12:28.000Z</time>
      </trkpt>
      <trkpt lat="46.61396" lon="5.89178">
        <ele>844</ele>
        <time>2019-06-17T08:12:30.000Z</time>
      </trkpt>
      <trkpt lat="46.61394" lon="5.8918">
        <ele>844.40002441406</ele>
        <time>2019-06-17T08:12:32.000Z</time>
      </trkpt>
      <trkpt lat="46.61393" lon="5.89182">
        <ele>844.20001220703</ele>
        <time>2019-06-17T08:12:34.000Z</time>
      </trkpt>
      <trkpt lat="46.61392" lon="5.89184">
        <ele>844.59997558594</ele>
        <time>2019-06-17T08:12:36.000Z</time>
      </trkpt>
      <trkpt lat="46.61391" lon="5.89186">
        <ele>845.20001220703</ele>
        <time>2019-06-17T08:12:38.000Z</time>
      </trkpt>
      <trkpt lat="46.61389" lon="5.89188">
        <ele>845.59997558594</ele>
        <time>2019-06-17T08:12:40.000Z</time>
      </trkpt>
      <trkpt lat="46.61388" lon="5.89191">
        <ele>846</ele>
        <time>2019-06-17T08:12:42.000Z</time>
      </trkpt>
      <trkpt lat="46.61386" lon="5.89193">
        <ele>846.20001220703</ele>
        <time>2019-06-17T08:12:45.000Z</time>
      </trkpt>
      <trkpt lat="46.61384" lon="5.89196">
        <ele>846.40002441406</ele>
        <time>2019-06-17T08:12:47.000Z</time>
      </trkpt>
      <trkpt lat="46.61382" lon="5.89198">
        <ele>846.40002441406</ele>
        <time>2019-06-17T08:12:50.000Z</time>
      </trkpt>
      <trkpt lat="46.6138" lon="5.89199">
        <ele>846.79998779297</ele>
        <time>2019-06-17T08:12:52.000Z</time>
      </trkpt>
      <trkpt lat="46.61378" lon="5.89202">
        <ele>847.20001220703</ele>
        <time>2019-06-17T08:12:55.000Z</time>
      </trkpt>
      <trkpt lat="46.61377" lon="5.89203">
        <ele>847.20001220703</ele>
        <time>2019-06-17T08:12:56.000Z</time>
      </trkpt>
      <trkpt lat="46.61375" lon="5.89204">
        <ele>847</ele>
        <time>2019-06-17T08:12:58.000Z</time>
      </trkpt>
      <trkpt lat="46.61373" lon="5.89205">
        <ele>848</ele>
        <time>2019-06-17T08:13:00.000Z</time>
      </trkpt>
      <trkpt lat="46.61372" lon="5.89207">
        <ele>848</ele>
        <time>2019-06-17T08:13:02.000Z</time>
      </trkpt>
      <trkpt lat="46.6137" lon="5.89209">
        <ele>848</ele>
        <time>2019-06-17T08:13:04.000Z</time>
      </trkpt>
      <trkpt lat="46.61367" lon="5.8921">
        <ele>848.20001220703</ele>
        <time>2019-06-17T08:13:06.000Z</time>
      </trkpt>
      <trkpt lat="46.61366" lon="5.89212">
        <ele>848.20001220703</ele>
        <time>2019-06-17T08:13:08.000Z</time>
      </trkpt>
      <trkpt lat="46.61365" lon="5.89214">
        <ele>848.79998779297</ele>
        <time>2019-06-17T08:13:10.000Z</time>
      </trkpt>
      <trkpt lat="46.61363" lon="5.89216">
        <ele>848.79998779297</ele>
        <time>2019-06-17T08:13:12.000Z</time>
      </trkpt>
      <trkpt lat="46.61361" lon="5.89218">
        <ele>849</ele>
        <time>2019-06-17T08:13:14.000Z</time>
      </trkpt>
      <trkpt lat="46.61358" lon="5.8922">
        <ele>849.20001220703</ele>
        <time>2019-06-17T08:13:16.000Z</time>
      </trkpt>
      <trkpt lat="46.61356" lon="5.89221">
        <ele>849.20001220703</ele>
        <time>2019-06-17T08:13:18.000Z</time>
      </trkpt>
      <trkpt lat="46.61354" lon="5.89223">
        <ele>849.79998779297</ele>
        <time>2019-06-17T08:13:20.000Z</time>
      </trkpt>
      <trkpt lat="46.61353" lon="5.89225">
        <ele>850</ele>
        <time>2019-06-17T08:13:22.000Z</time>
      </trkpt>
      <trkpt lat="46.61351" lon="5.89227">
        <ele>849.79998779297</ele>
        <time>2019-06-17T08:13:24.000Z</time>
      </trkpt>
      <trkpt lat="46.6135" lon="5.89229">
        <ele>850</ele>
        <time>2019-06-17T08:13:27.000Z</time>
      </trkpt>
      <trkpt lat="46.61348" lon="5.8923">
        <ele>852</ele>
        <time>2019-06-17T08:14:07.000Z</time>
      </trkpt>
      <trkpt lat="46.61346" lon="5.89232">
        <ele>852</ele>
        <time>2019-06-17T08:14:10.000Z</time>
      </trkpt>
      <trkpt lat="46.61345" lon="5.89234">
        <ele>851.79998779297</ele>
        <time>2019-06-17T08:14:12.000Z</time>
      </trkpt>
      <trkpt lat="46.61344" lon="5.89237">
        <ele>851.40002441406</ele>
        <time>2019-06-17T08:14:14.000Z</time>
      </trkpt>
      <trkpt lat="46.61342" lon="5.89239">
        <ele>851</ele>
        <time>2019-06-17T08:14:16.000Z</time>
      </trkpt>
      <trkpt lat="46.61341" lon="5.89241">
        <ele>851.20001220703</ele>
        <time>2019-06-17T08:14:18.000Z</time>
      </trkpt>
      <trkpt lat="46.61339" lon="5.89244">
        <ele>851.40002441406</ele>
        <time>2019-06-17T08:14:20.000Z</time>
      </trkpt>
      <trkpt lat="46.61338" lon="5.89247">
        <ele>851.59997558594</ele>
        <time>2019-06-17T08:14:22.000Z</time>
      </trkpt>
      <trkpt lat="46.61337" lon="5.89249">
        <ele>851.59997558594</ele>
        <time>2019-06-17T08:14:24.000Z</time>
      </trkpt>
      <trkpt lat="46.61335" lon="5.89251">
        <ele>851.79998779297</ele>
        <time>2019-06-17T08:14:26.000Z</time>
      </trkpt>
      <trkpt lat="46.61334" lon="5.89253">
        <ele>852</ele>
        <time>2019-06-17T08:14:28.000Z</time>
      </trkpt>
      <trkpt lat="46.61333" lon="5.89256">
        <ele>851.79998779297</ele>
        <time>2019-06-17T08:14:30.000Z</time>
      </trkpt>
      <trkpt lat="46.61332" lon="5.89258">
        <ele>852.40002441406</ele>
        <time>2019-06-17T08:14:32.000Z</time>
      </trkpt>
      <trkpt lat="46.6133" lon="5.8926">
        <ele>852.59997558594</ele>
        <time>2019-06-17T08:14:34.000Z</time>
      </trkpt>
      <trkpt lat="46.61328" lon="5.89263">
        <ele>852.79998779297</ele>
        <time>2019-06-17T08:14:37.000Z</time>
      </trkpt>
      <trkpt lat="46.61327" lon="5.89265">
        <ele>853.20001220703</ele>
        <time>2019-06-17T08:14:38.000Z</time>
      </trkpt>
      <trkpt lat="46.61326" lon="5.89268">
        <ele>853</ele>
        <time>2019-06-17T08:14:40.000Z</time>
      </trkpt>
      <trkpt lat="46.61326" lon="5.89271">
        <ele>853.40002441406</ele>
        <time>2019-06-17T08:14:42.000Z</time>
      </trkpt>
      <trkpt lat="46.61325" lon="5.89274">
        <ele>854</ele>
        <time>2019-06-17T08:14:44.000Z</time>
      </trkpt>
      <trkpt lat="46.61325" lon="5.89277">
        <ele>854.40002441406</ele>
        <time>2019-06-17T08:14:46.000Z</time>
      </trkpt>
      <trkpt lat="46.61323" lon="5.8928">
        <ele>854.59997558594</ele>
        <time>2019-06-17T08:14:48.000Z</time>
      </trkpt>
      <trkpt lat="46.61323" lon="5.89283">
        <ele>854.79978729752</ele>
        <time>2019-06-17T08:14:50.000Z</time>
      </trkpt>
      <trkpt lat="46.61322" lon="5.89286">
        <ele>855</ele>
        <time>2019-06-17T08:14:52.000Z</time>
      </trkpt>
      <trkpt lat="46.61322" lon="5.89288">
        <ele>855</ele>
        <time>2019-06-17T08:14:54.000Z</time>
      </trkpt>
      <trkpt lat="46.61321" lon="5.89291">
        <ele>855.20001220703</ele>
        <time>2019-06-17T08:14:56.000Z</time>
      </trkpt>
      <trkpt lat="46.61321" lon="5.89293">
        <ele>855.59997558594</ele>
        <time>2019-06-17T08:14:58.000Z</time>
      </trkpt>
      <trkpt lat="46.61319" lon="5.89296">
        <ele>856.40002441406</ele>
        <time>2019-06-17T08:15:00.000Z</time>
      </trkpt>
      <trkpt lat="46.61319" lon="5.89298">
        <ele>856.40002441406</ele>
        <time>2019-06-17T08:15:02.000Z</time>
      </trkpt>
      <trkpt lat="46.61318" lon="5.89301">
        <ele>856.79998779297</ele>
        <time>2019-06-17T08:15:05.000Z</time>
      </trkpt>
      <trkpt lat="46.61315" lon="5.89304">
        <ele>856.79998779297</ele>
        <time>2019-06-17T08:15:07.000Z</time>
      </trkpt>
      <trkpt lat="46.61314" lon="5.89306">
        <ele>856.59997558594</ele>
        <time>2019-06-17T08:15:09.000Z</time>
      </trkpt>
      <trkpt lat="46.6131" lon="5.89318">
        <ele>858.20001220703</ele>
        <time>2019-06-17T08:15:19.000Z</time>
      </trkpt>
      <trkpt lat="46.6131" lon="5.89331">
        <ele>858.79998779297</ele>
        <time>2019-06-17T08:15:28.000Z</time>
      </trkpt>
      <trkpt lat="46.61311" lon="5.89338">
        <ele>859</ele>
        <time>2019-06-17T08:15:32.000Z</time>
      </trkpt>
      <trkpt lat="46.61313" lon="5.89342">
        <ele>859.59997558594</ele>
        <time>2019-06-17T08:15:34.000Z</time>
      </trkpt>
      <trkpt lat="46.61314" lon="5.89344">
        <ele>859.59997558594</ele>
        <time>2019-06-17T08:15:36.000Z</time>
      </trkpt>
      <trkpt lat="46.61315" lon="5.89347">
        <ele>859.20100824316</ele>
        <time>2019-06-17T08:15:40.000Z</time>
      </trkpt>
      <trkpt lat="46.61317" lon="5.89351">
        <ele>859.20001220703</ele>
        <time>2019-06-17T08:15:43.000Z</time>
      </trkpt>
      <trkpt lat="46.61325" lon="5.89359">
        <ele>858.40002441406</ele>
        <time>2019-06-17T08:15:52.000Z</time>
      </trkpt>
      <trkpt lat="46.61328" lon="5.89362">
        <ele>858.20001220703</ele>
        <time>2019-06-17T08:15:55.000Z</time>
      </trkpt>
      <trkpt lat="46.61331" lon="5.89366">
        <ele>858</ele>
        <time>2019-06-17T08:15:57.000Z</time>
      </trkpt>
      <trkpt lat="46.61334" lon="5.8937">
        <ele>858.20001220703</ele>
        <time>2019-06-17T08:16:00.000Z</time>
      </trkpt>
      <trkpt lat="46.61336" lon="5.89373">
        <ele>858.40002441406</ele>
        <time>2019-06-17T08:16:02.000Z</time>
      </trkpt>
      <trkpt lat="46.61341" lon="5.89386">
        <ele>857.79998779297</ele>
        <time>2019-06-17T08:16:09.000Z</time>
      </trkpt>
      <trkpt lat="46.61342" lon="5.89392">
        <ele>857.59997558594</ele>
        <time>2019-06-17T08:16:12.000Z</time>
      </trkpt>
      <trkpt lat="46.61344" lon="5.89396">
        <ele>857.20001220703</ele>
        <time>2019-06-17T08:16:15.000Z</time>
      </trkpt>
      <trkpt lat="46.61344" lon="5.89401">
        <ele>857.20001220703</ele>
        <time>2019-06-17T08:16:19.000Z</time>
      </trkpt>
      <trkpt lat="46.61345" lon="5.89413">
        <ele>857.59997558594</ele>
        <time>2019-06-17T08:16:28.000Z</time>
      </trkpt>
      <trkpt lat="46.61346" lon="5.89417">
        <ele>857.40002441406</ele>
        <time>2019-06-17T08:16:30.000Z</time>
      </trkpt>
      <trkpt lat="46.61347" lon="5.89421">
        <ele>857.59997558594</ele>
        <time>2019-06-17T08:16:32.000Z</time>
      </trkpt>
      <trkpt lat="46.61343" lon="5.89434">
        <ele>858.40002441406</ele>
        <time>2019-06-17T08:16:39.000Z</time>
      </trkpt>
      <trkpt lat="46.61339" lon="5.89447">
        <ele>859.20001220703</ele>
        <time>2019-06-17T08:16:46.000Z</time>
      </trkpt>
      <trkpt lat="46.61334" lon="5.89459">
        <ele>859.59997558594</ele>
        <time>2019-06-17T08:16:55.000Z</time>
      </trkpt>
      <trkpt lat="46.61331" lon="5.89461">
        <ele>860.40002441406</ele>
        <time>2019-06-17T08:16:58.000Z</time>
      </trkpt>
      <trkpt lat="46.61326" lon="5.89466">
        <ele>861</ele>
        <time>2019-06-17T08:17:05.000Z</time>
      </trkpt>
      <trkpt lat="46.61317" lon="5.89468">
        <ele>861.79998779297</ele>
        <time>2019-06-17T08:17:11.000Z</time>
      </trkpt>
      <trkpt lat="46.61307" lon="5.89469">
        <ele>862.79998779297</ele>
        <time>2019-06-17T08:17:19.000Z</time>
      </trkpt>
      <trkpt lat="46.61302" lon="5.8947">
        <ele>863.39883086589</ele>
        <time>2019-06-17T08:17:22.000Z</time>
      </trkpt>
      <trkpt lat="46.613" lon="5.89471">
        <ele>863.79998779297</ele>
        <time>2019-06-17T08:17:24.000Z</time>
      </trkpt>
      <trkpt lat="46.61298" lon="5.89473">
        <ele>864</ele>
        <time>2019-06-17T08:17:27.000Z</time>
      </trkpt>
      <trkpt lat="46.61295" lon="5.89474">
        <ele>864.20001220703</ele>
        <time>2019-06-17T08:17:29.000Z</time>
      </trkpt>
      <trkpt lat="46.61293" lon="5.89475">
        <ele>864.59997558594</ele>
        <time>2019-06-17T08:17:31.000Z</time>
      </trkpt>
      <trkpt lat="46.61292" lon="5.89478">
        <ele>864.79998779297</ele>
        <time>2019-06-17T08:17:34.000Z</time>
      </trkpt>
      <trkpt lat="46.61291" lon="5.89481">
        <ele>865.40002441406</ele>
        <time>2019-06-17T08:17:37.000Z</time>
      </trkpt>
      <trkpt lat="46.61291" lon="5.89483">
        <ele>866</ele>
        <time>2019-06-17T08:17:41.000Z</time>
      </trkpt>
      <trkpt lat="46.61291" lon="5.89486">
        <ele>866.40002441406</ele>
        <time>2019-06-17T08:17:44.000Z</time>
      </trkpt>
      <trkpt lat="46.61291" lon="5.89489">
        <ele>866.79998779297</ele>
        <time>2019-06-17T08:17:47.000Z</time>
      </trkpt>
      <trkpt lat="46.61292" lon="5.89492">
        <ele>867.59997558594</ele>
        <time>2019-06-17T08:17:50.000Z</time>
      </trkpt>
      <trkpt lat="46.61293" lon="5.89494">
        <ele>867.79998779297</ele>
        <time>2019-06-17T08:17:52.000Z</time>
      </trkpt>
      <trkpt lat="46.61294" lon="5.89497">
        <ele>868</ele>
        <time>2019-06-17T08:17:54.000Z</time>
      </trkpt>
      <trkpt lat="46.61295" lon="5.895">
        <ele>868.40002441406</ele>
        <time>2019-06-17T08:17:57.000Z</time>
      </trkpt>
      <trkpt lat="46.61297" lon="5.89504">
        <ele>868.59997558594</ele>
        <time>2019-06-17T08:17:59.000Z</time>
      </trkpt>
      <trkpt lat="46.61298" lon="5.89507">
        <ele>869</ele>
        <time>2019-06-17T08:18:01.000Z</time>
      </trkpt>
      <trkpt lat="46.61299" lon="5.89511">
        <ele>869.59997558594</ele>
        <time>2019-06-17T08:18:03.000Z</time>
      </trkpt>
      <trkpt lat="46.613" lon="5.89514">
        <ele>869.79998779297</ele>
        <time>2019-06-17T08:18:05.000Z</time>
      </trkpt>
      <trkpt lat="46.613" lon="5.89518">
        <ele>869.79998779297</ele>
        <time>2019-06-17T08:18:07.000Z</time>
      </trkpt>
      <trkpt lat="46.613" lon="5.89521">
        <ele>869.79998779297</ele>
        <time>2019-06-17T08:18:09.000Z</time>
      </trkpt>
      <trkpt lat="46.613" lon="5.89525">
        <ele>870</ele>
        <time>2019-06-17T08:18:11.000Z</time>
      </trkpt>
      <trkpt lat="46.613" lon="5.89527">
        <ele>870.19921407576</ele>
        <time>2019-06-17T08:18:13.000Z</time>
      </trkpt>
      <trkpt lat="46.61301" lon="5.8953">
        <ele>870.20001220703</ele>
        <time>2019-06-17T08:18:15.000Z</time>
      </trkpt>
      <trkpt lat="46.61301" lon="5.89533">
        <ele>870.40002441406</ele>
        <time>2019-06-17T08:18:17.000Z</time>
      </trkpt>
      <trkpt lat="46.61301" lon="5.89535">
        <ele>870.20001220703</ele>
        <time>2019-06-17T08:18:20.000Z</time>
      </trkpt>
      <trkpt lat="46.61299" lon="5.89535">
        <ele>870.79998779297</ele>
        <time>2019-06-17T08:18:25.000Z</time>
      </trkpt>
      <trkpt lat="46.61298" lon="5.89539">
        <ele>871</ele>
        <time>2019-06-17T08:18:30.000Z</time>
      </trkpt>
      <trkpt lat="46.61299" lon="5.89541">
        <ele>871.20001220703</ele>
        <time>2019-06-17T08:18:32.000Z</time>
      </trkpt>
      <trkpt lat="46.613" lon="5.89545">
        <ele>871.40002441406</ele>
        <time>2019-06-17T08:18:35.000Z</time>
      </trkpt>
      <trkpt lat="46.61301" lon="5.89548">
        <ele>871.79998779297</ele>
        <time>2019-06-17T08:18:37.000Z</time>
      </trkpt>
      <trkpt lat="46.61303" lon="5.8955">
        <ele>872</ele>
        <time>2019-06-17T08:18:39.000Z</time>
      </trkpt>
      <trkpt lat="46.61304" lon="5.89553">
        <ele>872.20001220703</ele>
        <time>2019-06-17T08:18:41.000Z</time>
      </trkpt>
      <trkpt lat="46.61306" lon="5.89555">
        <ele>872.20001220703</ele>
        <time>2019-06-17T08:18:43.000Z</time>
      </trkpt>
      <trkpt lat="46.61307" lon="5.89558">
        <ele>871.79998779297</ele>
        <time>2019-06-17T08:18:45.000Z</time>
      </trkpt>
      <trkpt lat="46.61308" lon="5.8956">
        <ele>871.79998779297</ele>
        <time>2019-06-17T08:18:47.000Z</time>
      </trkpt>
      <trkpt lat="46.61309" lon="5.89564">
        <ele>872.20001220703</ele>
        <time>2019-06-17T08:18:50.000Z</time>
      </trkpt>
      <trkpt lat="46.61312" lon="5.89567">
        <ele>872.20001220703</ele>
        <time>2019-06-17T08:18:52.000Z</time>
      </trkpt>
      <trkpt lat="46.61313" lon="5.89569">
        <ele>871.79998779297</ele>
        <time>2019-06-17T08:18:54.000Z</time>
      </trkpt>
      <trkpt lat="46.61316" lon="5.89577">
        <ele>871.40002441406</ele>
        <time>2019-06-17T08:19:00.000Z</time>
      </trkpt>
      <trkpt lat="46.61317" lon="5.89579">
        <ele>871.20001220703</ele>
        <time>2019-06-17T08:19:03.000Z</time>
      </trkpt>
      <trkpt lat="46.61317" lon="5.89583">
        <ele>871.20001220703</ele>
        <time>2019-06-17T08:19:07.000Z</time>
      </trkpt>
      <trkpt lat="46.61318" lon="5.89586">
        <ele>871.40002441406</ele>
        <time>2019-06-17T08:19:10.000Z</time>
      </trkpt>
      <trkpt lat="46.61319" lon="5.8959">
        <ele>871.40002441406</ele>
        <time>2019-06-17T08:19:13.000Z</time>
      </trkpt>
      <trkpt lat="46.61321" lon="5.89591">
        <ele>871</ele>
        <time>2019-06-17T08:19:16.000Z</time>
      </trkpt>
      <trkpt lat="46.61326" lon="5.89603">
        <ele>870.59997558594</ele>
        <time>2019-06-17T08:19:26.000Z</time>
      </trkpt>
      <trkpt lat="46.61334" lon="5.89613">
        <ele>869.20001220703</ele>
        <time>2019-06-17T08:19:32.000Z</time>
      </trkpt>
      <trkpt lat="46.61339" lon="5.89629">
        <ele>868</ele>
        <time>2019-06-17T08:19:43.000Z</time>
      </trkpt>
      <trkpt lat="46.6134" lon="5.89639">
        <ele>867.40002441406</ele>
        <time>2019-06-17T08:19:48.000Z</time>
      </trkpt>
      <trkpt lat="46.61342" lon="5.89652">
        <ele>867.40002441406</ele>
        <time>2019-06-17T08:19:54.000Z</time>
      </trkpt>
      <trkpt lat="46.61349" lon="5.89662">
        <ele>867</ele>
        <time>2019-06-17T08:20:00.000Z</time>
      </trkpt>
      <trkpt lat="46.61351" lon="5.89676">
        <ele>866.59997558594</ele>
        <time>2019-06-17T08:20:08.000Z</time>
      </trkpt>
      <trkpt lat="46.61346" lon="5.8969">
        <ele>866.59997558594</ele>
        <time>2019-06-17T08:20:15.000Z</time>
      </trkpt>
      <trkpt lat="46.61345" lon="5.89704">
        <ele>866</ele>
        <time>2019-06-17T08:20:22.000Z</time>
      </trkpt>
      <trkpt lat="46.6134" lon="5.89716">
        <ele>867.40002441406</ele>
        <time>2019-06-17T08:20:34.000Z</time>
      </trkpt>
      <trkpt lat="46.6133" lon="5.89723">
        <ele>867.59997558594</ele>
        <time>2019-06-17T08:20:42.000Z</time>
      </trkpt>
      <trkpt lat="46.61322" lon="5.8973">
        <ele>867.99959941065</ele>
        <time>2019-06-17T08:20:47.000Z</time>
      </trkpt>
      <trkpt lat="46.61314" lon="5.89737">
        <ele>868.20001220703</ele>
        <time>2019-06-17T08:20:52.000Z</time>
      </trkpt>
      <trkpt lat="46.61309" lon="5.89749">
        <ele>868.40002441406</ele>
        <time>2019-06-17T08:20:57.000Z</time>
      </trkpt>
      <trkpt lat="46.61303" lon="5.8976">
        <ele>869.20001220703</ele>
        <time>2019-06-17T08:21:05.000Z</time>
      </trkpt>
      <trkpt lat="46.61295" lon="5.89767">
        <ele>870.40002441406</ele>
        <time>2019-06-17T08:21:13.000Z</time>
      </trkpt>
      <trkpt lat="46.61287" lon="5.89775">
        <ele>871.20001220703</ele>
        <time>2019-06-17T08:21:19.000Z</time>
      </trkpt>
      <trkpt lat="46.61278" lon="5.89781">
        <ele>872.40002441406</ele>
        <time>2019-06-17T08:21:28.000Z</time>
      </trkpt>
      <trkpt lat="46.61269" lon="5.89783">
        <ele>873.39883086589</ele>
        <time>2019-06-17T08:21:37.000Z</time>
      </trkpt>
      <trkpt lat="46.61262" lon="5.89794">
        <ele>873.79998779297</ele>
        <time>2019-06-17T08:21:44.000Z</time>
      </trkpt>
      <trkpt lat="46.61257" lon="5.89805">
        <ele>874.79998779297</ele>
        <time>2019-06-17T08:21:55.000Z</time>
      </trkpt>
      <trkpt lat="46.61248" lon="5.89811">
        <ele>875.59997558594</ele>
        <time>2019-06-17T08:22:04.000Z</time>
      </trkpt>
      <trkpt lat="46.61241" lon="5.89818">
        <ele>876.59997558594</ele>
        <time>2019-06-17T08:22:11.000Z</time>
      </trkpt>
      <trkpt lat="46.61233" lon="5.89827">
        <ele>877.40002441406</ele>
        <time>2019-06-17T08:22:20.000Z</time>
      </trkpt>
      <trkpt lat="46.61224" lon="5.89831">
        <ele>878.20001220703</ele>
        <time>2019-06-17T08:22:29.000Z</time>
      </trkpt>
      <trkpt lat="46.61217" lon="5.89841">
        <ele>879.40002441406</ele>
        <time>2019-06-17T08:22:39.000Z</time>
      </trkpt>
      <trkpt lat="46.6121" lon="5.89849">
        <ele>880</ele>
        <time>2019-06-17T08:22:48.000Z</time>
      </trkpt>
      <trkpt lat="46.61204" lon="5.89861">
        <ele>880.79998779297</ele>
        <time>2019-06-17T08:22:54.000Z</time>
      </trkpt>
      <trkpt lat="46.61196" lon="5.89866">
        <ele>881.59997558594</ele>
        <time>2019-06-17T08:23:02.000Z</time>
      </trkpt>
      <trkpt lat="46.61188" lon="5.89874">
        <ele>883</ele>
        <time>2019-06-17T08:23:13.000Z</time>
      </trkpt>
      <trkpt lat="46.61183" lon="5.89885">
        <ele>883.79998779297</ele>
        <time>2019-06-17T08:23:21.000Z</time>
      </trkpt>
      <trkpt lat="46.61175" lon="5.89892">
        <ele>885</ele>
        <time>2019-06-17T08:23:31.000Z</time>
      </trkpt>
      <trkpt lat="46.61169" lon="5.89903">
        <ele>886</ele>
        <time>2019-06-17T08:23:42.000Z</time>
      </trkpt>
      <trkpt lat="46.61167" lon="5.89916">
        <ele>887.79998779297</ele>
        <time>2019-06-17T08:23:55.000Z</time>
      </trkpt>
      <trkpt lat="46.61164" lon="5.89928">
        <ele>889.20001220703</ele>
        <time>2019-06-17T08:24:04.000Z</time>
      </trkpt>
      <trkpt lat="46.61161" lon="5.89941">
        <ele>889.79998779297</ele>
        <time>2019-06-17T08:24:12.000Z</time>
      </trkpt>
      <trkpt lat="46.61158" lon="5.89954">
        <ele>890.79998779297</ele>
        <time>2019-06-17T08:24:23.000Z</time>
      </trkpt>
      <trkpt lat="46.61154" lon="5.89966">
        <ele>892.40002441406</ele>
        <time>2019-06-17T08:24:33.000Z</time>
      </trkpt>
      <trkpt lat="46.61151" lon="5.89976">
        <ele>893.40002441406</ele>
        <time>2019-06-17T08:24:41.000Z</time>
      </trkpt>
      <trkpt lat="46.61151" lon="5.8999">
        <ele>894.59997558594</ele>
        <time>2019-06-17T08:24:55.000Z</time>
      </trkpt>
      <trkpt lat="46.61153" lon="5.90004">
        <ele>896.20001220703</ele>
        <time>2019-06-17T08:25:05.000Z</time>
      </trkpt>
      <trkpt lat="46.61147" lon="5.90015">
        <ele>897.79998779297</ele>
        <time>2019-06-17T08:25:17.000Z</time>
      </trkpt>
      <trkpt lat="46.61143" lon="5.90028">
        <ele>899.59997558594</ele>
        <time>2019-06-17T08:25:30.000Z</time>
      </trkpt>
      <trkpt lat="46.61141" lon="5.90041">
        <ele>901.40002441406</ele>
        <time>2019-06-17T08:25:41.000Z</time>
      </trkpt>
      <trkpt lat="46.61138" lon="5.90054">
        <ele>902.79998779297</ele>
        <time>2019-06-17T08:25:52.000Z</time>
      </trkpt>
      <trkpt lat="46.6114" lon="5.90068">
        <ele>904.40002441406</ele>
        <time>2019-06-17T08:26:03.000Z</time>
      </trkpt>
      <trkpt lat="46.61143" lon="5.90081">
        <ele>906</ele>
        <time>2019-06-17T08:26:15.000Z</time>
      </trkpt>
      <trkpt lat="46.61149" lon="5.90091">
        <ele>907.40002441406</ele>
        <time>2019-06-17T08:26:26.000Z</time>
      </trkpt>
      <trkpt lat="46.61147" lon="5.90104">
        <ele>908.59997558594</ele>
        <time>2019-06-17T08:26:35.000Z</time>
      </trkpt>
      <trkpt lat="46.61137" lon="5.90114">
        <ele>909</ele>
        <time>2019-06-17T08:26:41.000Z</time>
      </trkpt>
      <trkpt lat="46.61133" lon="5.90126">
        <ele>909.59997558594</ele>
        <time>2019-06-17T08:26:47.000Z</time>
      </trkpt>
      <trkpt lat="46.61125" lon="5.90136">
        <ele>910.40002441406</ele>
        <time>2019-06-17T08:26:53.000Z</time>
      </trkpt>
      <trkpt lat="46.6112" lon="5.90148">
        <ele>911.59997558594</ele>
        <time>2019-06-17T08:27:02.000Z</time>
      </trkpt>
      <trkpt lat="46.61113" lon="5.90157">
        <ele>912.79998779297</ele>
        <time>2019-06-17T08:27:10.000Z</time>
      </trkpt>
      <trkpt lat="46.61106" lon="5.90164">
        <ele>913.59997558594</ele>
        <time>2019-06-17T08:27:19.000Z</time>
      </trkpt>
      <trkpt lat="46.611" lon="5.90169">
        <ele>917.40002441406</ele>
        <time>2019-06-17T08:27:50.000Z</time>
      </trkpt>
      <trkpt lat="46.61099" lon="5.90164">
        <ele>918.20001220703</ele>
        <time>2019-06-17T08:28:14.000Z</time>
      </trkpt>
      <trkpt lat="46.61097" lon="5.90164">
        <ele>917.79998779297</ele>
        <time>2019-06-17T08:28:30.000Z</time>
      </trkpt>
      <trkpt lat="46.61099" lon="5.90164">
        <ele>917.40002441406</ele>
        <time>2019-06-17T08:28:48.000Z</time>
      </trkpt>
      <trkpt lat="46.61101" lon="5.90162">
        <ele>918.20001220703</ele>
        <time>2019-06-17T08:28:52.000Z</time>
      </trkpt>
      <trkpt lat="46.61103" lon="5.90161">
        <ele>918.20001220703</ele>
        <time>2019-06-17T08:28:56.000Z</time>
      </trkpt>
      <trkpt lat="46.61111" lon="5.90154">
        <ele>919</ele>
        <time>2019-06-17T08:29:07.000Z</time>
      </trkpt>
      <trkpt lat="46.61119" lon="5.90147">
        <ele>920.40002441406</ele>
        <time>2019-06-17T08:29:19.000Z</time>
      </trkpt>
      <trkpt lat="46.61122" lon="5.90146">
        <ele>920.59997558594</ele>
        <time>2019-06-17T08:29:22.000Z</time>
      </trkpt>
      <trkpt lat="46.61128" lon="5.90144">
        <ele>920.79998779297</ele>
        <time>2019-06-17T08:29:28.000Z</time>
      </trkpt>
      <trkpt lat="46.61131" lon="5.9014">
        <ele>920</ele>
        <time>2019-06-17T08:29:32.000Z</time>
      </trkpt>
      <trkpt lat="46.61133" lon="5.90139">
        <ele>920.40002441406</ele>
        <time>2019-06-17T08:29:34.000Z</time>
      </trkpt>
      <trkpt lat="46.61135" lon="5.90136">
        <ele>920.79998779297</ele>
        <time>2019-06-17T08:29:37.000Z</time>
      </trkpt>
      <trkpt lat="46.61137" lon="5.90134">
        <ele>921</ele>
        <time>2019-06-17T08:29:40.000Z</time>
      </trkpt>
      <trkpt lat="46.61146" lon="5.90133">
        <ele>920.40002441406</ele>
        <time>2019-06-17T08:29:55.000Z</time>
      </trkpt>
      <trkpt lat="46.61155" lon="5.9013">
        <ele>923</ele>
        <time>2019-06-17T08:30:09.000Z</time>
      </trkpt>
      <trkpt lat="46.61161" lon="5.90125">
        <ele>924.59997558594</ele>
        <time>2019-06-17T08:30:17.000Z</time>
      </trkpt>
      <trkpt lat="46.61165" lon="5.90122">
        <ele>925.59997558594</ele>
        <time>2019-06-17T08:30:25.000Z</time>
      </trkpt>
      <trkpt lat="46.61172" lon="5.90123">
        <ele>926.40002441406</ele>
        <time>2019-06-17T08:30:34.000Z</time>
      </trkpt>
      <trkpt lat="46.61174" lon="5.90119">
        <ele>927.20001220703</ele>
        <time>2019-06-17T08:30:38.000Z</time>
      </trkpt>
      <trkpt lat="46.61176" lon="5.90117">
        <ele>927.59997558594</ele>
        <time>2019-06-17T08:30:43.000Z</time>
      </trkpt>
      <trkpt lat="46.61178" lon="5.90116">
        <ele>928.20001220703</ele>
        <time>2019-06-17T08:30:46.000Z</time>
      </trkpt>
      <trkpt lat="46.6118" lon="5.90113">
        <ele>928.79998779297</ele>
        <time>2019-06-17T08:30:51.000Z</time>
      </trkpt>
      <trkpt lat="46.6119" lon="5.90113">
        <ele>930.79998779297</ele>
        <time>2019-06-17T08:31:06.000Z</time>
      </trkpt>
      <trkpt lat="46.61196" lon="5.90107">
        <ele>933.40002441406</ele>
        <time>2019-06-17T08:31:21.000Z</time>
      </trkpt>
      <trkpt lat="46.61198" lon="5.90107">
        <ele>933.79998779297</ele>
        <time>2019-06-17T08:31:25.000Z</time>
      </trkpt>
      <trkpt lat="46.61199" lon="5.90105">
        <ele>934.79998779297</ele>
        <time>2019-06-17T08:31:31.000Z</time>
      </trkpt>
      <trkpt lat="46.61202" lon="5.90106">
        <ele>935.40002441406</ele>
        <time>2019-06-17T08:31:37.000Z</time>
      </trkpt>
      <trkpt lat="46.61203" lon="5.90106">
        <ele>935.59997558594</ele>
        <time>2019-06-17T08:31:38.000Z</time>
      </trkpt>
      <trkpt lat="46.61205" lon="5.90107">
        <ele>936.40002441406</ele>
        <time>2019-06-17T08:31:42.000Z</time>
      </trkpt>
      <trkpt lat="46.61207" lon="5.90109">
        <ele>936.79998779297</ele>
        <time>2019-06-17T08:31:44.000Z</time>
      </trkpt>
      <trkpt lat="46.61209" lon="5.90113">
        <ele>937</ele>
        <time>2019-06-17T08:31:46.000Z</time>
      </trkpt>
      <trkpt lat="46.61215" lon="5.90124">
        <ele>938.20001220703</ele>
        <time>2019-06-17T08:31:55.000Z</time>
      </trkpt>
      <trkpt lat="46.61218" lon="5.90137">
        <ele>940.20001220703</ele>
        <time>2019-06-17T08:32:07.000Z</time>
      </trkpt>
      <trkpt lat="46.61215" lon="5.9015">
        <ele>941.79998779297</ele>
        <time>2019-06-17T08:32:21.000Z</time>
      </trkpt>
      <trkpt lat="46.61216" lon="5.90136">
        <ele>945.59997558594</ele>
        <time>2019-06-17T08:33:03.000Z</time>
      </trkpt>
      <trkpt lat="46.61217" lon="5.90131">
        <ele>946.40002441406</ele>
        <time>2019-06-17T08:33:11.000Z</time>
      </trkpt>
      <trkpt lat="46.61226" lon="5.90131">
        <ele>947.79998779297</ele>
        <time>2019-06-17T08:33:23.000Z</time>
      </trkpt>
      <trkpt lat="46.61233" lon="5.90142">
        <ele>949.20001220703</ele>
        <time>2019-06-17T08:33:33.000Z</time>
      </trkpt>
      <trkpt lat="46.61239" lon="5.90152">
        <ele>950.59997558594</ele>
        <time>2019-06-17T08:33:43.000Z</time>
      </trkpt>
      <trkpt lat="46.6124" lon="5.90165">
        <ele>952.79998779297</ele>
        <time>2019-06-17T08:33:58.000Z</time>
      </trkpt>
      <trkpt lat="46.61241" lon="5.90175">
        <ele>955.20001220703</ele>
        <time>2019-06-17T08:34:16.000Z</time>
      </trkpt>
      <trkpt lat="46.61243" lon="5.90173">
        <ele>955.59997558594</ele>
        <time>2019-06-17T08:34:20.000Z</time>
      </trkpt>
      <trkpt lat="46.61243" lon="5.90169">
        <ele>956.40002441406</ele>
        <time>2019-06-17T08:34:25.000Z</time>
      </trkpt>
      <trkpt lat="46.61243" lon="5.90166">
        <ele>956.79998779297</ele>
        <time>2019-06-17T08:34:31.000Z</time>
      </trkpt>
      <trkpt lat="46.61247" lon="5.9016">
        <ele>958</ele>
        <time>2019-06-17T08:34:42.000Z</time>
      </trkpt>
      <trkpt lat="46.61249" lon="5.9016">
        <ele>958.20001220703</ele>
        <time>2019-06-17T08:34:45.000Z</time>
      </trkpt>
      <trkpt lat="46.61254" lon="5.90153">
        <ele>959.59997558594</ele>
        <time>2019-06-17T08:34:55.000Z</time>
      </trkpt>
      <trkpt lat="46.61263" lon="5.90146">
        <ele>962.79998779297</ele>
        <time>2019-06-17T08:35:11.000Z</time>
      </trkpt>
      <trkpt lat="46.61271" lon="5.90151">
        <ele>964.40002441406</ele>
        <time>2019-06-17T08:35:23.000Z</time>
      </trkpt>
      <trkpt lat="46.61277" lon="5.90161">
        <ele>967.59997558594</ele>
        <time>2019-06-17T08:35:44.000Z</time>
      </trkpt>
      <trkpt lat="46.61283" lon="5.90173">
        <ele>968.79998779297</ele>
        <time>2019-06-17T08:35:54.000Z</time>
      </trkpt>
      <trkpt lat="46.6129" lon="5.90181">
        <ele>970.20001220703</ele>
        <time>2019-06-17T08:36:03.000Z</time>
      </trkpt>
      <trkpt lat="46.61298" lon="5.90188">
        <ele>973</ele>
        <time>2019-06-17T08:36:28.000Z</time>
      </trkpt>
      <trkpt lat="46.61302" lon="5.90193">
        <ele>974</ele>
        <time>2019-06-17T08:36:34.000Z</time>
      </trkpt>
      <trkpt lat="46.61302" lon="5.90191">
        <ele>975.79998779297</ele>
        <time>2019-06-17T08:36:43.000Z</time>
      </trkpt>
      <trkpt lat="46.61304" lon="5.9019">
        <ele>976.20001220703</ele>
        <time>2019-06-17T08:36:49.000Z</time>
      </trkpt>
      <trkpt lat="46.61308" lon="5.9019">
        <ele>977.5995747174</ele>
        <time>2019-06-17T08:36:56.000Z</time>
      </trkpt>
      <trkpt lat="46.61311" lon="5.90192">
        <ele>978.40002441406</ele>
        <time>2019-06-17T08:37:03.000Z</time>
      </trkpt>
      <trkpt lat="46.61313" lon="5.90195">
        <ele>979</ele>
        <time>2019-06-17T08:37:05.000Z</time>
      </trkpt>
      <trkpt lat="46.61314" lon="5.90197">
        <ele>980.20001220703</ele>
        <time>2019-06-17T08:37:12.000Z</time>
      </trkpt>
      <trkpt lat="46.61316" lon="5.90198">
        <ele>980.40002441406</ele>
        <time>2019-06-17T08:37:15.000Z</time>
      </trkpt>
      <trkpt lat="46.61318" lon="5.90198">
        <ele>980.79998779297</ele>
        <time>2019-06-17T08:37:19.000Z</time>
      </trkpt>
      <trkpt lat="46.6132" lon="5.90199">
        <ele>981.20001220703</ele>
        <time>2019-06-17T08:37:23.000Z</time>
      </trkpt>
      <trkpt lat="46.61323" lon="5.90201">
        <ele>981.59997558594</ele>
        <time>2019-06-17T08:37:26.000Z</time>
      </trkpt>
      <trkpt lat="46.61324" lon="5.90204">
        <ele>982</ele>
        <time>2019-06-17T08:37:28.000Z</time>
      </trkpt>
      <trkpt lat="46.61325" lon="5.90206">
        <ele>982.40002441406</ele>
        <time>2019-06-17T08:37:30.000Z</time>
      </trkpt>
      <trkpt lat="46.61326" lon="5.90209">
        <ele>983</ele>
        <time>2019-06-17T08:37:34.000Z</time>
      </trkpt>
      <trkpt lat="46.61328" lon="5.90211">
        <ele>983</ele>
        <time>2019-06-17T08:37:36.000Z</time>
      </trkpt>
      <trkpt lat="46.61329" lon="5.90214">
        <ele>983.59997558594</ele>
        <time>2019-06-17T08:37:38.000Z</time>
      </trkpt>
      <trkpt lat="46.61331" lon="5.90216">
        <ele>984</ele>
        <time>2019-06-17T08:37:40.000Z</time>
      </trkpt>
      <trkpt lat="46.61335" lon="5.90222">
        <ele>984</ele>
        <time>2019-06-17T08:37:45.000Z</time>
      </trkpt>
      <trkpt lat="46.61336" lon="5.90225">
        <ele>984.40002441406</ele>
        <time>2019-06-17T08:37:47.000Z</time>
      </trkpt>
      <trkpt lat="46.61338" lon="5.90232">
        <ele>985</ele>
        <time>2019-06-17T08:37:55.000Z</time>
      </trkpt>
      <trkpt lat="46.61344" lon="5.90242">
        <ele>985.59997558594</ele>
        <time>2019-06-17T08:38:06.000Z</time>
      </trkpt>
      <trkpt lat="46.61345" lon="5.90244">
        <ele>986</ele>
        <time>2019-06-17T08:38:09.000Z</time>
      </trkpt>
      <trkpt lat="46.61346" lon="5.90246">
        <ele>986.20001220703</ele>
        <time>2019-06-17T08:38:12.000Z</time>
      </trkpt>
      <trkpt lat="46.61355" lon="5.90254">
        <ele>987.20001220703</ele>
        <time>2019-06-17T08:38:21.000Z</time>
      </trkpt>
      <trkpt lat="46.61363" lon="5.90264">
        <ele>988.79998779297</ele>
        <time>2019-06-17T08:38:35.000Z</time>
      </trkpt>
      <trkpt lat="46.61365" lon="5.90267">
        <ele>989</ele>
        <time>2019-06-17T08:38:37.000Z</time>
      </trkpt>
      <trkpt lat="46.61366" lon="5.9027">
        <ele>988.79998779297</ele>
        <time>2019-06-17T08:38:39.000Z</time>
      </trkpt>
      <trkpt lat="46.61368" lon="5.90272">
        <ele>988.79998779297</ele>
        <time>2019-06-17T08:38:43.000Z</time>
      </trkpt>
      <trkpt lat="46.61377" lon="5.90279">
        <ele>989.40002441406</ele>
        <time>2019-06-17T08:39:00.000Z</time>
      </trkpt>
      <trkpt lat="46.61384" lon="5.90288">
        <ele>990.20001220703</ele>
        <time>2019-06-17T08:39:08.000Z</time>
      </trkpt>
      <trkpt lat="46.61386" lon="5.90289">
        <ele>990.59997558594</ele>
        <time>2019-06-17T08:39:13.000Z</time>
      </trkpt>
      <trkpt lat="46.61389" lon="5.90285">
        <ele>991</ele>
        <time>2019-06-17T08:39:17.000Z</time>
      </trkpt>
      <trkpt lat="46.6139" lon="5.90281">
        <ele>991.59997558594</ele>
        <time>2019-06-17T08:39:20.000Z</time>
      </trkpt>
      <trkpt lat="46.61391" lon="5.90279">
        <ele>992</ele>
        <time>2019-06-17T08:39:22.000Z</time>
      </trkpt>
      <trkpt lat="46.61392" lon="5.90275">
        <ele>992.20001220703</ele>
        <time>2019-06-17T08:39:26.000Z</time>
      </trkpt>
      <trkpt lat="46.61393" lon="5.90273">
        <ele>992.99959941065</ele>
        <time>2019-06-17T08:39:29.000Z</time>
      </trkpt>
      <trkpt lat="46.61395" lon="5.90273">
        <ele>993.40002441406</ele>
        <time>2019-06-17T08:39:32.000Z</time>
      </trkpt>
      <trkpt lat="46.61401" lon="5.90274">
        <ele>994.59997558594</ele>
        <time>2019-06-17T08:39:39.000Z</time>
      </trkpt>
      <trkpt lat="46.61404" lon="5.90273">
        <ele>995.20001220703</ele>
        <time>2019-06-17T08:39:43.000Z</time>
      </trkpt>
      <trkpt lat="46.61406" lon="5.90273">
        <ele>997</ele>
        <time>2019-06-17T08:39:51.000Z</time>
      </trkpt>
      <trkpt lat="46.61409" lon="5.90271">
        <ele>998.79998779297</ele>
        <time>2019-06-17T08:39:58.000Z</time>
      </trkpt>
      <trkpt lat="46.6141" lon="5.90269">
        <ele>999.79998779297</ele>
        <time>2019-06-17T08:40:01.000Z</time>
      </trkpt>
      <trkpt lat="46.61412" lon="5.90268">
        <ele>1000.799987793</ele>
        <time>2019-06-17T08:40:04.000Z</time>
      </trkpt>
      <trkpt lat="46.61422" lon="5.90271">
        <ele>1002.4000244141</ele>
        <time>2019-06-17T08:40:14.000Z</time>
      </trkpt>
      <trkpt lat="46.61429" lon="5.90276">
        <ele>1004.200012207</ele>
        <time>2019-06-17T08:40:22.000Z</time>
      </trkpt>
      <trkpt lat="46.61429" lon="5.90273">
        <ele>1009</ele>
        <time>2019-06-17T08:40:43.000Z</time>
      </trkpt>
      <trkpt lat="46.61427" lon="5.90269">
        <ele>1010.200012207</ele>
        <time>2019-06-17T08:40:48.000Z</time>
      </trkpt>
      <trkpt lat="46.61427" lon="5.90266">
        <ele>1010.799987793</ele>
        <time>2019-06-17T08:40:51.000Z</time>
      </trkpt>
      <trkpt lat="46.61428" lon="5.90264">
        <ele>1011.4000244141</ele>
        <time>2019-06-17T08:40:55.000Z</time>
      </trkpt>
      <trkpt lat="46.61427" lon="5.90261">
        <ele>1012.5999755859</ele>
        <time>2019-06-17T08:41:06.000Z</time>
      </trkpt>
      <trkpt lat="46.61427" lon="5.90258">
        <ele>1013</ele>
        <time>2019-06-17T08:41:08.000Z</time>
      </trkpt>
      <trkpt lat="46.61426" lon="5.90255">
        <ele>1013.5999755859</ele>
        <time>2019-06-17T08:41:11.000Z</time>
      </trkpt>
      <trkpt lat="46.61426" lon="5.90252">
        <ele>1014.5999755859</ele>
        <time>2019-06-17T08:41:16.000Z</time>
      </trkpt>
      <trkpt lat="46.61427" lon="5.9025">
        <ele>1015</ele>
        <time>2019-06-17T08:41:19.000Z</time>
      </trkpt>
      <trkpt lat="46.61429" lon="5.90248">
        <ele>1015.4000244141</ele>
        <time>2019-06-17T08:41:21.000Z</time>
      </trkpt>
      <trkpt lat="46.6143" lon="5.90246">
        <ele>1016</ele>
        <time>2019-06-17T08:41:25.000Z</time>
      </trkpt>
      <trkpt lat="46.61429" lon="5.90244">
        <ele>1016.4000244141</ele>
        <time>2019-06-17T08:41:30.000Z</time>
      </trkpt>
      <trkpt lat="46.6143" lon="5.90242">
        <ele>1017.4000244141</ele>
        <time>2019-06-17T08:41:33.000Z</time>
      </trkpt>
      <trkpt lat="46.61432" lon="5.90239">
        <ele>1017.5999755859</ele>
        <time>2019-06-17T08:41:36.000Z</time>
      </trkpt>
      <trkpt lat="46.61433" lon="5.90237">
        <ele>1018.200012207</ele>
        <time>2019-06-17T08:41:38.000Z</time>
      </trkpt>
      <trkpt lat="46.61435" lon="5.90234">
        <ele>1018.200012207</ele>
        <time>2019-06-17T08:41:40.000Z</time>
      </trkpt>
      <trkpt lat="46.61435" lon="5.90232">
        <ele>1019</ele>
        <time>2019-06-17T08:41:44.000Z</time>
      </trkpt>
      <trkpt lat="46.61436" lon="5.90229">
        <ele>1019.799987793</ele>
        <time>2019-06-17T08:41:50.000Z</time>
      </trkpt>
      <trkpt lat="46.61437" lon="5.90226">
        <ele>1020.5999755859</ele>
        <time>2019-06-17T08:41:53.000Z</time>
      </trkpt>
      <trkpt lat="46.6144" lon="5.90225">
        <ele>1020.799987793</ele>
        <time>2019-06-17T08:41:56.000Z</time>
      </trkpt>
      <trkpt lat="46.61442" lon="5.90225">
        <ele>1021.4000244141</ele>
        <time>2019-06-17T08:41:59.000Z</time>
      </trkpt>
      <trkpt lat="46.61443" lon="5.90223">
        <ele>1022.5999755859</ele>
        <time>2019-06-17T08:42:06.000Z</time>
      </trkpt>
      <trkpt lat="46.61445" lon="5.90223">
        <ele>1023.200012207</ele>
        <time>2019-06-17T08:42:09.000Z</time>
      </trkpt>
      <trkpt lat="46.61447" lon="5.90222">
        <ele>1023.799987793</ele>
        <time>2019-06-17T08:42:12.000Z</time>
      </trkpt>
      <trkpt lat="46.61448" lon="5.9022">
        <ele>1024</ele>
        <time>2019-06-17T08:42:16.000Z</time>
      </trkpt>
      <trkpt lat="46.6145" lon="5.90219">
        <ele>1024.8000488281</ele>
        <time>2019-06-17T08:42:20.000Z</time>
      </trkpt>
      <trkpt lat="46.61452" lon="5.90219">
        <ele>1025.5999755859</ele>
        <time>2019-06-17T08:42:24.000Z</time>
      </trkpt>
      <trkpt lat="46.61454" lon="5.90218">
        <ele>1027.1999511719</ele>
        <time>2019-06-17T08:42:33.000Z</time>
      </trkpt>
      <trkpt lat="46.61456" lon="5.90216">
        <ele>1027.8000488281</ele>
        <time>2019-06-17T08:42:37.000Z</time>
      </trkpt>
      <trkpt lat="46.61458" lon="5.90215">
        <ele>1028.8000488281</ele>
        <time>2019-06-17T08:42:40.000Z</time>
      </trkpt>
      <trkpt lat="46.6146" lon="5.90215">
        <ele>1028.8000488281</ele>
        <time>2019-06-17T08:42:42.000Z</time>
      </trkpt>
      <trkpt lat="46.61462" lon="5.90213">
        <ele>1030.5999755859</ele>
        <time>2019-06-17T08:42:49.000Z</time>
      </trkpt>
      <trkpt lat="46.61463" lon="5.9021">
        <ele>1031.8000488281</ele>
        <time>2019-06-17T08:42:59.000Z</time>
      </trkpt>
      <trkpt lat="46.61463" lon="5.90207">
        <ele>1034.5999755859</ele>
        <time>2019-06-17T08:43:11.000Z</time>
      </trkpt>
      <trkpt lat="46.61462" lon="5.90205">
        <ele>1034.4000244141</ele>
        <time>2019-06-17T08:43:15.000Z</time>
      </trkpt>
      <trkpt lat="46.6146" lon="5.90202">
        <ele>1034.4000244141</ele>
        <time>2019-06-17T08:43:19.000Z</time>
      </trkpt>
      <trkpt lat="46.61459" lon="5.90199">
        <ele>1035</ele>
        <time>2019-06-17T08:43:25.000Z</time>
      </trkpt>
      <trkpt lat="46.6146" lon="5.90197">
        <ele>1036.5999755859</ele>
        <time>2019-06-17T08:43:34.000Z</time>
      </trkpt>
      <trkpt lat="46.61461" lon="5.90199">
        <ele>1038.4000244141</ele>
        <time>2019-06-17T08:44:41.000Z</time>
      </trkpt>
      <trkpt lat="46.61462" lon="5.90202">
        <ele>1037.8000488281</ele>
        <time>2019-06-17T08:44:56.000Z</time>
      </trkpt>
      <trkpt lat="46.61464" lon="5.90205">
        <ele>1038</ele>
        <time>2019-06-17T08:45:01.000Z</time>
      </trkpt>
      <trkpt lat="46.61465" lon="5.90207">
        <ele>1037.8000488281</ele>
        <time>2019-06-17T08:45:05.000Z</time>
      </trkpt>
      <trkpt lat="46.61467" lon="5.90208">
        <ele>1036.5999755859</ele>
        <time>2019-06-17T08:45:15.000Z</time>
      </trkpt>
      <trkpt lat="46.61469" lon="5.90208">
        <ele>1036.1999511719</ele>
        <time>2019-06-17T08:45:17.000Z</time>
      </trkpt>
      <trkpt lat="46.61471" lon="5.90209">
        <ele>1036</ele>
        <time>2019-06-17T08:45:20.000Z</time>
      </trkpt>
      <trkpt lat="46.61474" lon="5.9021">
        <ele>1036.2003518835</ele>
        <time>2019-06-17T08:45:26.000Z</time>
      </trkpt>
      <trkpt lat="46.61476" lon="5.90211">
        <ele>1036</ele>
        <time>2019-06-17T08:45:28.000Z</time>
      </trkpt>
      <trkpt lat="46.61478" lon="5.90212">
        <ele>1036</ele>
        <time>2019-06-17T08:45:31.000Z</time>
      </trkpt>
      <trkpt lat="46.6148" lon="5.90213">
        <ele>1036.4000244141</ele>
        <time>2019-06-17T08:45:34.000Z</time>
      </trkpt>
      <trkpt lat="46.61482" lon="5.90214">
        <ele>1036.5999755859</ele>
        <time>2019-06-17T08:45:38.000Z</time>
      </trkpt>
      <trkpt lat="46.61484" lon="5.90217">
        <ele>1037.1999511719</ele>
        <time>2019-06-17T08:45:41.000Z</time>
      </trkpt>
      <trkpt lat="46.61483" lon="5.90219">
        <ele>1037.4000244141</ele>
        <time>2019-06-17T08:45:44.000Z</time>
      </trkpt>
      <trkpt lat="46.61482" lon="5.90222">
        <ele>1038.1999511719</ele>
        <time>2019-06-17T08:45:47.000Z</time>
      </trkpt>
      <trkpt lat="46.61482" lon="5.90225">
        <ele>1039.5999755859</ele>
        <time>2019-06-17T08:45:53.000Z</time>
      </trkpt>
      <trkpt lat="46.61482" lon="5.90227">
        <ele>1039.8000488281</ele>
        <time>2019-06-17T08:45:56.000Z</time>
      </trkpt>
      <trkpt lat="46.6148" lon="5.9023">
        <ele>1040.1999511719</ele>
        <time>2019-06-17T08:45:59.000Z</time>
      </trkpt>
      <trkpt lat="46.61479" lon="5.90233">
        <ele>1040.8000488281</ele>
        <time>2019-06-17T08:46:04.000Z</time>
      </trkpt>
      <trkpt lat="46.61479" lon="5.90235">
        <ele>1041.1999511719</ele>
        <time>2019-06-17T08:46:07.000Z</time>
      </trkpt>
      <trkpt lat="46.61477" lon="5.90234">
        <ele>1041.5999755859</ele>
        <time>2019-06-17T08:46:10.000Z</time>
      </trkpt>
      <trkpt lat="46.61475" lon="5.90234">
        <ele>1042</ele>
        <time>2019-06-17T08:46:13.000Z</time>
      </trkpt>
      <trkpt lat="46.61473" lon="5.90236">
        <ele>1042.4000244141</ele>
        <time>2019-06-17T08:46:19.000Z</time>
      </trkpt>
      <trkpt lat="46.61471" lon="5.90238">
        <ele>1044.4000244141</ele>
        <time>2019-06-17T08:46:41.000Z</time>
      </trkpt>
      <trkpt lat="46.61472" lon="5.90235">
        <ele>1043.8000488281</ele>
        <time>2019-06-17T08:47:05.000Z</time>
      </trkpt>
      <trkpt lat="46.61473" lon="5.90232">
        <ele>1043.8000488281</ele>
        <time>2019-06-17T08:47:09.000Z</time>
      </trkpt>
      <trkpt lat="46.61474" lon="5.9023">
        <ele>1043.5999755859</ele>
        <time>2019-06-17T08:47:21.000Z</time>
      </trkpt>
      <trkpt lat="46.61473" lon="5.90234">
        <ele>1042.8000488281</ele>
        <time>2019-06-17T08:48:16.000Z</time>
      </trkpt>
      <trkpt lat="46.61472" lon="5.90236">
        <ele>1042.5999755859</ele>
        <time>2019-06-17T08:48:23.000Z</time>
      </trkpt>
      <trkpt lat="46.61472" lon="5.90233">
        <ele>1044.1999511719</ele>
        <time>2019-06-17T08:53:29.000Z</time>
      </trkpt>
      <trkpt lat="46.61474" lon="5.90232">
        <ele>1044.1999511719</ele>
        <time>2019-06-17T08:53:53.000Z</time>
      </trkpt>
      <trkpt lat="46.61476" lon="5.90231">
        <ele>1044.1999511719</ele>
        <time>2019-06-17T08:53:56.000Z</time>
      </trkpt>
      <trkpt lat="46.61479" lon="5.90231">
        <ele>1044.1999511719</ele>
        <time>2019-06-17T08:53:59.000Z</time>
      </trkpt>
      <trkpt lat="46.61481" lon="5.90232">
        <ele>1044.1999511719</ele>
        <time>2019-06-17T08:54:01.000Z</time>
      </trkpt>
      <trkpt lat="46.61483" lon="5.90231">
        <ele>1044.1999511719</ele>
        <time>2019-06-17T08:54:04.000Z</time>
      </trkpt>
      <trkpt lat="46.61485" lon="5.90232">
        <ele>1044.1999511719</ele>
        <time>2019-06-17T08:54:06.000Z</time>
      </trkpt>
      <trkpt lat="46.61487" lon="5.90234">
        <ele>1044.1999511719</ele>
        <time>2019-06-17T08:54:10.000Z</time>
      </trkpt>
      <trkpt lat="46.61487" lon="5.90236">
        <ele>1044.1999511719</ele>
        <time>2019-06-17T08:56:07.000Z</time>
      </trkpt>
      <trkpt lat="46.61486" lon="5.90234">
        <ele>1044.1999511719</ele>
        <time>2019-06-17T08:56:47.000Z</time>
      </trkpt>
      <trkpt lat="46.61486" lon="5.90237">
        <ele>1044.1999511719</ele>
        <time>2019-06-17T08:57:40.000Z</time>
      </trkpt>
      <trkpt lat="46.61485" lon="5.90236">
        <ele>1044.1999511719</ele>
        <time>2019-06-17T08:58:55.000Z</time>
      </trkpt>
      <trkpt lat="46.61484" lon="5.90239">
        <ele>1044.1999511719</ele>
        <time>2019-06-17T08:59:19.000Z</time>
      </trkpt>
      <trkpt lat="46.61486" lon="5.90239">
        <ele>1044.1999511719</ele>
        <time>2019-06-17T09:00:08.000Z</time>
      </trkpt>
      <trkpt lat="46.61488" lon="5.90237">
        <ele>1044.1999511719</ele>
        <time>2019-06-17T09:00:17.000Z</time>
      </trkpt>
      <trkpt lat="46.61486" lon="5.90236">
        <ele>1044.1999511719</ele>
        <time>2019-06-17T09:00:25.000Z</time>
      </trkpt>
      <trkpt lat="46.61484" lon="5.90235">
        <ele>1044.1999511719</ele>
        <time>2019-06-17T09:00:27.000Z</time>
      </trkpt>
      <trkpt lat="46.61479" lon="5.90237">
        <ele>1044.1999511719</ele>
        <time>2019-06-17T09:00:32.000Z</time>
      </trkpt>
      <trkpt lat="46.61477" lon="5.90236">
        <ele>1044.1999511719</ele>
        <time>2019-06-17T09:00:34.000Z</time>
      </trkpt>
      <trkpt lat="46.61475" lon="5.90237">
        <ele>1044.1999511719</ele>
        <time>2019-06-17T09:00:38.000Z</time>
      </trkpt>
      <trkpt lat="46.61477" lon="5.90238">
        <ele>1044.1999511719</ele>
        <time>2019-06-17T09:01:51.000Z</time>
      </trkpt>
      <trkpt lat="46.61479" lon="5.90237">
        <ele>1044.1999511719</ele>
        <time>2019-06-17T09:01:53.000Z</time>
      </trkpt>
      <trkpt lat="46.61481" lon="5.90237">
        <ele>1044.1999511719</ele>
        <time>2019-06-17T09:01:55.000Z</time>
      </trkpt>
      <trkpt lat="46.61483" lon="5.90237">
        <ele>1044.1999511719</ele>
        <time>2019-06-17T09:01:57.000Z</time>
      </trkpt>
      <trkpt lat="46.61486" lon="5.90237">
        <ele>1044.1999511719</ele>
        <time>2019-06-17T09:01:59.000Z</time>
      </trkpt>
      <trkpt lat="46.61489" lon="5.90238">
        <ele>1044.1999511719</ele>
        <time>2019-06-17T09:02:01.000Z</time>
      </trkpt>
      <trkpt lat="46.61492" lon="5.9024">
        <ele>1044.1999511719</ele>
        <time>2019-06-17T09:02:03.000Z</time>
      </trkpt>
      <trkpt lat="46.61494" lon="5.90241">
        <ele>1044.1999511719</ele>
        <time>2019-06-17T09:02:05.000Z</time>
      </trkpt>
      <trkpt lat="46.61497" lon="5.90242">
        <ele>1044.1999511719</ele>
        <time>2019-06-17T09:02:08.000Z</time>
      </trkpt>
      <trkpt lat="46.61498" lon="5.90244">
        <ele>1044.1999511719</ele>
        <time>2019-06-17T09:02:11.000Z</time>
      </trkpt>
      <trkpt lat="46.615" lon="5.90248">
        <ele>1044.1999511719</ele>
        <time>2019-06-17T09:02:14.000Z</time>
      </trkpt>
      <trkpt lat="46.61502" lon="5.9025">
        <ele>1044.1999511719</ele>
        <time>2019-06-17T09:02:16.000Z</time>
      </trkpt>
      <trkpt lat="46.61504" lon="5.90251">
        <ele>1044.1999511719</ele>
        <time>2019-06-17T09:02:18.000Z</time>
      </trkpt>
      <trkpt lat="46.61507" lon="5.90252">
        <ele>1044.1999511719</ele>
        <time>2019-06-17T09:02:20.000Z</time>
      </trkpt>
      <trkpt lat="46.61509" lon="5.90264">
        <ele>1044.1999511719</ele>
        <time>2019-06-17T09:02:27.000Z</time>
      </trkpt>
      <trkpt lat="46.61508" lon="5.9027">
        <ele>1044.1999511719</ele>
        <time>2019-06-17T09:02:31.000Z</time>
      </trkpt>
      <trkpt lat="46.6151" lon="5.9027">
        <ele>1044.1999511719</ele>
        <time>2019-06-17T09:02:35.000Z</time>
      </trkpt>
      <trkpt lat="46.61513" lon="5.90268">
        <ele>1044.1999511719</ele>
        <time>2019-06-17T09:02:38.000Z</time>
      </trkpt>
      <trkpt lat="46.61515" lon="5.90269">
        <ele>1044.1999511719</ele>
        <time>2019-06-17T09:02:40.000Z</time>
      </trkpt>
      <trkpt lat="46.61518" lon="5.9027">
        <ele>1044.1999511719</ele>
        <time>2019-06-17T09:02:42.000Z</time>
      </trkpt>
      <trkpt lat="46.61521" lon="5.9027">
        <ele>1044.1999511719</ele>
        <time>2019-06-17T09:02:45.000Z</time>
      </trkpt>
      <trkpt lat="46.61522" lon="5.9027">
        <ele>1044.1999511719</ele>
        <time>2019-06-17T09:02:47.000Z</time>
      </trkpt>
      <trkpt lat="46.61525" lon="5.9027">
        <ele>1044.1999511719</ele>
        <time>2019-06-17T09:02:50.000Z</time>
      </trkpt>
      <trkpt lat="46.61527" lon="5.9027">
        <ele>1044.1999511719</ele>
        <time>2019-06-17T09:02:52.000Z</time>
      </trkpt>
      <trkpt lat="46.61529" lon="5.90273">
        <ele>1044.1999511719</ele>
        <time>2019-06-17T09:02:55.000Z</time>
      </trkpt>
      <trkpt lat="46.6153" lon="5.90277">
        <ele>1044.1999511719</ele>
        <time>2019-06-17T09:02:57.000Z</time>
      </trkpt>
      <trkpt lat="46.61531" lon="5.9028">
        <ele>1044.1999511719</ele>
        <time>2019-06-17T09:03:00.000Z</time>
      </trkpt>
      <trkpt lat="46.61533" lon="5.90283">
        <ele>1044.1999511719</ele>
        <time>2019-06-17T09:03:02.000Z</time>
      </trkpt>
      <trkpt lat="46.61534" lon="5.90285">
        <ele>1044.1999511719</ele>
        <time>2019-06-17T09:03:04.000Z</time>
      </trkpt>
      <trkpt lat="46.61536" lon="5.90287">
        <ele>1044.1999511719</ele>
        <time>2019-06-17T09:03:06.000Z</time>
      </trkpt>
      <trkpt lat="46.61538" lon="5.90289">
        <ele>1044.1999511719</ele>
        <time>2019-06-17T09:03:08.000Z</time>
      </trkpt>
      <trkpt lat="46.61539" lon="5.9029">
        <ele>1044.1999511719</ele>
        <time>2019-06-17T09:03:10.000Z</time>
      </trkpt>
      <trkpt lat="46.61541" lon="5.90294">
        <ele>1044.1999511719</ele>
        <time>2019-06-17T09:03:13.000Z</time>
      </trkpt>
      <trkpt lat="46.61542" lon="5.90296">
        <ele>1044.1999511719</ele>
        <time>2019-06-17T09:03:15.000Z</time>
      </trkpt>
      <trkpt lat="46.61543" lon="5.90299">
        <ele>1044.1999511719</ele>
        <time>2019-06-17T09:03:17.000Z</time>
      </trkpt>
      <trkpt lat="46.61544" lon="5.90302">
        <ele>1044.1999511719</ele>
        <time>2019-06-17T09:03:19.000Z</time>
      </trkpt>
      <trkpt lat="46.61546" lon="5.90305">
        <ele>1044.1999511719</ele>
        <time>2019-06-17T09:03:21.000Z</time>
      </trkpt>
      <trkpt lat="46.61547" lon="5.90306">
        <ele>1044.1999511719</ele>
        <time>2019-06-17T09:03:23.000Z</time>
      </trkpt>
      <trkpt lat="46.61549" lon="5.90308">
        <ele>1044.1999511719</ele>
        <time>2019-06-17T09:03:25.000Z</time>
      </trkpt>
      <trkpt lat="46.6155" lon="5.90311">
        <ele>1044.1999511719</ele>
        <time>2019-06-17T09:03:27.000Z</time>
      </trkpt>
      <trkpt lat="46.61552" lon="5.90313">
        <ele>1044.1999511719</ele>
        <time>2019-06-17T09:03:29.000Z</time>
      </trkpt>
      <trkpt lat="46.61554" lon="5.90315">
        <ele>1044.1999511719</ele>
        <time>2019-06-17T09:03:31.000Z</time>
      </trkpt>
      <trkpt lat="46.61555" lon="5.90317">
        <ele>1044.1999511719</ele>
        <time>2019-06-17T09:03:34.000Z</time>
      </trkpt>
      <trkpt lat="46.61557" lon="5.90319">
        <ele>1044.1999511719</ele>
        <time>2019-06-17T09:03:36.000Z</time>
      </trkpt>
      <trkpt lat="46.61563" lon="5.90329">
        <ele>1044.1999511719</ele>
        <time>2019-06-17T09:03:48.000Z</time>
      </trkpt>
      <trkpt lat="46.61568" lon="5.90335">
        <ele>1044.1999511719</ele>
        <time>2019-06-17T09:03:53.000Z</time>
      </trkpt>
      <trkpt lat="46.61569" lon="5.90338">
        <ele>1044.1999511719</ele>
        <time>2019-06-17T09:03:55.000Z</time>
      </trkpt>
      <trkpt lat="46.61571" lon="5.90339">
        <ele>1044.1999511719</ele>
        <time>2019-06-17T09:03:57.000Z</time>
      </trkpt>
      <trkpt lat="46.61579" lon="5.9035">
        <ele>1044.1999511719</ele>
        <time>2019-06-17T09:04:04.000Z</time>
      </trkpt>
      <trkpt lat="46.6158" lon="5.90353">
        <ele>1044.1999511719</ele>
        <time>2019-06-17T09:04:06.000Z</time>
      </trkpt>
      <trkpt lat="46.61583" lon="5.90355">
        <ele>1044.1999511719</ele>
        <time>2019-06-17T09:04:08.000Z</time>
      </trkpt>
      <trkpt lat="46.61585" lon="5.90356">
        <ele>1044.1999511719</ele>
        <time>2019-06-17T09:04:10.000Z</time>
      </trkpt>
      <trkpt lat="46.61587" lon="5.90359">
        <ele>1044.1999511719</ele>
        <time>2019-06-17T09:04:12.000Z</time>
      </trkpt>
      <trkpt lat="46.61588" lon="5.90362">
        <ele>1044.1999511719</ele>
        <time>2019-06-17T09:04:14.000Z</time>
      </trkpt>
      <trkpt lat="46.6159" lon="5.90363">
        <ele>1044.1999511719</ele>
        <time>2019-06-17T09:04:16.000Z</time>
      </trkpt>
      <trkpt lat="46.61592" lon="5.90365">
        <ele>1044.1999511719</ele>
        <time>2019-06-17T09:04:19.000Z</time>
      </trkpt>
      <trkpt lat="46.61593" lon="5.90368">
        <ele>1044.1999511719</ele>
        <time>2019-06-17T09:04:22.000Z</time>
      </trkpt>
      <trkpt lat="46.61594" lon="5.9037">
        <ele>1044.1999511719</ele>
        <time>2019-06-17T09:04:24.000Z</time>
      </trkpt>
      <trkpt lat="46.61596" lon="5.90373">
        <ele>1044.1999511719</ele>
        <time>2019-06-17T09:04:26.000Z</time>
      </trkpt>
      <trkpt lat="46.61597" lon="5.90376">
        <ele>1044.1999511719</ele>
        <time>2019-06-17T09:04:28.000Z</time>
      </trkpt>
      <trkpt lat="46.61598" lon="5.90379">
        <ele>1037.4000244141</ele>
        <time>2019-06-17T09:04:30.000Z</time>
      </trkpt>
      <trkpt lat="46.616" lon="5.90381">
        <ele>1037.8000488281</ele>
        <time>2019-06-17T09:04:32.000Z</time>
      </trkpt>
      <trkpt lat="46.61602" lon="5.90384">
        <ele>1037.8000488281</ele>
        <time>2019-06-17T09:04:34.000Z</time>
      </trkpt>
      <trkpt lat="46.61604" lon="5.90386">
        <ele>1037.5999755859</ele>
        <time>2019-06-17T09:04:35.000Z</time>
      </trkpt>
      <trkpt lat="46.61609" lon="5.90392">
        <ele>1037</ele>
        <time>2019-06-17T09:04:41.000Z</time>
      </trkpt>
      <trkpt lat="46.61618" lon="5.90396">
        <ele>1035.1999511719</ele>
        <time>2019-06-17T09:04:49.000Z</time>
      </trkpt>
      <trkpt lat="46.61625" lon="5.90405">
        <ele>1033.8000488281</ele>
        <time>2019-06-17T09:04:57.000Z</time>
      </trkpt>
      <trkpt lat="46.61628" lon="5.90411">
        <ele>1032.8000488281</ele>
        <time>2019-06-17T09:05:03.000Z</time>
      </trkpt>
      <trkpt lat="46.61635" lon="5.90418">
        <ele>1031.1999511719</ele>
        <time>2019-06-17T09:05:13.000Z</time>
      </trkpt>
      <trkpt lat="46.61638" lon="5.90422">
        <ele>1031</ele>
        <time>2019-06-17T09:05:18.000Z</time>
      </trkpt>
      <trkpt lat="46.61647" lon="5.9043">
        <ele>1030.4000244141</ele>
        <time>2019-06-17T09:05:26.000Z</time>
      </trkpt>
      <trkpt lat="46.61656" lon="5.90437">
        <ele>1029.1999511719</ele>
        <time>2019-06-17T09:05:33.000Z</time>
      </trkpt>
      <trkpt lat="46.61665" lon="5.90443">
        <ele>1030</ele>
        <time>2019-06-17T09:05:42.000Z</time>
      </trkpt>
      <trkpt lat="46.61674" lon="5.90452">
        <ele>1030.5995747174</ele>
        <time>2019-06-17T09:05:50.000Z</time>
      </trkpt>
      <trkpt lat="46.6168" lon="5.90462">
        <ele>1030.4000244141</ele>
        <time>2019-06-17T09:05:56.000Z</time>
      </trkpt>
      <trkpt lat="46.61686" lon="5.90471">
        <ele>1030.4000244141</ele>
        <time>2019-06-17T09:06:03.000Z</time>
      </trkpt>
      <trkpt lat="46.61694" lon="5.9048">
        <ele>1031.1999511719</ele>
        <time>2019-06-17T09:06:12.000Z</time>
      </trkpt>
      <trkpt lat="46.61697" lon="5.90483">
        <ele>1031.4000244141</ele>
        <time>2019-06-17T09:06:15.000Z</time>
      </trkpt>
      <trkpt lat="46.61699" lon="5.90485">
        <ele>1031.5999755859</ele>
        <time>2019-06-17T09:06:17.000Z</time>
      </trkpt>
      <trkpt lat="46.61701" lon="5.90486">
        <ele>1032.1999511719</ele>
        <time>2019-06-17T09:06:20.000Z</time>
      </trkpt>
      <trkpt lat="46.61704" lon="5.90487">
        <ele>1032.5999755859</ele>
        <time>2019-06-17T09:06:23.000Z</time>
      </trkpt>
      <trkpt lat="46.61705" lon="5.90489">
        <ele>1033</ele>
        <time>2019-06-17T09:06:25.000Z</time>
      </trkpt>
      <trkpt lat="46.61709" lon="5.90492">
        <ele>1033.4000244141</ele>
        <time>2019-06-17T09:06:28.000Z</time>
      </trkpt>
      <trkpt lat="46.61712" lon="5.90495">
        <ele>1033.8000488281</ele>
        <time>2019-06-17T09:06:32.000Z</time>
      </trkpt>
      <trkpt lat="46.61715" lon="5.90499">
        <ele>1033.8000488281</ele>
        <time>2019-06-17T09:06:35.000Z</time>
      </trkpt>
      <trkpt lat="46.61717" lon="5.90499">
        <ele>1033.8000488281</ele>
        <time>2019-06-17T09:06:36.000Z</time>
      </trkpt>
      <trkpt lat="46.61719" lon="5.90499">
        <ele>1034.1999511719</ele>
        <time>2019-06-17T09:06:38.000Z</time>
      </trkpt>
      <trkpt lat="46.61728" lon="5.90504">
        <ele>1035.1999511719</ele>
        <time>2019-06-17T09:06:48.000Z</time>
      </trkpt>
      <trkpt lat="46.61737" lon="5.90508">
        <ele>1033.4000244141</ele>
        <time>2019-06-17T09:06:57.000Z</time>
      </trkpt>
      <trkpt lat="46.61743" lon="5.90517">
        <ele>1032.1999511719</ele>
        <time>2019-06-17T09:07:04.000Z</time>
      </trkpt>
      <trkpt lat="46.6175" lon="5.90526">
        <ele>1031.1999511719</ele>
        <time>2019-06-17T09:07:11.000Z</time>
      </trkpt>
      <trkpt lat="46.6176" lon="5.90533">
        <ele>1028.8000488281</ele>
        <time>2019-06-17T09:07:19.000Z</time>
      </trkpt>
      <trkpt lat="46.61766" lon="5.90542">
        <ele>1027.8000488281</ele>
        <time>2019-06-17T09:07:25.000Z</time>
      </trkpt>
      <trkpt lat="46.61774" lon="5.9055">
        <ele>1026.8020402925</ele>
        <time>2019-06-17T09:07:31.000Z</time>
      </trkpt>
      <trkpt lat="46.61776" lon="5.90565">
        <ele>1025.4000244141</ele>
        <time>2019-06-17T09:07:40.000Z</time>
      </trkpt>
      <trkpt lat="46.61782" lon="5.90574">
        <ele>1024.1999511719</ele>
        <time>2019-06-17T09:07:50.000Z</time>
      </trkpt>
      <trkpt lat="46.61783" lon="5.90575">
        <ele>1023.799987793</ele>
        <time>2019-06-17T09:07:52.000Z</time>
      </trkpt>
      <trkpt lat="46.61792" lon="5.90582">
        <ele>1021.5999755859</ele>
        <time>2019-06-17T09:07:59.000Z</time>
      </trkpt>
      <trkpt lat="46.618" lon="5.90589">
        <ele>1020.4000244141</ele>
        <time>2019-06-17T09:08:05.000Z</time>
      </trkpt>
      <trkpt lat="46.61808" lon="5.90598">
        <ele>1018.5999755859</ele>
        <time>2019-06-17T09:08:13.000Z</time>
      </trkpt>
      <trkpt lat="46.61811" lon="5.90604">
        <ele>1018</ele>
        <time>2019-06-17T09:08:18.000Z</time>
      </trkpt>
      <trkpt lat="46.61818" lon="5.90613">
        <ele>1016</ele>
        <time>2019-06-17T09:08:28.000Z</time>
      </trkpt>
      <trkpt lat="46.61825" lon="5.90624">
        <ele>1014</ele>
        <time>2019-06-17T09:08:38.000Z</time>
      </trkpt>
      <trkpt lat="46.61829" lon="5.90636">
        <ele>1012.799987793</ele>
        <time>2019-06-17T09:08:45.000Z</time>
      </trkpt>
      <trkpt lat="46.61833" lon="5.90648">
        <ele>1011</ele>
        <time>2019-06-17T09:08:52.000Z</time>
      </trkpt>
      <trkpt lat="46.61836" lon="5.90661">
        <ele>1010.4000244141</ele>
        <time>2019-06-17T09:08:58.000Z</time>
      </trkpt>
      <trkpt lat="46.61839" lon="5.90666">
        <ele>1010</ele>
        <time>2019-06-17T09:09:01.000Z</time>
      </trkpt>
      <trkpt lat="46.61841" lon="5.90672">
        <ele>1009.799987793</ele>
        <time>2019-06-17T09:09:04.000Z</time>
      </trkpt>
      <trkpt lat="46.61843" lon="5.90675">
        <ele>1009.4000244141</ele>
        <time>2019-06-17T09:09:06.000Z</time>
      </trkpt>
      <trkpt lat="46.61844" lon="5.90678">
        <ele>1009.4000244141</ele>
        <time>2019-06-17T09:09:08.000Z</time>
      </trkpt>
      <trkpt lat="46.61846" lon="5.90679">
        <ele>1009.5999755859</ele>
        <time>2019-06-17T09:09:10.000Z</time>
      </trkpt>
      <trkpt lat="46.61849" lon="5.90681">
        <ele>1009.799987793</ele>
        <time>2019-06-17T09:09:12.000Z</time>
      </trkpt>
      <trkpt lat="46.6185" lon="5.90683">
        <ele>1010</ele>
        <time>2019-06-17T09:09:14.000Z</time>
      </trkpt>
      <trkpt lat="46.61856" lon="5.90694">
        <ele>1009</ele>
        <time>2019-06-17T09:09:26.000Z</time>
      </trkpt>
      <trkpt lat="46.61861" lon="5.90708">
        <ele>1007.799987793</ele>
        <time>2019-06-17T09:09:34.000Z</time>
      </trkpt>
      <trkpt lat="46.61865" lon="5.90721">
        <ele>1006.5999755859</ele>
        <time>2019-06-17T09:09:41.000Z</time>
      </trkpt>
      <trkpt lat="46.61869" lon="5.90733">
        <ele>1007.5999755859</ele>
        <time>2019-06-17T09:09:47.000Z</time>
      </trkpt>
      <trkpt lat="46.61874" lon="5.90744">
        <ele>1008.4000244141</ele>
        <time>2019-06-17T09:09:54.000Z</time>
      </trkpt>
      <trkpt lat="46.61879" lon="5.90756">
        <ele>1009.5999755859</ele>
        <time>2019-06-17T09:10:02.000Z</time>
      </trkpt>
      <trkpt lat="46.6188" lon="5.90761">
        <ele>1010.200012207</ele>
        <time>2019-06-17T09:10:06.000Z</time>
      </trkpt>
      <trkpt lat="46.61881" lon="5.90775">
        <ele>1011.5999755859</ele>
        <time>2019-06-17T09:10:15.000Z</time>
      </trkpt>
      <trkpt lat="46.61882" lon="5.90789">
        <ele>1012</ele>
        <time>2019-06-17T09:10:23.000Z</time>
      </trkpt>
      <trkpt lat="46.61881" lon="5.90793">
        <ele>1012</ele>
        <time>2019-06-17T09:10:25.000Z</time>
      </trkpt>
      <trkpt lat="46.6188" lon="5.90807">
        <ele>1012</ele>
        <time>2019-06-17T09:10:33.000Z</time>
      </trkpt>
      <trkpt lat="46.61881" lon="5.90821">
        <ele>1010.5999755859</ele>
        <time>2019-06-17T09:10:41.000Z</time>
      </trkpt>
      <trkpt lat="46.61886" lon="5.90833">
        <ele>1010.4000244141</ele>
        <time>2019-06-17T09:10:50.000Z</time>
      </trkpt>
      <trkpt lat="46.6189" lon="5.90845">
        <ele>1010.200012207</ele>
        <time>2019-06-17T09:10:58.000Z</time>
      </trkpt>
      <trkpt lat="46.61897" lon="5.90855">
        <ele>1009.4000244141</ele>
        <time>2019-06-17T09:11:07.000Z</time>
      </trkpt>
      <trkpt lat="46.61905" lon="5.90865">
        <ele>1008</ele>
        <time>2019-06-17T09:11:17.000Z</time>
      </trkpt>
      <trkpt lat="46.61912" lon="5.90873">
        <ele>1007.200012207</ele>
        <time>2019-06-17T09:11:23.000Z</time>
      </trkpt>
      <trkpt lat="46.61919" lon="5.90882">
        <ele>1006</ele>
        <time>2019-06-17T09:11:30.000Z</time>
      </trkpt>
      <trkpt lat="46.61925" lon="5.90892">
        <ele>1005.200012207</ele>
        <time>2019-06-17T09:11:38.000Z</time>
      </trkpt>
      <trkpt lat="46.61933" lon="5.909">
        <ele>1004.200012207</ele>
        <time>2019-06-17T09:11:48.000Z</time>
      </trkpt>
      <trkpt lat="46.61941" lon="5.90906">
        <ele>1001</ele>
        <time>2019-06-17T09:11:58.000Z</time>
      </trkpt>
      <trkpt lat="46.61947" lon="5.90917">
        <ele>997.79998779297</ele>
        <time>2019-06-17T09:12:07.000Z</time>
      </trkpt>
      <trkpt lat="46.61954" lon="5.90928">
        <ele>995.59997558594</ele>
        <time>2019-06-17T09:12:18.000Z</time>
      </trkpt>
      <trkpt lat="46.61955" lon="5.90941">
        <ele>993</ele>
        <time>2019-06-17T09:12:26.000Z</time>
      </trkpt>
      <trkpt lat="46.61957" lon="5.90954">
        <ele>991.40002441406</ele>
        <time>2019-06-17T09:12:34.000Z</time>
      </trkpt>
      <trkpt lat="46.61962" lon="5.90967">
        <ele>989.20001220703</ele>
        <time>2019-06-17T09:12:44.000Z</time>
      </trkpt>
      <trkpt lat="46.61971" lon="5.90964">
        <ele>986.40002441406</ele>
        <time>2019-06-17T09:12:55.000Z</time>
      </trkpt>
      <trkpt lat="46.61975" lon="5.90952">
        <ele>986</ele>
        <time>2019-06-17T09:13:04.000Z</time>
      </trkpt>
      <trkpt lat="46.61977" lon="5.9095">
        <ele>985.79998779297</ele>
        <time>2019-06-17T09:13:07.000Z</time>
      </trkpt>
      <trkpt lat="46.61976" lon="5.90947">
        <ele>988.20001220703</ele>
        <time>2019-06-17T09:13:41.000Z</time>
      </trkpt>
      <trkpt lat="46.61978" lon="5.9095">
        <ele>988</ele>
        <time>2019-06-17T09:14:24.000Z</time>
      </trkpt>
      <trkpt lat="46.61986" lon="5.90956">
        <ele>987.59997558594</ele>
        <time>2019-06-17T09:14:30.000Z</time>
      </trkpt>
      <trkpt lat="46.61993" lon="5.90965">
        <ele>986.20001220703</ele>
        <time>2019-06-17T09:14:42.000Z</time>
      </trkpt>
      <trkpt lat="46.62003" lon="5.9097">
        <ele>985</ele>
        <time>2019-06-17T09:14:49.000Z</time>
      </trkpt>
      <trkpt lat="46.62013" lon="5.90967">
        <ele>983.40002441406</ele>
        <time>2019-06-17T09:14:58.000Z</time>
      </trkpt>
      <trkpt lat="46.62023" lon="5.90964">
        <ele>983.20001220703</ele>
        <time>2019-06-17T09:15:04.000Z</time>
      </trkpt>
      <trkpt lat="46.62032" lon="5.90961">
        <ele>984.9991988213</ele>
        <time>2019-06-17T09:15:11.000Z</time>
      </trkpt>
      <trkpt lat="46.62042" lon="5.90958">
        <ele>985.79998779297</ele>
        <time>2019-06-17T09:15:17.000Z</time>
      </trkpt>
      <trkpt lat="46.62052" lon="5.90954">
        <ele>985.59997558594</ele>
        <time>2019-06-17T09:15:24.000Z</time>
      </trkpt>
      <trkpt lat="46.62062" lon="5.90947">
        <ele>985</ele>
        <time>2019-06-17T09:15:30.000Z</time>
      </trkpt>
      <trkpt lat="46.6207" lon="5.90939">
        <ele>983.79998779297</ele>
        <time>2019-06-17T09:15:38.000Z</time>
      </trkpt>
      <trkpt lat="46.6208" lon="5.90934">
        <ele>983.20001220703</ele>
        <time>2019-06-17T09:15:44.000Z</time>
      </trkpt>
      <trkpt lat="46.62089" lon="5.90926">
        <ele>983</ele>
        <time>2019-06-17T09:15:49.000Z</time>
      </trkpt>
      <trkpt lat="46.62096" lon="5.9092">
        <ele>982.40002441406</ele>
        <time>2019-06-17T09:15:53.000Z</time>
      </trkpt>
      <trkpt lat="46.62103" lon="5.9091">
        <ele>981</ele>
        <time>2019-06-17T09:16:04.000Z</time>
      </trkpt>
      <trkpt lat="46.62111" lon="5.90901">
        <ele>979.40002441406</ele>
        <time>2019-06-17T09:16:12.000Z</time>
      </trkpt>
      <trkpt lat="46.6212" lon="5.90896">
        <ele>978.59997558594</ele>
        <time>2019-06-17T09:16:18.000Z</time>
      </trkpt>
      <trkpt lat="46.62131" lon="5.9089">
        <ele>977.79998779297</ele>
        <time>2019-06-17T09:16:26.000Z</time>
      </trkpt>
      <trkpt lat="46.62138" lon="5.90882">
        <ele>976.79998779297</ele>
        <time>2019-06-17T09:16:32.000Z</time>
      </trkpt>
      <trkpt lat="46.62147" lon="5.90875">
        <ele>975.40002441406</ele>
        <time>2019-06-17T09:16:41.000Z</time>
      </trkpt>
      <trkpt lat="46.62155" lon="5.90866">
        <ele>974.20001220703</ele>
        <time>2019-06-17T09:16:50.000Z</time>
      </trkpt>
      <trkpt lat="46.62164" lon="5.90869">
        <ele>971.59997558594</ele>
        <time>2019-06-17T09:17:02.000Z</time>
      </trkpt>
      <trkpt lat="46.62173" lon="5.90872">
        <ele>971</ele>
        <time>2019-06-17T09:17:08.000Z</time>
      </trkpt>
      <trkpt lat="46.62182" lon="5.90876">
        <ele>969.59997558594</ele>
        <time>2019-06-17T09:17:15.000Z</time>
      </trkpt>
      <trkpt lat="46.62191" lon="5.90872">
        <ele>969.40002441406</ele>
        <time>2019-06-17T09:17:23.000Z</time>
      </trkpt>
      <trkpt lat="46.62199" lon="5.90871">
        <ele>970.59997558594</ele>
        <time>2019-06-17T09:17:32.000Z</time>
      </trkpt>
      <trkpt lat="46.62201" lon="5.90871">
        <ele>970.79998779297</ele>
        <time>2019-06-17T09:17:34.000Z</time>
      </trkpt>
      <trkpt lat="46.62204" lon="5.90871">
        <ele>970.79998779297</ele>
        <time>2019-06-17T09:17:36.000Z</time>
      </trkpt>
      <trkpt lat="46.62206" lon="5.9087">
        <ele>971.20001220703</ele>
        <time>2019-06-17T09:17:38.000Z</time>
      </trkpt>
      <trkpt lat="46.62209" lon="5.90871">
        <ele>971.40002441406</ele>
        <time>2019-06-17T09:17:40.000Z</time>
      </trkpt>
      <trkpt lat="46.62211" lon="5.90871">
        <ele>971.40002441406</ele>
        <time>2019-06-17T09:17:42.000Z</time>
      </trkpt>
      <trkpt lat="46.62213" lon="5.90873">
        <ele>971.39982391861</ele>
        <time>2019-06-17T09:17:44.000Z</time>
      </trkpt>
      <trkpt lat="46.62215" lon="5.90875">
        <ele>971.59997558594</ele>
        <time>2019-06-17T09:17:46.000Z</time>
      </trkpt>
      <trkpt lat="46.62221" lon="5.90885">
        <ele>972.40002441406</ele>
        <time>2019-06-17T09:17:52.000Z</time>
      </trkpt>
      <trkpt lat="46.62221" lon="5.90901">
        <ele>972.79998779297</ele>
        <time>2019-06-17T09:17:58.000Z</time>
      </trkpt>
      <trkpt lat="46.62223" lon="5.90915">
        <ele>972.79998779297</ele>
        <time>2019-06-17T09:18:04.000Z</time>
      </trkpt>
      <trkpt lat="46.62229" lon="5.90925">
        <ele>972.20001220703</ele>
        <time>2019-06-17T09:18:10.000Z</time>
      </trkpt>
      <trkpt lat="46.62231" lon="5.90938">
        <ele>971.79998779297</ele>
        <time>2019-06-17T09:18:18.000Z</time>
      </trkpt>
      <trkpt lat="46.62237" lon="5.90949">
        <ele>972.20001220703</ele>
        <time>2019-06-17T09:18:29.000Z</time>
      </trkpt>
      <trkpt lat="46.62247" lon="5.9095">
        <ele>974.20001220703</ele>
        <time>2019-06-17T09:18:44.000Z</time>
      </trkpt>
      <trkpt lat="46.62253" lon="5.90947">
        <ele>975.20001220703</ele>
        <time>2019-06-17T09:18:49.000Z</time>
      </trkpt>
      <trkpt lat="46.62255" lon="5.90947">
        <ele>975.79998779297</ele>
        <time>2019-06-17T09:18:51.000Z</time>
      </trkpt>
      <trkpt lat="46.62256" lon="5.90947">
        <ele>976.20001220703</ele>
        <time>2019-06-17T09:18:53.000Z</time>
      </trkpt>
      <trkpt lat="46.62258" lon="5.90946">
        <ele>976.59997558594</ele>
        <time>2019-06-17T09:18:55.000Z</time>
      </trkpt>
      <trkpt lat="46.62261" lon="5.90947">
        <ele>976.79998779297</ele>
        <time>2019-06-17T09:18:58.000Z</time>
      </trkpt>
      <trkpt lat="46.62263" lon="5.90948">
        <ele>977.40002441406</ele>
        <time>2019-06-17T09:19:00.000Z</time>
      </trkpt>
      <trkpt lat="46.62266" lon="5.9095">
        <ele>978</ele>
        <time>2019-06-17T09:19:03.000Z</time>
      </trkpt>
      <trkpt lat="46.62268" lon="5.90951">
        <ele>978.40002441406</ele>
        <time>2019-06-17T09:19:05.000Z</time>
      </trkpt>
      <trkpt lat="46.62276" lon="5.9096">
        <ele>979.59997558594</ele>
        <time>2019-06-17T09:19:14.000Z</time>
      </trkpt>
      <trkpt lat="46.62286" lon="5.90963">
        <ele>980.20001220703</ele>
        <time>2019-06-17T09:19:23.000Z</time>
      </trkpt>
      <trkpt lat="46.62289" lon="5.90964">
        <ele>979.80038878387</ele>
        <time>2019-06-17T09:19:26.000Z</time>
      </trkpt>
      <trkpt lat="46.62291" lon="5.90967">
        <ele>979.40002441406</ele>
        <time>2019-06-17T09:19:31.000Z</time>
      </trkpt>
      <trkpt lat="46.62294" lon="5.90969">
        <ele>979.20001220703</ele>
        <time>2019-06-17T09:19:33.000Z</time>
      </trkpt>
      <trkpt lat="46.62299" lon="5.90973">
        <ele>979.20001220703</ele>
        <time>2019-06-17T09:19:38.000Z</time>
      </trkpt>
      <trkpt lat="46.62302" lon="5.90975">
        <ele>978.20001220703</ele>
        <time>2019-06-17T09:19:41.000Z</time>
      </trkpt>
      <trkpt lat="46.62309" lon="5.90981">
        <ele>977.59997558594</ele>
        <time>2019-06-17T09:19:49.000Z</time>
      </trkpt>
      <trkpt lat="46.62319" lon="5.90981">
        <ele>977.59997558594</ele>
        <time>2019-06-17T09:19:58.000Z</time>
      </trkpt>
      <trkpt lat="46.62329" lon="5.90984">
        <ele>979.40002441406</ele>
        <time>2019-06-17T09:20:09.000Z</time>
      </trkpt>
      <trkpt lat="46.62333" lon="5.90984">
        <ele>979.40002441406</ele>
        <time>2019-06-17T09:20:13.000Z</time>
      </trkpt>
      <trkpt lat="46.62335" lon="5.90985">
        <ele>979.79998779297</ele>
        <time>2019-06-17T09:20:15.000Z</time>
      </trkpt>
      <trkpt lat="46.62338" lon="5.90985">
        <ele>980.59917372649</ele>
        <time>2019-06-17T09:20:17.000Z</time>
      </trkpt>
      <trkpt lat="46.6234" lon="5.90986">
        <ele>981</ele>
        <time>2019-06-17T09:20:19.000Z</time>
      </trkpt>
      <trkpt lat="46.62343" lon="5.90986">
        <ele>981.40002441406</ele>
        <time>2019-06-17T09:20:21.000Z</time>
      </trkpt>
      <trkpt lat="46.62345" lon="5.90986">
        <ele>981.40002441406</ele>
        <time>2019-06-17T09:20:23.000Z</time>
      </trkpt>
      <trkpt lat="46.62347" lon="5.90986">
        <ele>981.79998779297</ele>
        <time>2019-06-17T09:20:25.000Z</time>
      </trkpt>
      <trkpt lat="46.62349" lon="5.90986">
        <ele>982.20001220703</ele>
        <time>2019-06-17T09:20:27.000Z</time>
      </trkpt>
      <trkpt lat="46.62351" lon="5.90986">
        <ele>982.20001220703</ele>
        <time>2019-06-17T09:20:29.000Z</time>
      </trkpt>
      <trkpt lat="46.62352" lon="5.90987">
        <ele>982.59997558594</ele>
        <time>2019-06-17T09:20:31.000Z</time>
      </trkpt>
      <trkpt lat="46.62354" lon="5.90987">
        <ele>983.20001220703</ele>
        <time>2019-06-17T09:20:33.000Z</time>
      </trkpt>
      <trkpt lat="46.62356" lon="5.90987">
        <ele>983</ele>
        <time>2019-06-17T09:20:35.000Z</time>
      </trkpt>
      <trkpt lat="46.62358" lon="5.90987">
        <ele>983</ele>
        <time>2019-06-17T09:20:38.000Z</time>
      </trkpt>
      <trkpt lat="46.6236" lon="5.90988">
        <ele>983.20001220703</ele>
        <time>2019-06-17T09:20:40.000Z</time>
      </trkpt>
      <trkpt lat="46.62362" lon="5.90989">
        <ele>983</ele>
        <time>2019-06-17T09:20:43.000Z</time>
      </trkpt>
      <trkpt lat="46.62363" lon="5.9099">
        <ele>981.79998779297</ele>
        <time>2019-06-17T09:20:52.000Z</time>
      </trkpt>
      <trkpt lat="46.62361" lon="5.9099">
        <ele>981.59997558594</ele>
        <time>2019-06-17T09:21:01.000Z</time>
      </trkpt>
      <trkpt lat="46.6236" lon="5.90991">
        <ele>981.59997558594</ele>
        <time>2019-06-17T09:21:06.000Z</time>
      </trkpt>
      <trkpt lat="46.62361" lon="5.90989">
        <ele>981.20001220703</ele>
        <time>2019-06-17T09:21:21.000Z</time>
      </trkpt>
      <trkpt lat="46.6236" lon="5.90986">
        <ele>981.20001220703</ele>
        <time>2019-06-17T09:21:24.000Z</time>
      </trkpt>
      <trkpt lat="46.62356" lon="5.90982">
        <ele>981</ele>
        <time>2019-06-17T09:21:27.000Z</time>
      </trkpt>
      <trkpt lat="46.62355" lon="5.9098">
        <ele>981.20001220703</ele>
        <time>2019-06-17T09:21:29.000Z</time>
      </trkpt>
      <trkpt lat="46.6235" lon="5.9098">
        <ele>981.20001220703</ele>
        <time>2019-06-17T09:21:33.000Z</time>
      </trkpt>
      <trkpt lat="46.62351" lon="5.90977">
        <ele>980.79998779297</ele>
        <time>2019-06-17T09:21:37.000Z</time>
      </trkpt>
      <trkpt lat="46.62353" lon="5.90976">
        <ele>981</ele>
        <time>2019-06-17T09:21:39.000Z</time>
      </trkpt>
      <trkpt lat="46.62352" lon="5.90973">
        <ele>981.79998779297</ele>
        <time>2019-06-17T09:22:10.000Z</time>
      </trkpt>
      <trkpt lat="46.62353" lon="5.90976">
        <ele>981</ele>
        <time>2019-06-17T09:22:27.000Z</time>
      </trkpt>
      <trkpt lat="46.62354" lon="5.90977">
        <ele>981</ele>
        <time>2019-06-17T09:22:38.000Z</time>
      </trkpt>
      <trkpt lat="46.62357" lon="5.90978">
        <ele>981</ele>
        <time>2019-06-17T09:22:42.000Z</time>
      </trkpt>
      <trkpt lat="46.62358" lon="5.90979">
        <ele>981</ele>
        <time>2019-06-17T09:22:45.000Z</time>
      </trkpt>
      <trkpt lat="46.6236" lon="5.9098">
        <ele>981</ele>
        <time>2019-06-17T09:22:48.000Z</time>
      </trkpt>
      <trkpt lat="46.62356" lon="5.90979">
        <ele>981</ele>
        <time>2019-06-17T09:23:03.000Z</time>
      </trkpt>
      <trkpt lat="46.62353" lon="5.9098">
        <ele>981</ele>
        <time>2019-06-17T09:23:17.000Z</time>
      </trkpt>
      <trkpt lat="46.62351" lon="5.90981">
        <ele>981</ele>
        <time>2019-06-17T09:23:23.000Z</time>
      </trkpt>
      <trkpt lat="46.62355" lon="5.90983">
        <ele>981</ele>
        <time>2019-06-17T09:23:29.000Z</time>
      </trkpt>
      <trkpt lat="46.62357" lon="5.90982">
        <ele>981</ele>
        <time>2019-06-17T09:23:34.000Z</time>
      </trkpt>
      <trkpt lat="46.6236" lon="5.90984">
        <ele>981</ele>
        <time>2019-06-17T09:23:46.000Z</time>
      </trkpt>
      <trkpt lat="46.62362" lon="5.90984">
        <ele>981</ele>
        <time>2019-06-17T09:23:51.000Z</time>
      </trkpt>
      <trkpt lat="46.62359" lon="5.90985">
        <ele>981</ele>
        <time>2019-06-17T09:23:57.000Z</time>
      </trkpt>
      <trkpt lat="46.62361" lon="5.90984">
        <ele>981</ele>
        <time>2019-06-17T09:24:06.000Z</time>
      </trkpt>
      <trkpt lat="46.62359" lon="5.90984">
        <ele>981</ele>
        <time>2019-06-17T09:24:14.000Z</time>
      </trkpt>
      <trkpt lat="46.62356" lon="5.90985">
        <ele>981</ele>
        <time>2019-06-17T09:24:27.000Z</time>
      </trkpt>
      <trkpt lat="46.62353" lon="5.90985">
        <ele>981</ele>
        <time>2019-06-17T09:24:29.000Z</time>
      </trkpt>
      <trkpt lat="46.62352" lon="5.90983">
        <ele>981</ele>
        <time>2019-06-17T09:24:32.000Z</time>
      </trkpt>
      <trkpt lat="46.62352" lon="5.90979">
        <ele>981</ele>
        <time>2019-06-17T09:24:35.000Z</time>
      </trkpt>
      <trkpt lat="46.62355" lon="5.90977">
        <ele>981</ele>
        <time>2019-06-17T09:24:48.000Z</time>
      </trkpt>
      <trkpt lat="46.62356" lon="5.90975">
        <ele>981</ele>
        <time>2019-06-17T09:25:12.000Z</time>
      </trkpt>
      <trkpt lat="46.62354" lon="5.90975">
        <ele>981</ele>
        <time>2019-06-17T09:25:16.000Z</time>
      </trkpt>
      <trkpt lat="46.62352" lon="5.90975">
        <ele>981</ele>
        <time>2019-06-17T09:25:26.000Z</time>
      </trkpt>
      <trkpt lat="46.6235" lon="5.90974">
        <ele>981</ele>
        <time>2019-06-17T09:25:32.000Z</time>
      </trkpt>
      <trkpt lat="46.62352" lon="5.90974">
        <ele>981</ele>
        <time>2019-06-17T09:25:55.000Z</time>
      </trkpt>
      <trkpt lat="46.62351" lon="5.90971">
        <ele>981</ele>
        <time>2019-06-17T09:26:25.000Z</time>
      </trkpt>
      <trkpt lat="46.62352" lon="5.90973">
        <ele>981</ele>
        <time>2019-06-17T09:30:28.000Z</time>
      </trkpt>
      <trkpt lat="46.62353" lon="5.90976">
        <ele>981</ele>
        <time>2019-06-17T09:31:10.000Z</time>
      </trkpt>
      <trkpt lat="46.62355" lon="5.90977">
        <ele>981</ele>
        <time>2019-06-17T09:31:35.000Z</time>
      </trkpt>
      <trkpt lat="46.62357" lon="5.90979">
        <ele>981</ele>
        <time>2019-06-17T09:31:59.000Z</time>
      </trkpt>
      <trkpt lat="46.62358" lon="5.90981">
        <ele>981</ele>
        <time>2019-06-17T09:32:11.000Z</time>
      </trkpt>
      <trkpt lat="46.62358" lon="5.90984">
        <ele>981</ele>
        <time>2019-06-17T09:32:36.000Z</time>
      </trkpt>
      <trkpt lat="46.62356" lon="5.90981">
        <ele>981</ele>
        <time>2019-06-17T09:33:03.000Z</time>
      </trkpt>
      <trkpt lat="46.62364" lon="5.90988">
        <ele>981</ele>
        <time>2019-06-17T09:33:21.000Z</time>
      </trkpt>
      <trkpt lat="46.62372" lon="5.90994">
        <ele>981</ele>
        <time>2019-06-17T09:33:29.000Z</time>
      </trkpt>
      <trkpt lat="46.62378" lon="5.91005">
        <ele>981</ele>
        <time>2019-06-17T09:33:38.000Z</time>
      </trkpt>
      <trkpt lat="46.62385" lon="5.91015">
        <ele>981</ele>
        <time>2019-06-17T09:33:47.000Z</time>
      </trkpt>
      <trkpt lat="46.62386" lon="5.91029">
        <ele>981</ele>
        <time>2019-06-17T09:33:56.000Z</time>
      </trkpt>
      <trkpt lat="46.62394" lon="5.91036">
        <ele>981</ele>
        <time>2019-06-17T09:34:02.000Z</time>
      </trkpt>
      <trkpt lat="46.62401" lon="5.91046">
        <ele>977.79998779297</ele>
        <time>2019-06-17T09:34:10.000Z</time>
      </trkpt>
      <trkpt lat="46.62409" lon="5.9105">
        <ele>978.20001220703</ele>
        <time>2019-06-17T09:34:19.000Z</time>
      </trkpt>
      <trkpt lat="46.62417" lon="5.91057">
        <ele>978.59997558594</ele>
        <time>2019-06-17T09:34:28.000Z</time>
      </trkpt>
      <trkpt lat="46.62424" lon="5.91067">
        <ele>980.20001220703</ele>
        <time>2019-06-17T09:34:39.000Z</time>
      </trkpt>
      <trkpt lat="46.62433" lon="5.91069">
        <ele>980.59997558594</ele>
        <time>2019-06-17T09:34:47.000Z</time>
      </trkpt>
      <trkpt lat="46.62441" lon="5.91079">
        <ele>981.20001220703</ele>
        <time>2019-06-17T09:34:53.000Z</time>
      </trkpt>
      <trkpt lat="46.62451" lon="5.9108">
        <ele>980.79998779297</ele>
        <time>2019-06-17T09:35:02.000Z</time>
      </trkpt>
      <trkpt lat="46.6246" lon="5.9108">
        <ele>981.20001220703</ele>
        <time>2019-06-17T09:35:14.000Z</time>
      </trkpt>
      <trkpt lat="46.62467" lon="5.9109">
        <ele>978.59997558594</ele>
        <time>2019-06-17T09:35:26.000Z</time>
      </trkpt>
      <trkpt lat="46.62471" lon="5.91102">
        <ele>977.40002441406</ele>
        <time>2019-06-17T09:35:46.000Z</time>
      </trkpt>
      <trkpt lat="46.62475" lon="5.91114">
        <ele>975.59997558594</ele>
        <time>2019-06-17T09:35:59.000Z</time>
      </trkpt>
      <trkpt lat="46.62483" lon="5.91123">
        <ele>975</ele>
        <time>2019-06-17T09:36:10.000Z</time>
      </trkpt>
      <trkpt lat="46.6249" lon="5.91132">
        <ele>973.59997558594</ele>
        <time>2019-06-17T09:36:24.000Z</time>
      </trkpt>
      <trkpt lat="46.62496" lon="5.91142">
        <ele>973.79998779297</ele>
        <time>2019-06-17T09:36:38.000Z</time>
      </trkpt>
      <trkpt lat="46.62503" lon="5.91151">
        <ele>972.20001220703</ele>
        <time>2019-06-17T09:36:46.000Z</time>
      </trkpt>
      <trkpt lat="46.6251" lon="5.9116">
        <ele>971</ele>
        <time>2019-06-17T09:36:54.000Z</time>
      </trkpt>
      <trkpt lat="46.62516" lon="5.91173">
        <ele>971.20001220703</ele>
        <time>2019-06-17T09:37:04.000Z</time>
      </trkpt>
      <trkpt lat="46.62525" lon="5.9118">
        <ele>971.20001220703</ele>
        <time>2019-06-17T09:37:11.000Z</time>
      </trkpt>
      <trkpt lat="46.6253" lon="5.91192">
        <ele>971.40002441406</ele>
        <time>2019-06-17T09:37:20.000Z</time>
      </trkpt>
      <trkpt lat="46.62533" lon="5.91204">
        <ele>971.59997558594</ele>
        <time>2019-06-17T09:37:29.000Z</time>
      </trkpt>
      <trkpt lat="46.62533" lon="5.91218">
        <ele>970.79998779297</ele>
        <time>2019-06-17T09:37:39.000Z</time>
      </trkpt>
      <trkpt lat="46.62541" lon="5.91223">
        <ele>969.20001220703</ele>
        <time>2019-06-17T09:37:49.000Z</time>
      </trkpt>
      <trkpt lat="46.62544" lon="5.91235">
        <ele>966</ele>
        <time>2019-06-17T09:37:59.000Z</time>
      </trkpt>
      <trkpt lat="46.62554" lon="5.91241">
        <ele>964.20001220703</ele>
        <time>2019-06-17T09:38:09.000Z</time>
      </trkpt>
      <trkpt lat="46.6256" lon="5.91252">
        <ele>962.40002441406</ele>
        <time>2019-06-17T09:38:16.000Z</time>
      </trkpt>
      <trkpt lat="46.62564" lon="5.91264">
        <ele>960.40002441406</ele>
        <time>2019-06-17T09:38:28.000Z</time>
      </trkpt>
      <trkpt lat="46.62573" lon="5.91268">
        <ele>958</ele>
        <time>2019-06-17T09:38:40.000Z</time>
      </trkpt>
      <trkpt lat="46.62583" lon="5.91272">
        <ele>958.40002441406</ele>
        <time>2019-06-17T09:38:48.000Z</time>
      </trkpt>
      <trkpt lat="46.6259" lon="5.9128">
        <ele>959.59997558594</ele>
        <time>2019-06-17T09:38:57.000Z</time>
      </trkpt>
      <trkpt lat="46.62597" lon="5.91287">
        <ele>959.59997558594</ele>
        <time>2019-06-17T09:39:07.000Z</time>
      </trkpt>
      <trkpt lat="46.62607" lon="5.91292">
        <ele>960.20001220703</ele>
        <time>2019-06-17T09:39:20.000Z</time>
      </trkpt>
      <trkpt lat="46.62615" lon="5.913">
        <ele>962.20001220703</ele>
        <time>2019-06-17T09:39:39.000Z</time>
      </trkpt>
      <trkpt lat="46.62624" lon="5.91302">
        <ele>964</ele>
        <time>2019-06-17T09:39:47.000Z</time>
      </trkpt>
      <trkpt lat="46.62624" lon="5.91305">
        <ele>965</ele>
        <time>2019-06-17T09:39:54.000Z</time>
      </trkpt>
      <trkpt lat="46.62627" lon="5.91304">
        <ele>966.79998779297</ele>
        <time>2019-06-17T09:41:12.000Z</time>
      </trkpt>
      <trkpt lat="46.62629" lon="5.91305">
        <ele>967</ele>
        <time>2019-06-17T09:41:13.000Z</time>
      </trkpt>
      <trkpt lat="46.62627" lon="5.91304">
        <ele>966.40002441406</ele>
        <time>2019-06-17T09:42:39.000Z</time>
      </trkpt>
      <trkpt lat="46.62625" lon="5.91305">
        <ele>966.40002441406</ele>
        <time>2019-06-17T09:43:03.000Z</time>
      </trkpt>
      <trkpt lat="46.62623" lon="5.91307">
        <ele>966.40002441406</ele>
        <time>2019-06-17T09:43:34.000Z</time>
      </trkpt>
      <trkpt lat="46.6262" lon="5.9131">
        <ele>966.40002441406</ele>
        <time>2019-06-17T09:43:38.000Z</time>
      </trkpt>
      <trkpt lat="46.62613" lon="5.91318">
        <ele>966.40002441406</ele>
        <time>2019-06-17T09:43:47.000Z</time>
      </trkpt>
      <trkpt lat="46.6261" lon="5.9133">
        <ele>966.40002441406</ele>
        <time>2019-06-17T09:44:00.000Z</time>
      </trkpt>
      <trkpt lat="46.62611" lon="5.91344">
        <ele>972.79998779297</ele>
        <time>2019-06-17T09:44:11.000Z</time>
      </trkpt>
      <trkpt lat="46.62611" lon="5.91349">
        <ele>973.40002441406</ele>
        <time>2019-06-17T09:44:14.000Z</time>
      </trkpt>
      <trkpt lat="46.62611" lon="5.91353">
        <ele>974</ele>
        <time>2019-06-17T09:44:16.000Z</time>
      </trkpt>
      <trkpt lat="46.62611" lon="5.91366">
        <ele>975.79998779297</ele>
        <time>2019-06-17T09:44:27.000Z</time>
      </trkpt>
      <trkpt lat="46.62612" lon="5.91379">
        <ele>974.40002441406</ele>
        <time>2019-06-17T09:44:37.000Z</time>
      </trkpt>
      <trkpt lat="46.62609" lon="5.91394">
        <ele>973.59997558594</ele>
        <time>2019-06-17T09:44:46.000Z</time>
      </trkpt>
      <trkpt lat="46.62604" lon="5.91405">
        <ele>972.59997558594</ele>
        <time>2019-06-17T09:44:52.000Z</time>
      </trkpt>
      <trkpt lat="46.626" lon="5.91418">
        <ele>972.79998779297</ele>
        <time>2019-06-17T09:45:01.000Z</time>
      </trkpt>
      <trkpt lat="46.62606" lon="5.91428">
        <ele>978.40002441406</ele>
        <time>2019-06-17T09:45:28.000Z</time>
      </trkpt>
      <trkpt lat="46.62615" lon="5.91433">
        <ele>979.40002441406</ele>
        <time>2019-06-17T09:45:38.000Z</time>
      </trkpt>
      <trkpt lat="46.62622" lon="5.91442">
        <ele>982.40002441406</ele>
        <time>2019-06-17T09:45:52.000Z</time>
      </trkpt>
      <trkpt lat="46.62629" lon="5.91443">
        <ele>982.79998779297</ele>
        <time>2019-06-17T09:45:55.000Z</time>
      </trkpt>
      <trkpt lat="46.62631" lon="5.91443">
        <ele>983</ele>
        <time>2019-06-17T09:45:57.000Z</time>
      </trkpt>
      <trkpt lat="46.62634" lon="5.91443">
        <ele>983</ele>
        <time>2019-06-17T09:45:59.000Z</time>
      </trkpt>
      <trkpt lat="46.62636" lon="5.91444">
        <ele>983.20001220703</ele>
        <time>2019-06-17T09:46:01.000Z</time>
      </trkpt>
      <trkpt lat="46.62639" lon="5.91446">
        <ele>983.40002441406</ele>
        <time>2019-06-17T09:46:04.000Z</time>
      </trkpt>
      <trkpt lat="46.62647" lon="5.9145">
        <ele>984.79998779297</ele>
        <time>2019-06-17T09:46:13.000Z</time>
      </trkpt>
      <trkpt lat="46.62655" lon="5.91457">
        <ele>986.20001220703</ele>
        <time>2019-06-17T09:46:23.000Z</time>
      </trkpt>
      <trkpt lat="46.62664" lon="5.91464">
        <ele>988</ele>
        <time>2019-06-17T09:46:38.000Z</time>
      </trkpt>
      <trkpt lat="46.62673" lon="5.91469">
        <ele>989.40002441406</ele>
        <time>2019-06-17T09:46:48.000Z</time>
      </trkpt>
      <trkpt lat="46.62681" lon="5.91478">
        <ele>991.20001220703</ele>
        <time>2019-06-17T09:46:58.000Z</time>
      </trkpt>
      <trkpt lat="46.62687" lon="5.91488">
        <ele>993</ele>
        <time>2019-06-17T09:47:09.000Z</time>
      </trkpt>
      <trkpt lat="46.62694" lon="5.91497">
        <ele>992.59997558594</ele>
        <time>2019-06-17T09:47:22.000Z</time>
      </trkpt>
      <trkpt lat="46.62701" lon="5.91507">
        <ele>991.79998779297</ele>
        <time>2019-06-17T09:47:31.000Z</time>
      </trkpt>
      <trkpt lat="46.62705" lon="5.91509">
        <ele>992</ele>
        <time>2019-06-17T09:47:37.000Z</time>
      </trkpt>
      <trkpt lat="46.62712" lon="5.915">
        <ele>989.79998779297</ele>
        <time>2019-06-17T09:47:57.000Z</time>
      </trkpt>
      <trkpt lat="46.62721" lon="5.91504">
        <ele>987.79998779297</ele>
        <time>2019-06-17T09:48:08.000Z</time>
      </trkpt>
      <trkpt lat="46.6273" lon="5.91506">
        <ele>986.40002441406</ele>
        <time>2019-06-17T09:48:14.000Z</time>
      </trkpt>
      <trkpt lat="46.6274" lon="5.91501">
        <ele>983</ele>
        <time>2019-06-17T09:48:26.000Z</time>
      </trkpt>
      <trkpt lat="46.62748" lon="5.91493">
        <ele>981.59997558594</ele>
        <time>2019-06-17T09:48:33.000Z</time>
      </trkpt>
      <trkpt lat="46.62758" lon="5.91494">
        <ele>980.20001220703</ele>
        <time>2019-06-17T09:48:43.000Z</time>
      </trkpt>
      <trkpt lat="46.62767" lon="5.91499">
        <ele>979.20001220703</ele>
        <time>2019-06-17T09:48:55.000Z</time>
      </trkpt>
      <trkpt lat="46.62775" lon="5.91502">
        <ele>977</ele>
        <time>2019-06-17T09:49:07.000Z</time>
      </trkpt>
      <trkpt lat="46.62782" lon="5.91511">
        <ele>974.79998779297</ele>
        <time>2019-06-17T09:49:16.000Z</time>
      </trkpt>
      <trkpt lat="46.62786" lon="5.91524">
        <ele>972</ele>
        <time>2019-06-17T09:49:29.000Z</time>
      </trkpt>
      <trkpt lat="46.62794" lon="5.91533">
        <ele>969.40002441406</ele>
        <time>2019-06-17T09:49:42.000Z</time>
      </trkpt>
      <trkpt lat="46.62804" lon="5.91538">
        <ele>968.79998779297</ele>
        <time>2019-06-17T09:49:51.000Z</time>
      </trkpt>
      <trkpt lat="46.62807" lon="5.91551">
        <ele>970</ele>
        <time>2019-06-17T09:50:02.000Z</time>
      </trkpt>
      <trkpt lat="46.6281" lon="5.91564">
        <ele>971.59997558594</ele>
        <time>2019-06-17T09:50:12.000Z</time>
      </trkpt>
      <trkpt lat="46.62817" lon="5.91573">
        <ele>970.20001220703</ele>
        <time>2019-06-17T09:50:20.000Z</time>
      </trkpt>
      <trkpt lat="46.62823" lon="5.91585">
        <ele>969.59997558594</ele>
        <time>2019-06-17T09:50:29.000Z</time>
      </trkpt>
      <trkpt lat="46.6283" lon="5.91592">
        <ele>969.59997558594</ele>
        <time>2019-06-17T09:50:35.000Z</time>
      </trkpt>
      <trkpt lat="46.62839" lon="5.91596">
        <ele>970.79998779297</ele>
        <time>2019-06-17T09:50:45.000Z</time>
      </trkpt>
      <trkpt lat="46.62846" lon="5.91606">
        <ele>971.40002441406</ele>
        <time>2019-06-17T09:50:55.000Z</time>
      </trkpt>
      <trkpt lat="46.62849" lon="5.91618">
        <ele>973</ele>
        <time>2019-06-17T09:51:06.000Z</time>
      </trkpt>
      <trkpt lat="46.62852" lon="5.91628">
        <ele>974.59997558594</ele>
        <time>2019-06-17T09:51:14.000Z</time>
      </trkpt>
      <trkpt lat="46.62857" lon="5.91638">
        <ele>975</ele>
        <time>2019-06-17T09:51:28.000Z</time>
      </trkpt>
      <trkpt lat="46.62861" lon="5.91651">
        <ele>974.59997558594</ele>
        <time>2019-06-17T09:51:42.000Z</time>
      </trkpt>
      <trkpt lat="46.62868" lon="5.9166">
        <ele>975.40002441406</ele>
        <time>2019-06-17T09:51:51.000Z</time>
      </trkpt>
      <trkpt lat="46.62875" lon="5.9167">
        <ele>975.20001220703</ele>
        <time>2019-06-17T09:51:58.000Z</time>
      </trkpt>
      <trkpt lat="46.62883" lon="5.91677">
        <ele>974.79998779297</ele>
        <time>2019-06-17T09:52:12.000Z</time>
      </trkpt>
      <trkpt lat="46.62892" lon="5.91677">
        <ele>973.40002441406</ele>
        <time>2019-06-17T09:52:23.000Z</time>
      </trkpt>
      <trkpt lat="46.62902" lon="5.91679">
        <ele>971.59997558594</ele>
        <time>2019-06-17T09:52:31.000Z</time>
      </trkpt>
      <trkpt lat="46.62911" lon="5.91686">
        <ele>970.59997558594</ele>
        <time>2019-06-17T09:52:37.000Z</time>
      </trkpt>
      <trkpt lat="46.62918" lon="5.91698">
        <ele>970</ele>
        <time>2019-06-17T09:52:46.000Z</time>
      </trkpt>
      <trkpt lat="46.6292" lon="5.9171">
        <ele>970.79998779297</ele>
        <time>2019-06-17T09:52:59.000Z</time>
      </trkpt>
      <trkpt lat="46.62924" lon="5.91722">
        <ele>970.59997558594</ele>
        <time>2019-06-17T09:53:08.000Z</time>
      </trkpt>
      <trkpt lat="46.62934" lon="5.91731">
        <ele>970.59997558594</ele>
        <time>2019-06-17T09:53:15.000Z</time>
      </trkpt>
      <trkpt lat="46.62942" lon="5.91737">
        <ele>970</ele>
        <time>2019-06-17T09:53:20.000Z</time>
      </trkpt>
      <trkpt lat="46.62947" lon="5.91749">
        <ele>969.40002441406</ele>
        <time>2019-06-17T09:53:27.000Z</time>
      </trkpt>
      <trkpt lat="46.62954" lon="5.91758">
        <ele>969.20001220703</ele>
        <time>2019-06-17T09:53:36.000Z</time>
      </trkpt>
      <trkpt lat="46.6296" lon="5.91768">
        <ele>970.20001220703</ele>
        <time>2019-06-17T09:53:45.000Z</time>
      </trkpt>
      <trkpt lat="46.62969" lon="5.91774">
        <ele>970.59997558594</ele>
        <time>2019-06-17T09:53:50.000Z</time>
      </trkpt>
      <trkpt lat="46.62976" lon="5.91785">
        <ele>970.59997558594</ele>
        <time>2019-06-17T09:54:01.000Z</time>
      </trkpt>
      <trkpt lat="46.62981" lon="5.91796">
        <ele>968.59997558594</ele>
        <time>2019-06-17T09:54:11.000Z</time>
      </trkpt>
      <trkpt lat="46.62984" lon="5.91809">
        <ele>969.20001220703</ele>
        <time>2019-06-17T09:54:23.000Z</time>
      </trkpt>
      <trkpt lat="46.62989" lon="5.9182">
        <ele>970.20001220703</ele>
        <time>2019-06-17T09:54:32.000Z</time>
      </trkpt>
      <trkpt lat="46.62995" lon="5.91831">
        <ele>970.40002441406</ele>
        <time>2019-06-17T09:54:40.000Z</time>
      </trkpt>
      <trkpt lat="46.63002" lon="5.9184">
        <ele>970</ele>
        <time>2019-06-17T09:54:50.000Z</time>
      </trkpt>
      <trkpt lat="46.63011" lon="5.91847">
        <ele>969.59997558594</ele>
        <time>2019-06-17T09:54:56.000Z</time>
      </trkpt>
      <trkpt lat="46.63014" lon="5.91859">
        <ele>968.59997558594</ele>
        <time>2019-06-17T09:55:04.000Z</time>
      </trkpt>
      <trkpt lat="46.63016" lon="5.91872">
        <ele>967.59997558594</ele>
        <time>2019-06-17T09:55:18.000Z</time>
      </trkpt>
      <trkpt lat="46.63019" lon="5.91884">
        <ele>967.59997558594</ele>
        <time>2019-06-17T09:55:29.000Z</time>
      </trkpt>
      <trkpt lat="46.63026" lon="5.91894">
        <ele>966</ele>
        <time>2019-06-17T09:55:39.000Z</time>
      </trkpt>
      <trkpt lat="46.63032" lon="5.91904">
        <ele>963</ele>
        <time>2019-06-17T09:55:54.000Z</time>
      </trkpt>
      <trkpt lat="46.63027" lon="5.91915">
        <ele>960.59997558594</ele>
        <time>2019-06-17T09:56:06.000Z</time>
      </trkpt>
      <trkpt lat="46.63033" lon="5.91927">
        <ele>959</ele>
        <time>2019-06-17T09:56:21.000Z</time>
      </trkpt>
      <trkpt lat="46.63039" lon="5.91937">
        <ele>959.40002441406</ele>
        <time>2019-06-17T09:56:27.000Z</time>
      </trkpt>
      <trkpt lat="46.63048" lon="5.91942">
        <ele>960.20001220703</ele>
        <time>2019-06-17T09:56:38.000Z</time>
      </trkpt>
      <trkpt lat="46.63057" lon="5.91941">
        <ele>956.59997558594</ele>
        <time>2019-06-17T09:57:04.000Z</time>
      </trkpt>
      <trkpt lat="46.63061" lon="5.91953">
        <ele>953.79998779297</ele>
        <time>2019-06-17T09:57:19.000Z</time>
      </trkpt>
      <trkpt lat="46.6307" lon="5.91951">
        <ele>953.40002441406</ele>
        <time>2019-06-17T09:57:30.000Z</time>
      </trkpt>
      <trkpt lat="46.63078" lon="5.91956">
        <ele>952.20001220703</ele>
        <time>2019-06-17T09:57:38.000Z</time>
      </trkpt>
      <trkpt lat="46.63082" lon="5.91968">
        <ele>952.20001220703</ele>
        <time>2019-06-17T09:57:50.000Z</time>
      </trkpt>
      <trkpt lat="46.63091" lon="5.91972">
        <ele>952.59997558594</ele>
        <time>2019-06-17T09:57:58.000Z</time>
      </trkpt>
      <trkpt lat="46.63098" lon="5.91981">
        <ele>953.20001220703</ele>
        <time>2019-06-17T09:58:09.000Z</time>
      </trkpt>
      <trkpt lat="46.63107" lon="5.91988">
        <ele>952.59997558594</ele>
        <time>2019-06-17T09:58:26.000Z</time>
      </trkpt>
      <trkpt lat="46.63111" lon="5.92001">
        <ele>950.20001220703</ele>
        <time>2019-06-17T09:58:35.000Z</time>
      </trkpt>
      <trkpt lat="46.63116" lon="5.92012">
        <ele>949</ele>
        <time>2019-06-17T09:58:48.000Z</time>
      </trkpt>
      <trkpt lat="46.63115" lon="5.92014">
        <ele>949.59997558594</ele>
        <time>2019-06-17T09:59:05.000Z</time>
      </trkpt>
      <trkpt lat="46.63116" lon="5.92016">
        <ele>949.40002441406</ele>
        <time>2019-06-17T09:59:08.000Z</time>
      </trkpt>
      <trkpt lat="46.63118" lon="5.92029">
        <ele>948</ele>
        <time>2019-06-17T09:59:24.000Z</time>
      </trkpt>
      <trkpt lat="46.63121" lon="5.92042">
        <ele>946.20001220703</ele>
        <time>2019-06-17T09:59:36.000Z</time>
      </trkpt>
      <trkpt lat="46.63128" lon="5.92051">
        <ele>945.79998779297</ele>
        <time>2019-06-17T09:59:43.000Z</time>
      </trkpt>
      <trkpt lat="46.63136" lon="5.92058">
        <ele>944.59997558594</ele>
        <time>2019-06-17T10:00:00.000Z</time>
      </trkpt>
      <trkpt lat="46.63145" lon="5.92059">
        <ele>946</ele>
        <time>2019-06-17T10:00:10.000Z</time>
      </trkpt>
      <trkpt lat="46.63154" lon="5.92065">
        <ele>946.59997558594</ele>
        <time>2019-06-17T10:00:18.000Z</time>
      </trkpt>
      <trkpt lat="46.6316" lon="5.92076">
        <ele>946.59997558594</ele>
        <time>2019-06-17T10:00:32.000Z</time>
      </trkpt>
      <trkpt lat="46.63165" lon="5.92088">
        <ele>948.40002441406</ele>
        <time>2019-06-17T10:00:49.000Z</time>
      </trkpt>
      <trkpt lat="46.63172" lon="5.92098">
        <ele>949.20001220703</ele>
        <time>2019-06-17T10:00:59.000Z</time>
      </trkpt>
      <trkpt lat="46.63178" lon="5.92104">
        <ele>948.79998779297</ele>
        <time>2019-06-17T10:01:08.000Z</time>
      </trkpt>
      <trkpt lat="46.63182" lon="5.92113">
        <ele>948.79998779297</ele>
        <time>2019-06-17T10:01:15.000Z</time>
      </trkpt>
      <trkpt lat="46.63183" lon="5.92116">
        <ele>948.79998779297</ele>
        <time>2019-06-17T10:01:17.000Z</time>
      </trkpt>
      <trkpt lat="46.63186" lon="5.92119">
        <ele>948.79998779297</ele>
        <time>2019-06-17T10:01:20.000Z</time>
      </trkpt>
      <trkpt lat="46.63186" lon="5.92123">
        <ele>948.59997558594</ele>
        <time>2019-06-17T10:01:26.000Z</time>
      </trkpt>
      <trkpt lat="46.63186" lon="5.92126">
        <ele>949.20001220703</ele>
        <time>2019-06-17T10:01:29.000Z</time>
      </trkpt>
      <trkpt lat="46.63192" lon="5.92138">
        <ele>947.79998779297</ele>
        <time>2019-06-17T10:01:40.000Z</time>
      </trkpt>
      <trkpt lat="46.63195" lon="5.92147">
        <ele>946.40002441406</ele>
        <time>2019-06-17T10:01:49.000Z</time>
      </trkpt>
      <trkpt lat="46.63198" lon="5.92161">
        <ele>944.59997558594</ele>
        <time>2019-06-17T10:02:05.000Z</time>
      </trkpt>
      <trkpt lat="46.63201" lon="5.92174">
        <ele>941.79998779297</ele>
        <time>2019-06-17T10:02:19.000Z</time>
      </trkpt>
      <trkpt lat="46.63209" lon="5.92181">
        <ele>940.59997558594</ele>
        <time>2019-06-17T10:02:26.000Z</time>
      </trkpt>
      <trkpt lat="46.63218" lon="5.92187">
        <ele>938.79998779297</ele>
        <time>2019-06-17T10:02:42.000Z</time>
      </trkpt>
      <trkpt lat="46.63224" lon="5.92199">
        <ele>942.59997558594</ele>
        <time>2019-06-17T10:03:06.000Z</time>
      </trkpt>
      <trkpt lat="46.63233" lon="5.92209">
        <ele>945.40002441406</ele>
        <time>2019-06-17T10:03:25.000Z</time>
      </trkpt>
      <trkpt lat="46.63239" lon="5.92215">
        <ele>944.79998779297</ele>
        <time>2019-06-17T10:03:32.000Z</time>
      </trkpt>
      <trkpt lat="46.63244" lon="5.92221">
        <ele>944.79998779297</ele>
        <time>2019-06-17T10:03:36.000Z</time>
      </trkpt>
      <trkpt lat="46.6325" lon="5.92229">
        <ele>944.20001220703</ele>
        <time>2019-06-17T10:03:46.000Z</time>
      </trkpt>
      <trkpt lat="46.63257" lon="5.9224">
        <ele>943</ele>
        <time>2019-06-17T10:04:00.000Z</time>
      </trkpt>
      <trkpt lat="46.63261" lon="5.92252">
        <ele>940</ele>
        <time>2019-06-17T10:04:14.000Z</time>
      </trkpt>
      <trkpt lat="46.63265" lon="5.92255">
        <ele>939.20001220703</ele>
        <time>2019-06-17T10:04:18.000Z</time>
      </trkpt>
      <trkpt lat="46.6327" lon="5.92257">
        <ele>938.40002441406</ele>
        <time>2019-06-17T10:04:21.000Z</time>
      </trkpt>
      <trkpt lat="46.63279" lon="5.92255">
        <ele>935.79998779297</ele>
        <time>2019-06-17T10:04:33.000Z</time>
      </trkpt>
      <trkpt lat="46.63287" lon="5.92264">
        <ele>931.59997558594</ele>
        <time>2019-06-17T10:04:47.000Z</time>
      </trkpt>
      <trkpt lat="46.63294" lon="5.92274">
        <ele>929.40002441406</ele>
        <time>2019-06-17T10:04:56.000Z</time>
      </trkpt>
      <trkpt lat="46.63301" lon="5.92282">
        <ele>927.79998779297</ele>
        <time>2019-06-17T10:05:02.000Z</time>
      </trkpt>
      <trkpt lat="46.63307" lon="5.92292">
        <ele>926.59997558594</ele>
        <time>2019-06-17T10:05:11.000Z</time>
      </trkpt>
      <trkpt lat="46.63306" lon="5.92306">
        <ele>924.79998779297</ele>
        <time>2019-06-17T10:05:21.000Z</time>
      </trkpt>
      <trkpt lat="46.6331" lon="5.92319">
        <ele>925.40002441406</ele>
        <time>2019-06-17T10:05:32.000Z</time>
      </trkpt>
      <trkpt lat="46.63319" lon="5.92327">
        <ele>925.40002441406</ele>
        <time>2019-06-17T10:05:39.000Z</time>
      </trkpt>
      <trkpt lat="46.63327" lon="5.92333">
        <ele>924.20001220703</ele>
        <time>2019-06-17T10:05:48.000Z</time>
      </trkpt>
      <trkpt lat="46.6332" lon="5.92324">
        <ele>923.40002441406</ele>
        <time>2019-06-17T10:06:04.000Z</time>
      </trkpt>
      <trkpt lat="46.63313" lon="5.92316">
        <ele>921.79998779297</ele>
        <time>2019-06-17T10:06:14.000Z</time>
      </trkpt>
      <trkpt lat="46.63321" lon="5.92309">
        <ele>919.40002441406</ele>
        <time>2019-06-17T10:06:29.000Z</time>
      </trkpt>
      <trkpt lat="46.6333" lon="5.92306">
        <ele>917.40002441406</ele>
        <time>2019-06-17T10:06:36.000Z</time>
      </trkpt>
      <trkpt lat="46.63322" lon="5.92299">
        <ele>915</ele>
        <time>2019-06-17T10:06:50.000Z</time>
      </trkpt>
      <trkpt lat="46.63331" lon="5.92292">
        <ele>912.20001220703</ele>
        <time>2019-06-17T10:07:03.000Z</time>
      </trkpt>
      <trkpt lat="46.63341" lon="5.92293">
        <ele>910.40002441406</ele>
        <time>2019-06-17T10:07:10.000Z</time>
      </trkpt>
      <trkpt lat="46.6335" lon="5.92294">
        <ele>904.20001220703</ele>
        <time>2019-06-17T10:07:34.000Z</time>
      </trkpt>
      <trkpt lat="46.6336" lon="5.92297">
        <ele>902.40002441406</ele>
        <time>2019-06-17T10:07:40.000Z</time>
      </trkpt>
      <trkpt lat="46.63368" lon="5.92303">
        <ele>901</ele>
        <time>2019-06-17T10:07:45.000Z</time>
      </trkpt>
      <trkpt lat="46.63371" lon="5.92317">
        <ele>894.40002441406</ele>
        <time>2019-06-17T10:08:09.000Z</time>
      </trkpt>
      <trkpt lat="46.63374" lon="5.92329">
        <ele>893.59997558594</ele>
        <time>2019-06-17T10:08:15.000Z</time>
      </trkpt>
      <trkpt lat="46.63384" lon="5.92326">
        <ele>891.20001220703</ele>
        <time>2019-06-17T10:08:23.000Z</time>
      </trkpt>
      <trkpt lat="46.63388" lon="5.92315">
        <ele>884</ele>
        <time>2019-06-17T10:08:54.000Z</time>
      </trkpt>
      <trkpt lat="46.63398" lon="5.9232">
        <ele>880.40002441406</ele>
        <time>2019-06-17T10:09:13.000Z</time>
      </trkpt>
      <trkpt lat="46.63407" lon="5.92319">
        <ele>879.40002441406</ele>
        <time>2019-06-17T10:09:19.000Z</time>
      </trkpt>
      <trkpt lat="46.63403" lon="5.92307">
        <ele>877.20001220703</ele>
        <time>2019-06-17T10:09:33.000Z</time>
      </trkpt>
      <trkpt lat="46.634" lon="5.9232">
        <ele>876.40002441406</ele>
        <time>2019-06-17T10:09:38.000Z</time>
      </trkpt>
      <trkpt lat="46.6341" lon="5.92321">
        <ele>873.59997558594</ele>
        <time>2019-06-17T10:09:52.000Z</time>
      </trkpt>
      <trkpt lat="46.63419" lon="5.92317">
        <ele>871.59997558594</ele>
        <time>2019-06-17T10:10:00.000Z</time>
      </trkpt>
      <trkpt lat="46.6341" lon="5.92313">
        <ele>865.79998779297</ele>
        <time>2019-06-17T10:10:26.000Z</time>
      </trkpt>
      <trkpt lat="46.6342" lon="5.9231">
        <ele>864.20001220703</ele>
        <time>2019-06-17T10:10:34.000Z</time>
      </trkpt>
      <trkpt lat="46.63421" lon="5.92297">
        <ele>862.20001220703</ele>
        <time>2019-06-17T10:10:43.000Z</time>
      </trkpt>
      <trkpt lat="46.63428" lon="5.92289">
        <ele>859.40002441406</ele>
        <time>2019-06-17T10:10:54.000Z</time>
      </trkpt>
      <trkpt lat="46.6343" lon="5.92276">
        <ele>851.79998779297</ele>
        <time>2019-06-17T10:11:27.000Z</time>
      </trkpt>
      <trkpt lat="46.63419" lon="5.92279">
        <ele>850.20001220703</ele>
        <time>2019-06-17T10:11:36.000Z</time>
      </trkpt>
      <trkpt lat="46.6342" lon="5.92263">
        <ele>849.79998779297</ele>
        <time>2019-06-17T10:11:47.000Z</time>
      </trkpt>
      <trkpt lat="46.6343" lon="5.92254">
        <ele>849.20001220703</ele>
        <time>2019-06-17T10:11:55.000Z</time>
      </trkpt>
      <trkpt lat="46.63436" lon="5.92261">
        <ele>847.20001220703</ele>
        <time>2019-06-17T10:12:05.000Z</time>
      </trkpt>
      <trkpt lat="46.63445" lon="5.92255">
        <ele>845.20001220703</ele>
        <time>2019-06-17T10:12:14.000Z</time>
      </trkpt>
      <trkpt lat="46.63454" lon="5.92258">
        <ele>843.20001220703</ele>
        <time>2019-06-17T10:12:23.000Z</time>
      </trkpt>
      <trkpt lat="46.63461" lon="5.92267">
        <ele>841</ele>
        <time>2019-06-17T10:12:37.000Z</time>
      </trkpt>
      <trkpt lat="46.6347" lon="5.92261">
        <ele>841</ele>
        <time>2019-06-17T10:12:44.000Z</time>
      </trkpt>
      <trkpt lat="46.63478" lon="5.92253">
        <ele>838.59997558594</ele>
        <time>2019-06-17T10:13:04.000Z</time>
      </trkpt>
      <trkpt lat="46.63484" lon="5.92242">
        <ele>834.59997558594</ele>
        <time>2019-06-17T10:13:29.000Z</time>
      </trkpt>
      <trkpt lat="46.63475" lon="5.92245">
        <ele>829.59997558594</ele>
        <time>2019-06-17T10:13:56.000Z</time>
      </trkpt>
      <trkpt lat="46.63487" lon="5.92246">
        <ele>831</ele>
        <time>2019-06-17T10:14:07.000Z</time>
      </trkpt>
      <trkpt lat="46.63495" lon="5.9224">
        <ele>830.79998779297</ele>
        <time>2019-06-17T10:14:14.000Z</time>
      </trkpt>
      <trkpt lat="46.63488" lon="5.92231">
        <ele>831.20001220703</ele>
        <time>2019-06-17T10:14:20.000Z</time>
      </trkpt>
      <trkpt lat="46.63479" lon="5.92224">
        <ele>830</ele>
        <time>2019-06-17T10:14:28.000Z</time>
      </trkpt>
      <trkpt lat="46.63472" lon="5.92215">
        <ele>829.20001220703</ele>
        <time>2019-06-17T10:14:36.000Z</time>
      </trkpt>
      <trkpt lat="46.63472" lon="5.922">
        <ele>829</ele>
        <time>2019-06-17T10:14:43.000Z</time>
      </trkpt>
      <trkpt lat="46.63469" lon="5.92187">
        <ele>829.59997558594</ele>
        <time>2019-06-17T10:14:50.000Z</time>
      </trkpt>
      <trkpt lat="46.63463" lon="5.92175">
        <ele>830</ele>
        <time>2019-06-17T10:14:59.000Z</time>
      </trkpt>
      <trkpt lat="46.63459" lon="5.92163">
        <ele>830.79998779297</ele>
        <time>2019-06-17T10:15:07.000Z</time>
      </trkpt>
      <trkpt lat="46.63455" lon="5.92151">
        <ele>831</ele>
        <time>2019-06-17T10:15:13.000Z</time>
      </trkpt>
      <trkpt lat="46.63449" lon="5.92139">
        <ele>831.40002441406</ele>
        <time>2019-06-17T10:15:22.000Z</time>
      </trkpt>
      <trkpt lat="46.63441" lon="5.92133">
        <ele>832.20001220703</ele>
        <time>2019-06-17T10:15:29.000Z</time>
      </trkpt>
      <trkpt lat="46.63434" lon="5.92124">
        <ele>831.79998779297</ele>
        <time>2019-06-17T10:15:36.000Z</time>
      </trkpt>
      <trkpt lat="46.63429" lon="5.92112">
        <ele>832</ele>
        <time>2019-06-17T10:15:44.000Z</time>
      </trkpt>
      <trkpt lat="46.63428" lon="5.92109">
        <ele>832.20001220703</ele>
        <time>2019-06-17T10:15:46.000Z</time>
      </trkpt>
      <trkpt lat="46.63426" lon="5.92106">
        <ele>832.20001220703</ele>
        <time>2019-06-17T10:15:48.000Z</time>
      </trkpt>
      <trkpt lat="46.63424" lon="5.92101">
        <ele>832.40002441406</ele>
        <time>2019-06-17T10:15:51.000Z</time>
      </trkpt>
      <trkpt lat="46.63423" lon="5.92099">
        <ele>832.59997558594</ele>
        <time>2019-06-17T10:15:53.000Z</time>
      </trkpt>
      <trkpt lat="46.63422" lon="5.92096">
        <ele>832.40002441406</ele>
        <time>2019-06-17T10:15:55.000Z</time>
      </trkpt>
      <trkpt lat="46.63421" lon="5.92093">
        <ele>832.59997558594</ele>
        <time>2019-06-17T10:15:57.000Z</time>
      </trkpt>
      <trkpt lat="46.63415" lon="5.92082">
        <ele>833</ele>
        <time>2019-06-17T10:16:05.000Z</time>
      </trkpt>
      <trkpt lat="46.63411" lon="5.92073">
        <ele>833.40002441406</ele>
        <time>2019-06-17T10:16:10.000Z</time>
      </trkpt>
      <trkpt lat="46.6341" lon="5.92069">
        <ele>833.20001220703</ele>
        <time>2019-06-17T10:16:12.000Z</time>
      </trkpt>
      <trkpt lat="46.63409" lon="5.92066">
        <ele>833.20001220703</ele>
        <time>2019-06-17T10:16:14.000Z</time>
      </trkpt>
      <trkpt lat="46.63407" lon="5.92063">
        <ele>833.20001220703</ele>
        <time>2019-06-17T10:16:16.000Z</time>
      </trkpt>
      <trkpt lat="46.63405" lon="5.92061">
        <ele>833.79998779297</ele>
        <time>2019-06-17T10:16:18.000Z</time>
      </trkpt>
      <trkpt lat="46.63403" lon="5.92058">
        <ele>833.59997558594</ele>
        <time>2019-06-17T10:16:20.000Z</time>
      </trkpt>
      <trkpt lat="46.63399" lon="5.92046">
        <ele>834.59997558594</ele>
        <time>2019-06-17T10:16:27.000Z</time>
      </trkpt>
      <trkpt lat="46.63397" lon="5.92043">
        <ele>834.79998779297</ele>
        <time>2019-06-17T10:16:29.000Z</time>
      </trkpt>
      <trkpt lat="46.63397" lon="5.92039">
        <ele>834.79998779297</ele>
        <time>2019-06-17T10:16:31.000Z</time>
      </trkpt>
      <trkpt lat="46.63396" lon="5.92036">
        <ele>834.79998779297</ele>
        <time>2019-06-17T10:16:33.000Z</time>
      </trkpt>
      <trkpt lat="46.63395" lon="5.92032">
        <ele>835</ele>
        <time>2019-06-17T10:16:35.000Z</time>
      </trkpt>
      <trkpt lat="46.63395" lon="5.92028">
        <ele>835</ele>
        <time>2019-06-17T10:16:37.000Z</time>
      </trkpt>
      <trkpt lat="46.63393" lon="5.92014">
        <ele>834.79998779297</ele>
        <time>2019-06-17T10:16:44.000Z</time>
      </trkpt>
      <trkpt lat="46.63392" lon="5.92005">
        <ele>835</ele>
        <time>2019-06-17T10:16:49.000Z</time>
      </trkpt>
      <trkpt lat="46.63392" lon="5.92">
        <ele>835.20001220703</ele>
        <time>2019-06-17T10:16:51.000Z</time>
      </trkpt>
      <trkpt lat="46.63392" lon="5.91996">
        <ele>835.40002441406</ele>
        <time>2019-06-17T10:16:53.000Z</time>
      </trkpt>
      <trkpt lat="46.63393" lon="5.91982">
        <ele>836.20001220703</ele>
        <time>2019-06-17T10:17:02.000Z</time>
      </trkpt>
      <trkpt lat="46.63393" lon="5.9198">
        <ele>836.40002441406</ele>
        <time>2019-06-17T10:17:04.000Z</time>
      </trkpt>
      <trkpt lat="46.63393" lon="5.91977">
        <ele>836</ele>
        <time>2019-06-17T10:17:06.000Z</time>
      </trkpt>
      <trkpt lat="46.63393" lon="5.91974">
        <ele>836.20001220703</ele>
        <time>2019-06-17T10:17:08.000Z</time>
      </trkpt>
      <trkpt lat="46.63393" lon="5.91959">
        <ele>836.20001220703</ele>
        <time>2019-06-17T10:17:17.000Z</time>
      </trkpt>
      <trkpt lat="46.63393" lon="5.91956">
        <ele>836.40002441406</ele>
        <time>2019-06-17T10:17:19.000Z</time>
      </trkpt>
      <trkpt lat="46.63391" lon="5.91947">
        <ele>836.79998779297</ele>
        <time>2019-06-17T10:17:24.000Z</time>
      </trkpt>
      <trkpt lat="46.63388" lon="5.91944">
        <ele>836.59997558594</ele>
        <time>2019-06-17T10:17:26.000Z</time>
      </trkpt>
      <trkpt lat="46.63385" lon="5.91943">
        <ele>836.59997558594</ele>
        <time>2019-06-17T10:17:29.000Z</time>
      </trkpt>
      <trkpt lat="46.63383" lon="5.91942">
        <ele>836.59997558594</ele>
        <time>2019-06-17T10:17:32.000Z</time>
      </trkpt>
      <trkpt lat="46.6338" lon="5.91942">
        <ele>836.59997558594</ele>
        <time>2019-06-17T10:17:34.000Z</time>
      </trkpt>
      <trkpt lat="46.63378" lon="5.91942">
        <ele>836.59997558594</ele>
        <time>2019-06-17T10:17:36.000Z</time>
      </trkpt>
      <trkpt lat="46.63372" lon="5.91936">
        <ele>836.40002441406</ele>
        <time>2019-06-17T10:17:45.000Z</time>
      </trkpt>
      <trkpt lat="46.63371" lon="5.91934">
        <ele>836.20001220703</ele>
        <time>2019-06-17T10:17:49.000Z</time>
      </trkpt>
      <trkpt lat="46.63371" lon="5.91931">
        <ele>836.20001220703</ele>
        <time>2019-06-17T10:17:55.000Z</time>
      </trkpt>
      <trkpt lat="46.63373" lon="5.91929">
        <ele>836.40002441406</ele>
        <time>2019-06-17T10:18:10.000Z</time>
      </trkpt>
      <trkpt lat="46.63374" lon="5.91932">
        <ele>836.20001220703</ele>
        <time>2019-06-17T10:18:18.000Z</time>
      </trkpt>
      <trkpt lat="46.63375" lon="5.91933">
        <ele>836.40002441406</ele>
        <time>2019-06-17T10:18:23.000Z</time>
      </trkpt>
      <trkpt lat="46.63377" lon="5.91932">
        <ele>837.40002441406</ele>
        <time>2019-06-17T10:18:51.000Z</time>
      </trkpt>
      <trkpt lat="46.63379" lon="5.9193">
        <ele>837.59997558594</ele>
        <time>2019-06-17T10:18:54.000Z</time>
      </trkpt>
      <trkpt lat="46.63381" lon="5.91928">
        <ele>837.40002441406</ele>
        <time>2019-06-17T10:18:56.000Z</time>
      </trkpt>
      <trkpt lat="46.63383" lon="5.91926">
        <ele>837.40002441406</ele>
        <time>2019-06-17T10:18:58.000Z</time>
      </trkpt>
      <trkpt lat="46.63385" lon="5.91925">
        <ele>837.40002441406</ele>
        <time>2019-06-17T10:19:00.000Z</time>
      </trkpt>
      <trkpt lat="46.63387" lon="5.91923">
        <ele>837.40002441406</ele>
        <time>2019-06-17T10:19:02.000Z</time>
      </trkpt>
      <trkpt lat="46.63389" lon="5.91921">
        <ele>837.40002441406</ele>
        <time>2019-06-17T10:19:04.000Z</time>
      </trkpt>
      <trkpt lat="46.6339" lon="5.91919">
        <ele>837.40002441406</ele>
        <time>2019-06-17T10:19:06.000Z</time>
      </trkpt>
      <trkpt lat="46.63391" lon="5.91916">
        <ele>837.40002441406</ele>
        <time>2019-06-17T10:19:08.000Z</time>
      </trkpt>
      <trkpt lat="46.63392" lon="5.91912">
        <ele>837.40002441406</ele>
        <time>2019-06-17T10:19:10.000Z</time>
      </trkpt>
      <trkpt lat="46.63393" lon="5.91909">
        <ele>837.40002441406</ele>
        <time>2019-06-17T10:19:12.000Z</time>
      </trkpt>
      <trkpt lat="46.63393" lon="5.91905">
        <ele>837.40002441406</ele>
        <time>2019-06-17T10:19:14.000Z</time>
      </trkpt>
      <trkpt lat="46.63393" lon="5.91901">
        <ele>837.40002441406</ele>
        <time>2019-06-17T10:19:16.000Z</time>
      </trkpt>
      <trkpt lat="46.63392" lon="5.91896">
        <ele>837.40002441406</ele>
        <time>2019-06-17T10:19:18.000Z</time>
      </trkpt>
      <trkpt lat="46.63392" lon="5.91892">
        <ele>837.40002441406</ele>
        <time>2019-06-17T10:19:20.000Z</time>
      </trkpt>
      <trkpt lat="46.63392" lon="5.91884">
        <ele>837.40002441406</ele>
        <time>2019-06-17T10:19:25.000Z</time>
      </trkpt>
      <trkpt lat="46.63393" lon="5.91881">
        <ele>837.40002441406</ele>
        <time>2019-06-17T10:19:27.000Z</time>
      </trkpt>
      <trkpt lat="46.63394" lon="5.91867">
        <ele>837.40002441406</ele>
        <time>2019-06-17T10:19:35.000Z</time>
      </trkpt>
      <trkpt lat="46.63394" lon="5.91864">
        <ele>837.40002441406</ele>
        <time>2019-06-17T10:19:37.000Z</time>
      </trkpt>
      <trkpt lat="46.63394" lon="5.9186">
        <ele>837.40002441406</ele>
        <time>2019-06-17T10:19:39.000Z</time>
      </trkpt>
      <trkpt lat="46.63394" lon="5.91857">
        <ele>837.40002441406</ele>
        <time>2019-06-17T10:19:41.000Z</time>
      </trkpt>
      <trkpt lat="46.63394" lon="5.91853">
        <ele>837.40002441406</ele>
        <time>2019-06-17T10:19:43.000Z</time>
      </trkpt>
      <trkpt lat="46.63393" lon="5.9185">
        <ele>837.40002441406</ele>
        <time>2019-06-17T10:19:45.000Z</time>
      </trkpt>
      <trkpt lat="46.63393" lon="5.91846">
        <ele>837.40002441406</ele>
        <time>2019-06-17T10:19:47.000Z</time>
      </trkpt>
      <trkpt lat="46.63392" lon="5.91843">
        <ele>837.40002441406</ele>
        <time>2019-06-17T10:19:48.000Z</time>
      </trkpt>
      <trkpt lat="46.63393" lon="5.9184">
        <ele>837.40002441406</ele>
        <time>2019-06-17T10:19:50.000Z</time>
      </trkpt>
      <trkpt lat="46.63396" lon="5.91829">
        <ele>837.40002441406</ele>
        <time>2019-06-17T10:19:57.000Z</time>
      </trkpt>
      <trkpt lat="46.63396" lon="5.91824">
        <ele>837.40002441406</ele>
        <time>2019-06-17T10:20:00.000Z</time>
      </trkpt>
      <trkpt lat="46.63398" lon="5.91812">
        <ele>837.40002441406</ele>
        <time>2019-06-17T10:20:06.000Z</time>
      </trkpt>
      <trkpt lat="46.63398" lon="5.9181">
        <ele>837.40002441406</ele>
        <time>2019-06-17T10:20:07.000Z</time>
      </trkpt>
      <trkpt lat="46.63397" lon="5.91807">
        <ele>837.40002441406</ele>
        <time>2019-06-17T10:20:08.000Z</time>
      </trkpt>
      <trkpt lat="46.63396" lon="5.91804">
        <ele>837.40002441406</ele>
        <time>2019-06-17T10:20:10.000Z</time>
      </trkpt>
      <trkpt lat="46.63397" lon="5.918">
        <ele>837.40002441406</ele>
        <time>2019-06-17T10:20:13.000Z</time>
      </trkpt>
      <trkpt lat="46.63397" lon="5.91796">
        <ele>837.40002441406</ele>
        <time>2019-06-17T10:20:15.000Z</time>
      </trkpt>
      <trkpt lat="46.63397" lon="5.91792">
        <ele>837.40002441406</ele>
        <time>2019-06-17T10:20:17.000Z</time>
      </trkpt>
      <trkpt lat="46.63397" lon="5.91789">
        <ele>837.40002441406</ele>
        <time>2019-06-17T10:20:19.000Z</time>
      </trkpt>
      <trkpt lat="46.63397" lon="5.91786">
        <ele>837.40002441406</ele>
        <time>2019-06-17T10:20:21.000Z</time>
      </trkpt>
      <trkpt lat="46.63397" lon="5.91783">
        <ele>837.40002441406</ele>
        <time>2019-06-17T10:20:23.000Z</time>
      </trkpt>
      <trkpt lat="46.63398" lon="5.91779">
        <ele>837.40002441406</ele>
        <time>2019-06-17T10:20:25.000Z</time>
      </trkpt>
      <trkpt lat="46.63398" lon="5.91776">
        <ele>837.40002441406</ele>
        <time>2019-06-17T10:20:28.000Z</time>
      </trkpt>
      <trkpt lat="46.63397" lon="5.91779">
        <ele>837.40002441406</ele>
        <time>2019-06-17T10:20:34.000Z</time>
      </trkpt>
      <trkpt lat="46.63396" lon="5.91782">
        <ele>837.40002441406</ele>
        <time>2019-06-17T10:20:36.000Z</time>
      </trkpt>
      <trkpt lat="46.63396" lon="5.91786">
        <ele>837.40002441406</ele>
        <time>2019-06-17T10:20:38.000Z</time>
      </trkpt>
      <trkpt lat="46.63395" lon="5.91788">
        <ele>837.40002441406</ele>
        <time>2019-06-17T10:20:40.000Z</time>
      </trkpt>
      <trkpt lat="46.63394" lon="5.9179">
        <ele>837.40002441406</ele>
        <time>2019-06-17T10:20:42.000Z</time>
      </trkpt>
      <trkpt lat="46.63392" lon="5.91792">
        <ele>837.40002441406</ele>
        <time>2019-06-17T10:20:45.000Z</time>
      </trkpt>
      <trkpt lat="46.63389" lon="5.91793">
        <ele>837.40002441406</ele>
        <time>2019-06-17T10:20:49.000Z</time>
      </trkpt>
      <trkpt lat="46.63387" lon="5.91793">
        <ele>837.40002441406</ele>
        <time>2019-06-17T10:20:56.000Z</time>
      </trkpt>
      <trkpt lat="46.63388" lon="5.91795">
        <ele>837.40002441406</ele>
        <time>2019-06-17T10:21:12.000Z</time>
      </trkpt>
      <trkpt lat="46.6339" lon="5.91795">
        <ele>837.40002441406</ele>
        <time>2019-06-17T10:21:16.000Z</time>
      </trkpt>
      <trkpt lat="46.6339" lon="5.91799">
        <ele>837.40002441406</ele>
        <time>2019-06-17T10:25:39.000Z</time>
      </trkpt>
      <trkpt lat="46.63392" lon="5.91798">
        <ele>837.40002441406</ele>
        <time>2019-06-17T10:27:41.000Z</time>
      </trkpt>
      <trkpt lat="46.6339" lon="5.91799">
        <ele>837.40002441406</ele>
        <time>2019-06-17T10:27:50.000Z</time>
      </trkpt>
      <trkpt lat="46.6339" lon="5.91796">
        <ele>837.40002441406</ele>
        <time>2019-06-17T10:27:53.000Z</time>
      </trkpt>
      <trkpt lat="46.63392" lon="5.91794">
        <ele>837.40002441406</ele>
        <time>2019-06-17T10:27:55.000Z</time>
      </trkpt>
      <trkpt lat="46.63391" lon="5.91791">
        <ele>837.40002441406</ele>
        <time>2019-06-17T10:27:57.000Z</time>
      </trkpt>
      <trkpt lat="46.6339" lon="5.91788">
        <ele>837.40002441406</ele>
        <time>2019-06-17T10:28:09.000Z</time>
      </trkpt>
      <trkpt lat="46.63392" lon="5.91789">
        <ele>837.40002441406</ele>
        <time>2019-06-17T10:28:46.000Z</time>
      </trkpt>
      <trkpt lat="46.6339" lon="5.9179">
        <ele>837.40002441406</ele>
        <time>2019-06-17T10:29:03.000Z</time>
      </trkpt>
      <trkpt lat="46.6339" lon="5.91793">
        <ele>837.40002441406</ele>
        <time>2019-06-17T10:29:25.000Z</time>
      </trkpt>
      <trkpt lat="46.63389" lon="5.91796">
        <ele>837.40002441406</ele>
        <time>2019-06-17T10:29:46.000Z</time>
      </trkpt>
      <trkpt lat="46.6339" lon="5.91798">
        <ele>837.40002441406</ele>
        <time>2019-06-17T10:30:03.000Z</time>
      </trkpt>
      <trkpt lat="46.63392" lon="5.91798">
        <ele>837.40002441406</ele>
        <time>2019-06-17T10:30:26.000Z</time>
      </trkpt>
      <trkpt lat="46.63391" lon="5.91799">
        <ele>837.40002441406</ele>
        <time>2019-06-17T10:30:58.000Z</time>
      </trkpt>
      <trkpt lat="46.63388" lon="5.91799">
        <ele>837.40002441406</ele>
        <time>2019-06-17T10:31:03.000Z</time>
      </trkpt>
      <trkpt lat="46.63389" lon="5.91796">
        <ele>837.40002441406</ele>
        <time>2019-06-17T10:31:42.000Z</time>
      </trkpt>
      <trkpt lat="46.63386" lon="5.91797">
        <ele>837.40002441406</ele>
        <time>2019-06-17T10:32:06.000Z</time>
      </trkpt>
      <trkpt lat="46.63388" lon="5.91794">
        <ele>837.40002441406</ele>
        <time>2019-06-17T10:34:09.000Z</time>
      </trkpt>
      <trkpt lat="46.63388" lon="5.91797">
        <ele>837.40002441406</ele>
        <time>2019-06-17T10:37:00.000Z</time>
      </trkpt>
      <trkpt lat="46.63386" lon="5.91796">
        <ele>837.40002441406</ele>
        <time>2019-06-17T10:37:44.000Z</time>
      </trkpt>
      <trkpt lat="46.63388" lon="5.91795">
        <ele>837.40002441406</ele>
        <time>2019-06-17T10:38:21.000Z</time>
      </trkpt>
      <trkpt lat="46.6339" lon="5.91793">
        <ele>837.40002441406</ele>
        <time>2019-06-17T10:40:10.000Z</time>
      </trkpt>
      <trkpt lat="46.6339" lon="5.91791">
        <ele>837.40002441406</ele>
        <time>2019-06-17T10:41:01.000Z</time>
      </trkpt>
      <trkpt lat="46.63389" lon="5.91787">
        <ele>837.40002441406</ele>
        <time>2019-06-17T10:41:08.000Z</time>
      </trkpt>
      <trkpt lat="46.63388" lon="5.91789">
        <ele>837.40002441406</ele>
        <time>2019-06-17T10:41:55.000Z</time>
      </trkpt>
      <trkpt lat="46.63387" lon="5.91786">
        <ele>837.40002441406</ele>
        <time>2019-06-17T10:42:15.000Z</time>
      </trkpt>
      <trkpt lat="46.63385" lon="5.91787">
        <ele>837.40002441406</ele>
        <time>2019-06-17T10:42:22.000Z</time>
      </trkpt>
      <trkpt lat="46.63385" lon="5.91792">
        <ele>837.40002441406</ele>
        <time>2019-06-17T10:42:31.000Z</time>
      </trkpt>
      <trkpt lat="46.63384" lon="5.91794">
        <ele>837.40002441406</ele>
        <time>2019-06-17T10:42:33.000Z</time>
      </trkpt>
      <trkpt lat="46.63382" lon="5.91797">
        <ele>837.40002441406</ele>
        <time>2019-06-17T10:42:35.000Z</time>
      </trkpt>
      <trkpt lat="46.6338" lon="5.91799">
        <ele>837.40002441406</ele>
        <time>2019-06-17T10:42:39.000Z</time>
      </trkpt>
      <trkpt lat="46.63377" lon="5.91799">
        <ele>837.40002441406</ele>
        <time>2019-06-17T10:42:41.000Z</time>
      </trkpt>
      <trkpt lat="46.63375" lon="5.918">
        <ele>837.40002441406</ele>
        <time>2019-06-17T10:42:43.000Z</time>
      </trkpt>
      <trkpt lat="46.63373" lon="5.918">
        <ele>837.40002441406</ele>
        <time>2019-06-17T10:42:45.000Z</time>
      </trkpt>
      <trkpt lat="46.63373" lon="5.91796">
        <ele>837.40002441406</ele>
        <time>2019-06-17T10:42:48.000Z</time>
      </trkpt>
      <trkpt lat="46.63374" lon="5.91793">
        <ele>837.40002441406</ele>
        <time>2019-06-17T10:42:50.000Z</time>
      </trkpt>
      <trkpt lat="46.63376" lon="5.91789">
        <ele>837.40002441406</ele>
        <time>2019-06-17T10:42:52.000Z</time>
      </trkpt>
      <trkpt lat="46.63377" lon="5.91786">
        <ele>837.40002441406</ele>
        <time>2019-06-17T10:42:54.000Z</time>
      </trkpt>
      <trkpt lat="46.63379" lon="5.9178">
        <ele>837.40002441406</ele>
        <time>2019-06-17T10:42:57.000Z</time>
      </trkpt>
      <trkpt lat="46.6338" lon="5.91777">
        <ele>837.40002441406</ele>
        <time>2019-06-17T10:42:59.000Z</time>
      </trkpt>
      <trkpt lat="46.6338" lon="5.91774">
        <ele>837.40002441406</ele>
        <time>2019-06-17T10:43:01.000Z</time>
      </trkpt>
      <trkpt lat="46.63381" lon="5.91772">
        <ele>837.40002441406</ele>
        <time>2019-06-17T10:43:07.000Z</time>
      </trkpt>
      <trkpt lat="46.63382" lon="5.91769">
        <ele>832.79998779297</ele>
        <time>2019-06-17T10:43:09.000Z</time>
      </trkpt>
      <trkpt lat="46.63384" lon="5.91767">
        <ele>832.40002441406</ele>
        <time>2019-06-17T10:43:11.000Z</time>
      </trkpt>
      <trkpt lat="46.63385" lon="5.91764">
        <ele>832.40002441406</ele>
        <time>2019-06-17T10:43:13.000Z</time>
      </trkpt>
      <trkpt lat="46.63387" lon="5.91761">
        <ele>832.20001220703</ele>
        <time>2019-06-17T10:43:15.000Z</time>
      </trkpt>
      <trkpt lat="46.63389" lon="5.91757">
        <ele>832.20001220703</ele>
        <time>2019-06-17T10:43:18.000Z</time>
      </trkpt>
      <trkpt lat="46.63394" lon="5.91747">
        <ele>832.79998779297</ele>
        <time>2019-06-17T10:43:25.000Z</time>
      </trkpt>
      <trkpt lat="46.63399" lon="5.91735">
        <ele>832</ele>
        <time>2019-06-17T10:43:32.000Z</time>
      </trkpt>
      <trkpt lat="46.63405" lon="5.91723">
        <ele>831.79998779297</ele>
        <time>2019-06-17T10:43:40.000Z</time>
      </trkpt>
      <trkpt lat="46.6341" lon="5.91712">
        <ele>832</ele>
        <time>2019-06-17T10:43:48.000Z</time>
      </trkpt>
      <trkpt lat="46.63413" lon="5.91699">
        <ele>833.20001220703</ele>
        <time>2019-06-17T10:43:58.000Z</time>
      </trkpt>
      <trkpt lat="46.63418" lon="5.91687">
        <ele>834</ele>
        <time>2019-06-17T10:44:06.000Z</time>
      </trkpt>
      <trkpt lat="46.63425" lon="5.91678">
        <ele>834.40002441406</ele>
        <time>2019-06-17T10:44:14.000Z</time>
      </trkpt>
      <trkpt lat="46.63431" lon="5.91668">
        <ele>835.20001220703</ele>
        <time>2019-06-17T10:44:22.000Z</time>
      </trkpt>
      <trkpt lat="46.63438" lon="5.91658">
        <ele>836</ele>
        <time>2019-06-17T10:44:29.000Z</time>
      </trkpt>
      <trkpt lat="46.63444" lon="5.91647">
        <ele>836.59997558594</ele>
        <time>2019-06-17T10:44:38.000Z</time>
      </trkpt>
      <trkpt lat="46.63449" lon="5.91634">
        <ele>836.59997558594</ele>
        <time>2019-06-17T10:44:44.000Z</time>
      </trkpt>
      <trkpt lat="46.63456" lon="5.91624">
        <ele>836.79998779297</ele>
        <time>2019-06-17T10:44:51.000Z</time>
      </trkpt>
      <trkpt lat="46.63463" lon="5.91615">
        <ele>836.79998779297</ele>
        <time>2019-06-17T10:44:58.000Z</time>
      </trkpt>
      <trkpt lat="46.63468" lon="5.91604">
        <ele>837.20001220703</ele>
        <time>2019-06-17T10:45:05.000Z</time>
      </trkpt>
      <trkpt lat="46.63475" lon="5.91595">
        <ele>837.59997558594</ele>
        <time>2019-06-17T10:45:13.000Z</time>
      </trkpt>
      <trkpt lat="46.63482" lon="5.91584">
        <ele>837.59997558594</ele>
        <time>2019-06-17T10:45:20.000Z</time>
      </trkpt>
      <trkpt lat="46.63487" lon="5.91573">
        <ele>837.59997558594</ele>
        <time>2019-06-17T10:45:26.000Z</time>
      </trkpt>
      <trkpt lat="46.63494" lon="5.91563">
        <ele>838</ele>
        <time>2019-06-17T10:45:34.000Z</time>
      </trkpt>
      <trkpt lat="46.63501" lon="5.91553">
        <ele>838.20001220703</ele>
        <time>2019-06-17T10:45:43.000Z</time>
      </trkpt>
      <trkpt lat="46.63503" lon="5.91552">
        <ele>838.20001220703</ele>
        <time>2019-06-17T10:45:44.000Z</time>
      </trkpt>
      <trkpt lat="46.63505" lon="5.9155">
        <ele>838.40002441406</ele>
        <time>2019-06-17T10:45:46.000Z</time>
      </trkpt>
      <trkpt lat="46.63506" lon="5.91547">
        <ele>838.40002441406</ele>
        <time>2019-06-17T10:45:48.000Z</time>
      </trkpt>
      <trkpt lat="46.63507" lon="5.91544">
        <ele>838.40002441406</ele>
        <time>2019-06-17T10:45:50.000Z</time>
      </trkpt>
      <trkpt lat="46.63509" lon="5.91541">
        <ele>838.79998779297</ele>
        <time>2019-06-17T10:45:52.000Z</time>
      </trkpt>
      <trkpt lat="46.63509" lon="5.91537">
        <ele>839</ele>
        <time>2019-06-17T10:45:55.000Z</time>
      </trkpt>
      <trkpt lat="46.6351" lon="5.91534">
        <ele>840</ele>
        <time>2019-06-17T10:45:58.000Z</time>
      </trkpt>
      <trkpt lat="46.63512" lon="5.91532">
        <ele>839.40002441406</ele>
        <time>2019-06-17T10:46:12.000Z</time>
      </trkpt>
      <trkpt lat="46.63513" lon="5.91529">
        <ele>840.20001220703</ele>
        <time>2019-06-17T10:46:15.000Z</time>
      </trkpt>
      <trkpt lat="46.63518" lon="5.91516">
        <ele>839.20001220703</ele>
        <time>2019-06-17T10:46:25.000Z</time>
      </trkpt>
      <trkpt lat="46.63524" lon="5.91505">
        <ele>836</ele>
        <time>2019-06-17T10:46:38.000Z</time>
      </trkpt>
      <trkpt lat="46.63524" lon="5.91502">
        <ele>835.59997558594</ele>
        <time>2019-06-17T10:46:40.000Z</time>
      </trkpt>
      <trkpt lat="46.63533" lon="5.91498">
        <ele>835.20001220703</ele>
        <time>2019-06-17T10:47:40.000Z</time>
      </trkpt>
      <trkpt lat="46.63535" lon="5.91495">
        <ele>835.59997558594</ele>
        <time>2019-06-17T10:47:43.000Z</time>
      </trkpt>
      <trkpt lat="46.63537" lon="5.91494">
        <ele>835.20001220703</ele>
        <time>2019-06-17T10:47:45.000Z</time>
      </trkpt>
      <trkpt lat="46.63539" lon="5.91491">
        <ele>835.40002441406</ele>
        <time>2019-06-17T10:47:48.000Z</time>
      </trkpt>
      <trkpt lat="46.63539" lon="5.91488">
        <ele>836.40002441406</ele>
        <time>2019-06-17T10:47:51.000Z</time>
      </trkpt>
      <trkpt lat="46.63541" lon="5.91486">
        <ele>836.59997558594</ele>
        <time>2019-06-17T10:47:57.000Z</time>
      </trkpt>
      <trkpt lat="46.63543" lon="5.91485">
        <ele>836.79998779297</ele>
        <time>2019-06-17T10:47:59.000Z</time>
      </trkpt>
      <trkpt lat="46.63545" lon="5.91483">
        <ele>837</ele>
        <time>2019-06-17T10:48:01.000Z</time>
      </trkpt>
      <trkpt lat="46.63547" lon="5.91482">
        <ele>837.20001220703</ele>
        <time>2019-06-17T10:48:04.000Z</time>
      </trkpt>
      <trkpt lat="46.63549" lon="5.9148">
        <ele>837.40002441406</ele>
        <time>2019-06-17T10:48:07.000Z</time>
      </trkpt>
      <trkpt lat="46.63551" lon="5.91478">
        <ele>837.40002441406</ele>
        <time>2019-06-17T10:48:09.000Z</time>
      </trkpt>
      <trkpt lat="46.63553" lon="5.91478">
        <ele>837.59997558594</ele>
        <time>2019-06-17T10:48:12.000Z</time>
      </trkpt>
      <trkpt lat="46.63555" lon="5.91476">
        <ele>837.79998779297</ele>
        <time>2019-06-17T10:48:15.000Z</time>
      </trkpt>
      <trkpt lat="46.63562" lon="5.91466">
        <ele>837.40002441406</ele>
        <time>2019-06-17T10:48:21.000Z</time>
      </trkpt>
      <trkpt lat="46.63571" lon="5.91459">
        <ele>836.40002441406</ele>
        <time>2019-06-17T10:48:27.000Z</time>
      </trkpt>
      <trkpt lat="46.63573" lon="5.91456">
        <ele>836.20001220703</ele>
        <time>2019-06-17T10:48:29.000Z</time>
      </trkpt>
      <trkpt lat="46.63576" lon="5.91453">
        <ele>836</ele>
        <time>2019-06-17T10:48:33.000Z</time>
      </trkpt>
      <trkpt lat="46.63582" lon="5.91443">
        <ele>836.79998779297</ele>
        <time>2019-06-17T10:48:45.000Z</time>
      </trkpt>
      <trkpt lat="46.6359" lon="5.91435">
        <ele>837.79998779297</ele>
        <time>2019-06-17T10:48:52.000Z</time>
      </trkpt>
      <trkpt lat="46.63595" lon="5.91428">
        <ele>839.20001220703</ele>
        <time>2019-06-17T10:49:02.000Z</time>
      </trkpt>
      <trkpt lat="46.63596" lon="5.91426">
        <ele>839.79998779297</ele>
        <time>2019-06-17T10:49:06.000Z</time>
      </trkpt>
      <trkpt lat="46.63598" lon="5.91425">
        <ele>840</ele>
        <time>2019-06-17T10:49:08.000Z</time>
      </trkpt>
      <trkpt lat="46.636" lon="5.91427">
        <ele>840.20001220703</ele>
        <time>2019-06-17T10:49:10.000Z</time>
      </trkpt>
      <trkpt lat="46.63602" lon="5.91426">
        <ele>840.40002441406</ele>
        <time>2019-06-17T10:49:13.000Z</time>
      </trkpt>
      <trkpt lat="46.63604" lon="5.91428">
        <ele>840.59997558594</ele>
        <time>2019-06-17T10:49:16.000Z</time>
      </trkpt>
      <trkpt lat="46.63605" lon="5.9143">
        <ele>841</ele>
        <time>2019-06-17T10:49:22.000Z</time>
      </trkpt>
      <trkpt lat="46.63607" lon="5.91429">
        <ele>841</ele>
        <time>2019-06-17T10:49:25.000Z</time>
      </trkpt>
      <trkpt lat="46.6361" lon="5.91428">
        <ele>841.20001220703</ele>
        <time>2019-06-17T10:49:28.000Z</time>
      </trkpt>
      <trkpt lat="46.63612" lon="5.91427">
        <ele>841</ele>
        <time>2019-06-17T10:49:30.000Z</time>
      </trkpt>
      <trkpt lat="46.63619" lon="5.91425">
        <ele>841.40002441406</ele>
        <time>2019-06-17T10:49:37.000Z</time>
      </trkpt>
      <trkpt lat="46.63622" lon="5.91425">
        <ele>841.20001220703</ele>
        <time>2019-06-17T10:49:39.000Z</time>
      </trkpt>
      <trkpt lat="46.63625" lon="5.91426">
        <ele>841</ele>
        <time>2019-06-17T10:49:42.000Z</time>
      </trkpt>
      <trkpt lat="46.63628" lon="5.91426">
        <ele>840.59997558594</ele>
        <time>2019-06-17T10:49:44.000Z</time>
      </trkpt>
      <trkpt lat="46.6363" lon="5.91427">
        <ele>840.79998779297</ele>
        <time>2019-06-17T10:49:46.000Z</time>
      </trkpt>
      <trkpt lat="46.63638" lon="5.91435">
        <ele>840.40002441406</ele>
        <time>2019-06-17T10:49:54.000Z</time>
      </trkpt>
      <trkpt lat="46.63648" lon="5.91438">
        <ele>841.20001220703</ele>
        <time>2019-06-17T10:49:59.000Z</time>
      </trkpt>
      <trkpt lat="46.63656" lon="5.91432">
        <ele>841.59997558594</ele>
        <time>2019-06-17T10:50:06.000Z</time>
      </trkpt>
      <trkpt lat="46.63664" lon="5.91424">
        <ele>841.59997558594</ele>
        <time>2019-06-17T10:50:13.000Z</time>
      </trkpt>
      <trkpt lat="46.63672" lon="5.91417">
        <ele>841.59997558594</ele>
        <time>2019-06-17T10:50:19.000Z</time>
      </trkpt>
      <trkpt lat="46.63678" lon="5.91407">
        <ele>842.40002441406</ele>
        <time>2019-06-17T10:50:34.000Z</time>
      </trkpt>
      <trkpt lat="46.63687" lon="5.91404">
        <ele>842.59997558594</ele>
        <time>2019-06-17T10:50:41.000Z</time>
      </trkpt>
      <trkpt lat="46.63696" lon="5.91401">
        <ele>842.79998779297</ele>
        <time>2019-06-17T10:50:51.000Z</time>
      </trkpt>
      <trkpt lat="46.63707" lon="5.91397">
        <ele>842.79998779297</ele>
        <time>2019-06-17T10:51:01.000Z</time>
      </trkpt>
      <trkpt lat="46.63712" lon="5.91388">
        <ele>841.59997558594</ele>
        <time>2019-06-17T10:51:08.000Z</time>
      </trkpt>
      <trkpt lat="46.63715" lon="5.91375">
        <ele>840.40002441406</ele>
        <time>2019-06-17T10:51:16.000Z</time>
      </trkpt>
      <trkpt lat="46.63719" lon="5.91363">
        <ele>839.59997558594</ele>
        <time>2019-06-17T10:51:25.000Z</time>
      </trkpt>
      <trkpt lat="46.63725" lon="5.91352">
        <ele>838.59997558594</ele>
        <time>2019-06-17T10:51:33.000Z</time>
      </trkpt>
      <trkpt lat="46.63729" lon="5.91338">
        <ele>837.79998779297</ele>
        <time>2019-06-17T10:51:40.000Z</time>
      </trkpt>
      <trkpt lat="46.63733" lon="5.91326">
        <ele>837.20001220703</ele>
        <time>2019-06-17T10:51:49.000Z</time>
      </trkpt>
      <trkpt lat="46.6374" lon="5.91316">
        <ele>836.20001220703</ele>
        <time>2019-06-17T10:51:57.000Z</time>
      </trkpt>
      <trkpt lat="46.63747" lon="5.91307">
        <ele>835.40002441406</ele>
        <time>2019-06-17T10:52:05.000Z</time>
      </trkpt>
      <trkpt lat="46.63755" lon="5.91296">
        <ele>834.59997558594</ele>
        <time>2019-06-17T10:52:12.000Z</time>
      </trkpt>
      <trkpt lat="46.63759" lon="5.91284">
        <ele>833</ele>
        <time>2019-06-17T10:52:22.000Z</time>
      </trkpt>
      <trkpt lat="46.63769" lon="5.91277">
        <ele>831.20001220703</ele>
        <time>2019-06-17T10:52:32.000Z</time>
      </trkpt>
      <trkpt lat="46.63779" lon="5.91273">
        <ele>830.20001220703</ele>
        <time>2019-06-17T10:52:40.000Z</time>
      </trkpt>
      <trkpt lat="46.63788" lon="5.91275">
        <ele>830.59997558594</ele>
        <time>2019-06-17T10:52:46.000Z</time>
      </trkpt>
      <trkpt lat="46.63796" lon="5.91279">
        <ele>831.20001220703</ele>
        <time>2019-06-17T10:52:51.000Z</time>
      </trkpt>
      <trkpt lat="46.63807" lon="5.91279">
        <ele>831.59997558594</ele>
        <time>2019-06-17T10:52:59.000Z</time>
      </trkpt>
      <trkpt lat="46.63816" lon="5.91275">
        <ele>830.59997558594</ele>
        <time>2019-06-17T10:53:10.000Z</time>
      </trkpt>
      <trkpt lat="46.63825" lon="5.91274">
        <ele>829.59997558594</ele>
        <time>2019-06-17T10:53:17.000Z</time>
      </trkpt>
      <trkpt lat="46.63834" lon="5.91276">
        <ele>829</ele>
        <time>2019-06-17T10:53:26.000Z</time>
      </trkpt>
      <trkpt lat="46.63843" lon="5.91281">
        <ele>828.59997558594</ele>
        <time>2019-06-17T10:53:31.000Z</time>
      </trkpt>
      <trkpt lat="46.63852" lon="5.91284">
        <ele>828.59997558594</ele>
        <time>2019-06-17T10:53:38.000Z</time>
      </trkpt>
      <trkpt lat="46.63858" lon="5.91283">
        <ele>827.79998779297</ele>
        <time>2019-06-17T10:53:44.000Z</time>
      </trkpt>
      <trkpt lat="46.63863" lon="5.91289">
        <ele>827.40002441406</ele>
        <time>2019-06-17T10:53:53.000Z</time>
      </trkpt>
      <trkpt lat="46.63869" lon="5.91295">
        <ele>826.40002441406</ele>
        <time>2019-06-17T10:54:02.000Z</time>
      </trkpt>
      <trkpt lat="46.63859" lon="5.91293">
        <ele>826.20001220703</ele>
        <time>2019-06-17T10:54:06.000Z</time>
      </trkpt>
      <trkpt lat="46.6385" lon="5.91292">
        <ele>825.79998779297</ele>
        <time>2019-06-17T10:54:13.000Z</time>
      </trkpt>
      <trkpt lat="46.6384" lon="5.91293">
        <ele>826.79998779297</ele>
        <time>2019-06-17T10:54:20.000Z</time>
      </trkpt>
      <trkpt lat="46.63831" lon="5.91296">
        <ele>827</ele>
        <time>2019-06-17T10:54:27.000Z</time>
      </trkpt>
      <trkpt lat="46.63822" lon="5.91296">
        <ele>827.79998779297</ele>
        <time>2019-06-17T10:54:34.000Z</time>
      </trkpt>
      <trkpt lat="46.63819" lon="5.91297">
        <ele>828</ele>
        <time>2019-06-17T10:54:36.000Z</time>
      </trkpt>
      <trkpt lat="46.63817" lon="5.91297">
        <ele>828.20001220703</ele>
        <time>2019-06-17T10:54:38.000Z</time>
      </trkpt>
      <trkpt lat="46.63815" lon="5.91298">
        <ele>828.40002441406</ele>
        <time>2019-06-17T10:54:40.000Z</time>
      </trkpt>
      <trkpt lat="46.63812" lon="5.91298">
        <ele>828.59997558594</ele>
        <time>2019-06-17T10:54:42.000Z</time>
      </trkpt>
      <trkpt lat="46.6381" lon="5.91297">
        <ele>828.59997558594</ele>
        <time>2019-06-17T10:54:44.000Z</time>
      </trkpt>
      <trkpt lat="46.63807" lon="5.91297">
        <ele>828.59997558594</ele>
        <time>2019-06-17T10:54:46.000Z</time>
      </trkpt>
      <trkpt lat="46.63805" lon="5.91297">
        <ele>828.79998779297</ele>
        <time>2019-06-17T10:54:48.000Z</time>
      </trkpt>
      <trkpt lat="46.63803" lon="5.91296">
        <ele>829.40002441406</ele>
        <time>2019-06-17T10:54:50.000Z</time>
      </trkpt>
      <trkpt lat="46.638" lon="5.91296">
        <ele>829.40002441406</ele>
        <time>2019-06-17T10:54:52.000Z</time>
      </trkpt>
      <trkpt lat="46.63799" lon="5.91296">
        <ele>829.40002441406</ele>
        <time>2019-06-17T10:54:54.000Z</time>
      </trkpt>
      <trkpt lat="46.63797" lon="5.91296">
        <ele>829.59997558594</ele>
        <time>2019-06-17T10:54:56.000Z</time>
      </trkpt>
      <trkpt lat="46.63794" lon="5.91296">
        <ele>829.59997558594</ele>
        <time>2019-06-17T10:54:58.000Z</time>
      </trkpt>
      <trkpt lat="46.63793" lon="5.91294">
        <ele>829.79998779297</ele>
        <time>2019-06-17T10:55:00.000Z</time>
      </trkpt>
      <trkpt lat="46.6379" lon="5.91293">
        <ele>830.20001220703</ele>
        <time>2019-06-17T10:55:02.000Z</time>
      </trkpt>
      <trkpt lat="46.63788" lon="5.91292">
        <ele>830.40002441406</ele>
        <time>2019-06-17T10:55:04.000Z</time>
      </trkpt>
      <trkpt lat="46.63787" lon="5.91291">
        <ele>830.59997558594</ele>
        <time>2019-06-17T10:55:06.000Z</time>
      </trkpt>
      <trkpt lat="46.63784" lon="5.9129">
        <ele>831</ele>
        <time>2019-06-17T10:55:09.000Z</time>
      </trkpt>
      <trkpt lat="46.63782" lon="5.9129">
        <ele>831.40002441406</ele>
        <time>2019-06-17T10:55:11.000Z</time>
      </trkpt>
      <trkpt lat="46.6378" lon="5.9129">
        <ele>831.40002441406</ele>
        <time>2019-06-17T10:55:13.000Z</time>
      </trkpt>
      <trkpt lat="46.63778" lon="5.91291">
        <ele>831.59997558594</ele>
        <time>2019-06-17T10:55:16.000Z</time>
      </trkpt>
      <trkpt lat="46.63775" lon="5.91292">
        <ele>831.79998779297</ele>
        <time>2019-06-17T10:55:19.000Z</time>
      </trkpt>
      <trkpt lat="46.63772" lon="5.91292">
        <ele>832</ele>
        <time>2019-06-17T10:55:21.000Z</time>
      </trkpt>
      <trkpt lat="46.6377" lon="5.91291">
        <ele>832.20001220703</ele>
        <time>2019-06-17T10:55:23.000Z</time>
      </trkpt>
      <trkpt lat="46.63767" lon="5.9129">
        <ele>832.20001220703</ele>
        <time>2019-06-17T10:55:25.000Z</time>
      </trkpt>
      <trkpt lat="46.63765" lon="5.91291">
        <ele>832.40022464504</ele>
        <time>2019-06-17T10:55:29.000Z</time>
      </trkpt>
      <trkpt lat="46.63763" lon="5.91278">
        <ele>831</ele>
        <time>2019-06-17T10:55:42.000Z</time>
      </trkpt>
      <trkpt lat="46.63766" lon="5.91266">
        <ele>830.40002441406</ele>
        <time>2019-06-17T10:55:49.000Z</time>
      </trkpt>
      <trkpt lat="46.63771" lon="5.91253">
        <ele>829.20001220703</ele>
        <time>2019-06-17T10:55:58.000Z</time>
      </trkpt>
      <trkpt lat="46.6378" lon="5.91246">
        <ele>828.40002441406</ele>
        <time>2019-06-17T10:56:07.000Z</time>
      </trkpt>
      <trkpt lat="46.63789" lon="5.91244">
        <ele>829.40002441406</ele>
        <time>2019-06-17T10:56:16.000Z</time>
      </trkpt>
      <trkpt lat="46.63798" lon="5.91241">
        <ele>829.59997558594</ele>
        <time>2019-06-17T10:56:24.000Z</time>
      </trkpt>
      <trkpt lat="46.63806" lon="5.91235">
        <ele>829.20001220703</ele>
        <time>2019-06-17T10:56:34.000Z</time>
      </trkpt>
      <trkpt lat="46.63813" lon="5.91226">
        <ele>827.20001220703</ele>
        <time>2019-06-17T10:56:43.000Z</time>
      </trkpt>
      <trkpt lat="46.63822" lon="5.91229">
        <ele>825.79998779297</ele>
        <time>2019-06-17T10:56:51.000Z</time>
      </trkpt>
      <trkpt lat="46.63832" lon="5.91233">
        <ele>824.40002441406</ele>
        <time>2019-06-17T10:56:58.000Z</time>
      </trkpt>
      <trkpt lat="46.63839" lon="5.91239">
        <ele>823.00099603613</ele>
        <time>2019-06-17T10:57:10.000Z</time>
      </trkpt>
      <trkpt lat="46.63846" lon="5.91249">
        <ele>822.20001220703</ele>
        <time>2019-06-17T10:57:17.000Z</time>
      </trkpt>
      <trkpt lat="46.63855" lon="5.91245">
        <ele>819.40002441406</ele>
        <time>2019-06-17T10:57:36.000Z</time>
      </trkpt>
      <trkpt lat="46.63862" lon="5.91244">
        <ele>818</ele>
        <time>2019-06-17T10:57:47.000Z</time>
      </trkpt>
      <trkpt lat="46.63872" lon="5.9124">
        <ele>816.4004228809</ele>
        <time>2019-06-17T10:58:01.000Z</time>
      </trkpt>
      <trkpt lat="46.63879" lon="5.91232">
        <ele>814.40002441406</ele>
        <time>2019-06-17T10:58:11.000Z</time>
      </trkpt>
      <trkpt lat="46.63884" lon="5.9122">
        <ele>813</ele>
        <time>2019-06-17T10:58:24.000Z</time>
      </trkpt>
      <trkpt lat="46.6389" lon="5.91209">
        <ele>811.20001220703</ele>
        <time>2019-06-17T10:58:36.000Z</time>
      </trkpt>
      <trkpt lat="46.63895" lon="5.91197">
        <ele>808.40002441406</ele>
        <time>2019-06-17T10:58:51.000Z</time>
      </trkpt>
      <trkpt lat="46.63898" lon="5.91192">
        <ele>807.59997558594</ele>
        <time>2019-06-17T10:59:00.000Z</time>
      </trkpt>
      <trkpt lat="46.639" lon="5.9119">
        <ele>807.20001220703</ele>
        <time>2019-06-17T10:59:04.000Z</time>
      </trkpt>
      <trkpt lat="46.63905" lon="5.91179">
        <ele>806</ele>
        <time>2019-06-17T10:59:19.000Z</time>
      </trkpt>
      <trkpt lat="46.63905" lon="5.91165">
        <ele>805.79998779297</ele>
        <time>2019-06-17T10:59:34.000Z</time>
      </trkpt>
      <trkpt lat="46.63901" lon="5.91153">
        <ele>806</ele>
        <time>2019-06-17T10:59:44.000Z</time>
      </trkpt>
      <trkpt lat="46.63901" lon="5.91139">
        <ele>806.40002441406</ele>
        <time>2019-06-17T10:59:52.000Z</time>
      </trkpt>
      <trkpt lat="46.63901" lon="5.91126">
        <ele>808.59997558594</ele>
        <time>2019-06-17T11:00:05.000Z</time>
      </trkpt>
      <trkpt lat="46.63899" lon="5.91113">
        <ele>809.20001220703</ele>
        <time>2019-06-17T11:00:16.000Z</time>
      </trkpt>
      <trkpt lat="46.63897" lon="5.91099">
        <ele>809</ele>
        <time>2019-06-17T11:00:27.000Z</time>
      </trkpt>
      <trkpt lat="46.63896" lon="5.91085">
        <ele>808.79998779297</ele>
        <time>2019-06-17T11:00:37.000Z</time>
      </trkpt>
      <trkpt lat="46.63894" lon="5.91071">
        <ele>809.79998779297</ele>
        <time>2019-06-17T11:00:48.000Z</time>
      </trkpt>
      <trkpt lat="46.63893" lon="5.91058">
        <ele>810.79998779297</ele>
        <time>2019-06-17T11:00:54.000Z</time>
      </trkpt>
      <trkpt lat="46.63893" lon="5.91044">
        <ele>811.20001220703</ele>
        <time>2019-06-17T11:01:03.000Z</time>
      </trkpt>
      <trkpt lat="46.6389" lon="5.91031">
        <ele>811.79998779297</ele>
        <time>2019-06-17T11:01:14.000Z</time>
      </trkpt>
      <trkpt lat="46.63889" lon="5.91018">
        <ele>813</ele>
        <time>2019-06-17T11:01:24.000Z</time>
      </trkpt>
      <trkpt lat="46.63887" lon="5.91004">
        <ele>813.20001220703</ele>
        <time>2019-06-17T11:01:32.000Z</time>
      </trkpt>
      <trkpt lat="46.63887" lon="5.90991">
        <ele>813.20001220703</ele>
        <time>2019-06-17T11:01:39.000Z</time>
      </trkpt>
      <trkpt lat="46.63887" lon="5.90986">
        <ele>813.40002441406</ele>
        <time>2019-06-17T11:01:42.000Z</time>
      </trkpt>
      <trkpt lat="46.63887" lon="5.90983">
        <ele>813.40002441406</ele>
        <time>2019-06-17T11:01:44.000Z</time>
      </trkpt>
      <trkpt lat="46.63886" lon="5.9098">
        <ele>813.59997558594</ele>
        <time>2019-06-17T11:01:46.000Z</time>
      </trkpt>
      <trkpt lat="46.63887" lon="5.90977">
        <ele>814</ele>
        <time>2019-06-17T11:01:48.000Z</time>
      </trkpt>
      <trkpt lat="46.63885" lon="5.90974">
        <ele>814.59997558594</ele>
        <time>2019-06-17T11:01:51.000Z</time>
      </trkpt>
      <trkpt lat="46.63884" lon="5.90971">
        <ele>814.40002441406</ele>
        <time>2019-06-17T11:01:53.000Z</time>
      </trkpt>
      <trkpt lat="46.63884" lon="5.90968">
        <ele>814.20001220703</ele>
        <time>2019-06-17T11:01:55.000Z</time>
      </trkpt>
      <trkpt lat="46.63884" lon="5.90955">
        <ele>814.79998779297</ele>
        <time>2019-06-17T11:02:05.000Z</time>
      </trkpt>
      <trkpt lat="46.63882" lon="5.90941">
        <ele>814.40002441406</ele>
        <time>2019-06-17T11:02:13.000Z</time>
      </trkpt>
      <trkpt lat="46.6388" lon="5.90936">
        <ele>814.39962582559</ele>
        <time>2019-06-17T11:02:16.000Z</time>
      </trkpt>
      <trkpt lat="46.6388" lon="5.90927">
        <ele>814.40002441406</ele>
        <time>2019-06-17T11:02:22.000Z</time>
      </trkpt>
      <trkpt lat="46.63882" lon="5.90924">
        <ele>814.59997558594</ele>
        <time>2019-06-17T11:02:24.000Z</time>
      </trkpt>
      <trkpt lat="46.63882" lon="5.90921">
        <ele>814.59997558594</ele>
        <time>2019-06-17T11:02:26.000Z</time>
      </trkpt>
      <trkpt lat="46.63882" lon="5.90918">
        <ele>814.59997558594</ele>
        <time>2019-06-17T11:02:28.000Z</time>
      </trkpt>
      <trkpt lat="46.63882" lon="5.90914">
        <ele>814.59997558594</ele>
        <time>2019-06-17T11:02:30.000Z</time>
      </trkpt>
      <trkpt lat="46.63882" lon="5.9091">
        <ele>814.79998779297</ele>
        <time>2019-06-17T11:02:32.000Z</time>
      </trkpt>
      <trkpt lat="46.63882" lon="5.90908">
        <ele>814.79998779297</ele>
        <time>2019-06-17T11:02:34.000Z</time>
      </trkpt>
      <trkpt lat="46.6388" lon="5.90906">
        <ele>814.79998779297</ele>
        <time>2019-06-17T11:02:37.000Z</time>
      </trkpt>
      <trkpt lat="46.63879" lon="5.90903">
        <ele>815.20001220703</ele>
        <time>2019-06-17T11:02:39.000Z</time>
      </trkpt>
      <trkpt lat="46.63879" lon="5.909">
        <ele>814.59997558594</ele>
        <time>2019-06-17T11:02:43.000Z</time>
      </trkpt>
      <trkpt lat="46.63878" lon="5.90896">
        <ele>814.20001220703</ele>
        <time>2019-06-17T11:02:50.000Z</time>
      </trkpt>
      <trkpt lat="46.63878" lon="5.90893">
        <ele>814</ele>
        <time>2019-06-17T11:02:55.000Z</time>
      </trkpt>
      <trkpt lat="46.63879" lon="5.9089">
        <ele>813.40002441406</ele>
        <time>2019-06-17T11:02:59.000Z</time>
      </trkpt>
      <trkpt lat="46.6388" lon="5.90888">
        <ele>813.40002441406</ele>
        <time>2019-06-17T11:03:01.000Z</time>
      </trkpt>
      <trkpt lat="46.63881" lon="5.90885">
        <ele>813.79998779297</ele>
        <time>2019-06-17T11:03:03.000Z</time>
      </trkpt>
      <trkpt lat="46.63882" lon="5.90883">
        <ele>814</ele>
        <time>2019-06-17T11:03:05.000Z</time>
      </trkpt>
      <trkpt lat="46.63884" lon="5.90881">
        <ele>814.5995771191</ele>
        <time>2019-06-17T11:03:07.000Z</time>
      </trkpt>
      <trkpt lat="46.63889" lon="5.90868">
        <ele>814.40002441406</ele>
        <time>2019-06-17T11:03:16.000Z</time>
      </trkpt>
      <trkpt lat="46.6389" lon="5.90868">
        <ele>814</ele>
        <time>2019-06-17T11:03:19.000Z</time>
      </trkpt>
      <trkpt lat="46.63892" lon="5.90867">
        <ele>813.79998779297</ele>
        <time>2019-06-17T11:03:22.000Z</time>
      </trkpt>
      <trkpt lat="46.63901" lon="5.90861">
        <ele>813.59997558594</ele>
        <time>2019-06-17T11:03:30.000Z</time>
      </trkpt>
      <trkpt lat="46.6391" lon="5.90857">
        <ele>814</ele>
        <time>2019-06-17T11:03:38.000Z</time>
      </trkpt>
      <trkpt lat="46.63917" lon="5.90847">
        <ele>813.79998779297</ele>
        <time>2019-06-17T11:03:47.000Z</time>
      </trkpt>
      <trkpt lat="46.63925" lon="5.9084">
        <ele>813.79998779297</ele>
        <time>2019-06-17T11:03:58.000Z</time>
      </trkpt>
      <trkpt lat="46.63931" lon="5.90828">
        <ele>813.79998779297</ele>
        <time>2019-06-17T11:04:05.000Z</time>
      </trkpt>
      <trkpt lat="46.63938" lon="5.90819">
        <ele>813.79998779297</ele>
        <time>2019-06-17T11:04:09.000Z</time>
      </trkpt>
      <trkpt lat="46.63945" lon="5.90809">
        <ele>813.79998779297</ele>
        <time>2019-06-17T11:04:17.000Z</time>
      </trkpt>
      <trkpt lat="46.63952" lon="5.90801">
        <ele>813.79998779297</ele>
        <time>2019-06-17T11:04:24.000Z</time>
      </trkpt>
      <trkpt lat="46.63956" lon="5.9079">
        <ele>813.79998779297</ele>
        <time>2019-06-17T11:04:39.000Z</time>
      </trkpt>
      <trkpt lat="46.63957" lon="5.90788">
        <ele>813.79998779297</ele>
        <time>2019-06-17T11:04:42.000Z</time>
      </trkpt>
      <trkpt lat="46.6396" lon="5.90785">
        <ele>813.79998779297</ele>
        <time>2019-06-17T11:04:45.000Z</time>
      </trkpt>
      <trkpt lat="46.63964" lon="5.90782">
        <ele>813.79998779297</ele>
        <time>2019-06-17T11:04:50.000Z</time>
      </trkpt>
      <trkpt lat="46.63974" lon="5.9078">
        <ele>813.79998779297</ele>
        <time>2019-06-17T11:05:00.000Z</time>
      </trkpt>
      <trkpt lat="46.63984" lon="5.90777">
        <ele>813.79998779297</ele>
        <time>2019-06-17T11:05:08.000Z</time>
      </trkpt>
      <trkpt lat="46.63994" lon="5.90774">
        <ele>813.79998779297</ele>
        <time>2019-06-17T11:05:15.000Z</time>
      </trkpt>
      <trkpt lat="46.64003" lon="5.90772">
        <ele>813.79998779297</ele>
        <time>2019-06-17T11:05:22.000Z</time>
      </trkpt>
      <trkpt lat="46.64012" lon="5.90774">
        <ele>813.79998779297</ele>
        <time>2019-06-17T11:05:27.000Z</time>
      </trkpt>
      <trkpt lat="46.64021" lon="5.90773">
        <ele>813.79998779297</ele>
        <time>2019-06-17T11:05:35.000Z</time>
      </trkpt>
      <trkpt lat="46.64031" lon="5.90772">
        <ele>813.79998779297</ele>
        <time>2019-06-17T11:05:43.000Z</time>
      </trkpt>
      <trkpt lat="46.64034" lon="5.9077">
        <ele>813.79998779297</ele>
        <time>2019-06-17T11:05:46.000Z</time>
      </trkpt>
      <trkpt lat="46.64036" lon="5.90769">
        <ele>813.79998779297</ele>
        <time>2019-06-17T11:05:48.000Z</time>
      </trkpt>
      <trkpt lat="46.64038" lon="5.90767">
        <ele>813.79998779297</ele>
        <time>2019-06-17T11:05:50.000Z</time>
      </trkpt>
      <trkpt lat="46.6404" lon="5.90766">
        <ele>813.79998779297</ele>
        <time>2019-06-17T11:05:52.000Z</time>
      </trkpt>
      <trkpt lat="46.64042" lon="5.90767">
        <ele>813.79998779297</ele>
        <time>2019-06-17T11:05:54.000Z</time>
      </trkpt>
      <trkpt lat="46.64044" lon="5.90768">
        <ele>813.79998779297</ele>
        <time>2019-06-17T11:05:56.000Z</time>
      </trkpt>
      <trkpt lat="46.64054" lon="5.90767">
        <ele>813.79998779297</ele>
        <time>2019-06-17T11:06:02.000Z</time>
      </trkpt>
      <trkpt lat="46.64056" lon="5.90765">
        <ele>813.79998779297</ele>
        <time>2019-06-17T11:06:04.000Z</time>
      </trkpt>
      <trkpt lat="46.64057" lon="5.90763">
        <ele>813.79998779297</ele>
        <time>2019-06-17T11:06:06.000Z</time>
      </trkpt>
      <trkpt lat="46.64058" lon="5.90759">
        <ele>813.79998779297</ele>
        <time>2019-06-17T11:06:08.000Z</time>
      </trkpt>
      <trkpt lat="46.64058" lon="5.90756">
        <ele>813.79998779297</ele>
        <time>2019-06-17T11:06:10.000Z</time>
      </trkpt>
      <trkpt lat="46.64058" lon="5.90752">
        <ele>813.79998779297</ele>
        <time>2019-06-17T11:06:12.000Z</time>
      </trkpt>
      <trkpt lat="46.64058" lon="5.90749">
        <ele>813.79998779297</ele>
        <time>2019-06-17T11:06:14.000Z</time>
      </trkpt>
      <trkpt lat="46.64059" lon="5.90746">
        <ele>813.79998779297</ele>
        <time>2019-06-17T11:06:16.000Z</time>
      </trkpt>
      <trkpt lat="46.6406" lon="5.90743">
        <ele>813.79998779297</ele>
        <time>2019-06-17T11:06:18.000Z</time>
      </trkpt>
      <trkpt lat="46.64061" lon="5.9074">
        <ele>813.79998779297</ele>
        <time>2019-06-17T11:06:20.000Z</time>
      </trkpt>
      <trkpt lat="46.64062" lon="5.90736">
        <ele>813.79998779297</ele>
        <time>2019-06-17T11:06:22.000Z</time>
      </trkpt>
      <trkpt lat="46.64063" lon="5.90732">
        <ele>813.79998779297</ele>
        <time>2019-06-17T11:06:24.000Z</time>
      </trkpt>
      <trkpt lat="46.64065" lon="5.9073">
        <ele>813.79998779297</ele>
        <time>2019-06-17T11:06:27.000Z</time>
      </trkpt>
      <trkpt lat="46.64066" lon="5.90726">
        <ele>813.79998779297</ele>
        <time>2019-06-17T11:06:30.000Z</time>
      </trkpt>
      <trkpt lat="46.64066" lon="5.90723">
        <ele>813.79998779297</ele>
        <time>2019-06-17T11:06:32.000Z</time>
      </trkpt>
      <trkpt lat="46.64067" lon="5.90716">
        <ele>818</ele>
        <time>2019-06-17T11:06:36.000Z</time>
      </trkpt>
      <trkpt lat="46.64069" lon="5.90713">
        <ele>818.40002441406</ele>
        <time>2019-06-17T11:06:38.000Z</time>
      </trkpt>
      <trkpt lat="46.64071" lon="5.90707">
        <ele>819</ele>
        <time>2019-06-17T11:06:42.000Z</time>
      </trkpt>
      <trkpt lat="46.64072" lon="5.907">
        <ele>820.20001220703</ele>
        <time>2019-06-17T11:06:46.000Z</time>
      </trkpt>
      <trkpt lat="46.64072" lon="5.90697">
        <ele>820.59997558594</ele>
        <time>2019-06-17T11:06:48.000Z</time>
      </trkpt>
      <trkpt lat="46.64073" lon="5.90693">
        <ele>820.59997558594</ele>
        <time>2019-06-17T11:06:50.000Z</time>
      </trkpt>
      <trkpt lat="46.64074" lon="5.9068">
        <ele>822.40002441406</ele>
        <time>2019-06-17T11:06:57.000Z</time>
      </trkpt>
      <trkpt lat="46.64077" lon="5.90671">
        <ele>822.59997558594</ele>
        <time>2019-06-17T11:07:02.000Z</time>
      </trkpt>
      <trkpt lat="46.64077" lon="5.90668">
        <ele>822.79998779297</ele>
        <time>2019-06-17T11:07:04.000Z</time>
      </trkpt>
      <trkpt lat="46.64077" lon="5.90665">
        <ele>823.20001220703</ele>
        <time>2019-06-17T11:07:06.000Z</time>
      </trkpt>
      <trkpt lat="46.64077" lon="5.90658">
        <ele>823.59997558594</ele>
        <time>2019-06-17T11:07:09.000Z</time>
      </trkpt>
      <trkpt lat="46.64078" lon="5.90654">
        <ele>824</ele>
        <time>2019-06-17T11:07:11.000Z</time>
      </trkpt>
      <trkpt lat="46.64078" lon="5.9065">
        <ele>824.79998779297</ele>
        <time>2019-06-17T11:07:13.000Z</time>
      </trkpt>
      <trkpt lat="46.64079" lon="5.90647">
        <ele>824.79998779297</ele>
        <time>2019-06-17T11:07:15.000Z</time>
      </trkpt>
      <trkpt lat="46.64079" lon="5.90643">
        <ele>825.40002441406</ele>
        <time>2019-06-17T11:07:17.000Z</time>
      </trkpt>
      <trkpt lat="46.64079" lon="5.9064">
        <ele>825.79998779297</ele>
        <time>2019-06-17T11:07:19.000Z</time>
      </trkpt>
      <trkpt lat="46.64079" lon="5.90634">
        <ele>826</ele>
        <time>2019-06-17T11:07:22.000Z</time>
      </trkpt>
      <trkpt lat="46.6408" lon="5.9063">
        <ele>826.20001220703</ele>
        <time>2019-06-17T11:07:24.000Z</time>
      </trkpt>
      <trkpt lat="46.64079" lon="5.90626">
        <ele>826.40002441406</ele>
        <time>2019-06-17T11:07:26.000Z</time>
      </trkpt>
      <trkpt lat="46.64079" lon="5.90613">
        <ele>828</ele>
        <time>2019-06-17T11:07:33.000Z</time>
      </trkpt>
      <trkpt lat="46.64082" lon="5.906">
        <ele>828.40002441406</ele>
        <time>2019-06-17T11:07:40.000Z</time>
      </trkpt>
      <trkpt lat="46.64084" lon="5.90587">
        <ele>829.59997558594</ele>
        <time>2019-06-17T11:07:47.000Z</time>
      </trkpt>
      <trkpt lat="46.64085" lon="5.90581">
        <ele>829.79998779297</ele>
        <time>2019-06-17T11:07:50.000Z</time>
      </trkpt>
      <trkpt lat="46.64086" lon="5.90576">
        <ele>830.20001220703</ele>
        <time>2019-06-17T11:07:52.000Z</time>
      </trkpt>
      <trkpt lat="46.64086" lon="5.90573">
        <ele>830.40002441406</ele>
        <time>2019-06-17T11:07:54.000Z</time>
      </trkpt>
      <trkpt lat="46.64087" lon="5.90569">
        <ele>830.59997558594</ele>
        <time>2019-06-17T11:07:56.000Z</time>
      </trkpt>
      <trkpt lat="46.64088" lon="5.90566">
        <ele>831</ele>
        <time>2019-06-17T11:07:58.000Z</time>
      </trkpt>
      <trkpt lat="46.64088" lon="5.90563">
        <ele>831.20001220703</ele>
        <time>2019-06-17T11:08:00.000Z</time>
      </trkpt>
      <trkpt lat="46.64089" lon="5.90559">
        <ele>831.59997558594</ele>
        <time>2019-06-17T11:08:02.000Z</time>
      </trkpt>
      <trkpt lat="46.6409" lon="5.90556">
        <ele>831.40002441406</ele>
        <time>2019-06-17T11:08:04.000Z</time>
      </trkpt>
      <trkpt lat="46.6409" lon="5.90552">
        <ele>831.59997558594</ele>
        <time>2019-06-17T11:08:06.000Z</time>
      </trkpt>
      <trkpt lat="46.6409" lon="5.9055">
        <ele>831.79998779297</ele>
        <time>2019-06-17T11:08:08.000Z</time>
      </trkpt>
      <trkpt lat="46.64091" lon="5.90546">
        <ele>831.79998779297</ele>
        <time>2019-06-17T11:08:11.000Z</time>
      </trkpt>
      <trkpt lat="46.64092" lon="5.90543">
        <ele>831.59997558594</ele>
        <time>2019-06-17T11:08:13.000Z</time>
      </trkpt>
      <trkpt lat="46.64093" lon="5.9054">
        <ele>832.20001220703</ele>
        <time>2019-06-17T11:08:15.000Z</time>
      </trkpt>
      <trkpt lat="46.64093" lon="5.90537">
        <ele>832.20001220703</ele>
        <time>2019-06-17T11:08:17.000Z</time>
      </trkpt>
      <trkpt lat="46.64094" lon="5.90533">
        <ele>832.59997558594</ele>
        <time>2019-06-17T11:08:19.000Z</time>
      </trkpt>
      <trkpt lat="46.64093" lon="5.9053">
        <ele>832.79998779297</ele>
        <time>2019-06-17T11:08:21.000Z</time>
      </trkpt>
      <trkpt lat="46.64092" lon="5.90525">
        <ele>833</ele>
        <time>2019-06-17T11:08:23.000Z</time>
      </trkpt>
      <trkpt lat="46.64092" lon="5.90521">
        <ele>833.40002441406</ele>
        <time>2019-06-17T11:08:25.000Z</time>
      </trkpt>
      <trkpt lat="46.64095" lon="5.90507">
        <ele>833.79998779297</ele>
        <time>2019-06-17T11:08:35.000Z</time>
      </trkpt>
      <trkpt lat="46.64097" lon="5.90493">
        <ele>835</ele>
        <time>2019-06-17T11:08:42.000Z</time>
      </trkpt>
      <trkpt lat="46.64098" lon="5.9048">
        <ele>835.40002441406</ele>
        <time>2019-06-17T11:08:49.000Z</time>
      </trkpt>
      <trkpt lat="46.641" lon="5.90466">
        <ele>836.20001220703</ele>
        <time>2019-06-17T11:08:55.000Z</time>
      </trkpt>
      <trkpt lat="46.64103" lon="5.90454">
        <ele>836.59997558594</ele>
        <time>2019-06-17T11:08:59.000Z</time>
      </trkpt>
      <trkpt lat="46.64105" lon="5.90447">
        <ele>837.59997558594</ele>
        <time>2019-06-17T11:09:03.000Z</time>
      </trkpt>
      <trkpt lat="46.64107" lon="5.90432">
        <ele>838.79998779297</ele>
        <time>2019-06-17T11:09:11.000Z</time>
      </trkpt>
      <trkpt lat="46.6411" lon="5.90419">
        <ele>840.40002441406</ele>
        <time>2019-06-17T11:09:21.000Z</time>
      </trkpt>
      <trkpt lat="46.6411" lon="5.90406">
        <ele>841.79998779297</ele>
        <time>2019-06-17T11:09:28.000Z</time>
      </trkpt>
      <trkpt lat="46.6411" lon="5.90392">
        <ele>842.40002441406</ele>
        <time>2019-06-17T11:09:37.000Z</time>
      </trkpt>
      <trkpt lat="46.6411" lon="5.90379">
        <ele>843.20001220703</ele>
        <time>2019-06-17T11:09:44.000Z</time>
      </trkpt>
      <trkpt lat="46.64109" lon="5.90369">
        <ele>843.40002441406</ele>
        <time>2019-06-17T11:09:49.000Z</time>
      </trkpt>
      <trkpt lat="46.64108" lon="5.90366">
        <ele>843.79998779297</ele>
        <time>2019-06-17T11:09:51.000Z</time>
      </trkpt>
      <trkpt lat="46.64107" lon="5.90363">
        <ele>844.40002441406</ele>
        <time>2019-06-17T11:09:53.000Z</time>
      </trkpt>
      <trkpt lat="46.64106" lon="5.90359">
        <ele>844.60017507895</ele>
        <time>2019-06-17T11:09:55.000Z</time>
      </trkpt>
      <trkpt lat="46.64104" lon="5.90357">
        <ele>844.79998779297</ele>
        <time>2019-06-17T11:09:57.000Z</time>
      </trkpt>
      <trkpt lat="46.64104" lon="5.90353">
        <ele>845</ele>
        <time>2019-06-17T11:09:59.000Z</time>
      </trkpt>
      <trkpt lat="46.64104" lon="5.9035">
        <ele>845.20001220703</ele>
        <time>2019-06-17T11:10:01.000Z</time>
      </trkpt>
      <trkpt lat="46.64103" lon="5.90347">
        <ele>845.20001220703</ele>
        <time>2019-06-17T11:10:03.000Z</time>
      </trkpt>
      <trkpt lat="46.64103" lon="5.90344">
        <ele>845</ele>
        <time>2019-06-17T11:10:05.000Z</time>
      </trkpt>
      <trkpt lat="46.64103" lon="5.90341">
        <ele>845.20001220703</ele>
        <time>2019-06-17T11:10:07.000Z</time>
      </trkpt>
      <trkpt lat="46.64101" lon="5.90335">
        <ele>845.40002441406</ele>
        <time>2019-06-17T11:10:10.000Z</time>
      </trkpt>
      <trkpt lat="46.641" lon="5.90332">
        <ele>845.20001220703</ele>
        <time>2019-06-17T11:10:12.000Z</time>
      </trkpt>
      <trkpt lat="46.64099" lon="5.90329">
        <ele>845.20001220703</ele>
        <time>2019-06-17T11:10:14.000Z</time>
      </trkpt>
      <trkpt lat="46.64098" lon="5.90325">
        <ele>845</ele>
        <time>2019-06-17T11:10:16.000Z</time>
      </trkpt>
      <trkpt lat="46.64097" lon="5.90322">
        <ele>845</ele>
        <time>2019-06-17T11:10:18.000Z</time>
      </trkpt>
      <trkpt lat="46.64095" lon="5.90318">
        <ele>844.59997558594</ele>
        <time>2019-06-17T11:10:20.000Z</time>
      </trkpt>
      <trkpt lat="46.64094" lon="5.90315">
        <ele>844.40002441406</ele>
        <time>2019-06-17T11:10:22.000Z</time>
      </trkpt>
      <trkpt lat="46.64094" lon="5.90311">
        <ele>844.40002441406</ele>
        <time>2019-06-17T11:10:24.000Z</time>
      </trkpt>
      <trkpt lat="46.64093" lon="5.90307">
        <ele>844.40002441406</ele>
        <time>2019-06-17T11:10:26.000Z</time>
      </trkpt>
      <trkpt lat="46.64092" lon="5.90304">
        <ele>844.40002441406</ele>
        <time>2019-06-17T11:10:28.000Z</time>
      </trkpt>
      <trkpt lat="46.6409" lon="5.90294">
        <ele>844.40002441406</ele>
        <time>2019-06-17T11:10:33.000Z</time>
      </trkpt>
      <trkpt lat="46.6409" lon="5.9029">
        <ele>844</ele>
        <time>2019-06-17T11:10:35.000Z</time>
      </trkpt>
      <trkpt lat="46.64089" lon="5.90286">
        <ele>844</ele>
        <time>2019-06-17T11:10:37.000Z</time>
      </trkpt>
      <trkpt lat="46.64088" lon="5.90282">
        <ele>844</ele>
        <time>2019-06-17T11:10:39.000Z</time>
      </trkpt>
      <trkpt lat="46.64088" lon="5.90278">
        <ele>844.20001220703</ele>
        <time>2019-06-17T11:10:41.000Z</time>
      </trkpt>
      <trkpt lat="46.64087" lon="5.90275">
        <ele>844</ele>
        <time>2019-06-17T11:10:43.000Z</time>
      </trkpt>
      <trkpt lat="46.64087" lon="5.90271">
        <ele>843.79998779297</ele>
        <time>2019-06-17T11:10:45.000Z</time>
      </trkpt>
      <trkpt lat="46.64086" lon="5.90268">
        <ele>843.59997558594</ele>
        <time>2019-06-17T11:10:47.000Z</time>
      </trkpt>
      <trkpt lat="46.64086" lon="5.90264">
        <ele>843.59997558594</ele>
        <time>2019-06-17T11:10:49.000Z</time>
      </trkpt>
      <trkpt lat="46.64085" lon="5.90261">
        <ele>843.59997558594</ele>
        <time>2019-06-17T11:10:51.000Z</time>
      </trkpt>
      <trkpt lat="46.64084" lon="5.90258">
        <ele>843.59997558594</ele>
        <time>2019-06-17T11:10:53.000Z</time>
      </trkpt>
      <trkpt lat="46.64083" lon="5.90255">
        <ele>843.59997558594</ele>
        <time>2019-06-17T11:10:55.000Z</time>
      </trkpt>
      <trkpt lat="46.64082" lon="5.90252">
        <ele>844</ele>
        <time>2019-06-17T11:10:57.000Z</time>
      </trkpt>
      <trkpt lat="46.64081" lon="5.90248">
        <ele>844.20001220703</ele>
        <time>2019-06-17T11:10:59.000Z</time>
      </trkpt>
      <trkpt lat="46.6408" lon="5.90245">
        <ele>844.20001220703</ele>
        <time>2019-06-17T11:11:01.000Z</time>
      </trkpt>
      <trkpt lat="46.64079" lon="5.90241">
        <ele>844.20001220703</ele>
        <time>2019-06-17T11:11:03.000Z</time>
      </trkpt>
      <trkpt lat="46.64078" lon="5.90237">
        <ele>844.40002441406</ele>
        <time>2019-06-17T11:11:05.000Z</time>
      </trkpt>
      <trkpt lat="46.64078" lon="5.90234">
        <ele>844.79998779297</ele>
        <time>2019-06-17T11:11:07.000Z</time>
      </trkpt>
      <trkpt lat="46.64077" lon="5.9023">
        <ele>844.79998779297</ele>
        <time>2019-06-17T11:11:09.000Z</time>
      </trkpt>
      <trkpt lat="46.64075" lon="5.90227">
        <ele>845</ele>
        <time>2019-06-17T11:11:11.000Z</time>
      </trkpt>
      <trkpt lat="46.64074" lon="5.90225">
        <ele>845</ele>
        <time>2019-06-17T11:11:13.000Z</time>
      </trkpt>
      <trkpt lat="46.64074" lon="5.90222">
        <ele>845</ele>
        <time>2019-06-17T11:11:15.000Z</time>
      </trkpt>
      <trkpt lat="46.64072" lon="5.90219">
        <ele>845.59997558594</ele>
        <time>2019-06-17T11:11:17.000Z</time>
      </trkpt>
      <trkpt lat="46.64071" lon="5.90217">
        <ele>845.79998779297</ele>
        <time>2019-06-17T11:11:19.000Z</time>
      </trkpt>
      <trkpt lat="46.6407" lon="5.90213">
        <ele>845.79998779297</ele>
        <time>2019-06-17T11:11:21.000Z</time>
      </trkpt>
      <trkpt lat="46.64068" lon="5.9021">
        <ele>846.20001220703</ele>
        <time>2019-06-17T11:11:23.000Z</time>
      </trkpt>
      <trkpt lat="46.64067" lon="5.90207">
        <ele>846.40002441406</ele>
        <time>2019-06-17T11:11:25.000Z</time>
      </trkpt>
      <trkpt lat="46.64067" lon="5.90205">
        <ele>846.59997558594</ele>
        <time>2019-06-17T11:11:27.000Z</time>
      </trkpt>
      <trkpt lat="46.64066" lon="5.90202">
        <ele>846.79998779297</ele>
        <time>2019-06-17T11:11:29.000Z</time>
      </trkpt>
      <trkpt lat="46.64065" lon="5.90199">
        <ele>847</ele>
        <time>2019-06-17T11:11:31.000Z</time>
      </trkpt>
      <trkpt lat="46.64063" lon="5.90196">
        <ele>847.20001220703</ele>
        <time>2019-06-17T11:11:33.000Z</time>
      </trkpt>
      <trkpt lat="46.64061" lon="5.90193">
        <ele>847.40002441406</ele>
        <time>2019-06-17T11:11:35.000Z</time>
      </trkpt>
      <trkpt lat="46.64059" lon="5.9019">
        <ele>847.79978829996</ele>
        <time>2019-06-17T11:11:37.000Z</time>
      </trkpt>
      <trkpt lat="46.64058" lon="5.90187">
        <ele>848.20001220703</ele>
        <time>2019-06-17T11:11:39.000Z</time>
      </trkpt>
      <trkpt lat="46.64057" lon="5.90185">
        <ele>848.40002441406</ele>
        <time>2019-06-17T11:11:41.000Z</time>
      </trkpt>
      <trkpt lat="46.64055" lon="5.90182">
        <ele>848.59997558594</ele>
        <time>2019-06-17T11:11:43.000Z</time>
      </trkpt>
      <trkpt lat="46.64054" lon="5.90179">
        <ele>849</ele>
        <time>2019-06-17T11:11:45.000Z</time>
      </trkpt>
      <trkpt lat="46.64053" lon="5.90175">
        <ele>849</ele>
        <time>2019-06-17T11:11:47.000Z</time>
      </trkpt>
      <trkpt lat="46.64051" lon="5.90172">
        <ele>848.79998779297</ele>
        <time>2019-06-17T11:11:49.000Z</time>
      </trkpt>
      <trkpt lat="46.64049" lon="5.90169">
        <ele>848.79998779297</ele>
        <time>2019-06-17T11:11:51.000Z</time>
      </trkpt>
      <trkpt lat="46.64047" lon="5.90166">
        <ele>849.20001220703</ele>
        <time>2019-06-17T11:11:53.000Z</time>
      </trkpt>
      <trkpt lat="46.64045" lon="5.90163">
        <ele>849.59997558594</ele>
        <time>2019-06-17T11:11:55.000Z</time>
      </trkpt>
      <trkpt lat="46.64044" lon="5.90159">
        <ele>850.20001220703</ele>
        <time>2019-06-17T11:11:57.000Z</time>
      </trkpt>
      <trkpt lat="46.64042" lon="5.90156">
        <ele>850.59997558594</ele>
        <time>2019-06-17T11:11:59.000Z</time>
      </trkpt>
      <trkpt lat="46.64041" lon="5.90151">
        <ele>850.59997558594</ele>
        <time>2019-06-17T11:12:01.000Z</time>
      </trkpt>
      <trkpt lat="46.6404" lon="5.90148">
        <ele>851</ele>
        <time>2019-06-17T11:12:03.000Z</time>
      </trkpt>
      <trkpt lat="46.64039" lon="5.90144">
        <ele>851.40002441406</ele>
        <time>2019-06-17T11:12:05.000Z</time>
      </trkpt>
      <trkpt lat="46.64039" lon="5.90141">
        <ele>851.59997558594</ele>
        <time>2019-06-17T11:12:07.000Z</time>
      </trkpt>
      <trkpt lat="46.64038" lon="5.90138">
        <ele>851.59997558594</ele>
        <time>2019-06-17T11:12:09.000Z</time>
      </trkpt>
      <trkpt lat="46.64037" lon="5.90134">
        <ele>851.79998779297</ele>
        <time>2019-06-17T11:12:11.000Z</time>
      </trkpt>
      <trkpt lat="46.64035" lon="5.90131">
        <ele>852</ele>
        <time>2019-06-17T11:12:13.000Z</time>
      </trkpt>
      <trkpt lat="46.64034" lon="5.90129">
        <ele>852.40002441406</ele>
        <time>2019-06-17T11:12:15.000Z</time>
      </trkpt>
      <trkpt lat="46.64033" lon="5.90126">
        <ele>852.20001220703</ele>
        <time>2019-06-17T11:12:17.000Z</time>
      </trkpt>
      <trkpt lat="46.64032" lon="5.90123">
        <ele>852.20001220703</ele>
        <time>2019-06-17T11:12:19.000Z</time>
      </trkpt>
      <trkpt lat="46.64031" lon="5.90121">
        <ele>852.40002441406</ele>
        <time>2019-06-17T11:12:21.000Z</time>
      </trkpt>
      <trkpt lat="46.6403" lon="5.90119">
        <ele>852.79998779297</ele>
        <time>2019-06-17T11:12:23.000Z</time>
      </trkpt>
      <trkpt lat="46.64028" lon="5.90116">
        <ele>852.79998779297</ele>
        <time>2019-06-17T11:12:25.000Z</time>
      </trkpt>
      <trkpt lat="46.64027" lon="5.90114">
        <ele>852.79998779297</ele>
        <time>2019-06-17T11:12:27.000Z</time>
      </trkpt>
      <trkpt lat="46.64025" lon="5.90112">
        <ele>853</ele>
        <time>2019-06-17T11:12:29.000Z</time>
      </trkpt>
      <trkpt lat="46.64022" lon="5.90109">
        <ele>853.20001220703</ele>
        <time>2019-06-17T11:12:31.000Z</time>
      </trkpt>
      <trkpt lat="46.64021" lon="5.90107">
        <ele>853</ele>
        <time>2019-06-17T11:12:33.000Z</time>
      </trkpt>
      <trkpt lat="46.64019" lon="5.90105">
        <ele>852.79998779297</ele>
        <time>2019-06-17T11:12:35.000Z</time>
      </trkpt>
      <trkpt lat="46.64017" lon="5.90103">
        <ele>853.20001220703</ele>
        <time>2019-06-17T11:12:37.000Z</time>
      </trkpt>
      <trkpt lat="46.64015" lon="5.901">
        <ele>853.59997558594</ele>
        <time>2019-06-17T11:12:39.000Z</time>
      </trkpt>
      <trkpt lat="46.64014" lon="5.90097">
        <ele>853.40002441406</ele>
        <time>2019-06-17T11:12:41.000Z</time>
      </trkpt>
      <trkpt lat="46.64012" lon="5.90095">
        <ele>853.40002441406</ele>
        <time>2019-06-17T11:12:43.000Z</time>
      </trkpt>
      <trkpt lat="46.6401" lon="5.90092">
        <ele>853.59997558594</ele>
        <time>2019-06-17T11:12:45.000Z</time>
      </trkpt>
      <trkpt lat="46.64008" lon="5.9009">
        <ele>853.59997558594</ele>
        <time>2019-06-17T11:12:47.000Z</time>
      </trkpt>
      <trkpt lat="46.64006" lon="5.90089">
        <ele>853.79998779297</ele>
        <time>2019-06-17T11:12:49.000Z</time>
      </trkpt>
      <trkpt lat="46.64005" lon="5.90086">
        <ele>853.59997558594</ele>
        <time>2019-06-17T11:12:51.000Z</time>
      </trkpt>
      <trkpt lat="46.64002" lon="5.90084">
        <ele>853.40002441406</ele>
        <time>2019-06-17T11:12:53.000Z</time>
      </trkpt>
      <trkpt lat="46.64001" lon="5.90083">
        <ele>853.59997558594</ele>
        <time>2019-06-17T11:12:54.000Z</time>
      </trkpt>
      <trkpt lat="46.63999" lon="5.90081">
        <ele>854</ele>
        <time>2019-06-17T11:12:56.000Z</time>
      </trkpt>
      <trkpt lat="46.63996" lon="5.90078">
        <ele>853.79998779297</ele>
        <time>2019-06-17T11:12:58.000Z</time>
      </trkpt>
      <trkpt lat="46.63994" lon="5.90075">
        <ele>853.79998779297</ele>
        <time>2019-06-17T11:13:00.000Z</time>
      </trkpt>
      <trkpt lat="46.63992" lon="5.90073">
        <ele>853.59997558594</ele>
        <time>2019-06-17T11:13:02.000Z</time>
      </trkpt>
      <trkpt lat="46.6399" lon="5.90071">
        <ele>854</ele>
        <time>2019-06-17T11:13:04.000Z</time>
      </trkpt>
      <trkpt lat="46.63987" lon="5.90069">
        <ele>854</ele>
        <time>2019-06-17T11:13:06.000Z</time>
      </trkpt>
      <trkpt lat="46.63985" lon="5.90067">
        <ele>854.40002441406</ele>
        <time>2019-06-17T11:13:08.000Z</time>
      </trkpt>
      <trkpt lat="46.63984" lon="5.90064">
        <ele>854.40002441406</ele>
        <time>2019-06-17T11:13:10.000Z</time>
      </trkpt>
      <trkpt lat="46.63981" lon="5.90062">
        <ele>854.59997558594</ele>
        <time>2019-06-17T11:13:12.000Z</time>
      </trkpt>
      <trkpt lat="46.63979" lon="5.9006">
        <ele>854.79998779297</ele>
        <time>2019-06-17T11:13:14.000Z</time>
      </trkpt>
      <trkpt lat="46.63977" lon="5.90058">
        <ele>855</ele>
        <time>2019-06-17T11:13:16.000Z</time>
      </trkpt>
      <trkpt lat="46.63974" lon="5.90056">
        <ele>855.40002441406</ele>
        <time>2019-06-17T11:13:18.000Z</time>
      </trkpt>
      <trkpt lat="46.63972" lon="5.90055">
        <ele>855.59997558594</ele>
        <time>2019-06-17T11:13:20.000Z</time>
      </trkpt>
      <trkpt lat="46.6397" lon="5.90053">
        <ele>856.20001220703</ele>
        <time>2019-06-17T11:13:22.000Z</time>
      </trkpt>
      <trkpt lat="46.63968" lon="5.90052">
        <ele>856.20001220703</ele>
        <time>2019-06-17T11:13:24.000Z</time>
      </trkpt>
      <trkpt lat="46.63966" lon="5.9005">
        <ele>856.79998779297</ele>
        <time>2019-06-17T11:13:26.000Z</time>
      </trkpt>
      <trkpt lat="46.63964" lon="5.90048">
        <ele>856.20001220703</ele>
        <time>2019-06-17T11:13:28.000Z</time>
      </trkpt>
      <trkpt lat="46.63962" lon="5.90046">
        <ele>856.59997558594</ele>
        <time>2019-06-17T11:13:30.000Z</time>
      </trkpt>
      <trkpt lat="46.6396" lon="5.90044">
        <ele>857.20001220703</ele>
        <time>2019-06-17T11:13:33.000Z</time>
      </trkpt>
      <trkpt lat="46.63957" lon="5.90043">
        <ele>857.40002441406</ele>
        <time>2019-06-17T11:13:35.000Z</time>
      </trkpt>
      <trkpt lat="46.63955" lon="5.90042">
        <ele>857.59997558594</ele>
        <time>2019-06-17T11:13:37.000Z</time>
      </trkpt>
      <trkpt lat="46.63952" lon="5.90041">
        <ele>858</ele>
        <time>2019-06-17T11:13:39.000Z</time>
      </trkpt>
      <trkpt lat="46.6395" lon="5.9004">
        <ele>858.20001220703</ele>
        <time>2019-06-17T11:13:41.000Z</time>
      </trkpt>
      <trkpt lat="46.63948" lon="5.90039">
        <ele>857.79998779297</ele>
        <time>2019-06-17T11:13:43.000Z</time>
      </trkpt>
      <trkpt lat="46.63946" lon="5.90037">
        <ele>858.40002441406</ele>
        <time>2019-06-17T11:13:45.000Z</time>
      </trkpt>
      <trkpt lat="46.63944" lon="5.90036">
        <ele>858.79998779297</ele>
        <time>2019-06-17T11:13:47.000Z</time>
      </trkpt>
      <trkpt lat="46.63942" lon="5.90035">
        <ele>858.59997558594</ele>
        <time>2019-06-17T11:13:49.000Z</time>
      </trkpt>
      <trkpt lat="46.6394" lon="5.90033">
        <ele>858.59997558594</ele>
        <time>2019-06-17T11:13:51.000Z</time>
      </trkpt>
      <trkpt lat="46.63937" lon="5.90031">
        <ele>858.59997558594</ele>
        <time>2019-06-17T11:13:53.000Z</time>
      </trkpt>
      <trkpt lat="46.63935" lon="5.9003">
        <ele>858.79998779297</ele>
        <time>2019-06-17T11:13:55.000Z</time>
      </trkpt>
      <trkpt lat="46.63933" lon="5.90028">
        <ele>858.79998779297</ele>
        <time>2019-06-17T11:13:57.000Z</time>
      </trkpt>
      <trkpt lat="46.63931" lon="5.90028">
        <ele>858.79998779297</ele>
        <time>2019-06-17T11:13:59.000Z</time>
      </trkpt>
      <trkpt lat="46.63929" lon="5.90027">
        <ele>858.59997558594</ele>
        <time>2019-06-17T11:14:01.000Z</time>
      </trkpt>
      <trkpt lat="46.63927" lon="5.90026">
        <ele>858.59997558594</ele>
        <time>2019-06-17T11:14:03.000Z</time>
      </trkpt>
      <trkpt lat="46.63925" lon="5.90025">
        <ele>858.79998779297</ele>
        <time>2019-06-17T11:14:05.000Z</time>
      </trkpt>
      <trkpt lat="46.63922" lon="5.90025">
        <ele>858.79998779297</ele>
        <time>2019-06-17T11:14:07.000Z</time>
      </trkpt>
      <trkpt lat="46.6392" lon="5.90024">
        <ele>859</ele>
        <time>2019-06-17T11:14:09.000Z</time>
      </trkpt>
      <trkpt lat="46.63918" lon="5.90024">
        <ele>858.59997558594</ele>
        <time>2019-06-17T11:14:11.000Z</time>
      </trkpt>
      <trkpt lat="46.63916" lon="5.90023">
        <ele>858.59997558594</ele>
        <time>2019-06-17T11:14:13.000Z</time>
      </trkpt>
      <trkpt lat="46.63913" lon="5.90022">
        <ele>858.79998779297</ele>
        <time>2019-06-17T11:14:15.000Z</time>
      </trkpt>
      <trkpt lat="46.63911" lon="5.90021">
        <ele>858.59997558594</ele>
        <time>2019-06-17T11:14:17.000Z</time>
      </trkpt>
      <trkpt lat="46.63909" lon="5.9002">
        <ele>858.40002441406</ele>
        <time>2019-06-17T11:14:19.000Z</time>
      </trkpt>
      <trkpt lat="46.63907" lon="5.9002">
        <ele>858.59997558594</ele>
        <time>2019-06-17T11:14:21.000Z</time>
      </trkpt>
      <trkpt lat="46.63904" lon="5.90019">
        <ele>858.40002441406</ele>
        <time>2019-06-17T11:14:23.000Z</time>
      </trkpt>
      <trkpt lat="46.63902" lon="5.90019">
        <ele>858.20001220703</ele>
        <time>2019-06-17T11:14:25.000Z</time>
      </trkpt>
      <trkpt lat="46.639" lon="5.90019">
        <ele>858.40002441406</ele>
        <time>2019-06-17T11:14:27.000Z</time>
      </trkpt>
      <trkpt lat="46.63898" lon="5.90019">
        <ele>858.20001220703</ele>
        <time>2019-06-17T11:14:29.000Z</time>
      </trkpt>
      <trkpt lat="46.63895" lon="5.90019">
        <ele>858</ele>
        <time>2019-06-17T11:14:31.000Z</time>
      </trkpt>
      <trkpt lat="46.63893" lon="5.90019">
        <ele>858.20001220703</ele>
        <time>2019-06-17T11:14:33.000Z</time>
      </trkpt>
      <trkpt lat="46.63891" lon="5.90019">
        <ele>858.20001220703</ele>
        <time>2019-06-17T11:14:35.000Z</time>
      </trkpt>
      <trkpt lat="46.63889" lon="5.90019">
        <ele>858.20001220703</ele>
        <time>2019-06-17T11:14:37.000Z</time>
      </trkpt>
      <trkpt lat="46.63887" lon="5.90019">
        <ele>858</ele>
        <time>2019-06-17T11:14:39.000Z</time>
      </trkpt>
      <trkpt lat="46.63885" lon="5.90018">
        <ele>857.79998779297</ele>
        <time>2019-06-17T11:14:41.000Z</time>
      </trkpt>
      <trkpt lat="46.63882" lon="5.90018">
        <ele>857.79998779297</ele>
        <time>2019-06-17T11:14:44.000Z</time>
      </trkpt>
      <trkpt lat="46.6388" lon="5.90017">
        <ele>857.59997558594</ele>
        <time>2019-06-17T11:14:46.000Z</time>
      </trkpt>
      <trkpt lat="46.63878" lon="5.90015">
        <ele>857.40002441406</ele>
        <time>2019-06-17T11:14:48.000Z</time>
      </trkpt>
      <trkpt lat="46.63877" lon="5.90013">
        <ele>857.40002441406</ele>
        <time>2019-06-17T11:14:50.000Z</time>
      </trkpt>
      <trkpt lat="46.63875" lon="5.90011">
        <ele>857.20001220703</ele>
        <time>2019-06-17T11:14:52.000Z</time>
      </trkpt>
      <trkpt lat="46.63876" lon="5.90008">
        <ele>856.79998779297</ele>
        <time>2019-06-17T11:14:54.000Z</time>
      </trkpt>
      <trkpt lat="46.63878" lon="5.90008">
        <ele>856</ele>
        <time>2019-06-17T11:15:03.000Z</time>
      </trkpt>
      <trkpt lat="46.63875" lon="5.90009">
        <ele>856</ele>
        <time>2019-06-17T11:15:50.000Z</time>
      </trkpt>
      <trkpt lat="46.63873" lon="5.90008">
        <ele>855.79998779297</ele>
        <time>2019-06-17T11:15:52.000Z</time>
      </trkpt>
      <trkpt lat="46.63871" lon="5.90007">
        <ele>855.79998779297</ele>
        <time>2019-06-17T11:15:54.000Z</time>
      </trkpt>
      <trkpt lat="46.63868" lon="5.90007">
        <ele>855.59997558594</ele>
        <time>2019-06-17T11:15:56.000Z</time>
      </trkpt>
      <trkpt lat="46.63865" lon="5.90006">
        <ele>855</ele>
        <time>2019-06-17T11:15:58.000Z</time>
      </trkpt>
      <trkpt lat="46.63858" lon="5.90004">
        <ele>855</ele>
        <time>2019-06-17T11:16:02.000Z</time>
      </trkpt>
      <trkpt lat="46.63853" lon="5.90002">
        <ele>854.40002441406</ele>
        <time>2019-06-17T11:16:06.000Z</time>
      </trkpt>
      <trkpt lat="46.63851" lon="5.9">
        <ele>854.20001220703</ele>
        <time>2019-06-17T11:16:08.000Z</time>
      </trkpt>
      <trkpt lat="46.63848" lon="5.89999">
        <ele>854.20001220703</ele>
        <time>2019-06-17T11:16:11.000Z</time>
      </trkpt>
      <trkpt lat="46.63846" lon="5.89999">
        <ele>854.20001220703</ele>
        <time>2019-06-17T11:16:13.000Z</time>
      </trkpt>
      <trkpt lat="46.63844" lon="5.89998">
        <ele>853.79998779297</ele>
        <time>2019-06-17T11:16:15.000Z</time>
      </trkpt>
      <trkpt lat="46.63841" lon="5.89997">
        <ele>854</ele>
        <time>2019-06-17T11:16:18.000Z</time>
      </trkpt>
      <trkpt lat="46.63839" lon="5.89997">
        <ele>853.79998779297</ele>
        <time>2019-06-17T11:16:20.000Z</time>
      </trkpt>
      <trkpt lat="46.63837" lon="5.89995">
        <ele>853.59997558594</ele>
        <time>2019-06-17T11:16:22.000Z</time>
      </trkpt>
      <trkpt lat="46.63837" lon="5.89981">
        <ele>853</ele>
        <time>2019-06-17T11:16:33.000Z</time>
      </trkpt>
      <trkpt lat="46.63831" lon="5.89993">
        <ele>853.20001220703</ele>
        <time>2019-06-17T11:16:56.000Z</time>
      </trkpt>
      <trkpt lat="46.63822" lon="5.89992">
        <ele>853</ele>
        <time>2019-06-17T11:17:04.000Z</time>
      </trkpt>
      <trkpt lat="46.63813" lon="5.89989">
        <ele>853.20001220703</ele>
        <time>2019-06-17T11:17:11.000Z</time>
      </trkpt>
      <trkpt lat="46.63804" lon="5.89982">
        <ele>852.79998779297</ele>
        <time>2019-06-17T11:17:19.000Z</time>
      </trkpt>
      <trkpt lat="46.63795" lon="5.89975">
        <ele>852.59997558594</ele>
        <time>2019-06-17T11:17:25.000Z</time>
      </trkpt>
      <trkpt lat="46.63786" lon="5.89975">
        <ele>852.00019949301</ele>
        <time>2019-06-17T11:17:34.000Z</time>
      </trkpt>
      <trkpt lat="46.63777" lon="5.89972">
        <ele>851.59997558594</ele>
        <time>2019-06-17T11:17:40.000Z</time>
      </trkpt>
      <trkpt lat="46.63774" lon="5.89971">
        <ele>851.40002441406</ele>
        <time>2019-06-17T11:17:42.000Z</time>
      </trkpt>
      <trkpt lat="46.63767" lon="5.89968">
        <ele>851</ele>
        <time>2019-06-17T11:17:47.000Z</time>
      </trkpt>
      <trkpt lat="46.63765" lon="5.89968">
        <ele>850.59997558594</ele>
        <time>2019-06-17T11:17:49.000Z</time>
      </trkpt>
      <trkpt lat="46.63756" lon="5.89965">
        <ele>849.79998779297</ele>
        <time>2019-06-17T11:17:57.000Z</time>
      </trkpt>
      <trkpt lat="46.63753" lon="5.89964">
        <ele>850</ele>
        <time>2019-06-17T11:17:59.000Z</time>
      </trkpt>
      <trkpt lat="46.63747" lon="5.89953">
        <ele>849.40002441406</ele>
        <time>2019-06-17T11:18:08.000Z</time>
      </trkpt>
      <trkpt lat="46.63751" lon="5.89941">
        <ele>848.79998779297</ele>
        <time>2019-06-17T11:18:14.000Z</time>
      </trkpt>
      <trkpt lat="46.63752" lon="5.89927">
        <ele>848.20001220703</ele>
        <time>2019-06-17T11:18:21.000Z</time>
      </trkpt>
      <trkpt lat="46.63754" lon="5.89914">
        <ele>847.40002441406</ele>
        <time>2019-06-17T11:18:28.000Z</time>
      </trkpt>
      <trkpt lat="46.63754" lon="5.899">
        <ele>846.59997558594</ele>
        <time>2019-06-17T11:18:35.000Z</time>
      </trkpt>
      <trkpt lat="46.63757" lon="5.89886">
        <ele>846.79998779297</ele>
        <time>2019-06-17T11:18:41.000Z</time>
      </trkpt>
      <trkpt lat="46.63758" lon="5.89875">
        <ele>846.79998779297</ele>
        <time>2019-06-17T11:18:46.000Z</time>
      </trkpt>
      <trkpt lat="46.63759" lon="5.89861">
        <ele>847</ele>
        <time>2019-06-17T11:18:54.000Z</time>
      </trkpt>
      <trkpt lat="46.6376" lon="5.89858">
        <ele>847.20001220703</ele>
        <time>2019-06-17T11:18:56.000Z</time>
      </trkpt>
      <trkpt lat="46.6376" lon="5.89849">
        <ele>848</ele>
        <time>2019-06-17T11:19:01.000Z</time>
      </trkpt>
      <trkpt lat="46.6376" lon="5.89845">
        <ele>848.20001220703</ele>
        <time>2019-06-17T11:19:03.000Z</time>
      </trkpt>
      <trkpt lat="46.63761" lon="5.89832">
        <ele>849</ele>
        <time>2019-06-17T11:19:11.000Z</time>
      </trkpt>
      <trkpt lat="46.63758" lon="5.8982">
        <ele>849.59997558594</ele>
        <time>2019-06-17T11:19:18.000Z</time>
      </trkpt>
      <trkpt lat="46.63755" lon="5.89811">
        <ele>849.79998779297</ele>
        <time>2019-06-17T11:19:23.000Z</time>
      </trkpt>
      <trkpt lat="46.63749" lon="5.898">
        <ele>851</ele>
        <time>2019-06-17T11:19:33.000Z</time>
      </trkpt>
      <trkpt lat="46.63747" lon="5.89798">
        <ele>851</ele>
        <time>2019-06-17T11:19:35.000Z</time>
      </trkpt>
      <trkpt lat="46.63738" lon="5.89794">
        <ele>850.79998779297</ele>
        <time>2019-06-17T11:19:43.000Z</time>
      </trkpt>
      <trkpt lat="46.63728" lon="5.8979">
        <ele>850.40002441406</ele>
        <time>2019-06-17T11:19:51.000Z</time>
      </trkpt>
      <trkpt lat="46.63724" lon="5.89789">
        <ele>850</ele>
        <time>2019-06-17T11:19:56.000Z</time>
      </trkpt>
      <trkpt lat="46.63722" lon="5.89787">
        <ele>849.59997558594</ele>
        <time>2019-06-17T11:19:58.000Z</time>
      </trkpt>
      <trkpt lat="46.63714" lon="5.89777">
        <ele>848.59997558594</ele>
        <time>2019-06-17T11:20:06.000Z</time>
      </trkpt>
      <trkpt lat="46.63707" lon="5.89769">
        <ele>848.79998779297</ele>
        <time>2019-06-17T11:20:13.000Z</time>
      </trkpt>
      <trkpt lat="46.63702" lon="5.89757">
        <ele>848.20001220703</ele>
        <time>2019-06-17T11:20:21.000Z</time>
      </trkpt>
      <trkpt lat="46.63694" lon="5.89748">
        <ele>848.59997558594</ele>
        <time>2019-06-17T11:20:29.000Z</time>
      </trkpt>
      <trkpt lat="46.63692" lon="5.89746">
        <ele>848.59997558594</ele>
        <time>2019-06-17T11:20:33.000Z</time>
      </trkpt>
      <trkpt lat="46.63691" lon="5.89744">
        <ele>848.79998779297</ele>
        <time>2019-06-17T11:20:42.000Z</time>
      </trkpt>
      <trkpt lat="46.63689" lon="5.89744">
        <ele>848.79998779297</ele>
        <time>2019-06-17T11:20:45.000Z</time>
      </trkpt>
      <trkpt lat="46.63687" lon="5.89741">
        <ele>848.79998779297</ele>
        <time>2019-06-17T11:20:49.000Z</time>
      </trkpt>
      <trkpt lat="46.63684" lon="5.8974">
        <ele>848.79998779297</ele>
        <time>2019-06-17T11:20:51.000Z</time>
      </trkpt>
      <trkpt lat="46.63682" lon="5.8974">
        <ele>848.79998779297</ele>
        <time>2019-06-17T11:20:53.000Z</time>
      </trkpt>
      <trkpt lat="46.63679" lon="5.89739">
        <ele>848.79998779297</ele>
        <time>2019-06-17T11:20:55.000Z</time>
      </trkpt>
      <trkpt lat="46.63677" lon="5.89738">
        <ele>848.79998779297</ele>
        <time>2019-06-17T11:20:57.000Z</time>
      </trkpt>
      <trkpt lat="46.63674" lon="5.89737">
        <ele>848.79998779297</ele>
        <time>2019-06-17T11:20:59.000Z</time>
      </trkpt>
      <trkpt lat="46.63672" lon="5.89736">
        <ele>848.79998779297</ele>
        <time>2019-06-17T11:21:01.000Z</time>
      </trkpt>
      <trkpt lat="46.63669" lon="5.89735">
        <ele>848.79998779297</ele>
        <time>2019-06-17T11:21:03.000Z</time>
      </trkpt>
      <trkpt lat="46.63666" lon="5.89734">
        <ele>848.79998779297</ele>
        <time>2019-06-17T11:21:05.000Z</time>
      </trkpt>
      <trkpt lat="46.63664" lon="5.89734">
        <ele>848.79998779297</ele>
        <time>2019-06-17T11:21:07.000Z</time>
      </trkpt>
      <trkpt lat="46.63661" lon="5.89734">
        <ele>848.79998779297</ele>
        <time>2019-06-17T11:21:09.000Z</time>
      </trkpt>
      <trkpt lat="46.63659" lon="5.89732">
        <ele>848.79998779297</ele>
        <time>2019-06-17T11:21:11.000Z</time>
      </trkpt>
      <trkpt lat="46.63657" lon="5.8973">
        <ele>848.79998779297</ele>
        <time>2019-06-17T11:21:13.000Z</time>
      </trkpt>
      <trkpt lat="46.63655" lon="5.89729">
        <ele>848.79998779297</ele>
        <time>2019-06-17T11:21:15.000Z</time>
      </trkpt>
      <trkpt lat="46.63652" lon="5.89726">
        <ele>848.79998779297</ele>
        <time>2019-06-17T11:21:17.000Z</time>
      </trkpt>
      <trkpt lat="46.6365" lon="5.89725">
        <ele>848.79998779297</ele>
        <time>2019-06-17T11:21:19.000Z</time>
      </trkpt>
      <trkpt lat="46.63648" lon="5.89723">
        <ele>848.79998779297</ele>
        <time>2019-06-17T11:21:21.000Z</time>
      </trkpt>
      <trkpt lat="46.63646" lon="5.89722">
        <ele>848.79998779297</ele>
        <time>2019-06-17T11:21:23.000Z</time>
      </trkpt>
      <trkpt lat="46.63644" lon="5.8972">
        <ele>848.79998779297</ele>
        <time>2019-06-17T11:21:25.000Z</time>
      </trkpt>
      <trkpt lat="46.63642" lon="5.89719">
        <ele>848.79998779297</ele>
        <time>2019-06-17T11:21:27.000Z</time>
      </trkpt>
      <trkpt lat="46.6364" lon="5.89717">
        <ele>848.79998779297</ele>
        <time>2019-06-17T11:21:29.000Z</time>
      </trkpt>
      <trkpt lat="46.63638" lon="5.89715">
        <ele>848.79998779297</ele>
        <time>2019-06-17T11:21:31.000Z</time>
      </trkpt>
      <trkpt lat="46.63636" lon="5.89714">
        <ele>848.79998779297</ele>
        <time>2019-06-17T11:21:33.000Z</time>
      </trkpt>
      <trkpt lat="46.63634" lon="5.89713">
        <ele>848.79998779297</ele>
        <time>2019-06-17T11:21:35.000Z</time>
      </trkpt>
      <trkpt lat="46.63632" lon="5.89712">
        <ele>848.79998779297</ele>
        <time>2019-06-17T11:21:37.000Z</time>
      </trkpt>
      <trkpt lat="46.6363" lon="5.89711">
        <ele>848.79998779297</ele>
        <time>2019-06-17T11:21:39.000Z</time>
      </trkpt>
      <trkpt lat="46.63629" lon="5.8971">
        <ele>848.79998779297</ele>
        <time>2019-06-17T11:21:41.000Z</time>
      </trkpt>
      <trkpt lat="46.63626" lon="5.8971">
        <ele>848.79998779297</ele>
        <time>2019-06-17T11:21:43.000Z</time>
      </trkpt>
      <trkpt lat="46.63624" lon="5.89709">
        <ele>848.79998779297</ele>
        <time>2019-06-17T11:21:46.000Z</time>
      </trkpt>
      <trkpt lat="46.63622" lon="5.89708">
        <ele>848.79998779297</ele>
        <time>2019-06-17T11:21:48.000Z</time>
      </trkpt>
      <trkpt lat="46.63619" lon="5.89707">
        <ele>848.79998779297</ele>
        <time>2019-06-17T11:21:50.000Z</time>
      </trkpt>
      <trkpt lat="46.63609" lon="5.89708">
        <ele>848.79998779297</ele>
        <time>2019-06-17T11:21:59.000Z</time>
      </trkpt>
      <trkpt lat="46.636" lon="5.89708">
        <ele>848.79998779297</ele>
        <time>2019-06-17T11:22:06.000Z</time>
      </trkpt>
      <trkpt lat="46.6359" lon="5.89709">
        <ele>848.79998779297</ele>
        <time>2019-06-17T11:22:15.000Z</time>
      </trkpt>
      <trkpt lat="46.63588" lon="5.89708">
        <ele>848.79998779297</ele>
        <time>2019-06-17T11:22:17.000Z</time>
      </trkpt>
      <trkpt lat="46.63585" lon="5.89708">
        <ele>848.79998779297</ele>
        <time>2019-06-17T11:22:19.000Z</time>
      </trkpt>
      <trkpt lat="46.6358" lon="5.89708">
        <ele>848.79998779297</ele>
        <time>2019-06-17T11:22:22.000Z</time>
      </trkpt>
      <trkpt lat="46.63578" lon="5.89707">
        <ele>848.79998779297</ele>
        <time>2019-06-17T11:22:24.000Z</time>
      </trkpt>
      <trkpt lat="46.63575" lon="5.89706">
        <ele>848.79998779297</ele>
        <time>2019-06-17T11:22:26.000Z</time>
      </trkpt>
      <trkpt lat="46.63571" lon="5.89705">
        <ele>848.79998779297</ele>
        <time>2019-06-17T11:22:29.000Z</time>
      </trkpt>
      <trkpt lat="46.63568" lon="5.89705">
        <ele>846.79998779297</ele>
        <time>2019-06-17T11:22:31.000Z</time>
      </trkpt>
      <trkpt lat="46.63565" lon="5.89705">
        <ele>846.59997558594</ele>
        <time>2019-06-17T11:22:33.000Z</time>
      </trkpt>
      <trkpt lat="46.63562" lon="5.89705">
        <ele>846.40002441406</ele>
        <time>2019-06-17T11:22:35.000Z</time>
      </trkpt>
      <trkpt lat="46.63559" lon="5.89705">
        <ele>846.40002441406</ele>
        <time>2019-06-17T11:22:38.000Z</time>
      </trkpt>
      <trkpt lat="46.6355" lon="5.89706">
        <ele>846.20001220703</ele>
        <time>2019-06-17T11:22:47.000Z</time>
      </trkpt>
      <trkpt lat="46.6354" lon="5.89706">
        <ele>845.59997558594</ele>
        <time>2019-06-17T11:22:54.000Z</time>
      </trkpt>
      <trkpt lat="46.63537" lon="5.89705">
        <ele>845.20001220703</ele>
        <time>2019-06-17T11:22:56.000Z</time>
      </trkpt>
      <trkpt lat="46.63534" lon="5.89703">
        <ele>845</ele>
        <time>2019-06-17T11:22:58.000Z</time>
      </trkpt>
      <trkpt lat="46.63532" lon="5.89703">
        <ele>844.59997558594</ele>
        <time>2019-06-17T11:23:00.000Z</time>
      </trkpt>
      <trkpt lat="46.63522" lon="5.89706">
        <ele>844</ele>
        <time>2019-06-17T11:23:08.000Z</time>
      </trkpt>
      <trkpt lat="46.63516" lon="5.89708">
        <ele>843.59997558594</ele>
        <time>2019-06-17T11:23:12.000Z</time>
      </trkpt>
      <trkpt lat="46.63513" lon="5.89709">
        <ele>843.79998779297</ele>
        <time>2019-06-17T11:23:14.000Z</time>
      </trkpt>
      <trkpt lat="46.6351" lon="5.89709">
        <ele>843.40002441406</ele>
        <time>2019-06-17T11:23:16.000Z</time>
      </trkpt>
      <trkpt lat="46.63508" lon="5.8971">
        <ele>843.40002441406</ele>
        <time>2019-06-17T11:23:18.000Z</time>
      </trkpt>
      <trkpt lat="46.63506" lon="5.89712">
        <ele>843.20001220703</ele>
        <time>2019-06-17T11:23:21.000Z</time>
      </trkpt>
      <trkpt lat="46.63503" lon="5.89713">
        <ele>843.20001220703</ele>
        <time>2019-06-17T11:23:24.000Z</time>
      </trkpt>
      <trkpt lat="46.63501" lon="5.89714">
        <ele>843.20001220703</ele>
        <time>2019-06-17T11:23:27.000Z</time>
      </trkpt>
      <trkpt lat="46.63491" lon="5.89719">
        <ele>842.20001220703</ele>
        <time>2019-06-17T11:23:37.000Z</time>
      </trkpt>
      <trkpt lat="46.63481" lon="5.89721">
        <ele>840.59997558594</ele>
        <time>2019-06-17T11:23:44.000Z</time>
      </trkpt>
      <trkpt lat="46.63471" lon="5.89724">
        <ele>840</ele>
        <time>2019-06-17T11:23:52.000Z</time>
      </trkpt>
      <trkpt lat="46.63461" lon="5.89727">
        <ele>840</ele>
        <time>2019-06-17T11:24:00.000Z</time>
      </trkpt>
      <trkpt lat="46.63459" lon="5.89722">
        <ele>838.79998779297</ele>
        <time>2019-06-17T11:24:08.000Z</time>
      </trkpt>
      <trkpt lat="46.63457" lon="5.89722">
        <ele>839</ele>
        <time>2019-06-17T11:24:10.000Z</time>
      </trkpt>
      <trkpt lat="46.63455" lon="5.89722">
        <ele>838.59997558594</ele>
        <time>2019-06-17T11:24:12.000Z</time>
      </trkpt>
      <trkpt lat="46.63452" lon="5.8972">
        <ele>838.59997558594</ele>
        <time>2019-06-17T11:24:14.000Z</time>
      </trkpt>
      <trkpt lat="46.6345" lon="5.89719">
        <ele>838.20001220703</ele>
        <time>2019-06-17T11:24:16.000Z</time>
      </trkpt>
      <trkpt lat="46.63448" lon="5.89718">
        <ele>838.20001220703</ele>
        <time>2019-06-17T11:24:18.000Z</time>
      </trkpt>
      <trkpt lat="46.63445" lon="5.89716">
        <ele>838.20001220703</ele>
        <time>2019-06-17T11:24:20.000Z</time>
      </trkpt>
      <trkpt lat="46.63443" lon="5.89713">
        <ele>838.40002441406</ele>
        <time>2019-06-17T11:24:22.000Z</time>
      </trkpt>
      <trkpt lat="46.63441" lon="5.89712">
        <ele>838.20001220703</ele>
        <time>2019-06-17T11:24:24.000Z</time>
      </trkpt>
      <trkpt lat="46.63438" lon="5.89709">
        <ele>838.20001220703</ele>
        <time>2019-06-17T11:24:26.000Z</time>
      </trkpt>
      <trkpt lat="46.63437" lon="5.89707">
        <ele>838.40002441406</ele>
        <time>2019-06-17T11:24:28.000Z</time>
      </trkpt>
      <trkpt lat="46.63434" lon="5.89704">
        <ele>838.20001220703</ele>
        <time>2019-06-17T11:24:30.000Z</time>
      </trkpt>
      <trkpt lat="46.63427" lon="5.89694">
        <ele>838.59997558594</ele>
        <time>2019-06-17T11:24:38.000Z</time>
      </trkpt>
      <trkpt lat="46.63423" lon="5.89686">
        <ele>838.79998779297</ele>
        <time>2019-06-17T11:24:45.000Z</time>
      </trkpt>
      <trkpt lat="46.63416" lon="5.89676">
        <ele>838.40002441406</ele>
        <time>2019-06-17T11:24:52.000Z</time>
      </trkpt>
      <trkpt lat="46.6341" lon="5.89666">
        <ele>837.79998779297</ele>
        <time>2019-06-17T11:24:59.000Z</time>
      </trkpt>
      <trkpt lat="46.63406" lon="5.89653">
        <ele>837.59997558594</ele>
        <time>2019-06-17T11:25:07.000Z</time>
      </trkpt>
      <trkpt lat="46.63402" lon="5.89642">
        <ele>837</ele>
        <time>2019-06-17T11:25:14.000Z</time>
      </trkpt>
      <trkpt lat="46.63398" lon="5.89629">
        <ele>836.59997558594</ele>
        <time>2019-06-17T11:25:23.000Z</time>
      </trkpt>
      <trkpt lat="46.63397" lon="5.89614">
        <ele>836</ele>
        <time>2019-06-17T11:25:32.000Z</time>
      </trkpt>
      <trkpt lat="46.63399" lon="5.89601">
        <ele>836.20001220703</ele>
        <time>2019-06-17T11:25:40.000Z</time>
      </trkpt>
      <trkpt lat="46.63398" lon="5.89587">
        <ele>834.79998779297</ele>
        <time>2019-06-17T11:25:47.000Z</time>
      </trkpt>
      <trkpt lat="46.63398" lon="5.89574">
        <ele>835.79998779297</ele>
        <time>2019-06-17T11:25:53.000Z</time>
      </trkpt>
      <trkpt lat="46.63399" lon="5.89561">
        <ele>834.59997558594</ele>
        <time>2019-06-17T11:25:58.000Z</time>
      </trkpt>
      <trkpt lat="46.63401" lon="5.89546">
        <ele>834.20001220703</ele>
        <time>2019-06-17T11:26:06.000Z</time>
      </trkpt>
      <trkpt lat="46.63403" lon="5.89532">
        <ele>833.40002441406</ele>
        <time>2019-06-17T11:26:14.000Z</time>
      </trkpt>
      <trkpt lat="46.63404" lon="5.89518">
        <ele>832.40002441406</ele>
        <time>2019-06-17T11:26:22.000Z</time>
      </trkpt>
      <trkpt lat="46.63405" lon="5.89504">
        <ele>831.79998779297</ele>
        <time>2019-06-17T11:26:29.000Z</time>
      </trkpt>
      <trkpt lat="46.63403" lon="5.89491">
        <ele>831.20001220703</ele>
        <time>2019-06-17T11:26:37.000Z</time>
      </trkpt>
      <trkpt lat="46.63401" lon="5.89477">
        <ele>831</ele>
        <time>2019-06-17T11:26:45.000Z</time>
      </trkpt>
      <trkpt lat="46.63395" lon="5.89465">
        <ele>830</ele>
        <time>2019-06-17T11:26:54.000Z</time>
      </trkpt>
      <trkpt lat="46.6339" lon="5.89452">
        <ele>830</ele>
        <time>2019-06-17T11:27:01.000Z</time>
      </trkpt>
      <trkpt lat="46.63386" lon="5.8944">
        <ele>829.59997558594</ele>
        <time>2019-06-17T11:27:07.000Z</time>
      </trkpt>
      <trkpt lat="46.63383" lon="5.89427">
        <ele>830</ele>
        <time>2019-06-17T11:27:15.000Z</time>
      </trkpt>
      <trkpt lat="46.63377" lon="5.89414">
        <ele>829.20001220703</ele>
        <time>2019-06-17T11:27:22.000Z</time>
      </trkpt>
      <trkpt lat="46.63374" lon="5.894">
        <ele>829.40002441406</ele>
        <time>2019-06-17T11:27:29.000Z</time>
      </trkpt>
      <trkpt lat="46.63372" lon="5.89387">
        <ele>829.20001220703</ele>
        <time>2019-06-17T11:27:37.000Z</time>
      </trkpt>
      <trkpt lat="46.63368" lon="5.89374">
        <ele>829.40002441406</ele>
        <time>2019-06-17T11:27:45.000Z</time>
      </trkpt>
      <trkpt lat="46.63365" lon="5.89363">
        <ele>829.40002441406</ele>
        <time>2019-06-17T11:27:50.000Z</time>
      </trkpt>
      <trkpt lat="46.63363" lon="5.89359">
        <ele>829.59997558594</ele>
        <time>2019-06-17T11:27:53.000Z</time>
      </trkpt>
      <trkpt lat="46.63357" lon="5.89351">
        <ele>830.20001220703</ele>
        <time>2019-06-17T11:28:03.000Z</time>
      </trkpt>
      <trkpt lat="46.63357" lon="5.89349">
        <ele>831.40002441406</ele>
        <time>2019-06-17T11:28:56.000Z</time>
      </trkpt>
      <trkpt lat="46.63355" lon="5.89347">
        <ele>831.59997558594</ele>
        <time>2019-06-17T11:29:29.000Z</time>
      </trkpt>
      <trkpt lat="46.63356" lon="5.8935">
        <ele>831.59997558594</ele>
        <time>2019-06-17T11:29:33.000Z</time>
      </trkpt>
      <trkpt lat="46.63357" lon="5.89352">
        <ele>831.59997558594</ele>
        <time>2019-06-17T11:29:51.000Z</time>
      </trkpt>
      <trkpt lat="46.63358" lon="5.8935">
        <ele>831.59997558594</ele>
        <time>2019-06-17T11:30:07.000Z</time>
      </trkpt>
      <trkpt lat="46.6336" lon="5.89349">
        <ele>831.59997558594</ele>
        <time>2019-06-17T11:30:12.000Z</time>
      </trkpt>
      <trkpt lat="46.6336" lon="5.89346">
        <ele>831.59997558594</ele>
        <time>2019-06-17T11:30:15.000Z</time>
      </trkpt>
      <trkpt lat="46.63358" lon="5.89343">
        <ele>831.59997558594</ele>
        <time>2019-06-17T11:30:17.000Z</time>
      </trkpt>
      <trkpt lat="46.63356" lon="5.89341">
        <ele>831.59997558594</ele>
        <time>2019-06-17T11:30:19.000Z</time>
      </trkpt>
      <trkpt lat="46.63355" lon="5.89339">
        <ele>831.59997558594</ele>
        <time>2019-06-17T11:30:21.000Z</time>
      </trkpt>
      <trkpt lat="46.63353" lon="5.89337">
        <ele>831.59997558594</ele>
        <time>2019-06-17T11:30:23.000Z</time>
      </trkpt>
      <trkpt lat="46.63351" lon="5.89334">
        <ele>831.59997558594</ele>
        <time>2019-06-17T11:30:25.000Z</time>
      </trkpt>
      <trkpt lat="46.6335" lon="5.89332">
        <ele>831.59997558594</ele>
        <time>2019-06-17T11:30:27.000Z</time>
      </trkpt>
      <trkpt lat="46.63349" lon="5.89329">
        <ele>831.59997558594</ele>
        <time>2019-06-17T11:30:31.000Z</time>
      </trkpt>
      <trkpt lat="46.63349" lon="5.89325">
        <ele>831.59997558594</ele>
        <time>2019-06-17T11:30:34.000Z</time>
      </trkpt>
      <trkpt lat="46.63351" lon="5.89321">
        <ele>831.59997558594</ele>
        <time>2019-06-17T11:30:36.000Z</time>
      </trkpt>
      <trkpt lat="46.63352" lon="5.89319">
        <ele>831.59997558594</ele>
        <time>2019-06-17T11:30:37.000Z</time>
      </trkpt>
      <trkpt lat="46.63354" lon="5.89316">
        <ele>831.59997558594</ele>
        <time>2019-06-17T11:30:39.000Z</time>
      </trkpt>
      <trkpt lat="46.63358" lon="5.89308">
        <ele>831.59997558594</ele>
        <time>2019-06-17T11:30:42.000Z</time>
      </trkpt>
      <trkpt lat="46.63363" lon="5.89297">
        <ele>831.59997558594</ele>
        <time>2019-06-17T11:30:49.000Z</time>
      </trkpt>
      <trkpt lat="46.63371" lon="5.89286">
        <ele>831.59997558594</ele>
        <time>2019-06-17T11:30:56.000Z</time>
      </trkpt>
      <trkpt lat="46.63372" lon="5.89284">
        <ele>831.59997558594</ele>
        <time>2019-06-17T11:30:58.000Z</time>
      </trkpt>
      <trkpt lat="46.63374" lon="5.89282">
        <ele>831.59997558594</ele>
        <time>2019-06-17T11:31:00.000Z</time>
      </trkpt>
      <trkpt lat="46.63376" lon="5.89279">
        <ele>831.59997558594</ele>
        <time>2019-06-17T11:31:02.000Z</time>
      </trkpt>
      <trkpt lat="46.63379" lon="5.89278">
        <ele>831.59997558594</ele>
        <time>2019-06-17T11:31:04.000Z</time>
      </trkpt>
      <trkpt lat="46.6338" lon="5.89276">
        <ele>831.59997558594</ele>
        <time>2019-06-17T11:31:06.000Z</time>
      </trkpt>
      <trkpt lat="46.63382" lon="5.89275">
        <ele>831.59997558594</ele>
        <time>2019-06-17T11:31:13.000Z</time>
      </trkpt>
      <trkpt lat="46.63384" lon="5.89273">
        <ele>831.59997558594</ele>
        <time>2019-06-17T11:31:15.000Z</time>
      </trkpt>
      <trkpt lat="46.63386" lon="5.89271">
        <ele>831.59997558594</ele>
        <time>2019-06-17T11:31:18.000Z</time>
      </trkpt>
      <trkpt lat="46.63388" lon="5.89269">
        <ele>831.59997558594</ele>
        <time>2019-06-17T11:31:21.000Z</time>
      </trkpt>
      <trkpt lat="46.63389" lon="5.89267">
        <ele>831.59997558594</ele>
        <time>2019-06-17T11:31:23.000Z</time>
      </trkpt>
      <trkpt lat="46.63391" lon="5.89266">
        <ele>831.59997558594</ele>
        <time>2019-06-17T11:31:25.000Z</time>
      </trkpt>
      <trkpt lat="46.63392" lon="5.89263">
        <ele>831.59997558594</ele>
        <time>2019-06-17T11:31:27.000Z</time>
      </trkpt>
      <trkpt lat="46.63394" lon="5.89261">
        <ele>831.59997558594</ele>
        <time>2019-06-17T11:31:29.000Z</time>
      </trkpt>
      <trkpt lat="46.63395" lon="5.89259">
        <ele>831.59997558594</ele>
        <time>2019-06-17T11:31:31.000Z</time>
      </trkpt>
      <trkpt lat="46.63397" lon="5.89257">
        <ele>833.20001220703</ele>
        <time>2019-06-17T11:31:33.000Z</time>
      </trkpt>
      <trkpt lat="46.63399" lon="5.89254">
        <ele>833.20001220703</ele>
        <time>2019-06-17T11:31:35.000Z</time>
      </trkpt>
      <trkpt lat="46.634" lon="5.89251">
        <ele>832.59997558594</ele>
        <time>2019-06-17T11:31:37.000Z</time>
      </trkpt>
      <trkpt lat="46.63402" lon="5.89248">
        <ele>832.40002441406</ele>
        <time>2019-06-17T11:31:39.000Z</time>
      </trkpt>
      <trkpt lat="46.63404" lon="5.89245">
        <ele>832.59997558594</ele>
        <time>2019-06-17T11:31:41.000Z</time>
      </trkpt>
      <trkpt lat="46.63406" lon="5.89242">
        <ele>832.59997558594</ele>
        <time>2019-06-17T11:31:43.000Z</time>
      </trkpt>
      <trkpt lat="46.63407" lon="5.8924">
        <ele>832.20001220703</ele>
        <time>2019-06-17T11:31:45.000Z</time>
      </trkpt>
      <trkpt lat="46.63409" lon="5.89237">
        <ele>832.79998779297</ele>
        <time>2019-06-17T11:31:47.000Z</time>
      </trkpt>
      <trkpt lat="46.6341" lon="5.89234">
        <ele>832.40002441406</ele>
        <time>2019-06-17T11:31:49.000Z</time>
      </trkpt>
      <trkpt lat="46.63411" lon="5.89232">
        <ele>832.59997558594</ele>
        <time>2019-06-17T11:31:51.000Z</time>
      </trkpt>
      <trkpt lat="46.63413" lon="5.89229">
        <ele>832.59997558594</ele>
        <time>2019-06-17T11:31:53.000Z</time>
      </trkpt>
      <trkpt lat="46.63414" lon="5.89226">
        <ele>832.40002441406</ele>
        <time>2019-06-17T11:31:55.000Z</time>
      </trkpt>
      <trkpt lat="46.63415" lon="5.89223">
        <ele>831.59997558594</ele>
        <time>2019-06-17T11:31:57.000Z</time>
      </trkpt>
      <trkpt lat="46.63416" lon="5.89213">
        <ele>831.59997558594</ele>
        <time>2019-06-17T11:32:02.000Z</time>
      </trkpt>
      <trkpt lat="46.63418" lon="5.8921">
        <ele>831.59997558594</ele>
        <time>2019-06-17T11:32:04.000Z</time>
      </trkpt>
      <trkpt lat="46.63419" lon="5.89207">
        <ele>831.59997558594</ele>
        <time>2019-06-17T11:32:06.000Z</time>
      </trkpt>
      <trkpt lat="46.6342" lon="5.89204">
        <ele>832</ele>
        <time>2019-06-17T11:32:08.000Z</time>
      </trkpt>
      <trkpt lat="46.63421" lon="5.89202">
        <ele>832</ele>
        <time>2019-06-17T11:32:10.000Z</time>
      </trkpt>
      <trkpt lat="46.63422" lon="5.89199">
        <ele>832.20001220703</ele>
        <time>2019-06-17T11:32:12.000Z</time>
      </trkpt>
      <trkpt lat="46.63423" lon="5.89197">
        <ele>832.20001220703</ele>
        <time>2019-06-17T11:32:14.000Z</time>
      </trkpt>
      <trkpt lat="46.63424" lon="5.89193">
        <ele>832</ele>
        <time>2019-06-17T11:32:16.000Z</time>
      </trkpt>
      <trkpt lat="46.63425" lon="5.89191">
        <ele>832.20001220703</ele>
        <time>2019-06-17T11:32:18.000Z</time>
      </trkpt>
      <trkpt lat="46.63426" lon="5.89188">
        <ele>832.20001220703</ele>
        <time>2019-06-17T11:32:20.000Z</time>
      </trkpt>
      <trkpt lat="46.63426" lon="5.89185">
        <ele>832.40002441406</ele>
        <time>2019-06-17T11:32:22.000Z</time>
      </trkpt>
      <trkpt lat="46.63427" lon="5.89182">
        <ele>832.40002441406</ele>
        <time>2019-06-17T11:32:24.000Z</time>
      </trkpt>
      <trkpt lat="46.63427" lon="5.8918">
        <ele>832.59997558594</ele>
        <time>2019-06-17T11:32:26.000Z</time>
      </trkpt>
      <trkpt lat="46.63428" lon="5.89177">
        <ele>832.59997558594</ele>
        <time>2019-06-17T11:32:28.000Z</time>
      </trkpt>
      <trkpt lat="46.63429" lon="5.89173">
        <ele>832.59997558594</ele>
        <time>2019-06-17T11:32:30.000Z</time>
      </trkpt>
      <trkpt lat="46.6343" lon="5.89169">
        <ele>832.59997558594</ele>
        <time>2019-06-17T11:32:32.000Z</time>
      </trkpt>
      <trkpt lat="46.6343" lon="5.89166">
        <ele>832.79998779297</ele>
        <time>2019-06-17T11:32:34.000Z</time>
      </trkpt>
      <trkpt lat="46.63431" lon="5.89162">
        <ele>833</ele>
        <time>2019-06-17T11:32:36.000Z</time>
      </trkpt>
      <trkpt lat="46.6343" lon="5.89159">
        <ele>833.59997558594</ele>
        <time>2019-06-17T11:32:45.000Z</time>
      </trkpt>
      <trkpt lat="46.63431" lon="5.89155">
        <ele>833.79998779297</ele>
        <time>2019-06-17T11:32:47.000Z</time>
      </trkpt>
      <trkpt lat="46.63431" lon="5.89152">
        <ele>833.79998779297</ele>
        <time>2019-06-17T11:32:49.000Z</time>
      </trkpt>
      <trkpt lat="46.63432" lon="5.89149">
        <ele>834.20001220703</ele>
        <time>2019-06-17T11:32:51.000Z</time>
      </trkpt>
      <trkpt lat="46.63432" lon="5.89145">
        <ele>834.40002441406</ele>
        <time>2019-06-17T11:32:53.000Z</time>
      </trkpt>
      <trkpt lat="46.63432" lon="5.89142">
        <ele>834.40002441406</ele>
        <time>2019-06-17T11:32:54.000Z</time>
      </trkpt>
      <trkpt lat="46.63433" lon="5.89138">
        <ele>834.59997558594</ele>
        <time>2019-06-17T11:32:56.000Z</time>
      </trkpt>
      <trkpt lat="46.63433" lon="5.89134">
        <ele>834.59997558594</ele>
        <time>2019-06-17T11:32:58.000Z</time>
      </trkpt>
      <trkpt lat="46.63433" lon="5.8913">
        <ele>834.79998779297</ele>
        <time>2019-06-17T11:33:00.000Z</time>
      </trkpt>
      <trkpt lat="46.63434" lon="5.89126">
        <ele>835.40002441406</ele>
        <time>2019-06-17T11:33:03.000Z</time>
      </trkpt>
      <trkpt lat="46.63435" lon="5.89122">
        <ele>835.59997558594</ele>
        <time>2019-06-17T11:33:06.000Z</time>
      </trkpt>
      <trkpt lat="46.63435" lon="5.89119">
        <ele>835.79998779297</ele>
        <time>2019-06-17T11:33:08.000Z</time>
      </trkpt>
      <trkpt lat="46.63436" lon="5.89117">
        <ele>836</ele>
        <time>2019-06-17T11:33:10.000Z</time>
      </trkpt>
      <trkpt lat="46.63436" lon="5.89114">
        <ele>836.20001220703</ele>
        <time>2019-06-17T11:33:12.000Z</time>
      </trkpt>
      <trkpt lat="46.63436" lon="5.89111">
        <ele>836.40002441406</ele>
        <time>2019-06-17T11:33:14.000Z</time>
      </trkpt>
      <trkpt lat="46.63437" lon="5.89108">
        <ele>836.59997558594</ele>
        <time>2019-06-17T11:33:16.000Z</time>
      </trkpt>
      <trkpt lat="46.63437" lon="5.89105">
        <ele>836.59997558594</ele>
        <time>2019-06-17T11:33:18.000Z</time>
      </trkpt>
      <trkpt lat="46.63437" lon="5.89102">
        <ele>836.40002441406</ele>
        <time>2019-06-17T11:33:20.000Z</time>
      </trkpt>
      <trkpt lat="46.63437" lon="5.89098">
        <ele>836.79998779297</ele>
        <time>2019-06-17T11:33:22.000Z</time>
      </trkpt>
      <trkpt lat="46.63438" lon="5.89094">
        <ele>836.59997558594</ele>
        <time>2019-06-17T11:33:24.000Z</time>
      </trkpt>
      <trkpt lat="46.63439" lon="5.89091">
        <ele>836.79998779297</ele>
        <time>2019-06-17T11:33:26.000Z</time>
      </trkpt>
      <trkpt lat="46.63439" lon="5.89088">
        <ele>837</ele>
        <time>2019-06-17T11:33:28.000Z</time>
      </trkpt>
      <trkpt lat="46.63439" lon="5.89085">
        <ele>837</ele>
        <time>2019-06-17T11:33:30.000Z</time>
      </trkpt>
      <trkpt lat="46.6344" lon="5.89082">
        <ele>837</ele>
        <time>2019-06-17T11:33:32.000Z</time>
      </trkpt>
      <trkpt lat="46.6344" lon="5.89079">
        <ele>836.79998779297</ele>
        <time>2019-06-17T11:33:34.000Z</time>
      </trkpt>
      <trkpt lat="46.6344" lon="5.89076">
        <ele>837.20001220703</ele>
        <time>2019-06-17T11:33:36.000Z</time>
      </trkpt>
      <trkpt lat="46.63441" lon="5.89073">
        <ele>837.20001220703</ele>
        <time>2019-06-17T11:33:38.000Z</time>
      </trkpt>
      <trkpt lat="46.63441" lon="5.89069">
        <ele>837</ele>
        <time>2019-06-17T11:33:40.000Z</time>
      </trkpt>
      <trkpt lat="46.63441" lon="5.89065">
        <ele>836.79998779297</ele>
        <time>2019-06-17T11:33:42.000Z</time>
      </trkpt>
      <trkpt lat="46.63441" lon="5.89062">
        <ele>837</ele>
        <time>2019-06-17T11:33:44.000Z</time>
      </trkpt>
      <trkpt lat="46.63442" lon="5.89059">
        <ele>836.79998779297</ele>
        <time>2019-06-17T11:33:46.000Z</time>
      </trkpt>
      <trkpt lat="46.63442" lon="5.89055">
        <ele>836.79998779297</ele>
        <time>2019-06-17T11:33:48.000Z</time>
      </trkpt>
      <trkpt lat="46.63442" lon="5.89052">
        <ele>836.79998779297</ele>
        <time>2019-06-17T11:33:50.000Z</time>
      </trkpt>
      <trkpt lat="46.63443" lon="5.89049">
        <ele>837</ele>
        <time>2019-06-17T11:33:52.000Z</time>
      </trkpt>
      <trkpt lat="46.63443" lon="5.89045">
        <ele>837</ele>
        <time>2019-06-17T11:33:54.000Z</time>
      </trkpt>
      <trkpt lat="46.63443" lon="5.89042">
        <ele>836.79998779297</ele>
        <time>2019-06-17T11:33:56.000Z</time>
      </trkpt>
      <trkpt lat="46.63443" lon="5.89038">
        <ele>836.79998779297</ele>
        <time>2019-06-17T11:33:58.000Z</time>
      </trkpt>
      <trkpt lat="46.63443" lon="5.89034">
        <ele>836.59997558594</ele>
        <time>2019-06-17T11:34:00.000Z</time>
      </trkpt>
      <trkpt lat="46.63444" lon="5.89029">
        <ele>836.79998779297</ele>
        <time>2019-06-17T11:34:02.000Z</time>
      </trkpt>
      <trkpt lat="46.63445" lon="5.89026">
        <ele>837</ele>
        <time>2019-06-17T11:34:04.000Z</time>
      </trkpt>
      <trkpt lat="46.63445" lon="5.89022">
        <ele>837</ele>
        <time>2019-06-17T11:34:06.000Z</time>
      </trkpt>
      <trkpt lat="46.63445" lon="5.89019">
        <ele>837</ele>
        <time>2019-06-17T11:34:08.000Z</time>
      </trkpt>
      <trkpt lat="46.63446" lon="5.89015">
        <ele>836.79998779297</ele>
        <time>2019-06-17T11:34:10.000Z</time>
      </trkpt>
      <trkpt lat="46.63447" lon="5.89012">
        <ele>837.79998779297</ele>
        <time>2019-06-17T11:34:20.000Z</time>
      </trkpt>
      <trkpt lat="46.63447" lon="5.8901">
        <ele>837.79998779297</ele>
        <time>2019-06-17T11:34:22.000Z</time>
      </trkpt>
      <trkpt lat="46.63448" lon="5.89006">
        <ele>838</ele>
        <time>2019-06-17T11:34:24.000Z</time>
      </trkpt>
      <trkpt lat="46.63448" lon="5.89003">
        <ele>837.59997558594</ele>
        <time>2019-06-17T11:34:26.000Z</time>
      </trkpt>
      <trkpt lat="46.63448" lon="5.88999">
        <ele>837.59997558594</ele>
        <time>2019-06-17T11:34:28.000Z</time>
      </trkpt>
      <trkpt lat="46.63448" lon="5.88996">
        <ele>837.79998779297</ele>
        <time>2019-06-17T11:34:30.000Z</time>
      </trkpt>
      <trkpt lat="46.63448" lon="5.88992">
        <ele>837.79998779297</ele>
        <time>2019-06-17T11:34:32.000Z</time>
      </trkpt>
      <trkpt lat="46.63449" lon="5.88989">
        <ele>837.59997558594</ele>
        <time>2019-06-17T11:34:34.000Z</time>
      </trkpt>
      <trkpt lat="46.63449" lon="5.88985">
        <ele>837.79998779297</ele>
        <time>2019-06-17T11:34:36.000Z</time>
      </trkpt>
      <trkpt lat="46.6345" lon="5.88982">
        <ele>838</ele>
        <time>2019-06-17T11:34:38.000Z</time>
      </trkpt>
      <trkpt lat="46.6345" lon="5.88979">
        <ele>838.20001220703</ele>
        <time>2019-06-17T11:34:40.000Z</time>
      </trkpt>
      <trkpt lat="46.6345" lon="5.88976">
        <ele>838.20001220703</ele>
        <time>2019-06-17T11:34:42.000Z</time>
      </trkpt>
      <trkpt lat="46.6345" lon="5.88973">
        <ele>838.59997558594</ele>
        <time>2019-06-17T11:34:44.000Z</time>
      </trkpt>
      <trkpt lat="46.63451" lon="5.88969">
        <ele>838.79998779297</ele>
        <time>2019-06-17T11:34:47.000Z</time>
      </trkpt>
      <trkpt lat="46.63451" lon="5.88967">
        <ele>839.20001220703</ele>
        <time>2019-06-17T11:34:49.000Z</time>
      </trkpt>
      <trkpt lat="46.63451" lon="5.88964">
        <ele>839.20001220703</ele>
        <time>2019-06-17T11:34:51.000Z</time>
      </trkpt>
      <trkpt lat="46.63452" lon="5.88961">
        <ele>839.59997558594</ele>
        <time>2019-06-17T11:34:53.000Z</time>
      </trkpt>
      <trkpt lat="46.63452" lon="5.88958">
        <ele>840</ele>
        <time>2019-06-17T11:34:55.000Z</time>
      </trkpt>
      <trkpt lat="46.63453" lon="5.88955">
        <ele>840</ele>
        <time>2019-06-17T11:34:57.000Z</time>
      </trkpt>
      <trkpt lat="46.63453" lon="5.88952">
        <ele>840.20001220703</ele>
        <time>2019-06-17T11:34:59.000Z</time>
      </trkpt>
      <trkpt lat="46.63453" lon="5.88949">
        <ele>840</ele>
        <time>2019-06-17T11:35:01.000Z</time>
      </trkpt>
      <trkpt lat="46.63454" lon="5.88946">
        <ele>839.79998779297</ele>
        <time>2019-06-17T11:35:03.000Z</time>
      </trkpt>
      <trkpt lat="46.63454" lon="5.88943">
        <ele>840.20001220703</ele>
        <time>2019-06-17T11:35:05.000Z</time>
      </trkpt>
      <trkpt lat="46.63455" lon="5.8894">
        <ele>840.59997558594</ele>
        <time>2019-06-17T11:35:07.000Z</time>
      </trkpt>
      <trkpt lat="46.63455" lon="5.88937">
        <ele>840.59997558594</ele>
        <time>2019-06-17T11:35:09.000Z</time>
      </trkpt>
      <trkpt lat="46.63455" lon="5.88934">
        <ele>841</ele>
        <time>2019-06-17T11:35:11.000Z</time>
      </trkpt>
      <trkpt lat="46.63455" lon="5.8893">
        <ele>841.20001220703</ele>
        <time>2019-06-17T11:35:13.000Z</time>
      </trkpt>
      <trkpt lat="46.63456" lon="5.88927">
        <ele>841.40002441406</ele>
        <time>2019-06-17T11:35:15.000Z</time>
      </trkpt>
      <trkpt lat="46.63456" lon="5.88924">
        <ele>841</ele>
        <time>2019-06-17T11:35:17.000Z</time>
      </trkpt>
      <trkpt lat="46.63457" lon="5.8892">
        <ele>841.20001220703</ele>
        <time>2019-06-17T11:35:19.000Z</time>
      </trkpt>
      <trkpt lat="46.63457" lon="5.88916">
        <ele>841.20001220703</ele>
        <time>2019-06-17T11:35:21.000Z</time>
      </trkpt>
      <trkpt lat="46.63457" lon="5.88913">
        <ele>841.40002441406</ele>
        <time>2019-06-17T11:35:23.000Z</time>
      </trkpt>
      <trkpt lat="46.63457" lon="5.8891">
        <ele>841.40002441406</ele>
        <time>2019-06-17T11:35:25.000Z</time>
      </trkpt>
      <trkpt lat="46.63457" lon="5.88907">
        <ele>841.40002441406</ele>
        <time>2019-06-17T11:35:27.000Z</time>
      </trkpt>
      <trkpt lat="46.63458" lon="5.88904">
        <ele>841.40002441406</ele>
        <time>2019-06-17T11:35:29.000Z</time>
      </trkpt>
      <trkpt lat="46.63458" lon="5.88901">
        <ele>841.59997558594</ele>
        <time>2019-06-17T11:35:31.000Z</time>
      </trkpt>
      <trkpt lat="46.63458" lon="5.88897">
        <ele>841.59997558594</ele>
        <time>2019-06-17T11:35:33.000Z</time>
      </trkpt>
      <trkpt lat="46.63458" lon="5.88893">
        <ele>841.59997558594</ele>
        <time>2019-06-17T11:35:35.000Z</time>
      </trkpt>
      <trkpt lat="46.63457" lon="5.8889">
        <ele>841.79998779297</ele>
        <time>2019-06-17T11:35:37.000Z</time>
      </trkpt>
      <trkpt lat="46.63457" lon="5.88886">
        <ele>841.59997558594</ele>
        <time>2019-06-17T11:35:39.000Z</time>
      </trkpt>
      <trkpt lat="46.63457" lon="5.88882">
        <ele>841.59997558594</ele>
        <time>2019-06-17T11:35:41.000Z</time>
      </trkpt>
      <trkpt lat="46.63458" lon="5.88878">
        <ele>841.79998779297</ele>
        <time>2019-06-17T11:35:43.000Z</time>
      </trkpt>
      <trkpt lat="46.63458" lon="5.88874">
        <ele>841.79998779297</ele>
        <time>2019-06-17T11:35:45.000Z</time>
      </trkpt>
      <trkpt lat="46.63459" lon="5.8887">
        <ele>841.40002441406</ele>
        <time>2019-06-17T11:35:47.000Z</time>
      </trkpt>
      <trkpt lat="46.6346" lon="5.88866">
        <ele>841.20001220703</ele>
        <time>2019-06-17T11:35:49.000Z</time>
      </trkpt>
      <trkpt lat="46.6346" lon="5.88863">
        <ele>841.40002441406</ele>
        <time>2019-06-17T11:35:51.000Z</time>
      </trkpt>
      <trkpt lat="46.6346" lon="5.8886">
        <ele>841.59997558594</ele>
        <time>2019-06-17T11:35:53.000Z</time>
      </trkpt>
      <trkpt lat="46.6346" lon="5.88857">
        <ele>841.59997558594</ele>
        <time>2019-06-17T11:35:55.000Z</time>
      </trkpt>
      <trkpt lat="46.63462" lon="5.88854">
        <ele>841.79998779297</ele>
        <time>2019-06-17T11:35:57.000Z</time>
      </trkpt>
      <trkpt lat="46.63465" lon="5.88851">
        <ele>841.79998779297</ele>
        <time>2019-06-17T11:35:59.000Z</time>
      </trkpt>
      <trkpt lat="46.63467" lon="5.88848">
        <ele>841.79998779297</ele>
        <time>2019-06-17T11:36:01.000Z</time>
      </trkpt>
      <trkpt lat="46.63468" lon="5.88846">
        <ele>841.59997558594</ele>
        <time>2019-06-17T11:36:03.000Z</time>
      </trkpt>
      <trkpt lat="46.6347" lon="5.88842">
        <ele>841.40002441406</ele>
        <time>2019-06-17T11:36:05.000Z</time>
      </trkpt>
      <trkpt lat="46.63471" lon="5.88839">
        <ele>841.40002441406</ele>
        <time>2019-06-17T11:36:07.000Z</time>
      </trkpt>
      <trkpt lat="46.63472" lon="5.88837">
        <ele>841.59997558594</ele>
        <time>2019-06-17T11:36:09.000Z</time>
      </trkpt>
      <trkpt lat="46.63473" lon="5.88834">
        <ele>841.59997558594</ele>
        <time>2019-06-17T11:36:11.000Z</time>
      </trkpt>
      <trkpt lat="46.63474" lon="5.8883">
        <ele>841.40002441406</ele>
        <time>2019-06-17T11:36:13.000Z</time>
      </trkpt>
      <trkpt lat="46.63475" lon="5.88827">
        <ele>841.40002441406</ele>
        <time>2019-06-17T11:36:15.000Z</time>
      </trkpt>
      <trkpt lat="46.63477" lon="5.88824">
        <ele>841.59997558594</ele>
        <time>2019-06-17T11:36:17.000Z</time>
      </trkpt>
      <trkpt lat="46.63478" lon="5.88821">
        <ele>841.40002441406</ele>
        <time>2019-06-17T11:36:19.000Z</time>
      </trkpt>
      <trkpt lat="46.63479" lon="5.88818">
        <ele>841.59997558594</ele>
        <time>2019-06-17T11:36:21.000Z</time>
      </trkpt>
      <trkpt lat="46.6348" lon="5.88815">
        <ele>841.79998779297</ele>
        <time>2019-06-17T11:36:23.000Z</time>
      </trkpt>
      <trkpt lat="46.63481" lon="5.88811">
        <ele>841.59997558594</ele>
        <time>2019-06-17T11:36:25.000Z</time>
      </trkpt>
      <trkpt lat="46.63481" lon="5.88809">
        <ele>841.79998779297</ele>
        <time>2019-06-17T11:36:27.000Z</time>
      </trkpt>
      <trkpt lat="46.63483" lon="5.88805">
        <ele>842.20001220703</ele>
        <time>2019-06-17T11:36:30.000Z</time>
      </trkpt>
      <trkpt lat="46.63483" lon="5.88802">
        <ele>842.40002441406</ele>
        <time>2019-06-17T11:36:32.000Z</time>
      </trkpt>
      <trkpt lat="46.63485" lon="5.88798">
        <ele>842.59997558594</ele>
        <time>2019-06-17T11:36:34.000Z</time>
      </trkpt>
      <trkpt lat="46.63486" lon="5.88795">
        <ele>842.79998779297</ele>
        <time>2019-06-17T11:36:36.000Z</time>
      </trkpt>
      <trkpt lat="46.63487" lon="5.88792">
        <ele>842.79998779297</ele>
        <time>2019-06-17T11:36:38.000Z</time>
      </trkpt>
      <trkpt lat="46.63487" lon="5.88788">
        <ele>842.79998779297</ele>
        <time>2019-06-17T11:36:40.000Z</time>
      </trkpt>
      <trkpt lat="46.63488" lon="5.88786">
        <ele>843</ele>
        <time>2019-06-17T11:36:42.000Z</time>
      </trkpt>
      <trkpt lat="46.6349" lon="5.88784">
        <ele>843.20001220703</ele>
        <time>2019-06-17T11:36:44.000Z</time>
      </trkpt>
      <trkpt lat="46.6349" lon="5.8878">
        <ele>843.40002441406</ele>
        <time>2019-06-17T11:36:46.000Z</time>
      </trkpt>
      <trkpt lat="46.63491" lon="5.88777">
        <ele>843.40002441406</ele>
        <time>2019-06-17T11:36:48.000Z</time>
      </trkpt>
      <trkpt lat="46.63491" lon="5.88774">
        <ele>843.79998779297</ele>
        <time>2019-06-17T11:36:50.000Z</time>
      </trkpt>
      <trkpt lat="46.63492" lon="5.88771">
        <ele>843.40002441406</ele>
        <time>2019-06-17T11:36:52.000Z</time>
      </trkpt>
      <trkpt lat="46.63492" lon="5.88767">
        <ele>843.40002441406</ele>
        <time>2019-06-17T11:36:54.000Z</time>
      </trkpt>
      <trkpt lat="46.63494" lon="5.88764">
        <ele>843.20001220703</ele>
        <time>2019-06-17T11:36:56.000Z</time>
      </trkpt>
      <trkpt lat="46.63494" lon="5.88761">
        <ele>843.40002441406</ele>
        <time>2019-06-17T11:36:58.000Z</time>
      </trkpt>
      <trkpt lat="46.63495" lon="5.88758">
        <ele>843</ele>
        <time>2019-06-17T11:37:00.000Z</time>
      </trkpt>
      <trkpt lat="46.63497" lon="5.88755">
        <ele>843</ele>
        <time>2019-06-17T11:37:02.000Z</time>
      </trkpt>
      <trkpt lat="46.63498" lon="5.88751">
        <ele>843</ele>
        <time>2019-06-17T11:37:04.000Z</time>
      </trkpt>
      <trkpt lat="46.635" lon="5.88747">
        <ele>842.79998779297</ele>
        <time>2019-06-17T11:37:06.000Z</time>
      </trkpt>
      <trkpt lat="46.635" lon="5.88744">
        <ele>842.59997558594</ele>
        <time>2019-06-17T11:37:08.000Z</time>
      </trkpt>
      <trkpt lat="46.635" lon="5.88741">
        <ele>842.40002441406</ele>
        <time>2019-06-17T11:37:10.000Z</time>
      </trkpt>
      <trkpt lat="46.63502" lon="5.88738">
        <ele>842.20001220703</ele>
        <time>2019-06-17T11:37:13.000Z</time>
      </trkpt>
      <trkpt lat="46.63503" lon="5.88734">
        <ele>842.20001220703</ele>
        <time>2019-06-17T11:37:15.000Z</time>
      </trkpt>
      <trkpt lat="46.63504" lon="5.8873">
        <ele>842.40002441406</ele>
        <time>2019-06-17T11:37:17.000Z</time>
      </trkpt>
      <trkpt lat="46.63506" lon="5.88727">
        <ele>842.20001220703</ele>
        <time>2019-06-17T11:37:19.000Z</time>
      </trkpt>
      <trkpt lat="46.63507" lon="5.88723">
        <ele>842.20001220703</ele>
        <time>2019-06-17T11:37:21.000Z</time>
      </trkpt>
      <trkpt lat="46.63508" lon="5.88719">
        <ele>842.20001220703</ele>
        <time>2019-06-17T11:37:23.000Z</time>
      </trkpt>
      <trkpt lat="46.63508" lon="5.88716">
        <ele>842</ele>
        <time>2019-06-17T11:37:25.000Z</time>
      </trkpt>
      <trkpt lat="46.63509" lon="5.88713">
        <ele>842</ele>
        <time>2019-06-17T11:37:27.000Z</time>
      </trkpt>
      <trkpt lat="46.63511" lon="5.8871">
        <ele>842</ele>
        <time>2019-06-17T11:37:29.000Z</time>
      </trkpt>
      <trkpt lat="46.63512" lon="5.88706">
        <ele>842</ele>
        <time>2019-06-17T11:37:31.000Z</time>
      </trkpt>
      <trkpt lat="46.63517" lon="5.88694">
        <ele>842</ele>
        <time>2019-06-17T11:37:38.000Z</time>
      </trkpt>
      <trkpt lat="46.6352" lon="5.88679">
        <ele>842</ele>
        <time>2019-06-17T11:37:48.000Z</time>
      </trkpt>
      <trkpt lat="46.63523" lon="5.88665">
        <ele>842</ele>
        <time>2019-06-17T11:37:54.000Z</time>
      </trkpt>
      <trkpt lat="46.63527" lon="5.88652">
        <ele>842</ele>
        <time>2019-06-17T11:38:01.000Z</time>
      </trkpt>
      <trkpt lat="46.63529" lon="5.88651">
        <ele>842</ele>
        <time>2019-06-17T11:38:03.000Z</time>
      </trkpt>
      <trkpt lat="46.63532" lon="5.88644">
        <ele>842</ele>
        <time>2019-06-17T11:38:07.000Z</time>
      </trkpt>
      <trkpt lat="46.63533" lon="5.88641">
        <ele>842</ele>
        <time>2019-06-17T11:38:09.000Z</time>
      </trkpt>
      <trkpt lat="46.63534" lon="5.88638">
        <ele>842</ele>
        <time>2019-06-17T11:38:11.000Z</time>
      </trkpt>
      <trkpt lat="46.63536" lon="5.88635">
        <ele>842</ele>
        <time>2019-06-17T11:38:13.000Z</time>
      </trkpt>
      <trkpt lat="46.63538" lon="5.88633">
        <ele>842</ele>
        <time>2019-06-17T11:38:15.000Z</time>
      </trkpt>
      <trkpt lat="46.6354" lon="5.8863">
        <ele>842</ele>
        <time>2019-06-17T11:38:17.000Z</time>
      </trkpt>
      <trkpt lat="46.63543" lon="5.88629">
        <ele>842</ele>
        <time>2019-06-17T11:38:19.000Z</time>
      </trkpt>
      <trkpt lat="46.63545" lon="5.88628">
        <ele>842</ele>
        <time>2019-06-17T11:38:21.000Z</time>
      </trkpt>
      <trkpt lat="46.63547" lon="5.88625">
        <ele>842</ele>
        <time>2019-06-17T11:38:23.000Z</time>
      </trkpt>
      <trkpt lat="46.6355" lon="5.88623">
        <ele>842</ele>
        <time>2019-06-17T11:38:25.000Z</time>
      </trkpt>
      <trkpt lat="46.63552" lon="5.88622">
        <ele>842</ele>
        <time>2019-06-17T11:38:27.000Z</time>
      </trkpt>
      <trkpt lat="46.63554" lon="5.88621">
        <ele>842</ele>
        <time>2019-06-17T11:38:29.000Z</time>
      </trkpt>
      <trkpt lat="46.63557" lon="5.8862">
        <ele>842</ele>
        <time>2019-06-17T11:38:31.000Z</time>
      </trkpt>
      <trkpt lat="46.63559" lon="5.88619">
        <ele>842</ele>
        <time>2019-06-17T11:38:34.000Z</time>
      </trkpt>
      <trkpt lat="46.63562" lon="5.88618">
        <ele>842</ele>
        <time>2019-06-17T11:38:38.000Z</time>
      </trkpt>
      <trkpt lat="46.63564" lon="5.8862">
        <ele>842</ele>
        <time>2019-06-17T11:38:43.000Z</time>
      </trkpt>
      <trkpt lat="46.63567" lon="5.88627">
        <ele>842</ele>
        <time>2019-06-17T11:38:53.000Z</time>
      </trkpt>
      <trkpt lat="46.63569" lon="5.88626">
        <ele>842</ele>
        <time>2019-06-17T11:38:58.000Z</time>
      </trkpt>
      <trkpt lat="46.6357" lon="5.88623">
        <ele>842</ele>
        <time>2019-06-17T11:39:01.000Z</time>
      </trkpt>
      <trkpt lat="46.63572" lon="5.88622">
        <ele>842</ele>
        <time>2019-06-17T11:39:03.000Z</time>
      </trkpt>
      <trkpt lat="46.63574" lon="5.88621">
        <ele>842</ele>
        <time>2019-06-17T11:39:05.000Z</time>
      </trkpt>
      <trkpt lat="46.63575" lon="5.88619">
        <ele>842</ele>
        <time>2019-06-17T11:39:07.000Z</time>
      </trkpt>
      <trkpt lat="46.63582" lon="5.88609">
        <ele>842</ele>
        <time>2019-06-17T11:39:12.000Z</time>
      </trkpt>
      <trkpt lat="46.63589" lon="5.88599">
        <ele>842</ele>
        <time>2019-06-17T11:39:20.000Z</time>
      </trkpt>
      <trkpt lat="46.63597" lon="5.88591">
        <ele>842</ele>
        <time>2019-06-17T11:39:29.000Z</time>
      </trkpt>
      <trkpt lat="46.63607" lon="5.88587">
        <ele>842</ele>
        <time>2019-06-17T11:39:34.000Z</time>
      </trkpt>
      <trkpt lat="46.63612" lon="5.88588">
        <ele>842</ele>
        <time>2019-06-17T11:39:36.000Z</time>
      </trkpt>
      <trkpt lat="46.63615" lon="5.88588">
        <ele>842</ele>
        <time>2019-06-17T11:39:38.000Z</time>
      </trkpt>
      <trkpt lat="46.63618" lon="5.88589">
        <ele>842</ele>
        <time>2019-06-17T11:39:40.000Z</time>
      </trkpt>
      <trkpt lat="46.63625" lon="5.88583">
        <ele>842</ele>
        <time>2019-06-17T11:39:46.000Z</time>
      </trkpt>
      <trkpt lat="46.63629" lon="5.88579">
        <ele>842</ele>
        <time>2019-06-17T11:39:50.000Z</time>
      </trkpt>
      <trkpt lat="46.63631" lon="5.88579">
        <ele>842</ele>
        <time>2019-06-17T11:39:52.000Z</time>
      </trkpt>
      <trkpt lat="46.63633" lon="5.88579">
        <ele>842</ele>
        <time>2019-06-17T11:39:54.000Z</time>
      </trkpt>
      <trkpt lat="46.63635" lon="5.88578">
        <ele>842</ele>
        <time>2019-06-17T11:39:56.000Z</time>
      </trkpt>
      <trkpt lat="46.63637" lon="5.88579">
        <ele>842</ele>
        <time>2019-06-17T11:39:58.000Z</time>
      </trkpt>
      <trkpt lat="46.63639" lon="5.88579">
        <ele>842</ele>
        <time>2019-06-17T11:40:00.000Z</time>
      </trkpt>
      <trkpt lat="46.63642" lon="5.88579">
        <ele>842</ele>
        <time>2019-06-17T11:40:03.000Z</time>
      </trkpt>
      <trkpt lat="46.63643" lon="5.88577">
        <ele>842</ele>
        <time>2019-06-17T11:40:06.000Z</time>
      </trkpt>
      <trkpt lat="46.63646" lon="5.88576">
        <ele>842</ele>
        <time>2019-06-17T11:40:09.000Z</time>
      </trkpt>
      <trkpt lat="46.63648" lon="5.88574">
        <ele>842</ele>
        <time>2019-06-17T11:40:11.000Z</time>
      </trkpt>
      <trkpt lat="46.6365" lon="5.88572">
        <ele>842</ele>
        <time>2019-06-17T11:40:13.000Z</time>
      </trkpt>
      <trkpt lat="46.63652" lon="5.8857">
        <ele>842</ele>
        <time>2019-06-17T11:40:15.000Z</time>
      </trkpt>
      <trkpt lat="46.63654" lon="5.88568">
        <ele>842</ele>
        <time>2019-06-17T11:40:17.000Z</time>
      </trkpt>
      <trkpt lat="46.63656" lon="5.88567">
        <ele>842</ele>
        <time>2019-06-17T11:40:19.000Z</time>
      </trkpt>
      <trkpt lat="46.63658" lon="5.88564">
        <ele>842</ele>
        <time>2019-06-17T11:40:21.000Z</time>
      </trkpt>
      <trkpt lat="46.63659" lon="5.8856">
        <ele>842</ele>
        <time>2019-06-17T11:40:23.000Z</time>
      </trkpt>
      <trkpt lat="46.63661" lon="5.88558">
        <ele>842</ele>
        <time>2019-06-17T11:40:25.000Z</time>
      </trkpt>
      <trkpt lat="46.63663" lon="5.88556">
        <ele>842</ele>
        <time>2019-06-17T11:40:28.000Z</time>
      </trkpt>
      <trkpt lat="46.63664" lon="5.88555">
        <ele>842</ele>
        <time>2019-06-17T11:40:30.000Z</time>
      </trkpt>
      <trkpt lat="46.63671" lon="5.88546">
        <ele>842</ele>
        <time>2019-06-17T11:40:39.000Z</time>
      </trkpt>
      <trkpt lat="46.63679" lon="5.88538">
        <ele>842</ele>
        <time>2019-06-17T11:40:47.000Z</time>
      </trkpt>
      <trkpt lat="46.63687" lon="5.88533">
        <ele>842</ele>
        <time>2019-06-17T11:40:55.000Z</time>
      </trkpt>
      <trkpt lat="46.63697" lon="5.88528">
        <ele>842</ele>
        <time>2019-06-17T11:41:04.000Z</time>
      </trkpt>
      <trkpt lat="46.637" lon="5.88523">
        <ele>842</ele>
        <time>2019-06-17T11:41:08.000Z</time>
      </trkpt>
      <trkpt lat="46.63704" lon="5.88521">
        <ele>842</ele>
        <time>2019-06-17T11:41:10.000Z</time>
      </trkpt>
      <trkpt lat="46.63706" lon="5.88519">
        <ele>842</ele>
        <time>2019-06-17T11:41:12.000Z</time>
      </trkpt>
      <trkpt lat="46.63708" lon="5.88518">
        <ele>842</ele>
        <time>2019-06-17T11:41:14.000Z</time>
      </trkpt>
      <trkpt lat="46.63709" lon="5.88517">
        <ele>842</ele>
        <time>2019-06-17T11:41:16.000Z</time>
      </trkpt>
      <trkpt lat="46.63712" lon="5.88519">
        <ele>842</ele>
        <time>2019-06-17T11:41:20.000Z</time>
      </trkpt>
      <trkpt lat="46.63714" lon="5.88523">
        <ele>842</ele>
        <time>2019-06-17T11:41:22.000Z</time>
      </trkpt>
      <trkpt lat="46.63716" lon="5.88528">
        <ele>842</ele>
        <time>2019-06-17T11:41:24.000Z</time>
      </trkpt>
      <trkpt lat="46.63718" lon="5.8853">
        <ele>842</ele>
        <time>2019-06-17T11:41:26.000Z</time>
      </trkpt>
      <trkpt lat="46.6372" lon="5.8853">
        <ele>842</ele>
        <time>2019-06-17T11:41:29.000Z</time>
      </trkpt>
      <trkpt lat="46.63723" lon="5.88528">
        <ele>842</ele>
        <time>2019-06-17T11:41:32.000Z</time>
      </trkpt>
      <trkpt lat="46.63725" lon="5.88526">
        <ele>842</ele>
        <time>2019-06-17T11:41:34.000Z</time>
      </trkpt>
      <trkpt lat="46.63727" lon="5.88524">
        <ele>842</ele>
        <time>2019-06-17T11:41:37.000Z</time>
      </trkpt>
      <trkpt lat="46.63729" lon="5.88523">
        <ele>842</ele>
        <time>2019-06-17T11:41:39.000Z</time>
      </trkpt>
      <trkpt lat="46.6373" lon="5.88519">
        <ele>842</ele>
        <time>2019-06-17T11:41:41.000Z</time>
      </trkpt>
      <trkpt lat="46.63732" lon="5.88516">
        <ele>842</ele>
        <time>2019-06-17T11:41:43.000Z</time>
      </trkpt>
      <trkpt lat="46.63734" lon="5.88514">
        <ele>842</ele>
        <time>2019-06-17T11:41:45.000Z</time>
      </trkpt>
      <trkpt lat="46.63735" lon="5.88511">
        <ele>842</ele>
        <time>2019-06-17T11:41:47.000Z</time>
      </trkpt>
      <trkpt lat="46.63737" lon="5.88508">
        <ele>842</ele>
        <time>2019-06-17T11:41:49.000Z</time>
      </trkpt>
      <trkpt lat="46.63739" lon="5.88506">
        <ele>842</ele>
        <time>2019-06-17T11:41:52.000Z</time>
      </trkpt>
      <trkpt lat="46.6374" lon="5.88503">
        <ele>842</ele>
        <time>2019-06-17T11:41:54.000Z</time>
      </trkpt>
      <trkpt lat="46.63741" lon="5.88501">
        <ele>842</ele>
        <time>2019-06-17T11:41:56.000Z</time>
      </trkpt>
      <trkpt lat="46.63742" lon="5.88498">
        <ele>842</ele>
        <time>2019-06-17T11:41:58.000Z</time>
      </trkpt>
      <trkpt lat="46.63746" lon="5.88492">
        <ele>842</ele>
        <time>2019-06-17T11:42:03.000Z</time>
      </trkpt>
      <trkpt lat="46.63745" lon="5.88489">
        <ele>842</ele>
        <time>2019-06-17T11:42:06.000Z</time>
      </trkpt>
      <trkpt lat="46.63744" lon="5.88486">
        <ele>842</ele>
        <time>2019-06-17T11:42:10.000Z</time>
      </trkpt>
      <trkpt lat="46.63743" lon="5.88484">
        <ele>842</ele>
        <time>2019-06-17T11:42:13.000Z</time>
      </trkpt>
      <trkpt lat="46.6374" lon="5.88483">
        <ele>842</ele>
        <time>2019-06-17T11:42:18.000Z</time>
      </trkpt>
      <trkpt lat="46.63739" lon="5.88482">
        <ele>842</ele>
        <time>2019-06-17T11:42:21.000Z</time>
      </trkpt>
      <trkpt lat="46.63737" lon="5.88479">
        <ele>842</ele>
        <time>2019-06-17T11:42:25.000Z</time>
      </trkpt>
      <trkpt lat="46.63736" lon="5.88475">
        <ele>842</ele>
        <time>2019-06-17T11:42:28.000Z</time>
      </trkpt>
      <trkpt lat="46.63734" lon="5.88474">
        <ele>842</ele>
        <time>2019-06-17T11:42:30.000Z</time>
      </trkpt>
      <trkpt lat="46.63732" lon="5.88471">
        <ele>842</ele>
        <time>2019-06-17T11:42:32.000Z</time>
      </trkpt>
      <trkpt lat="46.63731" lon="5.88469">
        <ele>842</ele>
        <time>2019-06-17T11:42:34.000Z</time>
      </trkpt>
      <trkpt lat="46.63729" lon="5.88466">
        <ele>842</ele>
        <time>2019-06-17T11:42:37.000Z</time>
      </trkpt>
      <trkpt lat="46.63728" lon="5.88464">
        <ele>842</ele>
        <time>2019-06-17T11:42:39.000Z</time>
      </trkpt>
      <trkpt lat="46.63726" lon="5.88464">
        <ele>842</ele>
        <time>2019-06-17T11:42:41.000Z</time>
      </trkpt>
      <trkpt lat="46.63727" lon="5.88466">
        <ele>842</ele>
        <time>2019-06-17T11:42:48.000Z</time>
      </trkpt>
      <trkpt lat="46.63727" lon="5.88469">
        <ele>842</ele>
        <time>2019-06-17T11:42:53.000Z</time>
      </trkpt>
      <trkpt lat="46.63727" lon="5.88467">
        <ele>842</ele>
        <time>2019-06-17T11:43:04.000Z</time>
      </trkpt>
      <trkpt lat="46.63727" lon="5.88464">
        <ele>842</ele>
        <time>2019-06-17T11:43:13.000Z</time>
      </trkpt>
      <trkpt lat="46.63726" lon="5.88461">
        <ele>842</ele>
        <time>2019-06-17T11:43:25.000Z</time>
      </trkpt>
      <trkpt lat="46.63725" lon="5.88458">
        <ele>842</ele>
        <time>2019-06-17T11:43:27.000Z</time>
      </trkpt>
      <trkpt lat="46.63724" lon="5.88456">
        <ele>842</ele>
        <time>2019-06-17T11:43:29.000Z</time>
      </trkpt>
      <trkpt lat="46.63722" lon="5.88453">
        <ele>842</ele>
        <time>2019-06-17T11:43:31.000Z</time>
      </trkpt>
      <trkpt lat="46.6372" lon="5.8845">
        <ele>842</ele>
        <time>2019-06-17T11:43:33.000Z</time>
      </trkpt>
      <trkpt lat="46.63719" lon="5.88447">
        <ele>842</ele>
        <time>2019-06-17T11:43:35.000Z</time>
      </trkpt>
      <trkpt lat="46.63717" lon="5.88444">
        <ele>842</ele>
        <time>2019-06-17T11:43:37.000Z</time>
      </trkpt>
      <trkpt lat="46.63716" lon="5.88441">
        <ele>842</ele>
        <time>2019-06-17T11:43:39.000Z</time>
      </trkpt>
      <trkpt lat="46.63716" lon="5.88438">
        <ele>842</ele>
        <time>2019-06-17T11:43:41.000Z</time>
      </trkpt>
      <trkpt lat="46.63715" lon="5.88435">
        <ele>842</ele>
        <time>2019-06-17T11:43:43.000Z</time>
      </trkpt>
      <trkpt lat="46.63714" lon="5.88432">
        <ele>842</ele>
        <time>2019-06-17T11:43:45.000Z</time>
      </trkpt>
      <trkpt lat="46.63714" lon="5.88419">
        <ele>842</ele>
        <time>2019-06-17T11:43:53.000Z</time>
      </trkpt>
      <trkpt lat="46.63713" lon="5.88414">
        <ele>842</ele>
        <time>2019-06-17T11:43:56.000Z</time>
      </trkpt>
      <trkpt lat="46.63713" lon="5.88412">
        <ele>842</ele>
        <time>2019-06-17T11:43:59.000Z</time>
      </trkpt>
      <trkpt lat="46.63711" lon="5.8841">
        <ele>842</ele>
        <time>2019-06-17T11:44:01.000Z</time>
      </trkpt>
      <trkpt lat="46.63709" lon="5.88406">
        <ele>842</ele>
        <time>2019-06-17T11:44:04.000Z</time>
      </trkpt>
      <trkpt lat="46.63709" lon="5.88395">
        <ele>842</ele>
        <time>2019-06-17T11:44:10.000Z</time>
      </trkpt>
      <trkpt lat="46.63709" lon="5.88391">
        <ele>842</ele>
        <time>2019-06-17T11:44:13.000Z</time>
      </trkpt>
      <trkpt lat="46.63708" lon="5.88388">
        <ele>842</ele>
        <time>2019-06-17T11:44:16.000Z</time>
      </trkpt>
      <trkpt lat="46.63708" lon="5.88386">
        <ele>842</ele>
        <time>2019-06-17T11:44:19.000Z</time>
      </trkpt>
      <trkpt lat="46.63705" lon="5.88383">
        <ele>842</ele>
        <time>2019-06-17T11:44:23.000Z</time>
      </trkpt>
      <trkpt lat="46.63704" lon="5.88381">
        <ele>842</ele>
        <time>2019-06-17T11:44:25.000Z</time>
      </trkpt>
      <trkpt lat="46.63703" lon="5.88379">
        <ele>842</ele>
        <time>2019-06-17T11:44:27.000Z</time>
      </trkpt>
      <trkpt lat="46.63702" lon="5.88376">
        <ele>845.79998779297</ele>
        <time>2019-06-17T11:44:29.000Z</time>
      </trkpt>
      <trkpt lat="46.63701" lon="5.88374">
        <ele>846</ele>
        <time>2019-06-17T11:44:31.000Z</time>
      </trkpt>
      <trkpt lat="46.63699" lon="5.88371">
        <ele>846.20001220703</ele>
        <time>2019-06-17T11:44:33.000Z</time>
      </trkpt>
      <trkpt lat="46.63698" lon="5.88368">
        <ele>846</ele>
        <time>2019-06-17T11:44:36.000Z</time>
      </trkpt>
      <trkpt lat="46.63698" lon="5.88365">
        <ele>846.40002441406</ele>
        <time>2019-06-17T11:44:39.000Z</time>
      </trkpt>
      <trkpt lat="46.63697" lon="5.88363">
        <ele>846.40002441406</ele>
        <time>2019-06-17T11:44:41.000Z</time>
      </trkpt>
      <trkpt lat="46.63696" lon="5.88359">
        <ele>846.79998779297</ele>
        <time>2019-06-17T11:44:43.000Z</time>
      </trkpt>
      <trkpt lat="46.63696" lon="5.88356">
        <ele>847.40002441406</ele>
        <time>2019-06-17T11:44:45.000Z</time>
      </trkpt>
      <trkpt lat="46.63694" lon="5.88353">
        <ele>847.40002441406</ele>
        <time>2019-06-17T11:44:48.000Z</time>
      </trkpt>
      <trkpt lat="46.63693" lon="5.8835">
        <ele>847.79998779297</ele>
        <time>2019-06-17T11:44:51.000Z</time>
      </trkpt>
      <trkpt lat="46.63693" lon="5.88347">
        <ele>848</ele>
        <time>2019-06-17T11:44:53.000Z</time>
      </trkpt>
      <trkpt lat="46.63692" lon="5.88344">
        <ele>848.40002441406</ele>
        <time>2019-06-17T11:44:55.000Z</time>
      </trkpt>
      <trkpt lat="46.63691" lon="5.88341">
        <ele>848.40002441406</ele>
        <time>2019-06-17T11:44:58.000Z</time>
      </trkpt>
      <trkpt lat="46.63691" lon="5.88338">
        <ele>848.79998779297</ele>
        <time>2019-06-17T11:45:00.000Z</time>
      </trkpt>
      <trkpt lat="46.63691" lon="5.88333">
        <ele>849</ele>
        <time>2019-06-17T11:45:04.000Z</time>
      </trkpt>
      <trkpt lat="46.63691" lon="5.8833">
        <ele>849.40002441406</ele>
        <time>2019-06-17T11:45:06.000Z</time>
      </trkpt>
      <trkpt lat="46.63687" lon="5.88316">
        <ele>850.59997558594</ele>
        <time>2019-06-17T11:45:18.000Z</time>
      </trkpt>
      <trkpt lat="46.63685" lon="5.8831">
        <ele>851</ele>
        <time>2019-06-17T11:45:24.000Z</time>
      </trkpt>
      <trkpt lat="46.63683" lon="5.88302">
        <ele>851.59997558594</ele>
        <time>2019-06-17T11:45:29.000Z</time>
      </trkpt>
      <trkpt lat="46.63678" lon="5.8829">
        <ele>852.59997558594</ele>
        <time>2019-06-17T11:45:41.000Z</time>
      </trkpt>
      <trkpt lat="46.63676" lon="5.88281">
        <ele>853.79998779297</ele>
        <time>2019-06-17T11:45:49.000Z</time>
      </trkpt>
      <trkpt lat="46.63677" lon="5.8828">
        <ele>854.20001220703</ele>
        <time>2019-06-17T11:45:54.000Z</time>
      </trkpt>
      <trkpt lat="46.63677" lon="5.88277">
        <ele>855.20001220703</ele>
        <time>2019-06-17T11:46:03.000Z</time>
      </trkpt>
      <trkpt lat="46.63676" lon="5.88273">
        <ele>855.20001220703</ele>
        <time>2019-06-17T11:46:07.000Z</time>
      </trkpt>
      <trkpt lat="46.63676" lon="5.8827">
        <ele>855</ele>
        <time>2019-06-17T11:46:11.000Z</time>
      </trkpt>
      <trkpt lat="46.63677" lon="5.88268">
        <ele>855.20001220703</ele>
        <time>2019-06-17T11:46:14.000Z</time>
      </trkpt>
      <trkpt lat="46.63677" lon="5.88264">
        <ele>855.20001220703</ele>
        <time>2019-06-17T11:46:18.000Z</time>
      </trkpt>
      <trkpt lat="46.63677" lon="5.88261">
        <ele>855.59997558594</ele>
        <time>2019-06-17T11:46:21.000Z</time>
      </trkpt>
      <trkpt lat="46.63677" lon="5.88259">
        <ele>856</ele>
        <time>2019-06-17T11:46:24.000Z</time>
      </trkpt>
      <trkpt lat="46.63676" lon="5.88256">
        <ele>856.40002441406</ele>
        <time>2019-06-17T11:46:27.000Z</time>
      </trkpt>
      <trkpt lat="46.63675" lon="5.88252">
        <ele>856.59997558594</ele>
        <time>2019-06-17T11:46:30.000Z</time>
      </trkpt>
      <trkpt lat="46.63674" lon="5.88248">
        <ele>857</ele>
        <time>2019-06-17T11:46:34.000Z</time>
      </trkpt>
      <trkpt lat="46.63672" lon="5.88245">
        <ele>857.40002441406</ele>
        <time>2019-06-17T11:46:37.000Z</time>
      </trkpt>
      <trkpt lat="46.63671" lon="5.88241">
        <ele>857.59997558594</ele>
        <time>2019-06-17T11:46:39.000Z</time>
      </trkpt>
      <trkpt lat="46.63671" lon="5.88238">
        <ele>857.59997558594</ele>
        <time>2019-06-17T11:46:41.000Z</time>
      </trkpt>
      <trkpt lat="46.63671" lon="5.88236">
        <ele>857.59997558594</ele>
        <time>2019-06-17T11:46:44.000Z</time>
      </trkpt>
      <trkpt lat="46.63671" lon="5.88232">
        <ele>858.20001220703</ele>
        <time>2019-06-17T11:46:47.000Z</time>
      </trkpt>
      <trkpt lat="46.63669" lon="5.8823">
        <ele>858.59997558594</ele>
        <time>2019-06-17T11:46:50.000Z</time>
      </trkpt>
      <trkpt lat="46.63669" lon="5.88227">
        <ele>858.79998779297</ele>
        <time>2019-06-17T11:46:52.000Z</time>
      </trkpt>
      <trkpt lat="46.63669" lon="5.88224">
        <ele>859.40002441406</ele>
        <time>2019-06-17T11:46:56.000Z</time>
      </trkpt>
      <trkpt lat="46.63669" lon="5.88221">
        <ele>860</ele>
        <time>2019-06-17T11:47:01.000Z</time>
      </trkpt>
      <trkpt lat="46.63669" lon="5.88217">
        <ele>860.40002441406</ele>
        <time>2019-06-17T11:47:04.000Z</time>
      </trkpt>
      <trkpt lat="46.63668" lon="5.88215">
        <ele>860.59997558594</ele>
        <time>2019-06-17T11:47:06.000Z</time>
      </trkpt>
      <trkpt lat="46.63668" lon="5.88212">
        <ele>861</ele>
        <time>2019-06-17T11:47:08.000Z</time>
      </trkpt>
      <trkpt lat="46.63667" lon="5.88209">
        <ele>861</ele>
        <time>2019-06-17T11:47:10.000Z</time>
      </trkpt>
      <trkpt lat="46.63666" lon="5.88205">
        <ele>861.59997558594</ele>
        <time>2019-06-17T11:47:14.000Z</time>
      </trkpt>
      <trkpt lat="46.63665" lon="5.88201">
        <ele>862</ele>
        <time>2019-06-17T11:47:16.000Z</time>
      </trkpt>
      <trkpt lat="46.63664" lon="5.882">
        <ele>862</ele>
        <time>2019-06-17T11:47:18.000Z</time>
      </trkpt>
      <trkpt lat="46.63662" lon="5.88198">
        <ele>862.20001220703</ele>
        <time>2019-06-17T11:47:20.000Z</time>
      </trkpt>
      <trkpt lat="46.63661" lon="5.88196">
        <ele>862.59997558594</ele>
        <time>2019-06-17T11:47:24.000Z</time>
      </trkpt>
      <trkpt lat="46.6366" lon="5.88193">
        <ele>863</ele>
        <time>2019-06-17T11:47:28.000Z</time>
      </trkpt>
      <trkpt lat="46.63659" lon="5.8819">
        <ele>863.40002441406</ele>
        <time>2019-06-17T11:47:31.000Z</time>
      </trkpt>
      <trkpt lat="46.63658" lon="5.88188">
        <ele>863.40002441406</ele>
        <time>2019-06-17T11:47:34.000Z</time>
      </trkpt>
      <trkpt lat="46.63657" lon="5.88185">
        <ele>863.59997558594</ele>
        <time>2019-06-17T11:47:37.000Z</time>
      </trkpt>
      <trkpt lat="46.63656" lon="5.88181">
        <ele>864.20001220703</ele>
        <time>2019-06-17T11:47:41.000Z</time>
      </trkpt>
      <trkpt lat="46.63656" lon="5.88177">
        <ele>864.20001220703</ele>
        <time>2019-06-17T11:47:43.000Z</time>
      </trkpt>
      <trkpt lat="46.63655" lon="5.88174">
        <ele>864.59997558594</ele>
        <time>2019-06-17T11:47:46.000Z</time>
      </trkpt>
      <trkpt lat="46.63655" lon="5.8817">
        <ele>865</ele>
        <time>2019-06-17T11:47:49.000Z</time>
      </trkpt>
      <trkpt lat="46.63655" lon="5.88168">
        <ele>865.20001220703</ele>
        <time>2019-06-17T11:47:52.000Z</time>
      </trkpt>
      <trkpt lat="46.63653" lon="5.88165">
        <ele>865.59997558594</ele>
        <time>2019-06-17T11:47:55.000Z</time>
      </trkpt>
      <trkpt lat="46.63653" lon="5.88162">
        <ele>865.59997558594</ele>
        <time>2019-06-17T11:47:57.000Z</time>
      </trkpt>
      <trkpt lat="46.63652" lon="5.8816">
        <ele>866</ele>
        <time>2019-06-17T11:47:59.000Z</time>
      </trkpt>
      <trkpt lat="46.63648" lon="5.88151">
        <ele>866.40002441406</ele>
        <time>2019-06-17T11:48:04.000Z</time>
      </trkpt>
      <trkpt lat="46.63644" lon="5.88139">
        <ele>867.79998779297</ele>
        <time>2019-06-17T11:48:17.000Z</time>
      </trkpt>
      <trkpt lat="46.63639" lon="5.88127">
        <ele>868.40002441406</ele>
        <time>2019-06-17T11:48:24.000Z</time>
      </trkpt>
      <trkpt lat="46.63638" lon="5.88122">
        <ele>868.40002441406</ele>
        <time>2019-06-17T11:48:28.000Z</time>
      </trkpt>
      <trkpt lat="46.63638" lon="5.88119">
        <ele>869</ele>
        <time>2019-06-17T11:48:31.000Z</time>
      </trkpt>
      <trkpt lat="46.63638" lon="5.88115">
        <ele>869</ele>
        <time>2019-06-17T11:48:34.000Z</time>
      </trkpt>
      <trkpt lat="46.63636" lon="5.88107">
        <ele>869.79998779297</ele>
        <time>2019-06-17T11:48:40.000Z</time>
      </trkpt>
      <trkpt lat="46.63635" lon="5.88104">
        <ele>870.20001220703</ele>
        <time>2019-06-17T11:48:43.000Z</time>
      </trkpt>
      <trkpt lat="46.63634" lon="5.881">
        <ele>870.59997558594</ele>
        <time>2019-06-17T11:48:46.000Z</time>
      </trkpt>
      <trkpt lat="46.63633" lon="5.88098">
        <ele>870.79998779297</ele>
        <time>2019-06-17T11:48:49.000Z</time>
      </trkpt>
      <trkpt lat="46.63632" lon="5.88094">
        <ele>871</ele>
        <time>2019-06-17T11:48:52.000Z</time>
      </trkpt>
      <trkpt lat="46.6363" lon="5.88092">
        <ele>871</ele>
        <time>2019-06-17T11:48:55.000Z</time>
      </trkpt>
      <trkpt lat="46.6363" lon="5.88089">
        <ele>871.59997558594</ele>
        <time>2019-06-17T11:48:58.000Z</time>
      </trkpt>
      <trkpt lat="46.6363" lon="5.88086">
        <ele>872</ele>
        <time>2019-06-17T11:49:00.000Z</time>
      </trkpt>
      <trkpt lat="46.63628" lon="5.88084">
        <ele>872.40002441406</ele>
        <time>2019-06-17T11:49:02.000Z</time>
      </trkpt>
      <trkpt lat="46.63627" lon="5.88081">
        <ele>872.20001220703</ele>
        <time>2019-06-17T11:49:04.000Z</time>
      </trkpt>
      <trkpt lat="46.63626" lon="5.88079">
        <ele>872.59997558594</ele>
        <time>2019-06-17T11:49:07.000Z</time>
      </trkpt>
      <trkpt lat="46.63625" lon="5.88077">
        <ele>873.20001220703</ele>
        <time>2019-06-17T11:49:10.000Z</time>
      </trkpt>
      <trkpt lat="46.63624" lon="5.88068">
        <ele>874.20001220703</ele>
        <time>2019-06-17T11:49:17.000Z</time>
      </trkpt>
      <trkpt lat="46.63621" lon="5.88066">
        <ele>874.40002441406</ele>
        <time>2019-06-17T11:49:20.000Z</time>
      </trkpt>
      <trkpt lat="46.63621" lon="5.88063">
        <ele>874.79998779297</ele>
        <time>2019-06-17T11:49:22.000Z</time>
      </trkpt>
      <trkpt lat="46.6362" lon="5.8806">
        <ele>875.20001220703</ele>
        <time>2019-06-17T11:49:25.000Z</time>
      </trkpt>
      <trkpt lat="46.63619" lon="5.88058">
        <ele>875</ele>
        <time>2019-06-17T11:49:27.000Z</time>
      </trkpt>
      <trkpt lat="46.63618" lon="5.88055">
        <ele>875.59997558594</ele>
        <time>2019-06-17T11:49:30.000Z</time>
      </trkpt>
      <trkpt lat="46.63613" lon="5.88047">
        <ele>876</ele>
        <time>2019-06-17T11:49:38.000Z</time>
      </trkpt>
      <trkpt lat="46.63612" lon="5.88044">
        <ele>876.20001220703</ele>
        <time>2019-06-17T11:49:40.000Z</time>
      </trkpt>
      <trkpt lat="46.63611" lon="5.88041">
        <ele>875.79998779297</ele>
        <time>2019-06-17T11:49:42.000Z</time>
      </trkpt>
      <trkpt lat="46.6361" lon="5.88039">
        <ele>876.20001220703</ele>
        <time>2019-06-17T11:49:44.000Z</time>
      </trkpt>
      <trkpt lat="46.63608" lon="5.88037">
        <ele>876.20001220703</ele>
        <time>2019-06-17T11:49:46.000Z</time>
      </trkpt>
      <trkpt lat="46.63606" lon="5.88034">
        <ele>876.20001220703</ele>
        <time>2019-06-17T11:49:49.000Z</time>
      </trkpt>
      <trkpt lat="46.636" lon="5.88024">
        <ele>876.59997558594</ele>
        <time>2019-06-17T11:50:02.000Z</time>
      </trkpt>
      <trkpt lat="46.63593" lon="5.88015">
        <ele>876.59997558594</ele>
        <time>2019-06-17T11:50:11.000Z</time>
      </trkpt>
      <trkpt lat="46.63585" lon="5.88005">
        <ele>876.59997558594</ele>
        <time>2019-06-17T11:50:16.000Z</time>
      </trkpt>
      <trkpt lat="46.63581" lon="5.87992">
        <ele>877</ele>
        <time>2019-06-17T11:50:27.000Z</time>
      </trkpt>
      <trkpt lat="46.63576" lon="5.8798">
        <ele>877.20001220703</ele>
        <time>2019-06-17T11:50:35.000Z</time>
      </trkpt>
      <trkpt lat="46.63572" lon="5.87967">
        <ele>877.40002441406</ele>
        <time>2019-06-17T11:50:46.000Z</time>
      </trkpt>
      <trkpt lat="46.63565" lon="5.87957">
        <ele>878</ele>
        <time>2019-06-17T11:50:53.000Z</time>
      </trkpt>
      <trkpt lat="46.6356" lon="5.87946">
        <ele>878.79998779297</ele>
        <time>2019-06-17T11:51:02.000Z</time>
      </trkpt>
      <trkpt lat="46.63555" lon="5.87935">
        <ele>879.20001220703</ele>
        <time>2019-06-17T11:51:09.000Z</time>
      </trkpt>
      <trkpt lat="46.63552" lon="5.87926">
        <ele>879.59997558594</ele>
        <time>2019-06-17T11:51:15.000Z</time>
      </trkpt>
      <trkpt lat="46.63552" lon="5.87921">
        <ele>879.79998779297</ele>
        <time>2019-06-17T11:51:17.000Z</time>
      </trkpt>
      <trkpt lat="46.6355" lon="5.87919">
        <ele>880</ele>
        <time>2019-06-17T11:51:19.000Z</time>
      </trkpt>
      <trkpt lat="46.63549" lon="5.87916">
        <ele>880.20001220703</ele>
        <time>2019-06-17T11:51:21.000Z</time>
      </trkpt>
      <trkpt lat="46.63548" lon="5.87913">
        <ele>880.20001220703</ele>
        <time>2019-06-17T11:51:23.000Z</time>
      </trkpt>
      <trkpt lat="46.63548" lon="5.8791">
        <ele>880.20001220703</ele>
        <time>2019-06-17T11:51:25.000Z</time>
      </trkpt>
      <trkpt lat="46.63545" lon="5.87906">
        <ele>880.40002441406</ele>
        <time>2019-06-17T11:51:27.000Z</time>
      </trkpt>
      <trkpt lat="46.63544" lon="5.87903">
        <ele>880.59997558594</ele>
        <time>2019-06-17T11:51:29.000Z</time>
      </trkpt>
      <trkpt lat="46.63541" lon="5.879">
        <ele>880.59997558594</ele>
        <time>2019-06-17T11:51:31.000Z</time>
      </trkpt>
      <trkpt lat="46.63539" lon="5.87896">
        <ele>880.79998779297</ele>
        <time>2019-06-17T11:51:33.000Z</time>
      </trkpt>
      <trkpt lat="46.63538" lon="5.87893">
        <ele>881</ele>
        <time>2019-06-17T11:51:35.000Z</time>
      </trkpt>
      <trkpt lat="46.63536" lon="5.8789">
        <ele>881.59997558594</ele>
        <time>2019-06-17T11:51:37.000Z</time>
      </trkpt>
      <trkpt lat="46.63534" lon="5.87887">
        <ele>881.59997558594</ele>
        <time>2019-06-17T11:51:39.000Z</time>
      </trkpt>
      <trkpt lat="46.63533" lon="5.87883">
        <ele>881.59997558594</ele>
        <time>2019-06-17T11:51:41.000Z</time>
      </trkpt>
      <trkpt lat="46.63533" lon="5.8788">
        <ele>881.59997558594</ele>
        <time>2019-06-17T11:51:44.000Z</time>
      </trkpt>
      <trkpt lat="46.63532" lon="5.87877">
        <ele>881.59997558594</ele>
        <time>2019-06-17T11:51:46.000Z</time>
      </trkpt>
      <trkpt lat="46.63531" lon="5.87874">
        <ele>881.40002441406</ele>
        <time>2019-06-17T11:51:47.000Z</time>
      </trkpt>
      <trkpt lat="46.63531" lon="5.8787">
        <ele>881.79998779297</ele>
        <time>2019-06-17T11:51:49.000Z</time>
      </trkpt>
      <trkpt lat="46.6353" lon="5.87867">
        <ele>882.20001220703</ele>
        <time>2019-06-17T11:51:51.000Z</time>
      </trkpt>
      <trkpt lat="46.63529" lon="5.87865">
        <ele>883</ele>
        <time>2019-06-17T11:51:53.000Z</time>
      </trkpt>
      <trkpt lat="46.63529" lon="5.87862">
        <ele>883</ele>
        <time>2019-06-17T11:51:57.000Z</time>
      </trkpt>
      <trkpt lat="46.63528" lon="5.87859">
        <ele>883</ele>
        <time>2019-06-17T11:51:59.000Z</time>
      </trkpt>
      <trkpt lat="46.63528" lon="5.87855">
        <ele>883</ele>
        <time>2019-06-17T11:52:01.000Z</time>
      </trkpt>
      <trkpt lat="46.63527" lon="5.87851">
        <ele>882.79998779297</ele>
        <time>2019-06-17T11:52:03.000Z</time>
      </trkpt>
      <trkpt lat="46.63526" lon="5.87848">
        <ele>883</ele>
        <time>2019-06-17T11:52:05.000Z</time>
      </trkpt>
      <trkpt lat="46.63524" lon="5.87847">
        <ele>884.40002441406</ele>
        <time>2019-06-17T11:52:12.000Z</time>
      </trkpt>
      <trkpt lat="46.63523" lon="5.87844">
        <ele>884.40002441406</ele>
        <time>2019-06-17T11:52:14.000Z</time>
      </trkpt>
      <trkpt lat="46.63522" lon="5.87841">
        <ele>884.79998779297</ele>
        <time>2019-06-17T11:52:17.000Z</time>
      </trkpt>
      <trkpt lat="46.63521" lon="5.87837">
        <ele>885</ele>
        <time>2019-06-17T11:52:19.000Z</time>
      </trkpt>
      <trkpt lat="46.63519" lon="5.87835">
        <ele>885</ele>
        <time>2019-06-17T11:52:21.000Z</time>
      </trkpt>
      <trkpt lat="46.63518" lon="5.87832">
        <ele>885.20001220703</ele>
        <time>2019-06-17T11:52:23.000Z</time>
      </trkpt>
      <trkpt lat="46.63517" lon="5.87829">
        <ele>885.00039858847</ele>
        <time>2019-06-17T11:52:25.000Z</time>
      </trkpt>
      <trkpt lat="46.63516" lon="5.87826">
        <ele>885.59997558594</ele>
        <time>2019-06-17T11:52:27.000Z</time>
      </trkpt>
      <trkpt lat="46.63515" lon="5.87823">
        <ele>885.40002441406</ele>
        <time>2019-06-17T11:52:29.000Z</time>
      </trkpt>
      <trkpt lat="46.63514" lon="5.8782">
        <ele>885.40002441406</ele>
        <time>2019-06-17T11:52:32.000Z</time>
      </trkpt>
      <trkpt lat="46.63512" lon="5.87817">
        <ele>885.59997558594</ele>
        <time>2019-06-17T11:52:35.000Z</time>
      </trkpt>
      <trkpt lat="46.63511" lon="5.87815">
        <ele>885.79998779297</ele>
        <time>2019-06-17T11:52:37.000Z</time>
      </trkpt>
      <trkpt lat="46.6351" lon="5.87812">
        <ele>885.59997558594</ele>
        <time>2019-06-17T11:52:39.000Z</time>
      </trkpt>
      <trkpt lat="46.63509" lon="5.8781">
        <ele>885.79998779297</ele>
        <time>2019-06-17T11:52:43.000Z</time>
      </trkpt>
      <trkpt lat="46.63506" lon="5.87808">
        <ele>886.20001220703</ele>
        <time>2019-06-17T11:52:47.000Z</time>
      </trkpt>
      <trkpt lat="46.63504" lon="5.87806">
        <ele>886.20001220703</ele>
        <time>2019-06-17T11:52:49.000Z</time>
      </trkpt>
      <trkpt lat="46.63502" lon="5.87804">
        <ele>886.59997558594</ele>
        <time>2019-06-17T11:52:51.000Z</time>
      </trkpt>
      <trkpt lat="46.63501" lon="5.878">
        <ele>886.59997558594</ele>
        <time>2019-06-17T11:52:53.000Z</time>
      </trkpt>
      <trkpt lat="46.635" lon="5.87796">
        <ele>886.79998779297</ele>
        <time>2019-06-17T11:52:55.000Z</time>
      </trkpt>
      <trkpt lat="46.63497" lon="5.87793">
        <ele>886.79998779297</ele>
        <time>2019-06-17T11:52:57.000Z</time>
      </trkpt>
      <trkpt lat="46.63489" lon="5.87783">
        <ele>886.59997558594</ele>
        <time>2019-06-17T11:53:06.000Z</time>
      </trkpt>
      <trkpt lat="46.63482" lon="5.87773">
        <ele>886.59997558594</ele>
        <time>2019-06-17T11:53:13.000Z</time>
      </trkpt>
      <trkpt lat="46.6348" lon="5.87773">
        <ele>886.59997558594</ele>
        <time>2019-06-17T11:53:15.000Z</time>
      </trkpt>
      <trkpt lat="46.63478" lon="5.87771">
        <ele>886.59997558594</ele>
        <time>2019-06-17T11:53:18.000Z</time>
      </trkpt>
      <trkpt lat="46.63476" lon="5.87769">
        <ele>887</ele>
        <time>2019-06-17T11:53:20.000Z</time>
      </trkpt>
      <trkpt lat="46.63475" lon="5.87767">
        <ele>887</ele>
        <time>2019-06-17T11:53:22.000Z</time>
      </trkpt>
      <trkpt lat="46.63473" lon="5.87764">
        <ele>887.20001220703</ele>
        <time>2019-06-17T11:53:24.000Z</time>
      </trkpt>
      <trkpt lat="46.63471" lon="5.87763">
        <ele>887.20001220703</ele>
        <time>2019-06-17T11:53:26.000Z</time>
      </trkpt>
      <trkpt lat="46.6347" lon="5.87761">
        <ele>887.20001220703</ele>
        <time>2019-06-17T11:53:28.000Z</time>
      </trkpt>
      <trkpt lat="46.63469" lon="5.87758">
        <ele>887.40002441406</ele>
        <time>2019-06-17T11:53:30.000Z</time>
      </trkpt>
      <trkpt lat="46.63468" lon="5.87755">
        <ele>887.59997558594</ele>
        <time>2019-06-17T11:53:32.000Z</time>
      </trkpt>
      <trkpt lat="46.63466" lon="5.87752">
        <ele>887.59997558594</ele>
        <time>2019-06-17T11:53:34.000Z</time>
      </trkpt>
      <trkpt lat="46.63464" lon="5.87749">
        <ele>888.20001220703</ele>
        <time>2019-06-17T11:53:36.000Z</time>
      </trkpt>
      <trkpt lat="46.63463" lon="5.87746">
        <ele>888</ele>
        <time>2019-06-17T11:53:38.000Z</time>
      </trkpt>
      <trkpt lat="46.63462" lon="5.87742">
        <ele>888.20001220703</ele>
        <time>2019-06-17T11:53:40.000Z</time>
      </trkpt>
      <trkpt lat="46.63461" lon="5.87738">
        <ele>888.40002441406</ele>
        <time>2019-06-17T11:53:42.000Z</time>
      </trkpt>
      <trkpt lat="46.6346" lon="5.87735">
        <ele>888.40002441406</ele>
        <time>2019-06-17T11:53:44.000Z</time>
      </trkpt>
      <trkpt lat="46.63459" lon="5.87732">
        <ele>888.40002441406</ele>
        <time>2019-06-17T11:53:46.000Z</time>
      </trkpt>
      <trkpt lat="46.63458" lon="5.87728">
        <ele>888.20001220703</ele>
        <time>2019-06-17T11:53:48.000Z</time>
      </trkpt>
      <trkpt lat="46.63457" lon="5.87725">
        <ele>888.20001220703</ele>
        <time>2019-06-17T11:53:50.000Z</time>
      </trkpt>
      <trkpt lat="46.63457" lon="5.87721">
        <ele>888.20001220703</ele>
        <time>2019-06-17T11:53:52.000Z</time>
      </trkpt>
      <trkpt lat="46.63456" lon="5.87718">
        <ele>888</ele>
        <time>2019-06-17T11:53:54.000Z</time>
      </trkpt>
      <trkpt lat="46.63455" lon="5.87715">
        <ele>887.79998779297</ele>
        <time>2019-06-17T11:53:56.000Z</time>
      </trkpt>
      <trkpt lat="46.63455" lon="5.87712">
        <ele>887.79998779297</ele>
        <time>2019-06-17T11:53:58.000Z</time>
      </trkpt>
      <trkpt lat="46.63454" lon="5.87708">
        <ele>887.79998779297</ele>
        <time>2019-06-17T11:54:00.000Z</time>
      </trkpt>
      <trkpt lat="46.63453" lon="5.87704">
        <ele>888</ele>
        <time>2019-06-17T11:54:02.000Z</time>
      </trkpt>
      <trkpt lat="46.63452" lon="5.87702">
        <ele>887.79998779297</ele>
        <time>2019-06-17T11:54:04.000Z</time>
      </trkpt>
      <trkpt lat="46.63451" lon="5.87699">
        <ele>887.40002441406</ele>
        <time>2019-06-17T11:54:06.000Z</time>
      </trkpt>
      <trkpt lat="46.63449" lon="5.87696">
        <ele>887.40002441406</ele>
        <time>2019-06-17T11:54:08.000Z</time>
      </trkpt>
      <trkpt lat="46.63448" lon="5.87694">
        <ele>887</ele>
        <time>2019-06-17T11:54:10.000Z</time>
      </trkpt>
      <trkpt lat="46.63448" lon="5.8769">
        <ele>886.59997558594</ele>
        <time>2019-06-17T11:54:13.000Z</time>
      </trkpt>
      <trkpt lat="46.63446" lon="5.87687">
        <ele>886.40002441406</ele>
        <time>2019-06-17T11:54:15.000Z</time>
      </trkpt>
      <trkpt lat="46.63445" lon="5.87685">
        <ele>886.40002441406</ele>
        <time>2019-06-17T11:54:17.000Z</time>
      </trkpt>
      <trkpt lat="46.63444" lon="5.87682">
        <ele>886.40002441406</ele>
        <time>2019-06-17T11:54:19.000Z</time>
      </trkpt>
      <trkpt lat="46.63442" lon="5.8768">
        <ele>886.20001220703</ele>
        <time>2019-06-17T11:54:21.000Z</time>
      </trkpt>
      <trkpt lat="46.63442" lon="5.87677">
        <ele>886.40002441406</ele>
        <time>2019-06-17T11:54:23.000Z</time>
      </trkpt>
      <trkpt lat="46.63441" lon="5.87675">
        <ele>886.79998779297</ele>
        <time>2019-06-17T11:54:25.000Z</time>
      </trkpt>
      <trkpt lat="46.6344" lon="5.87671">
        <ele>886.59997558594</ele>
        <time>2019-06-17T11:54:28.000Z</time>
      </trkpt>
      <trkpt lat="46.63439" lon="5.87668">
        <ele>886.59997558594</ele>
        <time>2019-06-17T11:54:30.000Z</time>
      </trkpt>
      <trkpt lat="46.63439" lon="5.87663">
        <ele>887.20001220703</ele>
        <time>2019-06-17T11:54:33.000Z</time>
      </trkpt>
      <trkpt lat="46.63438" lon="5.8766">
        <ele>887.20001220703</ele>
        <time>2019-06-17T11:54:35.000Z</time>
      </trkpt>
      <trkpt lat="46.63437" lon="5.87656">
        <ele>887.59997558594</ele>
        <time>2019-06-17T11:54:38.000Z</time>
      </trkpt>
      <trkpt lat="46.63436" lon="5.87653">
        <ele>887.79998779297</ele>
        <time>2019-06-17T11:54:41.000Z</time>
      </trkpt>
      <trkpt lat="46.63435" lon="5.8765">
        <ele>888.20001220703</ele>
        <time>2019-06-17T11:54:43.000Z</time>
      </trkpt>
      <trkpt lat="46.63435" lon="5.87647">
        <ele>888.40002441406</ele>
        <time>2019-06-17T11:54:45.000Z</time>
      </trkpt>
      <trkpt lat="46.63434" lon="5.87644">
        <ele>888.59997558594</ele>
        <time>2019-06-17T11:54:47.000Z</time>
      </trkpt>
      <trkpt lat="46.63433" lon="5.8764">
        <ele>889.20001220703</ele>
        <time>2019-06-17T11:54:50.000Z</time>
      </trkpt>
      <trkpt lat="46.63433" lon="5.87637">
        <ele>889.40002441406</ele>
        <time>2019-06-17T11:54:52.000Z</time>
      </trkpt>
      <trkpt lat="46.63433" lon="5.87633">
        <ele>889.79998779297</ele>
        <time>2019-06-17T11:54:54.000Z</time>
      </trkpt>
      <trkpt lat="46.63433" lon="5.8763">
        <ele>890</ele>
        <time>2019-06-17T11:54:56.000Z</time>
      </trkpt>
      <trkpt lat="46.63433" lon="5.87626">
        <ele>890.40002441406</ele>
        <time>2019-06-17T11:54:59.000Z</time>
      </trkpt>
      <trkpt lat="46.63433" lon="5.87624">
        <ele>890.59997558594</ele>
        <time>2019-06-17T11:55:01.000Z</time>
      </trkpt>
      <trkpt lat="46.63434" lon="5.8762">
        <ele>890.79998779297</ele>
        <time>2019-06-17T11:55:03.000Z</time>
      </trkpt>
      <trkpt lat="46.63434" lon="5.87617">
        <ele>891</ele>
        <time>2019-06-17T11:55:07.000Z</time>
      </trkpt>
      <trkpt lat="46.63435" lon="5.87614">
        <ele>891.20001220703</ele>
        <time>2019-06-17T11:55:09.000Z</time>
      </trkpt>
      <trkpt lat="46.63434" lon="5.87611">
        <ele>891.40002441406</ele>
        <time>2019-06-17T11:55:11.000Z</time>
      </trkpt>
      <trkpt lat="46.63435" lon="5.87608">
        <ele>891.79998779297</ele>
        <time>2019-06-17T11:55:13.000Z</time>
      </trkpt>
      <trkpt lat="46.63435" lon="5.87605">
        <ele>892</ele>
        <time>2019-06-17T11:55:15.000Z</time>
      </trkpt>
      <trkpt lat="46.63436" lon="5.876">
        <ele>892.20001220703</ele>
        <time>2019-06-17T11:55:17.000Z</time>
      </trkpt>
      <trkpt lat="46.63437" lon="5.87598">
        <ele>892.20001220703</ele>
        <time>2019-06-17T11:55:19.000Z</time>
      </trkpt>
      <trkpt lat="46.63437" lon="5.87595">
        <ele>892.40002441406</ele>
        <time>2019-06-17T11:55:21.000Z</time>
      </trkpt>
      <trkpt lat="46.63437" lon="5.87592">
        <ele>892.59997558594</ele>
        <time>2019-06-17T11:55:23.000Z</time>
      </trkpt>
      <trkpt lat="46.63437" lon="5.87587">
        <ele>892.79998779297</ele>
        <time>2019-06-17T11:55:25.000Z</time>
      </trkpt>
      <trkpt lat="46.63437" lon="5.87583">
        <ele>892.59997558594</ele>
        <time>2019-06-17T11:55:27.000Z</time>
      </trkpt>
      <trkpt lat="46.63437" lon="5.8758">
        <ele>892.59997558594</ele>
        <time>2019-06-17T11:55:29.000Z</time>
      </trkpt>
      <trkpt lat="46.63436" lon="5.87577">
        <ele>892.79998779297</ele>
        <time>2019-06-17T11:55:31.000Z</time>
      </trkpt>
      <trkpt lat="46.63436" lon="5.87574">
        <ele>892.79998779297</ele>
        <time>2019-06-17T11:55:33.000Z</time>
      </trkpt>
      <trkpt lat="46.63435" lon="5.87571">
        <ele>892.59997558594</ele>
        <time>2019-06-17T11:55:35.000Z</time>
      </trkpt>
      <trkpt lat="46.63434" lon="5.87568">
        <ele>892.59997558594</ele>
        <time>2019-06-17T11:55:37.000Z</time>
      </trkpt>
      <trkpt lat="46.63434" lon="5.87565">
        <ele>892.79998779297</ele>
        <time>2019-06-17T11:55:39.000Z</time>
      </trkpt>
      <trkpt lat="46.63434" lon="5.87562">
        <ele>892.79998779297</ele>
        <time>2019-06-17T11:55:41.000Z</time>
      </trkpt>
      <trkpt lat="46.63434" lon="5.87558">
        <ele>892.79998779297</ele>
        <time>2019-06-17T11:55:44.000Z</time>
      </trkpt>
      <trkpt lat="46.63435" lon="5.87555">
        <ele>892.79998779297</ele>
        <time>2019-06-17T11:55:46.000Z</time>
      </trkpt>
      <trkpt lat="46.63435" lon="5.87552">
        <ele>893</ele>
        <time>2019-06-17T11:55:48.000Z</time>
      </trkpt>
      <trkpt lat="46.63435" lon="5.87549">
        <ele>893</ele>
        <time>2019-06-17T11:55:50.000Z</time>
      </trkpt>
      <trkpt lat="46.63434" lon="5.87546">
        <ele>893</ele>
        <time>2019-06-17T11:55:52.000Z</time>
      </trkpt>
      <trkpt lat="46.63434" lon="5.87542">
        <ele>893.20001220703</ele>
        <time>2019-06-17T11:55:54.000Z</time>
      </trkpt>
      <trkpt lat="46.63435" lon="5.87538">
        <ele>893.20001220703</ele>
        <time>2019-06-17T11:55:56.000Z</time>
      </trkpt>
      <trkpt lat="46.63435" lon="5.87534">
        <ele>893.40002441406</ele>
        <time>2019-06-17T11:55:58.000Z</time>
      </trkpt>
      <trkpt lat="46.63435" lon="5.87531">
        <ele>893.40002441406</ele>
        <time>2019-06-17T11:56:00.000Z</time>
      </trkpt>
      <trkpt lat="46.63435" lon="5.87528">
        <ele>893.40002441406</ele>
        <time>2019-06-17T11:56:02.000Z</time>
      </trkpt>
      <trkpt lat="46.63435" lon="5.87523">
        <ele>893.20001220703</ele>
        <time>2019-06-17T11:56:04.000Z</time>
      </trkpt>
      <trkpt lat="46.63435" lon="5.8752">
        <ele>893.20001220703</ele>
        <time>2019-06-17T11:56:06.000Z</time>
      </trkpt>
      <trkpt lat="46.63436" lon="5.87516">
        <ele>893.59997558594</ele>
        <time>2019-06-17T11:56:08.000Z</time>
      </trkpt>
      <trkpt lat="46.63436" lon="5.87512">
        <ele>893.40002441406</ele>
        <time>2019-06-17T11:56:10.000Z</time>
      </trkpt>
      <trkpt lat="46.63437" lon="5.87509">
        <ele>893.40002441406</ele>
        <time>2019-06-17T11:56:12.000Z</time>
      </trkpt>
      <trkpt lat="46.63436" lon="5.87506">
        <ele>893.59997558594</ele>
        <time>2019-06-17T11:56:14.000Z</time>
      </trkpt>
      <trkpt lat="46.63436" lon="5.87503">
        <ele>893.79998779297</ele>
        <time>2019-06-17T11:56:16.000Z</time>
      </trkpt>
      <trkpt lat="46.63436" lon="5.875">
        <ele>893.79998779297</ele>
        <time>2019-06-17T11:56:19.000Z</time>
      </trkpt>
      <trkpt lat="46.63434" lon="5.87498">
        <ele>893.79998779297</ele>
        <time>2019-06-17T11:56:21.000Z</time>
      </trkpt>
      <trkpt lat="46.63434" lon="5.87495">
        <ele>894</ele>
        <time>2019-06-17T11:56:23.000Z</time>
      </trkpt>
      <trkpt lat="46.63435" lon="5.87491">
        <ele>894.20001220703</ele>
        <time>2019-06-17T11:56:27.000Z</time>
      </trkpt>
      <trkpt lat="46.63434" lon="5.87488">
        <ele>893.20001220703</ele>
        <time>2019-06-17T11:56:29.000Z</time>
      </trkpt>
      <trkpt lat="46.63434" lon="5.87484">
        <ele>892.59997558594</ele>
        <time>2019-06-17T11:56:31.000Z</time>
      </trkpt>
      <trkpt lat="46.63433" lon="5.87481">
        <ele>892</ele>
        <time>2019-06-17T11:56:33.000Z</time>
      </trkpt>
      <trkpt lat="46.63432" lon="5.87478">
        <ele>892.40002441406</ele>
        <time>2019-06-17T11:56:36.000Z</time>
      </trkpt>
      <trkpt lat="46.63431" lon="5.87476">
        <ele>892.40002441406</ele>
        <time>2019-06-17T11:56:38.000Z</time>
      </trkpt>
      <trkpt lat="46.6343" lon="5.87472">
        <ele>892.20001220703</ele>
        <time>2019-06-17T11:56:41.000Z</time>
      </trkpt>
      <trkpt lat="46.6343" lon="5.87468">
        <ele>892</ele>
        <time>2019-06-17T11:56:43.000Z</time>
      </trkpt>
      <trkpt lat="46.63429" lon="5.87461">
        <ele>890.40002441406</ele>
        <time>2019-06-17T11:56:48.000Z</time>
      </trkpt>
      <trkpt lat="46.63428" lon="5.87459">
        <ele>890.40002441406</ele>
        <time>2019-06-17T11:56:50.000Z</time>
      </trkpt>
      <trkpt lat="46.63426" lon="5.87456">
        <ele>889.59997558594</ele>
        <time>2019-06-17T11:56:52.000Z</time>
      </trkpt>
      <trkpt lat="46.63424" lon="5.87453">
        <ele>889.79998779297</ele>
        <time>2019-06-17T11:56:54.000Z</time>
      </trkpt>
      <trkpt lat="46.63423" lon="5.87451">
        <ele>889.20001220703</ele>
        <time>2019-06-17T11:56:56.000Z</time>
      </trkpt>
      <trkpt lat="46.63422" lon="5.87447">
        <ele>889.20001220703</ele>
        <time>2019-06-17T11:56:58.000Z</time>
      </trkpt>
      <trkpt lat="46.63422" lon="5.87443">
        <ele>889.40002441406</ele>
        <time>2019-06-17T11:57:00.000Z</time>
      </trkpt>
      <trkpt lat="46.6342" lon="5.87437">
        <ele>889.20001220703</ele>
        <time>2019-06-17T11:57:04.000Z</time>
      </trkpt>
      <trkpt lat="46.6342" lon="5.87433">
        <ele>889</ele>
        <time>2019-06-17T11:57:07.000Z</time>
      </trkpt>
      <trkpt lat="46.63421" lon="5.8742">
        <ele>888.59997558594</ele>
        <time>2019-06-17T11:57:15.000Z</time>
      </trkpt>
      <trkpt lat="46.63423" lon="5.87417">
        <ele>888.79998779297</ele>
        <time>2019-06-17T11:57:17.000Z</time>
      </trkpt>
      <trkpt lat="46.63422" lon="5.87414">
        <ele>888.40002441406</ele>
        <time>2019-06-17T11:57:20.000Z</time>
      </trkpt>
      <trkpt lat="46.63421" lon="5.8741">
        <ele>888</ele>
        <time>2019-06-17T11:57:22.000Z</time>
      </trkpt>
      <trkpt lat="46.63422" lon="5.87396">
        <ele>887.59997558594</ele>
        <time>2019-06-17T11:57:29.000Z</time>
      </trkpt>
      <trkpt lat="46.63424" lon="5.87382">
        <ele>885.20001220703</ele>
        <time>2019-06-17T11:57:39.000Z</time>
      </trkpt>
      <trkpt lat="46.63423" lon="5.87368">
        <ele>884</ele>
        <time>2019-06-17T11:57:48.000Z</time>
      </trkpt>
      <trkpt lat="46.63424" lon="5.87354">
        <ele>883.20001220703</ele>
        <time>2019-06-17T11:57:59.000Z</time>
      </trkpt>
      <trkpt lat="46.63425" lon="5.87349">
        <ele>882.59997558594</ele>
        <time>2019-06-17T11:58:02.000Z</time>
      </trkpt>
      <trkpt lat="46.63425" lon="5.87346">
        <ele>882.40002441406</ele>
        <time>2019-06-17T11:58:04.000Z</time>
      </trkpt>
      <trkpt lat="46.63425" lon="5.87341">
        <ele>882.20001220703</ele>
        <time>2019-06-17T11:58:06.000Z</time>
      </trkpt>
      <trkpt lat="46.63426" lon="5.87337">
        <ele>881.79998779297</ele>
        <time>2019-06-17T11:58:08.000Z</time>
      </trkpt>
      <trkpt lat="46.63429" lon="5.87332">
        <ele>881.40002441406</ele>
        <time>2019-06-17T11:58:13.000Z</time>
      </trkpt>
      <trkpt lat="46.6343" lon="5.87328">
        <ele>881</ele>
        <time>2019-06-17T11:58:14.000Z</time>
      </trkpt>
      <trkpt lat="46.63432" lon="5.87325">
        <ele>881.20001220703</ele>
        <time>2019-06-17T11:58:16.000Z</time>
      </trkpt>
      <trkpt lat="46.63433" lon="5.87323">
        <ele>880.79998779297</ele>
        <time>2019-06-17T11:58:18.000Z</time>
      </trkpt>
      <trkpt lat="46.63434" lon="5.87319">
        <ele>880.79998779297</ele>
        <time>2019-06-17T11:58:21.000Z</time>
      </trkpt>
      <trkpt lat="46.63434" lon="5.87317">
        <ele>881</ele>
        <time>2019-06-17T11:58:23.000Z</time>
      </trkpt>
      <trkpt lat="46.63435" lon="5.87314">
        <ele>881</ele>
        <time>2019-06-17T11:58:25.000Z</time>
      </trkpt>
      <trkpt lat="46.63435" lon="5.8731">
        <ele>881.20001220703</ele>
        <time>2019-06-17T11:58:27.000Z</time>
      </trkpt>
      <trkpt lat="46.63434" lon="5.87306">
        <ele>881.40002441406</ele>
        <time>2019-06-17T11:58:29.000Z</time>
      </trkpt>
      <trkpt lat="46.63434" lon="5.87303">
        <ele>881.20001220703</ele>
        <time>2019-06-17T11:58:31.000Z</time>
      </trkpt>
      <trkpt lat="46.63435" lon="5.87289">
        <ele>881.59997558594</ele>
        <time>2019-06-17T11:58:40.000Z</time>
      </trkpt>
      <trkpt lat="46.63434" lon="5.8728">
        <ele>881.79998779297</ele>
        <time>2019-06-17T11:58:47.000Z</time>
      </trkpt>
      <trkpt lat="46.63432" lon="5.87277">
        <ele>881.79998779297</ele>
        <time>2019-06-17T11:58:49.000Z</time>
      </trkpt>
      <trkpt lat="46.63429" lon="5.87268">
        <ele>881.59997558594</ele>
        <time>2019-06-17T11:58:55.000Z</time>
      </trkpt>
      <trkpt lat="46.63422" lon="5.87256">
        <ele>881.20001220703</ele>
        <time>2019-06-17T11:59:01.000Z</time>
      </trkpt>
      <trkpt lat="46.63416" lon="5.87248">
        <ele>880.79998779297</ele>
        <time>2019-06-17T11:59:08.000Z</time>
      </trkpt>
      <trkpt lat="46.63414" lon="5.87247">
        <ele>880.40002441406</ele>
        <time>2019-06-17T11:59:10.000Z</time>
      </trkpt>
      <trkpt lat="46.63412" lon="5.87245">
        <ele>880.20001220703</ele>
        <time>2019-06-17T11:59:12.000Z</time>
      </trkpt>
      <trkpt lat="46.63406" lon="5.87235">
        <ele>879.59997558594</ele>
        <time>2019-06-17T11:59:21.000Z</time>
      </trkpt>
      <trkpt lat="46.63405" lon="5.8722">
        <ele>879</ele>
        <time>2019-06-17T11:59:30.000Z</time>
      </trkpt>
      <trkpt lat="46.63404" lon="5.87213">
        <ele>879.20001220703</ele>
        <time>2019-06-17T11:59:33.000Z</time>
      </trkpt>
      <trkpt lat="46.63404" lon="5.8721">
        <ele>879</ele>
        <time>2019-06-17T11:59:34.000Z</time>
      </trkpt>
      <trkpt lat="46.63404" lon="5.87207">
        <ele>879.40002441406</ele>
        <time>2019-06-17T11:59:36.000Z</time>
      </trkpt>
      <trkpt lat="46.63403" lon="5.87204">
        <ele>878.79998779297</ele>
        <time>2019-06-17T11:59:40.000Z</time>
      </trkpt>
      <trkpt lat="46.63403" lon="5.87201">
        <ele>878.79998779297</ele>
        <time>2019-06-17T11:59:45.000Z</time>
      </trkpt>
      <trkpt lat="46.63401" lon="5.87198">
        <ele>879.40002441406</ele>
        <time>2019-06-17T11:59:50.000Z</time>
      </trkpt>
      <trkpt lat="46.634" lon="5.87195">
        <ele>880.40002441406</ele>
        <time>2019-06-17T11:59:56.000Z</time>
      </trkpt>
      <trkpt lat="46.634" lon="5.87192">
        <ele>880.20001220703</ele>
        <time>2019-06-17T12:00:01.000Z</time>
      </trkpt>
      <trkpt lat="46.634" lon="5.87189">
        <ele>880.40002441406</ele>
        <time>2019-06-17T12:00:05.000Z</time>
      </trkpt>
      <trkpt lat="46.634" lon="5.87187">
        <ele>880.20001220703</ele>
        <time>2019-06-17T12:00:08.000Z</time>
      </trkpt>
      <trkpt lat="46.63401" lon="5.87183">
        <ele>880.40002441406</ele>
        <time>2019-06-17T12:00:12.000Z</time>
      </trkpt>
      <trkpt lat="46.63401" lon="5.87179">
        <ele>880.40002441406</ele>
        <time>2019-06-17T12:00:14.000Z</time>
      </trkpt>
      <trkpt lat="46.63401" lon="5.87176">
        <ele>880.79998779297</ele>
        <time>2019-06-17T12:00:17.000Z</time>
      </trkpt>
      <trkpt lat="46.63401" lon="5.87173">
        <ele>881.20001220703</ele>
        <time>2019-06-17T12:00:19.000Z</time>
      </trkpt>
      <trkpt lat="46.63401" lon="5.87168">
        <ele>881.40002441406</ele>
        <time>2019-06-17T12:00:22.000Z</time>
      </trkpt>
      <trkpt lat="46.634" lon="5.87164">
        <ele>881.79998779297</ele>
        <time>2019-06-17T12:00:25.000Z</time>
      </trkpt>
      <trkpt lat="46.634" lon="5.8716">
        <ele>882</ele>
        <time>2019-06-17T12:00:27.000Z</time>
      </trkpt>
      <trkpt lat="46.63401" lon="5.87157">
        <ele>882.20001220703</ele>
        <time>2019-06-17T12:00:30.000Z</time>
      </trkpt>
      <trkpt lat="46.63401" lon="5.87154">
        <ele>882.40002441406</ele>
        <time>2019-06-17T12:00:36.000Z</time>
      </trkpt>
      <trkpt lat="46.63402" lon="5.87152">
        <ele>882.79998779297</ele>
        <time>2019-06-17T12:00:39.000Z</time>
      </trkpt>
      <trkpt lat="46.63401" lon="5.8715">
        <ele>883.40002441406</ele>
        <time>2019-06-17T12:00:42.000Z</time>
      </trkpt>
      <trkpt lat="46.634" lon="5.87147">
        <ele>883.59997558594</ele>
        <time>2019-06-17T12:00:45.000Z</time>
      </trkpt>
      <trkpt lat="46.63401" lon="5.87144">
        <ele>883.59997558594</ele>
        <time>2019-06-17T12:00:47.000Z</time>
      </trkpt>
      <trkpt lat="46.634" lon="5.8714">
        <ele>883.59997558594</ele>
        <time>2019-06-17T12:00:50.000Z</time>
      </trkpt>
      <trkpt lat="46.63399" lon="5.87138">
        <ele>884.20001220703</ele>
        <time>2019-06-17T12:00:54.000Z</time>
      </trkpt>
      <trkpt lat="46.63398" lon="5.87136">
        <ele>884.40002441406</ele>
        <time>2019-06-17T12:00:56.000Z</time>
      </trkpt>
      <trkpt lat="46.63397" lon="5.87134">
        <ele>884.59997558594</ele>
        <time>2019-06-17T12:00:58.000Z</time>
      </trkpt>
      <trkpt lat="46.63395" lon="5.8713">
        <ele>884.59997558594</ele>
        <time>2019-06-17T12:01:01.000Z</time>
      </trkpt>
      <trkpt lat="46.63394" lon="5.87127">
        <ele>885.20001220703</ele>
        <time>2019-06-17T12:01:04.000Z</time>
      </trkpt>
      <trkpt lat="46.63392" lon="5.87127">
        <ele>885.79998779297</ele>
        <time>2019-06-17T12:01:08.000Z</time>
      </trkpt>
      <trkpt lat="46.63392" lon="5.87125">
        <ele>886.20001220703</ele>
        <time>2019-06-17T12:01:58.000Z</time>
      </trkpt>
      <trkpt lat="46.6339" lon="5.87127">
        <ele>886.20001220703</ele>
        <time>2019-06-17T12:02:14.000Z</time>
      </trkpt>
      <trkpt lat="46.63392" lon="5.87128">
        <ele>886.20001220703</ele>
        <time>2019-06-17T12:02:43.000Z</time>
      </trkpt>
      <trkpt lat="46.63393" lon="5.87131">
        <ele>886.40002441406</ele>
        <time>2019-06-17T12:02:48.000Z</time>
      </trkpt>
      <trkpt lat="46.63394" lon="5.87134">
        <ele>886.59997558594</ele>
        <time>2019-06-17T12:02:51.000Z</time>
      </trkpt>
      <trkpt lat="46.63396" lon="5.87134">
        <ele>886.40002441406</ele>
        <time>2019-06-17T12:03:01.000Z</time>
      </trkpt>
      <trkpt lat="46.63398" lon="5.87133">
        <ele>886.79998779297</ele>
        <time>2019-06-17T12:03:05.000Z</time>
      </trkpt>
      <trkpt lat="46.63398" lon="5.87131">
        <ele>885.79998779297</ele>
        <time>2019-06-17T12:03:11.000Z</time>
      </trkpt>
      <trkpt lat="46.63398" lon="5.87128">
        <ele>885.59997558594</ele>
        <time>2019-06-17T12:03:15.000Z</time>
      </trkpt>
      <trkpt lat="46.63399" lon="5.87125">
        <ele>885.59997558594</ele>
        <time>2019-06-17T12:03:37.000Z</time>
      </trkpt>
      <trkpt lat="46.634" lon="5.87123">
        <ele>885.59997558594</ele>
        <time>2019-06-17T12:03:46.000Z</time>
      </trkpt>
      <trkpt lat="46.63399" lon="5.8712">
        <ele>885.59997558594</ele>
        <time>2019-06-17T12:03:54.000Z</time>
      </trkpt>
      <trkpt lat="46.63399" lon="5.87117">
        <ele>885.59997558594</ele>
        <time>2019-06-17T12:03:58.000Z</time>
      </trkpt>
      <trkpt lat="46.634" lon="5.87114">
        <ele>885.59997558594</ele>
        <time>2019-06-17T12:04:01.000Z</time>
      </trkpt>
      <trkpt lat="46.634" lon="5.87111">
        <ele>885.59997558594</ele>
        <time>2019-06-17T12:04:03.000Z</time>
      </trkpt>
      <trkpt lat="46.63401" lon="5.87109">
        <ele>885.59997558594</ele>
        <time>2019-06-17T12:04:05.000Z</time>
      </trkpt>
      <trkpt lat="46.63401" lon="5.87106">
        <ele>885.59997558594</ele>
        <time>2019-06-17T12:04:07.000Z</time>
      </trkpt>
      <trkpt lat="46.63401" lon="5.87103">
        <ele>885.59997558594</ele>
        <time>2019-06-17T12:04:11.000Z</time>
      </trkpt>
      <trkpt lat="46.634" lon="5.871">
        <ele>885.59997558594</ele>
        <time>2019-06-17T12:04:13.000Z</time>
      </trkpt>
      <trkpt lat="46.63399" lon="5.87097">
        <ele>885.59997558594</ele>
        <time>2019-06-17T12:04:16.000Z</time>
      </trkpt>
      <trkpt lat="46.63398" lon="5.87094">
        <ele>885.59997558594</ele>
        <time>2019-06-17T12:04:20.000Z</time>
      </trkpt>
      <trkpt lat="46.63398" lon="5.8709">
        <ele>885.59997558594</ele>
        <time>2019-06-17T12:04:23.000Z</time>
      </trkpt>
      <trkpt lat="46.63397" lon="5.87087">
        <ele>885.59997558594</ele>
        <time>2019-06-17T12:04:25.000Z</time>
      </trkpt>
      <trkpt lat="46.63398" lon="5.87083">
        <ele>885.59997558594</ele>
        <time>2019-06-17T12:04:28.000Z</time>
      </trkpt>
      <trkpt lat="46.63397" lon="5.87079">
        <ele>885.59997558594</ele>
        <time>2019-06-17T12:04:31.000Z</time>
      </trkpt>
      <trkpt lat="46.63397" lon="5.87076">
        <ele>885.59997558594</ele>
        <time>2019-06-17T12:04:33.000Z</time>
      </trkpt>
      <trkpt lat="46.63397" lon="5.87073">
        <ele>885.59997558594</ele>
        <time>2019-06-17T12:04:35.000Z</time>
      </trkpt>
      <trkpt lat="46.63397" lon="5.87069">
        <ele>885.59997558594</ele>
        <time>2019-06-17T12:04:38.000Z</time>
      </trkpt>
      <trkpt lat="46.63397" lon="5.87066">
        <ele>885.59997558594</ele>
        <time>2019-06-17T12:04:40.000Z</time>
      </trkpt>
      <trkpt lat="46.63397" lon="5.87063">
        <ele>885.59997558594</ele>
        <time>2019-06-17T12:04:43.000Z</time>
      </trkpt>
      <trkpt lat="46.63397" lon="5.8706">
        <ele>885.59997558594</ele>
        <time>2019-06-17T12:04:45.000Z</time>
      </trkpt>
      <trkpt lat="46.63397" lon="5.87057">
        <ele>885.59997558594</ele>
        <time>2019-06-17T12:04:47.000Z</time>
      </trkpt>
      <trkpt lat="46.63396" lon="5.87054">
        <ele>885.59997558594</ele>
        <time>2019-06-17T12:04:49.000Z</time>
      </trkpt>
      <trkpt lat="46.63396" lon="5.8705">
        <ele>885.59997558594</ele>
        <time>2019-06-17T12:04:51.000Z</time>
      </trkpt>
      <trkpt lat="46.63396" lon="5.87047">
        <ele>885.59997558594</ele>
        <time>2019-06-17T12:04:53.000Z</time>
      </trkpt>
      <trkpt lat="46.63395" lon="5.87044">
        <ele>889.59997558594</ele>
        <time>2019-06-17T12:04:56.000Z</time>
      </trkpt>
      <trkpt lat="46.63395" lon="5.8704">
        <ele>889.79998779297</ele>
        <time>2019-06-17T12:04:58.000Z</time>
      </trkpt>
      <trkpt lat="46.63394" lon="5.87037">
        <ele>890</ele>
        <time>2019-06-17T12:05:00.000Z</time>
      </trkpt>
      <trkpt lat="46.63395" lon="5.87034">
        <ele>890</ele>
        <time>2019-06-17T12:05:02.000Z</time>
      </trkpt>
      <trkpt lat="46.63395" lon="5.87031">
        <ele>890.20001220703</ele>
        <time>2019-06-17T12:05:04.000Z</time>
      </trkpt>
      <trkpt lat="46.63395" lon="5.87027">
        <ele>890.40002441406</ele>
        <time>2019-06-17T12:05:06.000Z</time>
      </trkpt>
      <trkpt lat="46.63394" lon="5.87024">
        <ele>890.40002441406</ele>
        <time>2019-06-17T12:05:09.000Z</time>
      </trkpt>
      <trkpt lat="46.63394" lon="5.87021">
        <ele>890.59997558594</ele>
        <time>2019-06-17T12:05:12.000Z</time>
      </trkpt>
      <trkpt lat="46.63394" lon="5.87018">
        <ele>890.40002441406</ele>
        <time>2019-06-17T12:05:14.000Z</time>
      </trkpt>
      <trkpt lat="46.63396" lon="5.87015">
        <ele>890.40002441406</ele>
        <time>2019-06-17T12:05:16.000Z</time>
      </trkpt>
      <trkpt lat="46.63396" lon="5.87011">
        <ele>890.79998779297</ele>
        <time>2019-06-17T12:05:18.000Z</time>
      </trkpt>
      <trkpt lat="46.63396" lon="5.87008">
        <ele>891</ele>
        <time>2019-06-17T12:05:20.000Z</time>
      </trkpt>
      <trkpt lat="46.63396" lon="5.87006">
        <ele>891.40002441406</ele>
        <time>2019-06-17T12:05:22.000Z</time>
      </trkpt>
      <trkpt lat="46.63396" lon="5.87003">
        <ele>891.20001220703</ele>
        <time>2019-06-17T12:05:24.000Z</time>
      </trkpt>
      <trkpt lat="46.63396" lon="5.86999">
        <ele>891.20001220703</ele>
        <time>2019-06-17T12:05:26.000Z</time>
      </trkpt>
      <trkpt lat="46.63396" lon="5.86996">
        <ele>891.40002441406</ele>
        <time>2019-06-17T12:05:28.000Z</time>
      </trkpt>
      <trkpt lat="46.63395" lon="5.86992">
        <ele>891.79998779297</ele>
        <time>2019-06-17T12:05:31.000Z</time>
      </trkpt>
      <trkpt lat="46.63395" lon="5.86988">
        <ele>892</ele>
        <time>2019-06-17T12:05:34.000Z</time>
      </trkpt>
      <trkpt lat="46.63394" lon="5.86984">
        <ele>891.79998779297</ele>
        <time>2019-06-17T12:05:37.000Z</time>
      </trkpt>
      <trkpt lat="46.63395" lon="5.86981">
        <ele>892.20001220703</ele>
        <time>2019-06-17T12:05:39.000Z</time>
      </trkpt>
      <trkpt lat="46.63396" lon="5.86978">
        <ele>892.20001220703</ele>
        <time>2019-06-17T12:05:41.000Z</time>
      </trkpt>
      <trkpt lat="46.63396" lon="5.86974">
        <ele>892</ele>
        <time>2019-06-17T12:05:43.000Z</time>
      </trkpt>
      <trkpt lat="46.63395" lon="5.86972">
        <ele>892.20001220703</ele>
        <time>2019-06-17T12:05:45.000Z</time>
      </trkpt>
      <trkpt lat="46.63394" lon="5.8697">
        <ele>892</ele>
        <time>2019-06-17T12:05:47.000Z</time>
      </trkpt>
      <trkpt lat="46.63393" lon="5.86967">
        <ele>891.79998779297</ele>
        <time>2019-06-17T12:05:49.000Z</time>
      </trkpt>
      <trkpt lat="46.63392" lon="5.86963">
        <ele>891.59997558594</ele>
        <time>2019-06-17T12:05:51.000Z</time>
      </trkpt>
      <trkpt lat="46.63392" lon="5.8696">
        <ele>891.59997558594</ele>
        <time>2019-06-17T12:05:53.000Z</time>
      </trkpt>
      <trkpt lat="46.63392" lon="5.86957">
        <ele>891</ele>
        <time>2019-06-17T12:05:55.000Z</time>
      </trkpt>
      <trkpt lat="46.63393" lon="5.86954">
        <ele>891</ele>
        <time>2019-06-17T12:05:57.000Z</time>
      </trkpt>
      <trkpt lat="46.63394" lon="5.86951">
        <ele>891</ele>
        <time>2019-06-17T12:05:59.000Z</time>
      </trkpt>
      <trkpt lat="46.63394" lon="5.86948">
        <ele>890.99960141153</ele>
        <time>2019-06-17T12:06:01.000Z</time>
      </trkpt>
      <trkpt lat="46.63394" lon="5.86945">
        <ele>890.59997558594</ele>
        <time>2019-06-17T12:06:03.000Z</time>
      </trkpt>
      <trkpt lat="46.63394" lon="5.86942">
        <ele>890.79998779297</ele>
        <time>2019-06-17T12:06:04.000Z</time>
      </trkpt>
      <trkpt lat="46.63395" lon="5.86939">
        <ele>891</ele>
        <time>2019-06-17T12:06:05.000Z</time>
      </trkpt>
      <trkpt lat="46.63396" lon="5.86935">
        <ele>890.79998779297</ele>
        <time>2019-06-17T12:06:07.000Z</time>
      </trkpt>
      <trkpt lat="46.63396" lon="5.86931">
        <ele>890.59997558594</ele>
        <time>2019-06-17T12:06:09.000Z</time>
      </trkpt>
      <trkpt lat="46.63397" lon="5.86927">
        <ele>890.79998779297</ele>
        <time>2019-06-17T12:06:11.000Z</time>
      </trkpt>
      <trkpt lat="46.63398" lon="5.86925">
        <ele>890.79998779297</ele>
        <time>2019-06-17T12:06:14.000Z</time>
      </trkpt>
      <trkpt lat="46.634" lon="5.86923">
        <ele>890.40002441406</ele>
        <time>2019-06-17T12:06:16.000Z</time>
      </trkpt>
      <trkpt lat="46.63402" lon="5.86921">
        <ele>890</ele>
        <time>2019-06-17T12:06:19.000Z</time>
      </trkpt>
      <trkpt lat="46.63404" lon="5.86919">
        <ele>889.79998779297</ele>
        <time>2019-06-17T12:06:22.000Z</time>
      </trkpt>
      <trkpt lat="46.63406" lon="5.86917">
        <ele>889.59997558594</ele>
        <time>2019-06-17T12:06:23.000Z</time>
      </trkpt>
      <trkpt lat="46.63408" lon="5.86914">
        <ele>889.20001220703</ele>
        <time>2019-06-17T12:06:25.000Z</time>
      </trkpt>
      <trkpt lat="46.63409" lon="5.86912">
        <ele>889</ele>
        <time>2019-06-17T12:06:27.000Z</time>
      </trkpt>
      <trkpt lat="46.6341" lon="5.8691">
        <ele>889</ele>
        <time>2019-06-17T12:06:29.000Z</time>
      </trkpt>
      <trkpt lat="46.63411" lon="5.86907">
        <ele>888.59997558594</ele>
        <time>2019-06-17T12:06:32.000Z</time>
      </trkpt>
      <trkpt lat="46.63414" lon="5.86904">
        <ele>888.20001220703</ele>
        <time>2019-06-17T12:06:34.000Z</time>
      </trkpt>
      <trkpt lat="46.63415" lon="5.86901">
        <ele>888.40002441406</ele>
        <time>2019-06-17T12:06:36.000Z</time>
      </trkpt>
      <trkpt lat="46.63418" lon="5.86899">
        <ele>888.20001220703</ele>
        <time>2019-06-17T12:06:38.000Z</time>
      </trkpt>
      <trkpt lat="46.6342" lon="5.86897">
        <ele>888</ele>
        <time>2019-06-17T12:06:40.000Z</time>
      </trkpt>
      <trkpt lat="46.63422" lon="5.86895">
        <ele>888</ele>
        <time>2019-06-17T12:06:42.000Z</time>
      </trkpt>
      <trkpt lat="46.63424" lon="5.86893">
        <ele>887.79998779297</ele>
        <time>2019-06-17T12:06:45.000Z</time>
      </trkpt>
      <trkpt lat="46.63426" lon="5.86891">
        <ele>887.79998779297</ele>
        <time>2019-06-17T12:06:47.000Z</time>
      </trkpt>
      <trkpt lat="46.63427" lon="5.86889">
        <ele>888.20001220703</ele>
        <time>2019-06-17T12:06:50.000Z</time>
      </trkpt>
      <trkpt lat="46.63429" lon="5.86887">
        <ele>888.19981271402</ele>
        <time>2019-06-17T12:06:52.000Z</time>
      </trkpt>
      <trkpt lat="46.63431" lon="5.86886">
        <ele>888.20001220703</ele>
        <time>2019-06-17T12:06:54.000Z</time>
      </trkpt>
      <trkpt lat="46.63432" lon="5.86883">
        <ele>888</ele>
        <time>2019-06-17T12:06:57.000Z</time>
      </trkpt>
      <trkpt lat="46.63434" lon="5.86881">
        <ele>887.59997558594</ele>
        <time>2019-06-17T12:07:00.000Z</time>
      </trkpt>
      <trkpt lat="46.63438" lon="5.86877">
        <ele>887.40002441406</ele>
        <time>2019-06-17T12:07:04.000Z</time>
      </trkpt>
      <trkpt lat="46.63439" lon="5.86874">
        <ele>887.40002441406</ele>
        <time>2019-06-17T12:07:06.000Z</time>
      </trkpt>
      <trkpt lat="46.63441" lon="5.86872">
        <ele>887.40002441406</ele>
        <time>2019-06-17T12:07:08.000Z</time>
      </trkpt>
      <trkpt lat="46.63443" lon="5.8687">
        <ele>887.40002441406</ele>
        <time>2019-06-17T12:07:10.000Z</time>
      </trkpt>
      <trkpt lat="46.63445" lon="5.86868">
        <ele>887.40002441406</ele>
        <time>2019-06-17T12:07:12.000Z</time>
      </trkpt>
      <trkpt lat="46.6345" lon="5.86855">
        <ele>887.20001220703</ele>
        <time>2019-06-17T12:07:21.000Z</time>
      </trkpt>
      <trkpt lat="46.63454" lon="5.86845">
        <ele>886.79998779297</ele>
        <time>2019-06-17T12:07:27.000Z</time>
      </trkpt>
      <trkpt lat="46.63455" lon="5.86843">
        <ele>886.79998779297</ele>
        <time>2019-06-17T12:07:28.000Z</time>
      </trkpt>
      <trkpt lat="46.63458" lon="5.86839">
        <ele>886.59997558594</ele>
        <time>2019-06-17T12:07:30.000Z</time>
      </trkpt>
      <trkpt lat="46.63461" lon="5.86834">
        <ele>885.79998779297</ele>
        <time>2019-06-17T12:07:34.000Z</time>
      </trkpt>
      <trkpt lat="46.63463" lon="5.86831">
        <ele>885.20001220703</ele>
        <time>2019-06-17T12:07:36.000Z</time>
      </trkpt>
      <trkpt lat="46.63465" lon="5.86828">
        <ele>885.20001220703</ele>
        <time>2019-06-17T12:07:38.000Z</time>
      </trkpt>
      <trkpt lat="46.63466" lon="5.86826">
        <ele>885.20001220703</ele>
        <time>2019-06-17T12:07:40.000Z</time>
      </trkpt>
      <trkpt lat="46.63468" lon="5.86824">
        <ele>885</ele>
        <time>2019-06-17T12:07:42.000Z</time>
      </trkpt>
      <trkpt lat="46.6347" lon="5.86822">
        <ele>885</ele>
        <time>2019-06-17T12:07:44.000Z</time>
      </trkpt>
      <trkpt lat="46.63472" lon="5.8682">
        <ele>885.20001220703</ele>
        <time>2019-06-17T12:07:46.000Z</time>
      </trkpt>
      <trkpt lat="46.63474" lon="5.86819">
        <ele>885.20001220703</ele>
        <time>2019-06-17T12:07:48.000Z</time>
      </trkpt>
      <trkpt lat="46.63477" lon="5.86817">
        <ele>885</ele>
        <time>2019-06-17T12:07:50.000Z</time>
      </trkpt>
      <trkpt lat="46.63479" lon="5.86814">
        <ele>885.20001220703</ele>
        <time>2019-06-17T12:07:54.000Z</time>
      </trkpt>
      <trkpt lat="46.63479" lon="5.86812">
        <ele>885.20001220703</ele>
        <time>2019-06-17T12:07:56.000Z</time>
      </trkpt>
      <trkpt lat="46.6348" lon="5.86808">
        <ele>885</ele>
        <time>2019-06-17T12:07:58.000Z</time>
      </trkpt>
      <trkpt lat="46.63482" lon="5.86805">
        <ele>885.20001220703</ele>
        <time>2019-06-17T12:08:00.000Z</time>
      </trkpt>
      <trkpt lat="46.63483" lon="5.86802">
        <ele>885</ele>
        <time>2019-06-17T12:08:02.000Z</time>
      </trkpt>
      <trkpt lat="46.63485" lon="5.86799">
        <ele>884.79998779297</ele>
        <time>2019-06-17T12:08:04.000Z</time>
      </trkpt>
      <trkpt lat="46.63486" lon="5.86797">
        <ele>885</ele>
        <time>2019-06-17T12:08:06.000Z</time>
      </trkpt>
      <trkpt lat="46.63486" lon="5.86794">
        <ele>885</ele>
        <time>2019-06-17T12:08:08.000Z</time>
      </trkpt>
      <trkpt lat="46.63488" lon="5.86781">
        <ele>884.40002441406</ele>
        <time>2019-06-17T12:08:25.000Z</time>
      </trkpt>
      <trkpt lat="46.63488" lon="5.86767">
        <ele>883</ele>
        <time>2019-06-17T12:08:35.000Z</time>
      </trkpt>
      <trkpt lat="46.63491" lon="5.86753">
        <ele>881.20001220703</ele>
        <time>2019-06-17T12:08:45.000Z</time>
      </trkpt>
      <trkpt lat="46.63492" lon="5.8674">
        <ele>880.79998779297</ele>
        <time>2019-06-17T12:08:54.000Z</time>
      </trkpt>
      <trkpt lat="46.63494" lon="5.86726">
        <ele>879.59997558594</ele>
        <time>2019-06-17T12:09:01.000Z</time>
      </trkpt>
      <trkpt lat="46.63498" lon="5.86714">
        <ele>879</ele>
        <time>2019-06-17T12:09:06.000Z</time>
      </trkpt>
      <trkpt lat="46.63503" lon="5.86701">
        <ele>877.59997558594</ele>
        <time>2019-06-17T12:09:15.000Z</time>
      </trkpt>
      <trkpt lat="46.6351" lon="5.86692">
        <ele>876.20001220703</ele>
        <time>2019-06-17T12:09:23.000Z</time>
      </trkpt>
      <trkpt lat="46.63518" lon="5.86685">
        <ele>875.79998779297</ele>
        <time>2019-06-17T12:09:31.000Z</time>
      </trkpt>
      <trkpt lat="46.63525" lon="5.86675">
        <ele>875</ele>
        <time>2019-06-17T12:09:40.000Z</time>
      </trkpt>
      <trkpt lat="46.63534" lon="5.86677">
        <ele>874.59997558594</ele>
        <time>2019-06-17T12:09:47.000Z</time>
      </trkpt>
      <trkpt lat="46.63544" lon="5.86682">
        <ele>874</ele>
        <time>2019-06-17T12:09:53.000Z</time>
      </trkpt>
      <trkpt lat="46.63553" lon="5.8668">
        <ele>874.20001220703</ele>
        <time>2019-06-17T12:10:00.000Z</time>
      </trkpt>
      <trkpt lat="46.63555" lon="5.86667">
        <ele>873.40002441406</ele>
        <time>2019-06-17T12:10:12.000Z</time>
      </trkpt>
      <trkpt lat="46.63559" lon="5.86655">
        <ele>872.20001220703</ele>
        <time>2019-06-17T12:10:22.000Z</time>
      </trkpt>
      <trkpt lat="46.63564" lon="5.86643">
        <ele>870.40002441406</ele>
        <time>2019-06-17T12:10:28.000Z</time>
      </trkpt>
      <trkpt lat="46.63563" lon="5.86629">
        <ele>869.20001220703</ele>
        <time>2019-06-17T12:10:36.000Z</time>
      </trkpt>
      <trkpt lat="46.63563" lon="5.86616">
        <ele>867.59997558594</ele>
        <time>2019-06-17T12:10:47.000Z</time>
      </trkpt>
      <trkpt lat="46.63568" lon="5.86604">
        <ele>866.59997558594</ele>
        <time>2019-06-17T12:10:58.000Z</time>
      </trkpt>
      <trkpt lat="46.63566" lon="5.86588">
        <ele>866</ele>
        <time>2019-06-17T12:11:06.000Z</time>
      </trkpt>
      <trkpt lat="46.6356" lon="5.86578">
        <ele>865.59997558594</ele>
        <time>2019-06-17T12:11:15.000Z</time>
      </trkpt>
      <trkpt lat="46.63554" lon="5.86568">
        <ele>865.79998779297</ele>
        <time>2019-06-17T12:11:24.000Z</time>
      </trkpt>
      <trkpt lat="46.6355" lon="5.86554">
        <ele>866</ele>
        <time>2019-06-17T12:11:31.000Z</time>
      </trkpt>
      <trkpt lat="46.6355" lon="5.8654">
        <ele>865.79998779297</ele>
        <time>2019-06-17T12:11:40.000Z</time>
      </trkpt>
      <trkpt lat="46.63551" lon="5.86537">
        <ele>865.79998779297</ele>
        <time>2019-06-17T12:11:41.000Z</time>
      </trkpt>
      <trkpt lat="46.63552" lon="5.86533">
        <ele>865.79998779297</ele>
        <time>2019-06-17T12:11:43.000Z</time>
      </trkpt>
      <trkpt lat="46.63553" lon="5.86521">
        <ele>866</ele>
        <time>2019-06-17T12:11:49.000Z</time>
      </trkpt>
      <trkpt lat="46.63555" lon="5.86514">
        <ele>865.59997558594</ele>
        <time>2019-06-17T12:11:54.000Z</time>
      </trkpt>
      <trkpt lat="46.63557" lon="5.86511">
        <ele>865.59997558594</ele>
        <time>2019-06-17T12:11:56.000Z</time>
      </trkpt>
      <trkpt lat="46.63559" lon="5.86508">
        <ele>866</ele>
        <time>2019-06-17T12:11:58.000Z</time>
      </trkpt>
      <trkpt lat="46.6356" lon="5.86505">
        <ele>865.59997558594</ele>
        <time>2019-06-17T12:12:00.000Z</time>
      </trkpt>
      <trkpt lat="46.63561" lon="5.86502">
        <ele>866</ele>
        <time>2019-06-17T12:12:03.000Z</time>
      </trkpt>
      <trkpt lat="46.63564" lon="5.865">
        <ele>866.20001220703</ele>
        <time>2019-06-17T12:12:06.000Z</time>
      </trkpt>
      <trkpt lat="46.63566" lon="5.86498">
        <ele>866.79998779297</ele>
        <time>2019-06-17T12:12:08.000Z</time>
      </trkpt>
      <trkpt lat="46.63567" lon="5.86494">
        <ele>867.40002441406</ele>
        <time>2019-06-17T12:12:10.000Z</time>
      </trkpt>
      <trkpt lat="46.63569" lon="5.86492">
        <ele>866.59997558594</ele>
        <time>2019-06-17T12:12:12.000Z</time>
      </trkpt>
      <trkpt lat="46.6357" lon="5.86488">
        <ele>866.20001220703</ele>
        <time>2019-06-17T12:12:14.000Z</time>
      </trkpt>
      <trkpt lat="46.63571" lon="5.86482">
        <ele>866</ele>
        <time>2019-06-17T12:12:18.000Z</time>
      </trkpt>
      <trkpt lat="46.63571" lon="5.86479">
        <ele>866</ele>
        <time>2019-06-17T12:12:20.000Z</time>
      </trkpt>
      <trkpt lat="46.63572" lon="5.86476">
        <ele>865.59997558594</ele>
        <time>2019-06-17T12:12:22.000Z</time>
      </trkpt>
      <trkpt lat="46.63572" lon="5.86473">
        <ele>865.40002441406</ele>
        <time>2019-06-17T12:12:24.000Z</time>
      </trkpt>
      <trkpt lat="46.63573" lon="5.8647">
        <ele>865.40002441406</ele>
        <time>2019-06-17T12:12:26.000Z</time>
      </trkpt>
      <trkpt lat="46.63573" lon="5.86467">
        <ele>865.40002441406</ele>
        <time>2019-06-17T12:12:28.000Z</time>
      </trkpt>
      <trkpt lat="46.63573" lon="5.86464">
        <ele>865.40002441406</ele>
        <time>2019-06-17T12:12:30.000Z</time>
      </trkpt>
      <trkpt lat="46.63573" lon="5.86459">
        <ele>865.20001220703</ele>
        <time>2019-06-17T12:12:33.000Z</time>
      </trkpt>
      <trkpt lat="46.63572" lon="5.86455">
        <ele>864.79998779297</ele>
        <time>2019-06-17T12:12:35.000Z</time>
      </trkpt>
      <trkpt lat="46.63572" lon="5.86452">
        <ele>864.79998779297</ele>
        <time>2019-06-17T12:12:37.000Z</time>
      </trkpt>
      <trkpt lat="46.63572" lon="5.86449">
        <ele>864.79998779297</ele>
        <time>2019-06-17T12:12:39.000Z</time>
      </trkpt>
      <trkpt lat="46.63571" lon="5.86446">
        <ele>864.40002441406</ele>
        <time>2019-06-17T12:12:41.000Z</time>
      </trkpt>
      <trkpt lat="46.63571" lon="5.86443">
        <ele>864.40002441406</ele>
        <time>2019-06-17T12:12:43.000Z</time>
      </trkpt>
      <trkpt lat="46.63572" lon="5.86428">
        <ele>864</ele>
        <time>2019-06-17T12:12:52.000Z</time>
      </trkpt>
      <trkpt lat="46.63573" lon="5.86426">
        <ele>863.79998779297</ele>
        <time>2019-06-17T12:12:55.000Z</time>
      </trkpt>
      <trkpt lat="46.63575" lon="5.86412">
        <ele>863</ele>
        <time>2019-06-17T12:13:07.000Z</time>
      </trkpt>
      <trkpt lat="46.63576" lon="5.86409">
        <ele>862.79998779297</ele>
        <time>2019-06-17T12:13:08.000Z</time>
      </trkpt>
      <trkpt lat="46.63576" lon="5.86407">
        <ele>862.79998779297</ele>
        <time>2019-06-17T12:13:09.000Z</time>
      </trkpt>
      <trkpt lat="46.63577" lon="5.86403">
        <ele>862.20001220703</ele>
        <time>2019-06-17T12:13:11.000Z</time>
      </trkpt>
      <trkpt lat="46.63579" lon="5.86401">
        <ele>861.79998779297</ele>
        <time>2019-06-17T12:13:13.000Z</time>
      </trkpt>
      <trkpt lat="46.63579" lon="5.86396">
        <ele>861.20001220703</ele>
        <time>2019-06-17T12:13:17.000Z</time>
      </trkpt>
      <trkpt lat="46.63582" lon="5.86383">
        <ele>861.40002441406</ele>
        <time>2019-06-17T12:13:25.000Z</time>
      </trkpt>
      <trkpt lat="46.63587" lon="5.86371">
        <ele>860.40002441406</ele>
        <time>2019-06-17T12:13:35.000Z</time>
      </trkpt>
      <trkpt lat="46.63592" lon="5.86359">
        <ele>860</ele>
        <time>2019-06-17T12:13:43.000Z</time>
      </trkpt>
      <trkpt lat="46.63599" lon="5.86349">
        <ele>859.40002441406</ele>
        <time>2019-06-17T12:13:51.000Z</time>
      </trkpt>
      <trkpt lat="46.63607" lon="5.86341">
        <ele>858</ele>
        <time>2019-06-17T12:14:01.000Z</time>
      </trkpt>
      <trkpt lat="46.63613" lon="5.8633">
        <ele>855.59997558594</ele>
        <time>2019-06-17T12:14:11.000Z</time>
      </trkpt>
      <trkpt lat="46.63615" lon="5.86316">
        <ele>855.20001220703</ele>
        <time>2019-06-17T12:14:18.000Z</time>
      </trkpt>
      <trkpt lat="46.63616" lon="5.86302">
        <ele>854.59997558594</ele>
        <time>2019-06-17T12:14:26.000Z</time>
      </trkpt>
      <trkpt lat="46.63617" lon="5.86289">
        <ele>854.79998779297</ele>
        <time>2019-06-17T12:14:37.000Z</time>
      </trkpt>
      <trkpt lat="46.63619" lon="5.86275">
        <ele>855.40002441406</ele>
        <time>2019-06-17T12:14:46.000Z</time>
      </trkpt>
      <trkpt lat="46.63619" lon="5.86272">
        <ele>855.40002441406</ele>
        <time>2019-06-17T12:14:47.000Z</time>
      </trkpt>
      <trkpt lat="46.63619" lon="5.86268">
        <ele>855.20001220703</ele>
        <time>2019-06-17T12:14:49.000Z</time>
      </trkpt>
      <trkpt lat="46.6362" lon="5.86262">
        <ele>855.79998779297</ele>
        <time>2019-06-17T12:14:53.000Z</time>
      </trkpt>
      <trkpt lat="46.63621" lon="5.86258">
        <ele>855.79998779297</ele>
        <time>2019-06-17T12:14:56.000Z</time>
      </trkpt>
      <trkpt lat="46.63623" lon="5.86253">
        <ele>856.40002441406</ele>
        <time>2019-06-17T12:15:00.000Z</time>
      </trkpt>
      <trkpt lat="46.63624" lon="5.8625">
        <ele>856.59997558594</ele>
        <time>2019-06-17T12:15:02.000Z</time>
      </trkpt>
      <trkpt lat="46.63625" lon="5.86248">
        <ele>856.59997558594</ele>
        <time>2019-06-17T12:15:04.000Z</time>
      </trkpt>
      <trkpt lat="46.63626" lon="5.86244">
        <ele>856.40002441406</ele>
        <time>2019-06-17T12:15:06.000Z</time>
      </trkpt>
      <trkpt lat="46.63626" lon="5.86241">
        <ele>856.79998779297</ele>
        <time>2019-06-17T12:15:08.000Z</time>
      </trkpt>
      <trkpt lat="46.63627" lon="5.86236">
        <ele>856.40002441406</ele>
        <time>2019-06-17T12:15:14.000Z</time>
      </trkpt>
      <trkpt lat="46.63626" lon="5.86233">
        <ele>856.20001220703</ele>
        <time>2019-06-17T12:15:16.000Z</time>
      </trkpt>
      <trkpt lat="46.6363" lon="5.86232">
        <ele>855.79998779297</ele>
        <time>2019-06-17T12:15:27.000Z</time>
      </trkpt>
      <trkpt lat="46.63622" lon="5.86224">
        <ele>855.40002441406</ele>
        <time>2019-06-17T12:15:43.000Z</time>
      </trkpt>
      <trkpt lat="46.63613" lon="5.86217">
        <ele>854.59997558594</ele>
        <time>2019-06-17T12:15:53.000Z</time>
      </trkpt>
      <trkpt lat="46.63605" lon="5.86212">
        <ele>852.59997558594</ele>
        <time>2019-06-17T12:16:02.000Z</time>
      </trkpt>
      <trkpt lat="46.63595" lon="5.86207">
        <ele>851.20001220703</ele>
        <time>2019-06-17T12:16:09.000Z</time>
      </trkpt>
      <trkpt lat="46.63587" lon="5.862">
        <ele>850.20001220703</ele>
        <time>2019-06-17T12:16:15.000Z</time>
      </trkpt>
      <trkpt lat="46.6358" lon="5.86191">
        <ele>850.20001220703</ele>
        <time>2019-06-17T12:16:23.000Z</time>
      </trkpt>
      <trkpt lat="46.63574" lon="5.86181">
        <ele>850.59997558594</ele>
        <time>2019-06-17T12:16:32.000Z</time>
      </trkpt>
      <trkpt lat="46.63568" lon="5.86169">
        <ele>851.40002441406</ele>
        <time>2019-06-17T12:16:40.000Z</time>
      </trkpt>
      <trkpt lat="46.63562" lon="5.86158">
        <ele>851</ele>
        <time>2019-06-17T12:16:47.000Z</time>
      </trkpt>
      <trkpt lat="46.63553" lon="5.86155">
        <ele>851</ele>
        <time>2019-06-17T12:16:56.000Z</time>
      </trkpt>
      <trkpt lat="46.63543" lon="5.8615">
        <ele>849.79998779297</ele>
        <time>2019-06-17T12:17:06.000Z</time>
      </trkpt>
      <trkpt lat="46.63533" lon="5.86147">
        <ele>848.20001220703</ele>
        <time>2019-06-17T12:17:16.000Z</time>
      </trkpt>
      <trkpt lat="46.63524" lon="5.86143">
        <ele>846.59997558594</ele>
        <time>2019-06-17T12:17:25.000Z</time>
      </trkpt>
      <trkpt lat="46.63515" lon="5.86142">
        <ele>845.20001220703</ele>
        <time>2019-06-17T12:17:34.000Z</time>
      </trkpt>
      <trkpt lat="46.63505" lon="5.86142">
        <ele>843</ele>
        <time>2019-06-17T12:17:47.000Z</time>
      </trkpt>
      <trkpt lat="46.63496" lon="5.86139">
        <ele>841.59997558594</ele>
        <time>2019-06-17T12:17:54.000Z</time>
      </trkpt>
      <trkpt lat="46.63487" lon="5.86135">
        <ele>841</ele>
        <time>2019-06-17T12:18:00.000Z</time>
      </trkpt>
      <trkpt lat="46.63478" lon="5.86129">
        <ele>838.79998779297</ele>
        <time>2019-06-17T12:18:14.000Z</time>
      </trkpt>
      <trkpt lat="46.6347" lon="5.8612">
        <ele>837.20001220703</ele>
        <time>2019-06-17T12:18:23.000Z</time>
      </trkpt>
      <trkpt lat="46.63462" lon="5.86111">
        <ele>836.59997558594</ele>
        <time>2019-06-17T12:18:30.000Z</time>
      </trkpt>
      <trkpt lat="46.63454" lon="5.86102">
        <ele>836</ele>
        <time>2019-06-17T12:18:38.000Z</time>
      </trkpt>
      <trkpt lat="46.63452" lon="5.86088">
        <ele>836.20001220703</ele>
        <time>2019-06-17T12:18:46.000Z</time>
      </trkpt>
      <trkpt lat="46.63449" lon="5.86075">
        <ele>835.59997558594</ele>
        <time>2019-06-17T12:18:53.000Z</time>
      </trkpt>
      <trkpt lat="46.63446" lon="5.86062">
        <ele>835.40002441406</ele>
        <time>2019-06-17T12:19:00.000Z</time>
      </trkpt>
      <trkpt lat="46.63444" lon="5.86046">
        <ele>834.79998779297</ele>
        <time>2019-06-17T12:19:09.000Z</time>
      </trkpt>
      <trkpt lat="46.63447" lon="5.86032">
        <ele>835</ele>
        <time>2019-06-17T12:19:15.000Z</time>
      </trkpt>
      <trkpt lat="46.63442" lon="5.8602">
        <ele>835</ele>
        <time>2019-06-17T12:19:26.000Z</time>
      </trkpt>
      <trkpt lat="46.63438" lon="5.86008">
        <ele>835</ele>
        <time>2019-06-17T12:19:32.000Z</time>
      </trkpt>
      <trkpt lat="46.63434" lon="5.85996">
        <ele>834.79998779297</ele>
        <time>2019-06-17T12:19:40.000Z</time>
      </trkpt>
      <trkpt lat="46.63432" lon="5.85983">
        <ele>835.40002441406</ele>
        <time>2019-06-17T12:19:48.000Z</time>
      </trkpt>
      <trkpt lat="46.63431" lon="5.85969">
        <ele>835.59997558594</ele>
        <time>2019-06-17T12:19:56.000Z</time>
      </trkpt>
      <trkpt lat="46.63431" lon="5.85956">
        <ele>835.79998779297</ele>
        <time>2019-06-17T12:20:02.000Z</time>
      </trkpt>
      <trkpt lat="46.6343" lon="5.85942">
        <ele>836.40002441406</ele>
        <time>2019-06-17T12:20:09.000Z</time>
      </trkpt>
      <trkpt lat="46.63426" lon="5.8593">
        <ele>836.59997558594</ele>
        <time>2019-06-17T12:20:17.000Z</time>
      </trkpt>
      <trkpt lat="46.63426" lon="5.85915">
        <ele>836</ele>
        <time>2019-06-17T12:20:26.000Z</time>
      </trkpt>
      <trkpt lat="46.63424" lon="5.85902">
        <ele>835.79998779297</ele>
        <time>2019-06-17T12:20:35.000Z</time>
      </trkpt>
      <trkpt lat="46.63421" lon="5.85887">
        <ele>835.79998779297</ele>
        <time>2019-06-17T12:20:42.000Z</time>
      </trkpt>
      <trkpt lat="46.63419" lon="5.85873">
        <ele>835.79998779297</ele>
        <time>2019-06-17T12:20:50.000Z</time>
      </trkpt>
      <trkpt lat="46.63418" lon="5.85859">
        <ele>835.79998779297</ele>
        <time>2019-06-17T12:20:59.000Z</time>
      </trkpt>
      <trkpt lat="46.63416" lon="5.85845">
        <ele>835.59997558594</ele>
        <time>2019-06-17T12:21:09.000Z</time>
      </trkpt>
      <trkpt lat="46.63417" lon="5.85831">
        <ele>835</ele>
        <time>2019-06-17T12:21:17.000Z</time>
      </trkpt>
      <trkpt lat="46.63412" lon="5.85819">
        <ele>835</ele>
        <time>2019-06-17T12:21:26.000Z</time>
      </trkpt>
      <trkpt lat="46.63407" lon="5.85809">
        <ele>835</ele>
        <time>2019-06-17T12:21:33.000Z</time>
      </trkpt>
      <trkpt lat="46.63399" lon="5.85802">
        <ele>835</ele>
        <time>2019-06-17T12:21:41.000Z</time>
      </trkpt>
      <trkpt lat="46.63392" lon="5.85793">
        <ele>835</ele>
        <time>2019-06-17T12:21:50.000Z</time>
      </trkpt>
      <trkpt lat="46.63386" lon="5.85782">
        <ele>835</ele>
        <time>2019-06-17T12:21:58.000Z</time>
      </trkpt>
      <trkpt lat="46.63384" lon="5.85769">
        <ele>832.40002441406</ele>
        <time>2019-06-17T12:22:09.000Z</time>
      </trkpt>
      <trkpt lat="46.63378" lon="5.85757">
        <ele>833.59997558594</ele>
        <time>2019-06-17T12:22:20.000Z</time>
      </trkpt>
      <trkpt lat="46.63376" lon="5.85744">
        <ele>832</ele>
        <time>2019-06-17T12:22:29.000Z</time>
      </trkpt>
      <trkpt lat="46.63377" lon="5.8573">
        <ele>831.20001220703</ele>
        <time>2019-06-17T12:22:37.000Z</time>
      </trkpt>
      <trkpt lat="46.6337" lon="5.85721">
        <ele>831.40002441406</ele>
        <time>2019-06-17T12:22:42.000Z</time>
      </trkpt>
      <trkpt lat="46.63364" lon="5.85712">
        <ele>830.79998779297</ele>
        <time>2019-06-17T12:22:47.000Z</time>
      </trkpt>
      <trkpt lat="46.63358" lon="5.85699">
        <ele>830.40002441406</ele>
        <time>2019-06-17T12:22:54.000Z</time>
      </trkpt>
      <trkpt lat="46.63356" lon="5.85685">
        <ele>830.20001220703</ele>
        <time>2019-06-17T12:23:00.000Z</time>
      </trkpt>
      <trkpt lat="46.6335" lon="5.85674">
        <ele>829.79998779297</ele>
        <time>2019-06-17T12:23:10.000Z</time>
      </trkpt>
      <trkpt lat="46.63343" lon="5.85665">
        <ele>829.59997558594</ele>
        <time>2019-06-17T12:23:16.000Z</time>
      </trkpt>
      <trkpt lat="46.63336" lon="5.85654">
        <ele>828.59997558594</ele>
        <time>2019-06-17T12:23:24.000Z</time>
      </trkpt>
      <trkpt lat="46.63332" lon="5.85641">
        <ele>827.40002441406</ele>
        <time>2019-06-17T12:23:34.000Z</time>
      </trkpt>
      <trkpt lat="46.63328" lon="5.85628">
        <ele>826.59997558594</ele>
        <time>2019-06-17T12:23:44.000Z</time>
      </trkpt>
      <trkpt lat="46.63322" lon="5.85618">
        <ele>826.40002441406</ele>
        <time>2019-06-17T12:23:50.000Z</time>
      </trkpt>
      <trkpt lat="46.63317" lon="5.85606">
        <ele>824.59997558594</ele>
        <time>2019-06-17T12:24:01.000Z</time>
      </trkpt>
      <trkpt lat="46.63312" lon="5.85593">
        <ele>823</ele>
        <time>2019-06-17T12:24:11.000Z</time>
      </trkpt>
      <trkpt lat="46.63307" lon="5.85581">
        <ele>822.59997558594</ele>
        <time>2019-06-17T12:24:17.000Z</time>
      </trkpt>
      <trkpt lat="46.63302" lon="5.85569">
        <ele>822.40002441406</ele>
        <time>2019-06-17T12:24:23.000Z</time>
      </trkpt>
      <trkpt lat="46.63298" lon="5.85556">
        <ele>821.79998779297</ele>
        <time>2019-06-17T12:24:31.000Z</time>
      </trkpt>
      <trkpt lat="46.63294" lon="5.85544">
        <ele>821.59997558594</ele>
        <time>2019-06-17T12:24:41.000Z</time>
      </trkpt>
      <trkpt lat="46.63294" lon="5.8553">
        <ele>821.40002441406</ele>
        <time>2019-06-17T12:24:48.000Z</time>
      </trkpt>
      <trkpt lat="46.63297" lon="5.85517">
        <ele>821.20001220703</ele>
        <time>2019-06-17T12:24:53.000Z</time>
      </trkpt>
      <trkpt lat="46.63297" lon="5.85503">
        <ele>821.20001220703</ele>
        <time>2019-06-17T12:25:04.000Z</time>
      </trkpt>
      <trkpt lat="46.63291" lon="5.85492">
        <ele>821.59997558594</ele>
        <time>2019-06-17T12:25:10.000Z</time>
      </trkpt>
      <trkpt lat="46.63282" lon="5.85483">
        <ele>821.20001220703</ele>
        <time>2019-06-17T12:25:22.000Z</time>
      </trkpt>
      <trkpt lat="46.63273" lon="5.85479">
        <ele>820.20001220703</ele>
        <time>2019-06-17T12:25:30.000Z</time>
      </trkpt>
      <trkpt lat="46.63266" lon="5.85468">
        <ele>819.20001220703</ele>
        <time>2019-06-17T12:25:41.000Z</time>
      </trkpt>
      <trkpt lat="46.63258" lon="5.85463">
        <ele>818.79998779297</ele>
        <time>2019-06-17T12:25:48.000Z</time>
      </trkpt>
      <trkpt lat="46.6325" lon="5.85454">
        <ele>818.40002441406</ele>
        <time>2019-06-17T12:25:57.000Z</time>
      </trkpt>
      <trkpt lat="46.63241" lon="5.85448">
        <ele>817</ele>
        <time>2019-06-17T12:26:06.000Z</time>
      </trkpt>
      <trkpt lat="46.63236" lon="5.85444">
        <ele>816.79998779297</ele>
        <time>2019-06-17T12:26:10.000Z</time>
      </trkpt>
      <trkpt lat="46.63227" lon="5.8544">
        <ele>816.20001220703</ele>
        <time>2019-06-17T12:26:19.000Z</time>
      </trkpt>
      <trkpt lat="46.63219" lon="5.85433">
        <ele>815.59997558594</ele>
        <time>2019-06-17T12:26:29.000Z</time>
      </trkpt>
      <trkpt lat="46.63211" lon="5.85426">
        <ele>814.20001220703</ele>
        <time>2019-06-17T12:26:40.000Z</time>
      </trkpt>
      <trkpt lat="46.63202" lon="5.85418">
        <ele>813.79998779297</ele>
        <time>2019-06-17T12:26:46.000Z</time>
      </trkpt>
      <trkpt lat="46.63195" lon="5.8541">
        <ele>812.79998779297</ele>
        <time>2019-06-17T12:26:53.000Z</time>
      </trkpt>
      <trkpt lat="46.63186" lon="5.85406">
        <ele>811.79998779297</ele>
        <time>2019-06-17T12:27:01.000Z</time>
      </trkpt>
      <trkpt lat="46.63179" lon="5.85404">
        <ele>810.79998779297</ele>
        <time>2019-06-17T12:27:08.000Z</time>
      </trkpt>
      <trkpt lat="46.63177" lon="5.85404">
        <ele>810.59997558594</ele>
        <time>2019-06-17T12:27:10.000Z</time>
      </trkpt>
      <trkpt lat="46.63175" lon="5.85404">
        <ele>810</ele>
        <time>2019-06-17T12:27:13.000Z</time>
      </trkpt>
      <trkpt lat="46.63172" lon="5.85404">
        <ele>809.40002441406</ele>
        <time>2019-06-17T12:27:17.000Z</time>
      </trkpt>
      <trkpt lat="46.6317" lon="5.85405">
        <ele>808.59997558594</ele>
        <time>2019-06-17T12:27:19.000Z</time>
      </trkpt>
      <trkpt lat="46.63168" lon="5.85405">
        <ele>808.40002441406</ele>
        <time>2019-06-17T12:27:21.000Z</time>
      </trkpt>
      <trkpt lat="46.63165" lon="5.85406">
        <ele>808.59997558594</ele>
        <time>2019-06-17T12:27:24.000Z</time>
      </trkpt>
      <trkpt lat="46.63163" lon="5.85406">
        <ele>808.20001220703</ele>
        <time>2019-06-17T12:27:26.000Z</time>
      </trkpt>
      <trkpt lat="46.63153" lon="5.85408">
        <ele>806.40002441406</ele>
        <time>2019-06-17T12:27:38.000Z</time>
      </trkpt>
      <trkpt lat="46.63142" lon="5.85407">
        <ele>805.59997558594</ele>
        <time>2019-06-17T12:27:46.000Z</time>
      </trkpt>
      <trkpt lat="46.63133" lon="5.85402">
        <ele>804.59997558594</ele>
        <time>2019-06-17T12:27:54.000Z</time>
      </trkpt>
      <trkpt lat="46.63124" lon="5.85403">
        <ele>803.79998779297</ele>
        <time>2019-06-17T12:28:04.000Z</time>
      </trkpt>
      <trkpt lat="46.63114" lon="5.85405">
        <ele>802.20001220703</ele>
        <time>2019-06-17T12:28:10.000Z</time>
      </trkpt>
      <trkpt lat="46.63105" lon="5.85405">
        <ele>801.79998779297</ele>
        <time>2019-06-17T12:28:18.000Z</time>
      </trkpt>
      <trkpt lat="46.63095" lon="5.85403">
        <ele>800</ele>
        <time>2019-06-17T12:28:24.000Z</time>
      </trkpt>
      <trkpt lat="46.63086" lon="5.85399">
        <ele>799.20001220703</ele>
        <time>2019-06-17T12:28:31.000Z</time>
      </trkpt>
      <trkpt lat="46.63077" lon="5.85396">
        <ele>797.79998779297</ele>
        <time>2019-06-17T12:28:41.000Z</time>
      </trkpt>
      <trkpt lat="46.63068" lon="5.85392">
        <ele>796.40002441406</ele>
        <time>2019-06-17T12:28:53.000Z</time>
      </trkpt>
      <trkpt lat="46.63058" lon="5.85387">
        <ele>795.40002441406</ele>
        <time>2019-06-17T12:29:00.000Z</time>
      </trkpt>
      <trkpt lat="46.63049" lon="5.85382">
        <ele>793.40002441406</ele>
        <time>2019-06-17T12:29:06.000Z</time>
      </trkpt>
      <trkpt lat="46.6304" lon="5.85378">
        <ele>792.40002441406</ele>
        <time>2019-06-17T12:29:13.000Z</time>
      </trkpt>
      <trkpt lat="46.63032" lon="5.85369">
        <ele>791.59997558594</ele>
        <time>2019-06-17T12:29:21.000Z</time>
      </trkpt>
      <trkpt lat="46.63023" lon="5.85366">
        <ele>790.79998779297</ele>
        <time>2019-06-17T12:29:27.000Z</time>
      </trkpt>
      <trkpt lat="46.63014" lon="5.85363">
        <ele>791.20001220703</ele>
        <time>2019-06-17T12:29:35.000Z</time>
      </trkpt>
      <trkpt lat="46.63005" lon="5.85358">
        <ele>790.20001220703</ele>
        <time>2019-06-17T12:29:46.000Z</time>
      </trkpt>
      <trkpt lat="46.62997" lon="5.85353">
        <ele>789.59997558594</ele>
        <time>2019-06-17T12:29:54.000Z</time>
      </trkpt>
      <trkpt lat="46.62987" lon="5.85346">
        <ele>788.79998779297</ele>
        <time>2019-06-17T12:30:02.000Z</time>
      </trkpt>
      <trkpt lat="46.62979" lon="5.85341">
        <ele>788.59997558594</ele>
        <time>2019-06-17T12:30:09.000Z</time>
      </trkpt>
      <trkpt lat="46.62969" lon="5.85339">
        <ele>788.20001220703</ele>
        <time>2019-06-17T12:30:18.000Z</time>
      </trkpt>
      <trkpt lat="46.6296" lon="5.85333">
        <ele>787.40002441406</ele>
        <time>2019-06-17T12:30:25.000Z</time>
      </trkpt>
      <trkpt lat="46.62953" lon="5.85325">
        <ele>786.79998779297</ele>
        <time>2019-06-17T12:30:35.000Z</time>
      </trkpt>
      <trkpt lat="46.62946" lon="5.85316">
        <ele>786.20001220703</ele>
        <time>2019-06-17T12:30:46.000Z</time>
      </trkpt>
      <trkpt lat="46.62939" lon="5.85308">
        <ele>785.79998779297</ele>
        <time>2019-06-17T12:30:56.000Z</time>
      </trkpt>
      <trkpt lat="46.6293" lon="5.85301">
        <ele>785.40002441406</ele>
        <time>2019-06-17T12:31:04.000Z</time>
      </trkpt>
      <trkpt lat="46.6292" lon="5.85299">
        <ele>785</ele>
        <time>2019-06-17T12:31:13.000Z</time>
      </trkpt>
      <trkpt lat="46.62911" lon="5.85297">
        <ele>784</ele>
        <time>2019-06-17T12:31:23.000Z</time>
      </trkpt>
      <trkpt lat="46.62902" lon="5.85293">
        <ele>783.59997558594</ele>
        <time>2019-06-17T12:31:32.000Z</time>
      </trkpt>
      <trkpt lat="46.62892" lon="5.8529">
        <ele>783</ele>
        <time>2019-06-17T12:31:41.000Z</time>
      </trkpt>
      <trkpt lat="46.62882" lon="5.85287">
        <ele>782.40002441406</ele>
        <time>2019-06-17T12:31:49.000Z</time>
      </trkpt>
      <trkpt lat="46.62873" lon="5.85286">
        <ele>781.59997558594</ele>
        <time>2019-06-17T12:31:55.000Z</time>
      </trkpt>
      <trkpt lat="46.62865" lon="5.85281">
        <ele>781.20001220703</ele>
        <time>2019-06-17T12:32:01.000Z</time>
      </trkpt>
      <trkpt lat="46.62856" lon="5.85277">
        <ele>780.59997558594</ele>
        <time>2019-06-17T12:32:13.000Z</time>
      </trkpt>
      <trkpt lat="46.62845" lon="5.85277">
        <ele>779.20001220703</ele>
        <time>2019-06-17T12:32:23.000Z</time>
      </trkpt>
      <trkpt lat="46.62835" lon="5.85278">
        <ele>778</ele>
        <time>2019-06-17T12:32:34.000Z</time>
      </trkpt>
      <trkpt lat="46.62827" lon="5.85285">
        <ele>777.59997558594</ele>
        <time>2019-06-17T12:32:42.000Z</time>
      </trkpt>
      <trkpt lat="46.62818" lon="5.85289">
        <ele>777.40002441406</ele>
        <time>2019-06-17T12:32:48.000Z</time>
      </trkpt>
      <trkpt lat="46.62809" lon="5.85293">
        <ele>776.79998779297</ele>
        <time>2019-06-17T12:32:59.000Z</time>
      </trkpt>
      <trkpt lat="46.628" lon="5.85296">
        <ele>775.79998779297</ele>
        <time>2019-06-17T12:33:07.000Z</time>
      </trkpt>
      <trkpt lat="46.6279" lon="5.85292">
        <ele>775.80038638144</ele>
        <time>2019-06-17T12:33:13.000Z</time>
      </trkpt>
      <trkpt lat="46.62781" lon="5.85288">
        <ele>775.59997558594</ele>
        <time>2019-06-17T12:33:21.000Z</time>
      </trkpt>
      <trkpt lat="46.62772" lon="5.85288">
        <ele>774.79998779297</ele>
        <time>2019-06-17T12:33:28.000Z</time>
      </trkpt>
      <trkpt lat="46.62763" lon="5.85288">
        <ele>774.20001220703</ele>
        <time>2019-06-17T12:33:36.000Z</time>
      </trkpt>
      <trkpt lat="46.62754" lon="5.85285">
        <ele>773.40002441406</ele>
        <time>2019-06-17T12:33:44.000Z</time>
      </trkpt>
      <trkpt lat="46.62744" lon="5.85284">
        <ele>773.40002441406</ele>
        <time>2019-06-17T12:33:51.000Z</time>
      </trkpt>
      <trkpt lat="46.62734" lon="5.85282">
        <ele>772.59997558594</ele>
        <time>2019-06-17T12:33:59.000Z</time>
      </trkpt>
      <trkpt lat="46.62725" lon="5.85286">
        <ele>772</ele>
        <time>2019-06-17T12:34:10.000Z</time>
      </trkpt>
      <trkpt lat="46.62715" lon="5.85287">
        <ele>770.79998779297</ele>
        <time>2019-06-17T12:34:18.000Z</time>
      </trkpt>
      <trkpt lat="46.62708" lon="5.85297">
        <ele>769.79998779297</ele>
        <time>2019-06-17T12:34:29.000Z</time>
      </trkpt>
      <trkpt lat="46.62701" lon="5.85287">
        <ele>769.20001220703</ele>
        <time>2019-06-17T12:34:44.000Z</time>
      </trkpt>
      <trkpt lat="46.62696" lon="5.85275">
        <ele>768.79998779297</ele>
        <time>2019-06-17T12:34:52.000Z</time>
      </trkpt>
      <trkpt lat="46.62689" lon="5.85264">
        <ele>769</ele>
        <time>2019-06-17T12:35:00.000Z</time>
      </trkpt>
      <trkpt lat="46.62682" lon="5.85255">
        <ele>768.20001220703</ele>
        <time>2019-06-17T12:35:07.000Z</time>
      </trkpt>
      <trkpt lat="46.62678" lon="5.85243">
        <ele>767.79998779297</ele>
        <time>2019-06-17T12:35:15.000Z</time>
      </trkpt>
      <trkpt lat="46.62671" lon="5.85234">
        <ele>767.40002441406</ele>
        <time>2019-06-17T12:35:27.000Z</time>
      </trkpt>
      <trkpt lat="46.62665" lon="5.85223">
        <ele>767.40002441406</ele>
        <time>2019-06-17T12:35:33.000Z</time>
      </trkpt>
      <trkpt lat="46.62662" lon="5.85209">
        <ele>767</ele>
        <time>2019-06-17T12:35:41.000Z</time>
      </trkpt>
      <trkpt lat="46.62661" lon="5.85205">
        <ele>767</ele>
        <time>2019-06-17T12:35:43.000Z</time>
      </trkpt>
      <trkpt lat="46.62657" lon="5.85197">
        <ele>767</ele>
        <time>2019-06-17T12:35:50.000Z</time>
      </trkpt>
      <trkpt lat="46.62657" lon="5.85194">
        <ele>767.40002441406</ele>
        <time>2019-06-17T12:35:52.000Z</time>
      </trkpt>
      <trkpt lat="46.62655" lon="5.85192">
        <ele>767.59997558594</ele>
        <time>2019-06-17T12:35:54.000Z</time>
      </trkpt>
      <trkpt lat="46.62655" lon="5.85188">
        <ele>767.59997558594</ele>
        <time>2019-06-17T12:35:56.000Z</time>
      </trkpt>
      <trkpt lat="46.62654" lon="5.85182">
        <ele>768</ele>
        <time>2019-06-17T12:36:00.000Z</time>
      </trkpt>
      <trkpt lat="46.62656" lon="5.85168">
        <ele>766</ele>
        <time>2019-06-17T12:36:11.000Z</time>
      </trkpt>
      <trkpt lat="46.62658" lon="5.85165">
        <ele>766</ele>
        <time>2019-06-17T12:36:13.000Z</time>
      </trkpt>
      <trkpt lat="46.62663" lon="5.85159">
        <ele>765.79998779297</ele>
        <time>2019-06-17T12:36:20.000Z</time>
      </trkpt>
      <trkpt lat="46.62664" lon="5.85156">
        <ele>765.79998779297</ele>
        <time>2019-06-17T12:36:23.000Z</time>
      </trkpt>
      <trkpt lat="46.62666" lon="5.85154">
        <ele>765.79998779297</ele>
        <time>2019-06-17T12:36:26.000Z</time>
      </trkpt>
      <trkpt lat="46.62667" lon="5.8515">
        <ele>765.79998779297</ele>
        <time>2019-06-17T12:36:29.000Z</time>
      </trkpt>
      <trkpt lat="46.62668" lon="5.85148">
        <ele>765.59997558594</ele>
        <time>2019-06-17T12:36:32.000Z</time>
      </trkpt>
      <trkpt lat="46.62669" lon="5.85145">
        <ele>765.20001220703</ele>
        <time>2019-06-17T12:36:35.000Z</time>
      </trkpt>
      <trkpt lat="46.62669" lon="5.85142">
        <ele>764.59997558594</ele>
        <time>2019-06-17T12:36:42.000Z</time>
      </trkpt>
      <trkpt lat="46.62669" lon="5.85139">
        <ele>763</ele>
        <time>2019-06-17T12:36:53.000Z</time>
      </trkpt>
      <trkpt lat="46.6267" lon="5.85136">
        <ele>762.79998779297</ele>
        <time>2019-06-17T12:37:16.000Z</time>
      </trkpt>
      <trkpt lat="46.62669" lon="5.85134">
        <ele>763</ele>
        <time>2019-06-17T12:37:19.000Z</time>
      </trkpt>
      <trkpt lat="46.62669" lon="5.85131">
        <ele>763</ele>
        <time>2019-06-17T12:37:21.000Z</time>
      </trkpt>
      <trkpt lat="46.6267" lon="5.85128">
        <ele>763.20001220703</ele>
        <time>2019-06-17T12:37:25.000Z</time>
      </trkpt>
      <trkpt lat="46.62669" lon="5.85125">
        <ele>762.40002441406</ele>
        <time>2019-06-17T12:37:29.000Z</time>
      </trkpt>
      <trkpt lat="46.62671" lon="5.85124">
        <ele>762.20001220703</ele>
        <time>2019-06-17T12:37:51.000Z</time>
      </trkpt>
      <trkpt lat="46.62672" lon="5.85122">
        <ele>762.40002441406</ele>
        <time>2019-06-17T12:37:55.000Z</time>
      </trkpt>
      <trkpt lat="46.62674" lon="5.85122">
        <ele>762.40002441406</ele>
        <time>2019-06-17T12:37:59.000Z</time>
      </trkpt>
      <trkpt lat="46.62677" lon="5.85122">
        <ele>761.79998779297</ele>
        <time>2019-06-17T12:38:11.000Z</time>
      </trkpt>
      <trkpt lat="46.62678" lon="5.85125">
        <ele>761.20001220703</ele>
        <time>2019-06-17T12:38:26.000Z</time>
      </trkpt>
      <trkpt lat="46.62675" lon="5.85124">
        <ele>760.79998779297</ele>
        <time>2019-06-17T12:38:39.000Z</time>
      </trkpt>
      <trkpt lat="46.62676" lon="5.85126">
        <ele>760.40002441406</ele>
        <time>2019-06-17T12:39:40.000Z</time>
      </trkpt>
      <trkpt lat="46.62675" lon="5.85128">
        <ele>760.40002441406</ele>
        <time>2019-06-17T12:41:47.000Z</time>
      </trkpt>
      <trkpt lat="46.62674" lon="5.85126">
        <ele>760.40002441406</ele>
        <time>2019-06-17T12:42:31.000Z</time>
      </trkpt>
      <trkpt lat="46.62673" lon="5.85123">
        <ele>760.40002441406</ele>
        <time>2019-06-17T12:42:34.000Z</time>
      </trkpt>
      <trkpt lat="46.62675" lon="5.85126">
        <ele>760.40002441406</ele>
        <time>2019-06-17T12:42:44.000Z</time>
      </trkpt>
      <trkpt lat="46.62684" lon="5.85124">
        <ele>760.40002441406</ele>
        <time>2019-06-17T12:43:17.000Z</time>
      </trkpt>
      <trkpt lat="46.62684" lon="5.85127">
        <ele>760.40002441406</ele>
        <time>2019-06-17T12:44:20.000Z</time>
      </trkpt>
      <trkpt lat="46.62684" lon="5.8513">
        <ele>760.40002441406</ele>
        <time>2019-06-17T12:44:23.000Z</time>
      </trkpt>
      <trkpt lat="46.62682" lon="5.85131">
        <ele>760.40002441406</ele>
        <time>2019-06-17T12:44:30.000Z</time>
      </trkpt>
      <trkpt lat="46.62683" lon="5.85129">
        <ele>760.40002441406</ele>
        <time>2019-06-17T12:45:00.000Z</time>
      </trkpt>
      <trkpt lat="46.62682" lon="5.85129">
        <ele>760.40002441406</ele>
        <time>2019-06-17T12:45:06.000Z</time>
      </trkpt>
      <trkpt lat="46.6268" lon="5.85127">
        <ele>760.40002441406</ele>
        <time>2019-06-17T12:45:14.000Z</time>
      </trkpt>
      <trkpt lat="46.62678" lon="5.85125">
        <ele>760.40002441406</ele>
        <time>2019-06-17T12:45:53.000Z</time>
      </trkpt>
      <trkpt lat="46.62677" lon="5.85127">
        <ele>760.40002441406</ele>
        <time>2019-06-17T12:47:30.000Z</time>
      </trkpt>
      <trkpt lat="46.62677" lon="5.85124">
        <ele>760.40002441406</ele>
        <time>2019-06-17T12:47:45.000Z</time>
      </trkpt>
      <trkpt lat="46.62675" lon="5.85123">
        <ele>760.40002441406</ele>
        <time>2019-06-17T12:48:34.000Z</time>
      </trkpt>
      <trkpt lat="46.62676" lon="5.85125">
        <ele>760.40002441406</ele>
        <time>2019-06-17T12:50:38.000Z</time>
      </trkpt>
      <trkpt lat="46.62677" lon="5.85128">
        <ele>760.40002441406</ele>
        <time>2019-06-17T12:51:01.000Z</time>
      </trkpt>
      <trkpt lat="46.62677" lon="5.85131">
        <ele>760.40002441406</ele>
        <time>2019-06-17T12:51:11.000Z</time>
      </trkpt>
      <trkpt lat="46.62686" lon="5.85128">
        <ele>760.40002441406</ele>
        <time>2019-06-17T12:52:06.000Z</time>
      </trkpt>
      <trkpt lat="46.62682" lon="5.85132">
        <ele>760.40002441406</ele>
        <time>2019-06-17T12:52:56.000Z</time>
      </trkpt>
      <trkpt lat="46.62681" lon="5.85134">
        <ele>760.40002441406</ele>
        <time>2019-06-17T12:53:02.000Z</time>
      </trkpt>
      <trkpt lat="46.62679" lon="5.85133">
        <ele>760.40002441406</ele>
        <time>2019-06-17T12:53:07.000Z</time>
      </trkpt>
      <trkpt lat="46.62678" lon="5.8513">
        <ele>760.40002441406</ele>
        <time>2019-06-17T12:53:12.000Z</time>
      </trkpt>
      <trkpt lat="46.62676" lon="5.85127">
        <ele>760.40002441406</ele>
        <time>2019-06-17T12:53:23.000Z</time>
      </trkpt>
      <trkpt lat="46.62676" lon="5.85124">
        <ele>760.40002441406</ele>
        <time>2019-06-17T12:53:28.000Z</time>
      </trkpt>
      <trkpt lat="46.62677" lon="5.85127">
        <ele>760.40002441406</ele>
        <time>2019-06-17T12:54:10.000Z</time>
      </trkpt>
      <trkpt lat="46.62678" lon="5.85129">
        <ele>760.40002441406</ele>
        <time>2019-06-17T12:54:14.000Z</time>
      </trkpt>
      <trkpt lat="46.6268" lon="5.8513">
        <ele>760.40002441406</ele>
        <time>2019-06-17T12:54:24.000Z</time>
      </trkpt>
      <trkpt lat="46.62681" lon="5.85127">
        <ele>760.40002441406</ele>
        <time>2019-06-17T12:54:36.000Z</time>
      </trkpt>
      <trkpt lat="46.62679" lon="5.85132">
        <ele>760.40002441406</ele>
        <time>2019-06-17T12:55:05.000Z</time>
      </trkpt>
      <trkpt lat="46.62686" lon="5.85122">
        <ele>760.40002441406</ele>
        <time>2019-06-17T12:55:58.000Z</time>
      </trkpt>
      <trkpt lat="46.62692" lon="5.85111">
        <ele>760.40002441406</ele>
        <time>2019-06-17T12:56:07.000Z</time>
      </trkpt>
      <trkpt lat="46.62701" lon="5.85107">
        <ele>760.40002441406</ele>
        <time>2019-06-17T12:56:15.000Z</time>
      </trkpt>
      <trkpt lat="46.6271" lon="5.85101">
        <ele>760.40002441406</ele>
        <time>2019-06-17T12:56:25.000Z</time>
      </trkpt>
      <trkpt lat="46.62719" lon="5.85102">
        <ele>757.59997558594</ele>
        <time>2019-06-17T12:56:30.000Z</time>
      </trkpt>
      <trkpt lat="46.62727" lon="5.85097">
        <ele>756.79998779297</ele>
        <time>2019-06-17T12:56:39.000Z</time>
      </trkpt>
      <trkpt lat="46.62736" lon="5.85092">
        <ele>757</ele>
        <time>2019-06-17T12:56:48.000Z</time>
      </trkpt>
      <trkpt lat="46.62746" lon="5.85089">
        <ele>754.59997558594</ele>
        <time>2019-06-17T12:56:57.000Z</time>
      </trkpt>
      <trkpt lat="46.62755" lon="5.85086">
        <ele>753.79998779297</ele>
        <time>2019-06-17T12:57:04.000Z</time>
      </trkpt>
      <trkpt lat="46.62763" lon="5.85079">
        <ele>753.79998779297</ele>
        <time>2019-06-17T12:57:10.000Z</time>
      </trkpt>
      <trkpt lat="46.62771" lon="5.85076">
        <ele>753.59997558594</ele>
        <time>2019-06-17T12:57:14.000Z</time>
      </trkpt>
      <trkpt lat="46.62773" lon="5.85063">
        <ele>753.20001220703</ele>
        <time>2019-06-17T12:57:20.000Z</time>
      </trkpt>
      <trkpt lat="46.62776" lon="5.8505">
        <ele>753</ele>
        <time>2019-06-17T12:57:31.000Z</time>
      </trkpt>
      <trkpt lat="46.6278" lon="5.85037">
        <ele>752.40002441406</ele>
        <time>2019-06-17T12:57:37.000Z</time>
      </trkpt>
      <trkpt lat="46.6279" lon="5.85038">
        <ele>752.20001220703</ele>
        <time>2019-06-17T12:57:45.000Z</time>
      </trkpt>
      <trkpt lat="46.62795" lon="5.85041">
        <ele>753</ele>
        <time>2019-06-17T12:57:56.000Z</time>
      </trkpt>
      <trkpt lat="46.62795" lon="5.85036">
        <ele>753.79998779297</ele>
        <time>2019-06-17T12:58:13.000Z</time>
      </trkpt>
      <trkpt lat="46.62795" lon="5.85032">
        <ele>753.59997558594</ele>
        <time>2019-06-17T12:58:15.000Z</time>
      </trkpt>
      <trkpt lat="46.62795" lon="5.85027">
        <ele>753.40002441406</ele>
        <time>2019-06-17T12:58:18.000Z</time>
      </trkpt>
      <trkpt lat="46.62794" lon="5.85012">
        <ele>753.20001220703</ele>
        <time>2019-06-17T12:58:28.000Z</time>
      </trkpt>
      <trkpt lat="46.62795" lon="5.84998">
        <ele>751.79998779297</ele>
        <time>2019-06-17T12:58:34.000Z</time>
      </trkpt>
      <trkpt lat="46.62796" lon="5.84983">
        <ele>751</ele>
        <time>2019-06-17T12:58:42.000Z</time>
      </trkpt>
      <trkpt lat="46.62793" lon="5.8497">
        <ele>750.59997558594</ele>
        <time>2019-06-17T12:58:49.000Z</time>
      </trkpt>
      <trkpt lat="46.62789" lon="5.84958">
        <ele>750.40002441406</ele>
        <time>2019-06-17T12:58:56.000Z</time>
      </trkpt>
      <trkpt lat="46.62781" lon="5.8495">
        <ele>749.40002441406</ele>
        <time>2019-06-17T12:59:05.000Z</time>
      </trkpt>
      <trkpt lat="46.62775" lon="5.84939">
        <ele>749.20001220703</ele>
        <time>2019-06-17T12:59:13.000Z</time>
      </trkpt>
      <trkpt lat="46.6277" lon="5.84928">
        <ele>749</ele>
        <time>2019-06-17T12:59:18.000Z</time>
      </trkpt>
      <trkpt lat="46.62765" lon="5.84915">
        <ele>749.20001220703</ele>
        <time>2019-06-17T12:59:27.000Z</time>
      </trkpt>
      <trkpt lat="46.62762" lon="5.84903">
        <ele>748.59997558594</ele>
        <time>2019-06-17T12:59:35.000Z</time>
      </trkpt>
      <trkpt lat="46.62754" lon="5.84893">
        <ele>748.40002441406</ele>
        <time>2019-06-17T12:59:43.000Z</time>
      </trkpt>
      <trkpt lat="46.62747" lon="5.84881">
        <ele>748.40002441406</ele>
        <time>2019-06-17T12:59:49.000Z</time>
      </trkpt>
      <trkpt lat="46.62743" lon="5.84868">
        <ele>748.59997558594</ele>
        <time>2019-06-17T12:59:59.000Z</time>
      </trkpt>
      <trkpt lat="46.62745" lon="5.84868">
        <ele>750.40002441406</ele>
        <time>2019-06-17T13:00:21.000Z</time>
      </trkpt>
      <trkpt lat="46.62743" lon="5.84866">
        <ele>750.20001220703</ele>
        <time>2019-06-17T13:00:27.000Z</time>
      </trkpt>
      <trkpt lat="46.62742" lon="5.84864">
        <ele>749.59997558594</ele>
        <time>2019-06-17T13:00:35.000Z</time>
      </trkpt>
      <trkpt lat="46.62742" lon="5.8486">
        <ele>749.59997558594</ele>
        <time>2019-06-17T13:00:38.000Z</time>
      </trkpt>
      <trkpt lat="46.62743" lon="5.84858">
        <ele>749.79998779297</ele>
        <time>2019-06-17T13:00:41.000Z</time>
      </trkpt>
      <trkpt lat="46.62744" lon="5.84854">
        <ele>749.59997558594</ele>
        <time>2019-06-17T13:00:48.000Z</time>
      </trkpt>
      <trkpt lat="46.62744" lon="5.84851">
        <ele>749.59997558594</ele>
        <time>2019-06-17T13:00:50.000Z</time>
      </trkpt>
      <trkpt lat="46.62745" lon="5.84848">
        <ele>749.40002441406</ele>
        <time>2019-06-17T13:00:53.000Z</time>
      </trkpt>
      <trkpt lat="46.62745" lon="5.84845">
        <ele>750</ele>
        <time>2019-06-17T13:00:56.000Z</time>
      </trkpt>
      <trkpt lat="46.62745" lon="5.84842">
        <ele>749.79998779297</ele>
        <time>2019-06-17T13:00:58.000Z</time>
      </trkpt>
      <trkpt lat="46.62744" lon="5.84838">
        <ele>749.59997558594</ele>
        <time>2019-06-17T13:01:00.000Z</time>
      </trkpt>
      <trkpt lat="46.62744" lon="5.84835">
        <ele>749.59997558594</ele>
        <time>2019-06-17T13:01:02.000Z</time>
      </trkpt>
      <trkpt lat="46.62743" lon="5.84832">
        <ele>749.20001220703</ele>
        <time>2019-06-17T13:01:04.000Z</time>
      </trkpt>
      <trkpt lat="46.62743" lon="5.84829">
        <ele>748.79998779297</ele>
        <time>2019-06-17T13:01:06.000Z</time>
      </trkpt>
      <trkpt lat="46.62742" lon="5.84823">
        <ele>748.79998779297</ele>
        <time>2019-06-17T13:01:09.000Z</time>
      </trkpt>
      <trkpt lat="46.6274" lon="5.84811">
        <ele>749</ele>
        <time>2019-06-17T13:01:17.000Z</time>
      </trkpt>
      <trkpt lat="46.62737" lon="5.84798">
        <ele>749.20001220703</ele>
        <time>2019-06-17T13:01:24.000Z</time>
      </trkpt>
      <trkpt lat="46.62734" lon="5.84785">
        <ele>748.79998779297</ele>
        <time>2019-06-17T13:01:32.000Z</time>
      </trkpt>
      <trkpt lat="46.6273" lon="5.8477">
        <ele>749</ele>
        <time>2019-06-17T13:01:39.000Z</time>
      </trkpt>
      <trkpt lat="46.62724" lon="5.84759">
        <ele>749</ele>
        <time>2019-06-17T13:01:46.000Z</time>
      </trkpt>
      <trkpt lat="46.62719" lon="5.84748">
        <ele>749</ele>
        <time>2019-06-17T13:01:56.000Z</time>
      </trkpt>
      <trkpt lat="46.62713" lon="5.84737">
        <ele>749</ele>
        <time>2019-06-17T13:02:04.000Z</time>
      </trkpt>
      <trkpt lat="46.62707" lon="5.84726">
        <ele>749</ele>
        <time>2019-06-17T13:02:11.000Z</time>
      </trkpt>
      <trkpt lat="46.62702" lon="5.84715">
        <ele>749</ele>
        <time>2019-06-17T13:02:18.000Z</time>
      </trkpt>
      <trkpt lat="46.62696" lon="5.84705">
        <ele>749</ele>
        <time>2019-06-17T13:02:24.000Z</time>
      </trkpt>
      <trkpt lat="46.62689" lon="5.84695">
        <ele>749</ele>
        <time>2019-06-17T13:02:32.000Z</time>
      </trkpt>
      <trkpt lat="46.6268" lon="5.84688">
        <ele>749</ele>
        <time>2019-06-17T13:02:40.000Z</time>
      </trkpt>
      <trkpt lat="46.62672" lon="5.84678">
        <ele>749</ele>
        <time>2019-06-17T13:02:48.000Z</time>
      </trkpt>
      <trkpt lat="46.62666" lon="5.84667">
        <ele>749</ele>
        <time>2019-06-17T13:02:57.000Z</time>
      </trkpt>
      <trkpt lat="46.62659" lon="5.84656">
        <ele>749</ele>
        <time>2019-06-17T13:03:04.000Z</time>
      </trkpt>
      <trkpt lat="46.62653" lon="5.84644">
        <ele>749</ele>
        <time>2019-06-17T13:03:09.000Z</time>
      </trkpt>
      <trkpt lat="46.62646" lon="5.84633">
        <ele>749</ele>
        <time>2019-06-17T13:03:16.000Z</time>
      </trkpt>
      <trkpt lat="46.62641" lon="5.84622">
        <ele>749</ele>
        <time>2019-06-17T13:03:21.000Z</time>
      </trkpt>
      <trkpt lat="46.62636" lon="5.8461">
        <ele>749</ele>
        <time>2019-06-17T13:03:27.000Z</time>
      </trkpt>
      <trkpt lat="46.62633" lon="5.84598">
        <ele>749</ele>
        <time>2019-06-17T13:03:37.000Z</time>
      </trkpt>
      <trkpt lat="46.62629" lon="5.84586">
        <ele>749</ele>
        <time>2019-06-17T13:03:46.000Z</time>
      </trkpt>
      <trkpt lat="46.62627" lon="5.84572">
        <ele>749</ele>
        <time>2019-06-17T13:03:55.000Z</time>
      </trkpt>
      <trkpt lat="46.62626" lon="5.84557">
        <ele>749</ele>
        <time>2019-06-17T13:04:04.000Z</time>
      </trkpt>
      <trkpt lat="46.62624" lon="5.84544">
        <ele>749</ele>
        <time>2019-06-17T13:04:10.000Z</time>
      </trkpt>
      <trkpt lat="46.62626" lon="5.84531">
        <ele>749</ele>
        <time>2019-06-17T13:04:17.000Z</time>
      </trkpt>
      <trkpt lat="46.62623" lon="5.84518">
        <ele>749</ele>
        <time>2019-06-17T13:04:26.000Z</time>
      </trkpt>
      <trkpt lat="46.62622" lon="5.84503">
        <ele>749</ele>
        <time>2019-06-17T13:04:37.000Z</time>
      </trkpt>
      <trkpt lat="46.62624" lon="5.84489">
        <ele>749</ele>
        <time>2019-06-17T13:04:46.000Z</time>
      </trkpt>
      <trkpt lat="46.62621" lon="5.84475">
        <ele>753</ele>
        <time>2019-06-17T13:04:53.000Z</time>
      </trkpt>
      <trkpt lat="46.62618" lon="5.84463">
        <ele>753.20001220703</ele>
        <time>2019-06-17T13:04:59.000Z</time>
      </trkpt>
      <trkpt lat="46.62614" lon="5.84449">
        <ele>753.59997558594</ele>
        <time>2019-06-17T13:05:06.000Z</time>
      </trkpt>
      <trkpt lat="46.62614" lon="5.84436">
        <ele>753.79998779297</ele>
        <time>2019-06-17T13:05:13.000Z</time>
      </trkpt>
      <trkpt lat="46.62613" lon="5.84423">
        <ele>754</ele>
        <time>2019-06-17T13:05:19.000Z</time>
      </trkpt>
      <trkpt lat="46.62612" lon="5.8441">
        <ele>754.20001220703</ele>
        <time>2019-06-17T13:05:27.000Z</time>
      </trkpt>
      <trkpt lat="46.62612" lon="5.84396">
        <ele>755</ele>
        <time>2019-06-17T13:05:37.000Z</time>
      </trkpt>
      <trkpt lat="46.62611" lon="5.84383">
        <ele>755.40002441406</ele>
        <time>2019-06-17T13:05:43.000Z</time>
      </trkpt>
      <trkpt lat="46.62608" lon="5.84369">
        <ele>755.20001220703</ele>
        <time>2019-06-17T13:05:49.000Z</time>
      </trkpt>
      <trkpt lat="46.62603" lon="5.84357">
        <ele>755.40002441406</ele>
        <time>2019-06-17T13:05:55.000Z</time>
      </trkpt>
      <trkpt lat="46.62598" lon="5.84344">
        <ele>755.20001220703</ele>
        <time>2019-06-17T13:06:02.000Z</time>
      </trkpt>
      <trkpt lat="46.62601" lon="5.8433">
        <ele>755.20001220703</ele>
        <time>2019-06-17T13:06:09.000Z</time>
      </trkpt>
      <trkpt lat="46.626" lon="5.84317">
        <ele>755.40002441406</ele>
        <time>2019-06-17T13:06:16.000Z</time>
      </trkpt>
      <trkpt lat="46.62602" lon="5.84304">
        <ele>755.59997558594</ele>
        <time>2019-06-17T13:06:22.000Z</time>
      </trkpt>
      <trkpt lat="46.62602" lon="5.8429">
        <ele>755.79998779297</ele>
        <time>2019-06-17T13:06:29.000Z</time>
      </trkpt>
      <trkpt lat="46.626" lon="5.84276">
        <ele>755.59997558594</ele>
        <time>2019-06-17T13:06:36.000Z</time>
      </trkpt>
      <trkpt lat="46.62596" lon="5.84264">
        <ele>756</ele>
        <time>2019-06-17T13:06:42.000Z</time>
      </trkpt>
      <trkpt lat="46.62593" lon="5.84251">
        <ele>756.20001220703</ele>
        <time>2019-06-17T13:06:51.000Z</time>
      </trkpt>
      <trkpt lat="46.62589" lon="5.84238">
        <ele>756.40002441406</ele>
        <time>2019-06-17T13:06:58.000Z</time>
      </trkpt>
      <trkpt lat="46.62588" lon="5.84225">
        <ele>756.59997558594</ele>
        <time>2019-06-17T13:07:06.000Z</time>
      </trkpt>
      <trkpt lat="46.62586" lon="5.84212">
        <ele>756.59997558594</ele>
        <time>2019-06-17T13:07:16.000Z</time>
      </trkpt>
      <trkpt lat="46.62586" lon="5.84199">
        <ele>756.40002441406</ele>
        <time>2019-06-17T13:07:23.000Z</time>
      </trkpt>
      <trkpt lat="46.6258" lon="5.84189">
        <ele>756.59997558594</ele>
        <time>2019-06-17T13:07:30.000Z</time>
      </trkpt>
      <trkpt lat="46.62574" lon="5.84177">
        <ele>757.20001220703</ele>
        <time>2019-06-17T13:07:38.000Z</time>
      </trkpt>
      <trkpt lat="46.62567" lon="5.84166">
        <ele>757.79998779297</ele>
        <time>2019-06-17T13:07:47.000Z</time>
      </trkpt>
      <trkpt lat="46.62561" lon="5.84155">
        <ele>757.79998779297</ele>
        <time>2019-06-17T13:07:55.000Z</time>
      </trkpt>
      <trkpt lat="46.62554" lon="5.84144">
        <ele>757.79998779297</ele>
        <time>2019-06-17T13:08:02.000Z</time>
      </trkpt>
      <trkpt lat="46.62547" lon="5.84133">
        <ele>757.79998779297</ele>
        <time>2019-06-17T13:08:15.000Z</time>
      </trkpt>
      <trkpt lat="46.62543" lon="5.84119">
        <ele>757.79998779297</ele>
        <time>2019-06-17T13:08:20.000Z</time>
      </trkpt>
      <trkpt lat="46.62537" lon="5.84108">
        <ele>757.79998779297</ele>
        <time>2019-06-17T13:08:25.000Z</time>
      </trkpt>
      <trkpt lat="46.62532" lon="5.84095">
        <ele>757.79998779297</ele>
        <time>2019-06-17T13:08:35.000Z</time>
      </trkpt>
      <trkpt lat="46.62528" lon="5.84082">
        <ele>757.79998779297</ele>
        <time>2019-06-17T13:08:43.000Z</time>
      </trkpt>
      <trkpt lat="46.62525" lon="5.84069">
        <ele>757.79998779297</ele>
        <time>2019-06-17T13:08:51.000Z</time>
      </trkpt>
      <trkpt lat="46.6252" lon="5.84057">
        <ele>757.79998779297</ele>
        <time>2019-06-17T13:08:59.000Z</time>
      </trkpt>
      <trkpt lat="46.62515" lon="5.84044">
        <ele>757.79998779297</ele>
        <time>2019-06-17T13:09:07.000Z</time>
      </trkpt>
      <trkpt lat="46.62509" lon="5.84032">
        <ele>757.79998779297</ele>
        <time>2019-06-17T13:09:13.000Z</time>
      </trkpt>
      <trkpt lat="46.62503" lon="5.84021">
        <ele>757.79998779297</ele>
        <time>2019-06-17T13:09:19.000Z</time>
      </trkpt>
      <trkpt lat="46.62503" lon="5.84006">
        <ele>757.79998779297</ele>
        <time>2019-06-17T13:09:26.000Z</time>
      </trkpt>
      <trkpt lat="46.62497" lon="5.83996">
        <ele>752.79998779297</ele>
        <time>2019-06-17T13:09:32.000Z</time>
      </trkpt>
      <trkpt lat="46.62492" lon="5.83983">
        <ele>752.79998779297</ele>
        <time>2019-06-17T13:09:41.000Z</time>
      </trkpt>
      <trkpt lat="46.62487" lon="5.83971">
        <ele>752.59997558594</ele>
        <time>2019-06-17T13:09:46.000Z</time>
      </trkpt>
      <trkpt lat="46.62481" lon="5.8396">
        <ele>752.20001220703</ele>
        <time>2019-06-17T13:09:51.000Z</time>
      </trkpt>
      <trkpt lat="46.62474" lon="5.83953">
        <ele>752.40002441406</ele>
        <time>2019-06-17T13:09:55.000Z</time>
      </trkpt>
      <trkpt lat="46.62468" lon="5.83941">
        <ele>752</ele>
        <time>2019-06-17T13:10:03.000Z</time>
      </trkpt>
      <trkpt lat="46.62468" lon="5.83926">
        <ele>751.79998779297</ele>
        <time>2019-06-17T13:10:13.000Z</time>
      </trkpt>
      <trkpt lat="46.62465" lon="5.83913">
        <ele>751</ele>
        <time>2019-06-17T13:10:26.000Z</time>
      </trkpt>
      <trkpt lat="46.62459" lon="5.83903">
        <ele>750.79998779297</ele>
        <time>2019-06-17T13:10:32.000Z</time>
      </trkpt>
      <trkpt lat="46.62454" lon="5.83891">
        <ele>750.59997558594</ele>
        <time>2019-06-17T13:10:38.000Z</time>
      </trkpt>
      <trkpt lat="46.62447" lon="5.83881">
        <ele>750.59997558594</ele>
        <time>2019-06-17T13:10:45.000Z</time>
      </trkpt>
      <trkpt lat="46.62439" lon="5.83872">
        <ele>750.20001220703</ele>
        <time>2019-06-17T13:10:55.000Z</time>
      </trkpt>
      <trkpt lat="46.62431" lon="5.83861">
        <ele>750</ele>
        <time>2019-06-17T13:11:03.000Z</time>
      </trkpt>
      <trkpt lat="46.62424" lon="5.83851">
        <ele>750.20001220703</ele>
        <time>2019-06-17T13:11:09.000Z</time>
      </trkpt>
      <trkpt lat="46.6242" lon="5.83837">
        <ele>749.79998779297</ele>
        <time>2019-06-17T13:11:16.000Z</time>
      </trkpt>
      <trkpt lat="46.62413" lon="5.83826">
        <ele>749.59997558594</ele>
        <time>2019-06-17T13:11:25.000Z</time>
      </trkpt>
      <trkpt lat="46.62406" lon="5.83818">
        <ele>749.59997558594</ele>
        <time>2019-06-17T13:11:31.000Z</time>
      </trkpt>
      <trkpt lat="46.62401" lon="5.83806">
        <ele>749.40002441406</ele>
        <time>2019-06-17T13:11:37.000Z</time>
      </trkpt>
      <trkpt lat="46.62399" lon="5.83792">
        <ele>749.20001220703</ele>
        <time>2019-06-17T13:11:44.000Z</time>
      </trkpt>
      <trkpt lat="46.62398" lon="5.83775">
        <ele>749.20001220703</ele>
        <time>2019-06-17T13:11:48.000Z</time>
      </trkpt>
      <trkpt lat="46.62399" lon="5.8376">
        <ele>749</ele>
        <time>2019-06-17T13:11:53.000Z</time>
      </trkpt>
      <trkpt lat="46.62402" lon="5.83747">
        <ele>748.79998779297</ele>
        <time>2019-06-17T13:11:57.000Z</time>
      </trkpt>
      <trkpt lat="46.62402" lon="5.83733">
        <ele>748.40002441406</ele>
        <time>2019-06-17T13:12:03.000Z</time>
      </trkpt>
      <trkpt lat="46.62404" lon="5.83719">
        <ele>748.20001220703</ele>
        <time>2019-06-17T13:12:10.000Z</time>
      </trkpt>
      <trkpt lat="46.62405" lon="5.83706">
        <ele>747.60017507895</ele>
        <time>2019-06-17T13:12:19.000Z</time>
      </trkpt>
      <trkpt lat="46.62408" lon="5.83692">
        <ele>747.59997558594</ele>
        <time>2019-06-17T13:12:27.000Z</time>
      </trkpt>
      <trkpt lat="46.62407" lon="5.83677">
        <ele>747.20001220703</ele>
        <time>2019-06-17T13:12:35.000Z</time>
      </trkpt>
      <trkpt lat="46.62408" lon="5.83663">
        <ele>747</ele>
        <time>2019-06-17T13:12:42.000Z</time>
      </trkpt>
      <trkpt lat="46.62409" lon="5.83649">
        <ele>746.59997558594</ele>
        <time>2019-06-17T13:12:49.000Z</time>
      </trkpt>
      <trkpt lat="46.62409" lon="5.83636">
        <ele>746.40002441406</ele>
        <time>2019-06-17T13:12:56.000Z</time>
      </trkpt>
      <trkpt lat="46.6241" lon="5.83621">
        <ele>746.20001220703</ele>
        <time>2019-06-17T13:13:04.000Z</time>
      </trkpt>
      <trkpt lat="46.62413" lon="5.83608">
        <ele>746</ele>
        <time>2019-06-17T13:13:13.000Z</time>
      </trkpt>
      <trkpt lat="46.62417" lon="5.83595">
        <ele>745.59997558594</ele>
        <time>2019-06-17T13:13:22.000Z</time>
      </trkpt>
      <trkpt lat="46.6242" lon="5.83581">
        <ele>745</ele>
        <time>2019-06-17T13:13:30.000Z</time>
      </trkpt>
      <trkpt lat="46.62423" lon="5.83569">
        <ele>744.20001220703</ele>
        <time>2019-06-17T13:13:39.000Z</time>
      </trkpt>
      <trkpt lat="46.62424" lon="5.83554">
        <ele>744.20001220703</ele>
        <time>2019-06-17T13:13:46.000Z</time>
      </trkpt>
      <trkpt lat="46.62425" lon="5.83541">
        <ele>743.79998779297</ele>
        <time>2019-06-17T13:13:53.000Z</time>
      </trkpt>
      <trkpt lat="46.62428" lon="5.83527">
        <ele>743.40002441406</ele>
        <time>2019-06-17T13:14:00.000Z</time>
      </trkpt>
      <trkpt lat="46.62434" lon="5.83516">
        <ele>742.79998779297</ele>
        <time>2019-06-17T13:14:08.000Z</time>
      </trkpt>
      <trkpt lat="46.62433" lon="5.83502">
        <ele>742.59997558594</ele>
        <time>2019-06-17T13:14:16.000Z</time>
      </trkpt>
      <trkpt lat="46.62433" lon="5.83489">
        <ele>742.40002441406</ele>
        <time>2019-06-17T13:14:23.000Z</time>
      </trkpt>
      <trkpt lat="46.62432" lon="5.83474">
        <ele>741.79998779297</ele>
        <time>2019-06-17T13:14:30.000Z</time>
      </trkpt>
      <trkpt lat="46.62432" lon="5.83461">
        <ele>741.59997558594</ele>
        <time>2019-06-17T13:14:36.000Z</time>
      </trkpt>
      <trkpt lat="46.62433" lon="5.83445">
        <ele>740.59997558594</ele>
        <time>2019-06-17T13:14:44.000Z</time>
      </trkpt>
      <trkpt lat="46.62435" lon="5.83432">
        <ele>740.59997558594</ele>
        <time>2019-06-17T13:14:53.000Z</time>
      </trkpt>
      <trkpt lat="46.62436" lon="5.83419">
        <ele>739.79998779297</ele>
        <time>2019-06-17T13:15:01.000Z</time>
      </trkpt>
      <trkpt lat="46.62437" lon="5.83405">
        <ele>740</ele>
        <time>2019-06-17T13:15:09.000Z</time>
      </trkpt>
      <trkpt lat="46.62438" lon="5.83391">
        <ele>739.20001220703</ele>
        <time>2019-06-17T13:15:17.000Z</time>
      </trkpt>
      <trkpt lat="46.62444" lon="5.83379">
        <ele>738.79998779297</ele>
        <time>2019-06-17T13:15:25.000Z</time>
      </trkpt>
      <trkpt lat="46.62447" lon="5.83365">
        <ele>738.59997558594</ele>
        <time>2019-06-17T13:15:32.000Z</time>
      </trkpt>
      <trkpt lat="46.62449" lon="5.83351">
        <ele>738.59997558594</ele>
        <time>2019-06-17T13:15:40.000Z</time>
      </trkpt>
      <trkpt lat="46.62453" lon="5.83337">
        <ele>738</ele>
        <time>2019-06-17T13:15:47.000Z</time>
      </trkpt>
      <trkpt lat="46.62458" lon="5.83325">
        <ele>737.79998779297</ele>
        <time>2019-06-17T13:15:54.000Z</time>
      </trkpt>
      <trkpt lat="46.62465" lon="5.83317">
        <ele>737.59997558594</ele>
        <time>2019-06-17T13:16:01.000Z</time>
      </trkpt>
      <trkpt lat="46.62472" lon="5.83307">
        <ele>737.40002441406</ele>
        <time>2019-06-17T13:16:09.000Z</time>
      </trkpt>
      <trkpt lat="46.62478" lon="5.83296">
        <ele>737</ele>
        <time>2019-06-17T13:16:16.000Z</time>
      </trkpt>
      <trkpt lat="46.62481" lon="5.83283">
        <ele>737.40002441406</ele>
        <time>2019-06-17T13:16:22.000Z</time>
      </trkpt>
      <trkpt lat="46.62484" lon="5.8327">
        <ele>737.59997558594</ele>
        <time>2019-06-17T13:16:29.000Z</time>
      </trkpt>
      <trkpt lat="46.62482" lon="5.83255">
        <ele>737.79998779297</ele>
        <time>2019-06-17T13:16:36.000Z</time>
      </trkpt>
      <trkpt lat="46.62478" lon="5.83243">
        <ele>737.20001220703</ele>
        <time>2019-06-17T13:16:45.000Z</time>
      </trkpt>
      <trkpt lat="46.62471" lon="5.83233">
        <ele>736</ele>
        <time>2019-06-17T13:16:53.000Z</time>
      </trkpt>
      <trkpt lat="46.62465" lon="5.83222">
        <ele>735.59997558594</ele>
        <time>2019-06-17T13:16:59.000Z</time>
      </trkpt>
      <trkpt lat="46.62458" lon="5.83212">
        <ele>734.59997558594</ele>
        <time>2019-06-17T13:17:07.000Z</time>
      </trkpt>
      <trkpt lat="46.62452" lon="5.83201">
        <ele>734.40002441406</ele>
        <time>2019-06-17T13:17:16.000Z</time>
      </trkpt>
      <trkpt lat="46.62447" lon="5.83188">
        <ele>734.20001220703</ele>
        <time>2019-06-17T13:17:24.000Z</time>
      </trkpt>
      <trkpt lat="46.62445" lon="5.83175">
        <ele>734.20001220703</ele>
        <time>2019-06-17T13:17:30.000Z</time>
      </trkpt>
      <trkpt lat="46.62443" lon="5.83161">
        <ele>733.59997558594</ele>
        <time>2019-06-17T13:17:39.000Z</time>
      </trkpt>
      <trkpt lat="46.62441" lon="5.83147">
        <ele>733.20001220703</ele>
        <time>2019-06-17T13:17:46.000Z</time>
      </trkpt>
      <trkpt lat="46.6244" lon="5.83135">
        <ele>732.79998779297</ele>
        <time>2019-06-17T13:17:52.000Z</time>
      </trkpt>
      <trkpt lat="46.62439" lon="5.83132">
        <ele>733</ele>
        <time>2019-06-17T13:17:54.000Z</time>
      </trkpt>
      <trkpt lat="46.62434" lon="5.83119">
        <ele>733.20001220703</ele>
        <time>2019-06-17T13:18:01.000Z</time>
      </trkpt>
      <trkpt lat="46.62432" lon="5.83106">
        <ele>732.20001220703</ele>
        <time>2019-06-17T13:18:10.000Z</time>
      </trkpt>
      <trkpt lat="46.62432" lon="5.83092">
        <ele>731.59997558594</ele>
        <time>2019-06-17T13:18:17.000Z</time>
      </trkpt>
      <trkpt lat="46.6243" lon="5.83079">
        <ele>730.59997558594</ele>
        <time>2019-06-17T13:18:49.000Z</time>
      </trkpt>
      <trkpt lat="46.62429" lon="5.83076">
        <ele>730.40002441406</ele>
        <time>2019-06-17T13:18:51.000Z</time>
      </trkpt>
      <trkpt lat="46.62425" lon="5.83063">
        <ele>730.79998779297</ele>
        <time>2019-06-17T13:18:59.000Z</time>
      </trkpt>
      <trkpt lat="46.6242" lon="5.8305">
        <ele>732</ele>
        <time>2019-06-17T13:19:08.000Z</time>
      </trkpt>
      <trkpt lat="46.62418" lon="5.83037">
        <ele>730.79998779297</ele>
        <time>2019-06-17T13:19:17.000Z</time>
      </trkpt>
      <trkpt lat="46.62416" lon="5.83022">
        <ele>730.59997558594</ele>
        <time>2019-06-17T13:19:24.000Z</time>
      </trkpt>
      <trkpt lat="46.62415" lon="5.83006">
        <ele>730.20001220703</ele>
        <time>2019-06-17T13:19:31.000Z</time>
      </trkpt>
      <trkpt lat="46.62415" lon="5.82992">
        <ele>730.79998779297</ele>
        <time>2019-06-17T13:19:37.000Z</time>
      </trkpt>
      <trkpt lat="46.62418" lon="5.82978">
        <ele>730</ele>
        <time>2019-06-17T13:19:45.000Z</time>
      </trkpt>
      <trkpt lat="46.62418" lon="5.82963">
        <ele>729.20001220703</ele>
        <time>2019-06-17T13:19:53.000Z</time>
      </trkpt>
      <trkpt lat="46.62419" lon="5.82949">
        <ele>729</ele>
        <time>2019-06-17T13:20:00.000Z</time>
      </trkpt>
      <trkpt lat="46.62418" lon="5.82935">
        <ele>728.20001220703</ele>
        <time>2019-06-17T13:20:09.000Z</time>
      </trkpt>
      <trkpt lat="46.62415" lon="5.82922">
        <ele>727.40002441406</ele>
        <time>2019-06-17T13:20:18.000Z</time>
      </trkpt>
      <trkpt lat="46.62406" lon="5.82918">
        <ele>727</ele>
        <time>2019-06-17T13:20:26.000Z</time>
      </trkpt>
      <trkpt lat="46.62397" lon="5.82911">
        <ele>726.40002441406</ele>
        <time>2019-06-17T13:20:33.000Z</time>
      </trkpt>
      <trkpt lat="46.62388" lon="5.82907">
        <ele>727</ele>
        <time>2019-06-17T13:20:40.000Z</time>
      </trkpt>
      <trkpt lat="46.6238" lon="5.82903">
        <ele>727.79998779297</ele>
        <time>2019-06-17T13:20:48.000Z</time>
      </trkpt>
      <trkpt lat="46.62371" lon="5.82898">
        <ele>728.20001220703</ele>
        <time>2019-06-17T13:20:56.000Z</time>
      </trkpt>
      <trkpt lat="46.62362" lon="5.82893">
        <ele>728.79998779297</ele>
        <time>2019-06-17T13:21:03.000Z</time>
      </trkpt>
      <trkpt lat="46.62353" lon="5.82891">
        <ele>729.20001220703</ele>
        <time>2019-06-17T13:21:11.000Z</time>
      </trkpt>
      <trkpt lat="46.62344" lon="5.82887">
        <ele>729.79998779297</ele>
        <time>2019-06-17T13:21:19.000Z</time>
      </trkpt>
      <trkpt lat="46.6234" lon="5.82893">
        <ele>731</ele>
        <time>2019-06-17T13:21:31.000Z</time>
      </trkpt>
      <trkpt lat="46.62339" lon="5.82892">
        <ele>732.40002441406</ele>
        <time>2019-06-17T13:21:46.000Z</time>
      </trkpt>
      <trkpt lat="46.62337" lon="5.82894">
        <ele>733.59997558594</ele>
        <time>2019-06-17T13:21:56.000Z</time>
      </trkpt>
      <trkpt lat="46.62335" lon="5.82895">
        <ele>733.40002441406</ele>
        <time>2019-06-17T13:21:59.000Z</time>
      </trkpt>
      <trkpt lat="46.62334" lon="5.82897">
        <ele>733.20001220703</ele>
        <time>2019-06-17T13:22:03.000Z</time>
      </trkpt>
      <trkpt lat="46.62335" lon="5.82899">
        <ele>732</ele>
        <time>2019-06-17T13:22:25.000Z</time>
      </trkpt>
      <trkpt lat="46.62333" lon="5.82899">
        <ele>732.20001220703</ele>
        <time>2019-06-17T13:22:35.000Z</time>
      </trkpt>
      <trkpt lat="46.62332" lon="5.82896">
        <ele>732.59997558594</ele>
        <time>2019-06-17T13:22:38.000Z</time>
      </trkpt>
      <trkpt lat="46.62334" lon="5.82898">
        <ele>733.20001220703</ele>
        <time>2019-06-17T13:22:40.000Z</time>
      </trkpt>
      <trkpt lat="46.62329" lon="5.82897">
        <ele>733.40002441406</ele>
        <time>2019-06-17T13:23:02.000Z</time>
      </trkpt>
      <trkpt lat="46.62326" lon="5.82896">
        <ele>733.20001220703</ele>
        <time>2019-06-17T13:23:04.000Z</time>
      </trkpt>
      <trkpt lat="46.62324" lon="5.82895">
        <ele>733</ele>
        <time>2019-06-17T13:23:06.000Z</time>
      </trkpt>
      <trkpt lat="46.62322" lon="5.82895">
        <ele>733.40002441406</ele>
        <time>2019-06-17T13:23:08.000Z</time>
      </trkpt>
      <trkpt lat="46.62319" lon="5.82895">
        <ele>733</ele>
        <time>2019-06-17T13:23:10.000Z</time>
      </trkpt>
      <trkpt lat="46.62317" lon="5.82895">
        <ele>732.79998779297</ele>
        <time>2019-06-17T13:23:12.000Z</time>
      </trkpt>
      <trkpt lat="46.62314" lon="5.82896">
        <ele>732.59997558594</ele>
        <time>2019-06-17T13:23:14.000Z</time>
      </trkpt>
      <trkpt lat="46.62304" lon="5.82899">
        <ele>732.40002441406</ele>
        <time>2019-06-17T13:23:23.000Z</time>
      </trkpt>
      <trkpt lat="46.623" lon="5.82902">
        <ele>732</ele>
        <time>2019-06-17T13:23:27.000Z</time>
      </trkpt>
      <trkpt lat="46.62298" lon="5.82904">
        <ele>732</ele>
        <time>2019-06-17T13:23:29.000Z</time>
      </trkpt>
      <trkpt lat="46.62289" lon="5.82909">
        <ele>732.20001220703</ele>
        <time>2019-06-17T13:23:36.000Z</time>
      </trkpt>
      <trkpt lat="46.62283" lon="5.82914">
        <ele>732.20001220703</ele>
        <time>2019-06-17T13:23:41.000Z</time>
      </trkpt>
      <trkpt lat="46.6228" lon="5.82915">
        <ele>732.20001220703</ele>
        <time>2019-06-17T13:23:43.000Z</time>
      </trkpt>
      <trkpt lat="46.62278" lon="5.82917">
        <ele>732.20001220703</ele>
        <time>2019-06-17T13:23:45.000Z</time>
      </trkpt>
      <trkpt lat="46.62276" lon="5.82918">
        <ele>732.40002441406</ele>
        <time>2019-06-17T13:23:47.000Z</time>
      </trkpt>
      <trkpt lat="46.62274" lon="5.8292">
        <ele>732.20001220703</ele>
        <time>2019-06-17T13:23:49.000Z</time>
      </trkpt>
      <trkpt lat="46.62272" lon="5.82922">
        <ele>732.59997558594</ele>
        <time>2019-06-17T13:23:51.000Z</time>
      </trkpt>
      <trkpt lat="46.62266" lon="5.82926">
        <ele>733.20001220703</ele>
        <time>2019-06-17T13:23:56.000Z</time>
      </trkpt>
      <trkpt lat="46.62264" lon="5.82928">
        <ele>733</ele>
        <time>2019-06-17T13:23:58.000Z</time>
      </trkpt>
      <trkpt lat="46.62261" lon="5.8293">
        <ele>733.40002441406</ele>
        <time>2019-06-17T13:24:01.000Z</time>
      </trkpt>
      <trkpt lat="46.62258" lon="5.82932">
        <ele>733.59997558594</ele>
        <time>2019-06-17T13:24:04.000Z</time>
      </trkpt>
      <trkpt lat="46.62253" lon="5.82935">
        <ele>733.79998779297</ele>
        <time>2019-06-17T13:24:09.000Z</time>
      </trkpt>
      <trkpt lat="46.62245" lon="5.82942">
        <ele>733.40002441406</ele>
        <time>2019-06-17T13:24:16.000Z</time>
      </trkpt>
      <trkpt lat="46.62238" lon="5.82953">
        <ele>733.59997558594</ele>
        <time>2019-06-17T13:24:24.000Z</time>
      </trkpt>
      <trkpt lat="46.62234" lon="5.82956">
        <ele>733.59997558594</ele>
        <time>2019-06-17T13:24:29.000Z</time>
      </trkpt>
    </trkseg>
  </trk>
</gpx>